<?xml version="1.0" encoding="UTF-8" standalone="no" ?>
<gpx xmlns="http://www.topografix.com/GPX/1/1" xmlns:xsi="http://www.w3.org/2001/XMLSchema-instance" xsi:schemaLocation="http://www.topografix.com/GPX/1/1 http://www.topografix.com/GPX/1/1/gpx.xsd" version="1.1" creator="VisuGPX - https://www.visugpx.com">
  <metadata>
    <name>Trail Pollyonnais </name>
    <desc><![CDATA[Trail Pollyonnais 
]]></desc>
  </metadata>
  <trk>
    <name><![CDATA[Track_2013_04_18_12_17_36]]></name>
    <trkseg>
      <trkpt lat="45.76688" lon="4.65123">
        <ele>496.5</ele>
        <time>2013-04-18T10:17:36.000Z</time>
      </trkpt>
      <trkpt lat="45.7669" lon="4.65121">
        <ele>481.6</ele>
        <time>2013-04-18T10:17:37.610Z</time>
      </trkpt>
      <trkpt lat="45.76691" lon="4.6512">
        <ele>481.6</ele>
        <time>2013-04-18T10:17:38.690Z</time>
      </trkpt>
      <trkpt lat="45.76692" lon="4.65119">
        <ele>481.7</ele>
        <time>2013-04-18T10:17:39.610Z</time>
      </trkpt>
      <trkpt lat="45.76693" lon="4.65118">
        <ele>481.7</ele>
        <time>2013-04-18T10:17:40.730Z</time>
      </trkpt>
      <trkpt lat="45.76694" lon="4.65116">
        <ele>481.8</ele>
        <time>2013-04-18T10:17:41.850Z</time>
      </trkpt>
      <trkpt lat="45.76696" lon="4.65113">
        <ele>481.8</ele>
        <time>2013-04-18T10:17:43.610Z</time>
      </trkpt>
      <trkpt lat="45.76697" lon="4.6511">
        <ele>481.9</ele>
        <time>2013-04-18T10:17:44.610Z</time>
      </trkpt>
      <trkpt lat="45.76698" lon="4.65108">
        <ele>481.9</ele>
        <time>2013-04-18T10:17:45.700Z</time>
      </trkpt>
      <trkpt lat="45.76699" lon="4.65106">
        <ele>481.9</ele>
        <time>2013-04-18T10:17:46.710Z</time>
      </trkpt>
      <trkpt lat="45.76699" lon="4.65104">
        <ele>482</ele>
        <time>2013-04-18T10:17:47.710Z</time>
      </trkpt>
      <trkpt lat="45.767" lon="4.65101">
        <ele>482</ele>
        <time>2013-04-18T10:17:48.710Z</time>
      </trkpt>
      <trkpt lat="45.767" lon="4.65098">
        <ele>482.1</ele>
        <time>2013-04-18T10:17:49.690Z</time>
      </trkpt>
      <trkpt lat="45.76701" lon="4.65092">
        <ele>482</ele>
        <time>2013-04-18T10:17:51.600Z</time>
      </trkpt>
      <trkpt lat="45.76702" lon="4.65089">
        <ele>482</ele>
        <time>2013-04-18T10:17:52.600Z</time>
      </trkpt>
      <trkpt lat="45.76702" lon="4.65086">
        <ele>482</ele>
        <time>2013-04-18T10:17:53.600Z</time>
      </trkpt>
      <trkpt lat="45.76703" lon="4.65082">
        <ele>481.7</ele>
        <time>2013-04-18T10:17:54.600Z</time>
      </trkpt>
      <trkpt lat="45.76704" lon="4.65079">
        <ele>481.4</ele>
        <time>2013-04-18T10:17:55.600Z</time>
      </trkpt>
      <trkpt lat="45.76704" lon="4.65076">
        <ele>481.1</ele>
        <time>2013-04-18T10:17:56.600Z</time>
      </trkpt>
      <trkpt lat="45.76704" lon="4.65073">
        <ele>480.8</ele>
        <time>2013-04-18T10:17:57.600Z</time>
      </trkpt>
      <trkpt lat="45.76705" lon="4.65068">
        <ele>492.1</ele>
        <time>2013-04-18T10:17:58.600Z</time>
      </trkpt>
      <trkpt lat="45.76706" lon="4.65064">
        <ele>479.7</ele>
        <time>2013-04-18T10:17:59.510Z</time>
      </trkpt>
      <trkpt lat="45.76708" lon="4.6506">
        <ele>478.9</ele>
        <time>2013-04-18T10:18:00.600Z</time>
      </trkpt>
      <trkpt lat="45.7671" lon="4.65057">
        <ele>478.1</ele>
        <time>2013-04-18T10:18:01.610Z</time>
      </trkpt>
      <trkpt lat="45.76712" lon="4.65054">
        <ele>477.3</ele>
        <time>2013-04-18T10:18:02.600Z</time>
      </trkpt>
      <trkpt lat="45.76715" lon="4.65052">
        <ele>476.7</ele>
        <time>2013-04-18T10:18:03.600Z</time>
      </trkpt>
      <trkpt lat="45.76717" lon="4.6505">
        <ele>476.2</ele>
        <time>2013-04-18T10:18:04.700Z</time>
      </trkpt>
      <trkpt lat="45.76718" lon="4.6505">
        <ele>475.7</ele>
        <time>2013-04-18T10:18:05.700Z</time>
      </trkpt>
      <trkpt lat="45.76721" lon="4.6505">
        <ele>475</ele>
        <time>2013-04-18T10:18:06.700Z</time>
      </trkpt>
      <trkpt lat="45.76723" lon="4.6505">
        <ele>474.4</ele>
        <time>2013-04-18T10:18:07.700Z</time>
      </trkpt>
      <trkpt lat="45.76725" lon="4.6505">
        <ele>474.5</ele>
        <time>2013-04-18T10:18:08.700Z</time>
      </trkpt>
      <trkpt lat="45.76728" lon="4.6505">
        <ele>474.8</ele>
        <time>2013-04-18T10:18:10.600Z</time>
      </trkpt>
      <trkpt lat="45.7673" lon="4.65051">
        <ele>474.8</ele>
        <time>2013-04-18T10:18:11.580Z</time>
      </trkpt>
      <trkpt lat="45.76731" lon="4.65051">
        <ele>474.8</ele>
        <time>2013-04-18T10:18:12.600Z</time>
      </trkpt>
      <trkpt lat="45.76733" lon="4.65051">
        <ele>474.9</ele>
        <time>2013-04-18T10:18:13.600Z</time>
      </trkpt>
      <trkpt lat="45.76735" lon="4.65051">
        <ele>475.1</ele>
        <time>2013-04-18T10:18:14.700Z</time>
      </trkpt>
      <trkpt lat="45.76737" lon="4.6505">
        <ele>475.3</ele>
        <time>2013-04-18T10:18:15.700Z</time>
      </trkpt>
      <trkpt lat="45.76742" lon="4.65049">
        <ele>475.8</ele>
        <time>2013-04-18T10:18:17.600Z</time>
      </trkpt>
      <trkpt lat="45.76744" lon="4.65049">
        <ele>476</ele>
        <time>2013-04-18T10:18:18.600Z</time>
      </trkpt>
      <trkpt lat="45.76746" lon="4.65049">
        <ele>476.2</ele>
        <time>2013-04-18T10:18:19.600Z</time>
      </trkpt>
      <trkpt lat="45.76748" lon="4.65049">
        <ele>476.3</ele>
        <time>2013-04-18T10:18:20.700Z</time>
      </trkpt>
      <trkpt lat="45.76751" lon="4.65049">
        <ele>476.4</ele>
        <time>2013-04-18T10:18:21.700Z</time>
      </trkpt>
      <trkpt lat="45.76754" lon="4.6505">
        <ele>476.5</ele>
        <time>2013-04-18T10:18:22.700Z</time>
      </trkpt>
      <trkpt lat="45.76757" lon="4.6505">
        <ele>476.7</ele>
        <time>2013-04-18T10:18:23.700Z</time>
      </trkpt>
      <trkpt lat="45.76759" lon="4.6505">
        <ele>476.9</ele>
        <time>2013-04-18T10:18:24.700Z</time>
      </trkpt>
      <trkpt lat="45.76765" lon="4.6505">
        <ele>477.4</ele>
        <time>2013-04-18T10:18:26.590Z</time>
      </trkpt>
      <trkpt lat="45.76769" lon="4.6505">
        <ele>477.7</ele>
        <time>2013-04-18T10:18:27.590Z</time>
      </trkpt>
      <trkpt lat="45.76772" lon="4.6505">
        <ele>478</ele>
        <time>2013-04-18T10:18:28.600Z</time>
      </trkpt>
      <trkpt lat="45.76775" lon="4.6505">
        <ele>478.2</ele>
        <time>2013-04-18T10:18:29.590Z</time>
      </trkpt>
      <trkpt lat="45.76778" lon="4.6505">
        <ele>478.4</ele>
        <time>2013-04-18T10:18:30.690Z</time>
      </trkpt>
      <trkpt lat="45.76781" lon="4.65049">
        <ele>478.9</ele>
        <time>2013-04-18T10:18:31.690Z</time>
      </trkpt>
      <trkpt lat="45.76783" lon="4.65048">
        <ele>479.1</ele>
        <time>2013-04-18T10:18:32.690Z</time>
      </trkpt>
      <trkpt lat="45.76786" lon="4.65047">
        <ele>479.4</ele>
        <time>2013-04-18T10:18:33.570Z</time>
      </trkpt>
      <trkpt lat="45.76788" lon="4.65046">
        <ele>479.6</ele>
        <time>2013-04-18T10:18:34.690Z</time>
      </trkpt>
      <trkpt lat="45.76794" lon="4.65045">
        <ele>480</ele>
        <time>2013-04-18T10:18:36.590Z</time>
      </trkpt>
      <trkpt lat="45.76797" lon="4.65044">
        <ele>480.4</ele>
        <time>2013-04-18T10:18:37.590Z</time>
      </trkpt>
      <trkpt lat="45.768" lon="4.65042">
        <ele>480.8</ele>
        <time>2013-04-18T10:18:38.590Z</time>
      </trkpt>
      <trkpt lat="45.76803" lon="4.65041">
        <ele>481.2</ele>
        <time>2013-04-18T10:18:39.690Z</time>
      </trkpt>
      <trkpt lat="45.76807" lon="4.65039">
        <ele>481.6</ele>
        <time>2013-04-18T10:18:40.690Z</time>
      </trkpt>
      <trkpt lat="45.7681" lon="4.65038">
        <ele>481.6</ele>
        <time>2013-04-18T10:18:41.690Z</time>
      </trkpt>
      <trkpt lat="45.76814" lon="4.65036">
        <ele>481.7</ele>
        <time>2013-04-18T10:18:42.690Z</time>
      </trkpt>
      <trkpt lat="45.76816" lon="4.65034">
        <ele>481.9</ele>
        <time>2013-04-18T10:18:43.700Z</time>
      </trkpt>
      <trkpt lat="45.76819" lon="4.65032">
        <ele>482.1</ele>
        <time>2013-04-18T10:18:44.690Z</time>
      </trkpt>
      <trkpt lat="45.76824" lon="4.65029">
        <ele>482.5</ele>
        <time>2013-04-18T10:18:46.590Z</time>
      </trkpt>
      <trkpt lat="45.76826" lon="4.65026">
        <ele>482.8</ele>
        <time>2013-04-18T10:18:47.590Z</time>
      </trkpt>
      <trkpt lat="45.76828" lon="4.65025">
        <ele>482.9</ele>
        <time>2013-04-18T10:18:48.570Z</time>
      </trkpt>
      <trkpt lat="45.76831" lon="4.65023">
        <ele>483</ele>
        <time>2013-04-18T10:18:49.590Z</time>
      </trkpt>
      <trkpt lat="45.76833" lon="4.65022">
        <ele>483.1</ele>
        <time>2013-04-18T10:18:50.540Z</time>
      </trkpt>
      <trkpt lat="45.76835" lon="4.6502">
        <ele>483.2</ele>
        <time>2013-04-18T10:18:51.590Z</time>
      </trkpt>
      <trkpt lat="45.76838" lon="4.65018">
        <ele>483.3</ele>
        <time>2013-04-18T10:18:52.590Z</time>
      </trkpt>
      <trkpt lat="45.7684" lon="4.65016">
        <ele>483.4</ele>
        <time>2013-04-18T10:18:53.590Z</time>
      </trkpt>
      <trkpt lat="45.76843" lon="4.65014">
        <ele>483.6</ele>
        <time>2013-04-18T10:18:54.590Z</time>
      </trkpt>
      <trkpt lat="45.76845" lon="4.65012">
        <ele>483.8</ele>
        <time>2013-04-18T10:18:55.690Z</time>
      </trkpt>
      <trkpt lat="45.76846" lon="4.65011">
        <ele>483.9</ele>
        <time>2013-04-18T10:18:56.690Z</time>
      </trkpt>
      <trkpt lat="45.76847" lon="4.65009">
        <ele>484.1</ele>
        <time>2013-04-18T10:18:57.690Z</time>
      </trkpt>
      <trkpt lat="45.76848" lon="4.65007">
        <ele>499.5</ele>
        <time>2013-04-18T10:18:58.690Z</time>
      </trkpt>
      <trkpt lat="45.7685" lon="4.65003">
        <ele>484.7</ele>
        <time>2013-04-18T10:19:00.590Z</time>
      </trkpt>
      <trkpt lat="45.76852" lon="4.65002">
        <ele>484.7</ele>
        <time>2013-04-18T10:19:01.590Z</time>
      </trkpt>
      <trkpt lat="45.76853" lon="4.64999">
        <ele>485</ele>
        <time>2013-04-18T10:19:02.590Z</time>
      </trkpt>
      <trkpt lat="45.76855" lon="4.64997">
        <ele>485.3</ele>
        <time>2013-04-18T10:19:03.590Z</time>
      </trkpt>
      <trkpt lat="45.76857" lon="4.64995">
        <ele>485.5</ele>
        <time>2013-04-18T10:19:04.590Z</time>
      </trkpt>
      <trkpt lat="45.76859" lon="4.64994">
        <ele>485.6</ele>
        <time>2013-04-18T10:19:05.690Z</time>
      </trkpt>
      <trkpt lat="45.7686" lon="4.64992">
        <ele>485.9</ele>
        <time>2013-04-18T10:19:06.690Z</time>
      </trkpt>
      <trkpt lat="45.76861" lon="4.6499">
        <ele>486.1</ele>
        <time>2013-04-18T10:19:07.690Z</time>
      </trkpt>
      <trkpt lat="45.76863" lon="4.64989">
        <ele>486.3</ele>
        <time>2013-04-18T10:19:08.690Z</time>
      </trkpt>
      <trkpt lat="45.76865" lon="4.64988">
        <ele>486.4</ele>
        <time>2013-04-18T10:19:09.690Z</time>
      </trkpt>
      <trkpt lat="45.76868" lon="4.64986">
        <ele>486.7</ele>
        <time>2013-04-18T10:19:11.570Z</time>
      </trkpt>
      <trkpt lat="45.76871" lon="4.64984">
        <ele>487.1</ele>
        <time>2013-04-18T10:19:13.580Z</time>
      </trkpt>
      <trkpt lat="45.76873" lon="4.64983">
        <ele>487.2</ele>
        <time>2013-04-18T10:19:14.680Z</time>
      </trkpt>
      <trkpt lat="45.76876" lon="4.64983">
        <ele>487.2</ele>
        <time>2013-04-18T10:19:15.680Z</time>
      </trkpt>
      <trkpt lat="45.76878" lon="4.64982">
        <ele>487.3</ele>
        <time>2013-04-18T10:19:16.640Z</time>
      </trkpt>
      <trkpt lat="45.7688" lon="4.64981">
        <ele>487.4</ele>
        <time>2013-04-18T10:19:17.680Z</time>
      </trkpt>
      <trkpt lat="45.76881" lon="4.64981">
        <ele>487.5</ele>
        <time>2013-04-18T10:19:18.680Z</time>
      </trkpt>
      <trkpt lat="45.76886" lon="4.64978">
        <ele>487.8</ele>
        <time>2013-04-18T10:19:20.580Z</time>
      </trkpt>
      <trkpt lat="45.76888" lon="4.64978">
        <ele>487.8</ele>
        <time>2013-04-18T10:19:21.580Z</time>
      </trkpt>
      <trkpt lat="45.76891" lon="4.64978">
        <ele>488.1</ele>
        <time>2013-04-18T10:19:22.580Z</time>
      </trkpt>
      <trkpt lat="45.76892" lon="4.64979">
        <ele>488.1</ele>
        <time>2013-04-18T10:19:23.580Z</time>
      </trkpt>
      <trkpt lat="45.76894" lon="4.6498">
        <ele>488</ele>
        <time>2013-04-18T10:19:24.590Z</time>
      </trkpt>
      <trkpt lat="45.76896" lon="4.64982">
        <ele>488.1</ele>
        <time>2013-04-18T10:19:25.680Z</time>
      </trkpt>
      <trkpt lat="45.76898" lon="4.64983">
        <ele>488.1</ele>
        <time>2013-04-18T10:19:26.680Z</time>
      </trkpt>
      <trkpt lat="45.769" lon="4.64984">
        <ele>488.1</ele>
        <time>2013-04-18T10:19:27.680Z</time>
      </trkpt>
      <trkpt lat="45.76901" lon="4.64985">
        <ele>488.2</ele>
        <time>2013-04-18T10:19:28.680Z</time>
      </trkpt>
      <trkpt lat="45.76903" lon="4.64985">
        <ele>488.5</ele>
        <time>2013-04-18T10:19:29.680Z</time>
      </trkpt>
      <trkpt lat="45.76908" lon="4.64986">
        <ele>489.1</ele>
        <time>2013-04-18T10:19:31.580Z</time>
      </trkpt>
      <trkpt lat="45.76909" lon="4.64986">
        <ele>489.3</ele>
        <time>2013-04-18T10:19:32.580Z</time>
      </trkpt>
      <trkpt lat="45.76911" lon="4.64986">
        <ele>489.5</ele>
        <time>2013-04-18T10:19:33.530Z</time>
      </trkpt>
      <trkpt lat="45.76912" lon="4.64987">
        <ele>489.7</ele>
        <time>2013-04-18T10:19:34.580Z</time>
      </trkpt>
      <trkpt lat="45.76914" lon="4.64988">
        <ele>489.8</ele>
        <time>2013-04-18T10:19:35.680Z</time>
      </trkpt>
      <trkpt lat="45.76917" lon="4.6499">
        <ele>489.9</ele>
        <time>2013-04-18T10:19:36.680Z</time>
      </trkpt>
      <trkpt lat="45.76919" lon="4.64991">
        <ele>490.3</ele>
        <time>2013-04-18T10:19:37.660Z</time>
      </trkpt>
      <trkpt lat="45.7692" lon="4.64992">
        <ele>490.7</ele>
        <time>2013-04-18T10:19:38.680Z</time>
      </trkpt>
      <trkpt lat="45.76924" lon="4.64994">
        <ele>491.6</ele>
        <time>2013-04-18T10:19:40.580Z</time>
      </trkpt>
      <trkpt lat="45.76926" lon="4.64995">
        <ele>492</ele>
        <time>2013-04-18T10:19:41.580Z</time>
      </trkpt>
      <trkpt lat="45.76927" lon="4.64996">
        <ele>492.4</ele>
        <time>2013-04-18T10:19:42.580Z</time>
      </trkpt>
      <trkpt lat="45.76929" lon="4.64997">
        <ele>492.8</ele>
        <time>2013-04-18T10:19:43.580Z</time>
      </trkpt>
      <trkpt lat="45.7693" lon="4.64997">
        <ele>493.2</ele>
        <time>2013-04-18T10:19:44.580Z</time>
      </trkpt>
      <trkpt lat="45.76932" lon="4.64998">
        <ele>493.7</ele>
        <time>2013-04-18T10:19:45.680Z</time>
      </trkpt>
      <trkpt lat="45.76934" lon="4.64999">
        <ele>494.4</ele>
        <time>2013-04-18T10:19:46.680Z</time>
      </trkpt>
      <trkpt lat="45.76935" lon="4.64999">
        <ele>494.9</ele>
        <time>2013-04-18T10:19:47.680Z</time>
      </trkpt>
      <trkpt lat="45.76938" lon="4.65">
        <ele>495.6</ele>
        <time>2013-04-18T10:19:48.680Z</time>
      </trkpt>
      <trkpt lat="45.76941" lon="4.65">
        <ele>496.5</ele>
        <time>2013-04-18T10:19:49.680Z</time>
      </trkpt>
      <trkpt lat="45.76943" lon="4.65001">
        <ele>497.3</ele>
        <time>2013-04-18T10:19:50.680Z</time>
      </trkpt>
      <trkpt lat="45.76948" lon="4.65002">
        <ele>498.3</ele>
        <time>2013-04-18T10:19:52.770Z</time>
      </trkpt>
      <trkpt lat="45.76954" lon="4.65004">
        <ele>499</ele>
        <time>2013-04-18T10:19:54.670Z</time>
      </trkpt>
      <trkpt lat="45.76956" lon="4.65004">
        <ele>499.4</ele>
        <time>2013-04-18T10:19:55.670Z</time>
      </trkpt>
      <trkpt lat="45.76959" lon="4.65004">
        <ele>499.9</ele>
        <time>2013-04-18T10:19:56.670Z</time>
      </trkpt>
      <trkpt lat="45.76961" lon="4.65004">
        <ele>500.4</ele>
        <time>2013-04-18T10:19:57.670Z</time>
      </trkpt>
      <trkpt lat="45.76964" lon="4.65004">
        <ele>508</ele>
        <time>2013-04-18T10:19:58.670Z</time>
      </trkpt>
      <trkpt lat="45.76969" lon="4.65004">
        <ele>501.9</ele>
        <time>2013-04-18T10:20:00.770Z</time>
      </trkpt>
      <trkpt lat="45.76972" lon="4.65003">
        <ele>502.5</ele>
        <time>2013-04-18T10:20:01.760Z</time>
      </trkpt>
      <trkpt lat="45.76975" lon="4.65">
        <ele>503.1</ele>
        <time>2013-04-18T10:20:03.570Z</time>
      </trkpt>
      <trkpt lat="45.76978" lon="4.64999">
        <ele>503.4</ele>
        <time>2013-04-18T10:20:04.670Z</time>
      </trkpt>
      <trkpt lat="45.76979" lon="4.64998">
        <ele>503.5</ele>
        <time>2013-04-18T10:20:05.670Z</time>
      </trkpt>
      <trkpt lat="45.76981" lon="4.64997">
        <ele>503.7</ele>
        <time>2013-04-18T10:20:06.670Z</time>
      </trkpt>
      <trkpt lat="45.76984" lon="4.64997">
        <ele>503.8</ele>
        <time>2013-04-18T10:20:07.670Z</time>
      </trkpt>
      <trkpt lat="45.76987" lon="4.64997">
        <ele>503.9</ele>
        <time>2013-04-18T10:20:08.670Z</time>
      </trkpt>
      <trkpt lat="45.76989" lon="4.64995">
        <ele>504.2</ele>
        <time>2013-04-18T10:20:10.570Z</time>
      </trkpt>
      <trkpt lat="45.76992" lon="4.64993">
        <ele>504.4</ele>
        <time>2013-04-18T10:20:11.570Z</time>
      </trkpt>
      <trkpt lat="45.76994" lon="4.64991">
        <ele>504.7</ele>
        <time>2013-04-18T10:20:12.570Z</time>
      </trkpt>
      <trkpt lat="45.76996" lon="4.64991">
        <ele>504.9</ele>
        <time>2013-04-18T10:20:13.570Z</time>
      </trkpt>
      <trkpt lat="45.76999" lon="4.6499">
        <ele>505.1</ele>
        <time>2013-04-18T10:20:14.550Z</time>
      </trkpt>
      <trkpt lat="45.77002" lon="4.64989">
        <ele>505.1</ele>
        <time>2013-04-18T10:20:15.570Z</time>
      </trkpt>
      <trkpt lat="45.77004" lon="4.64988">
        <ele>505.1</ele>
        <time>2013-04-18T10:20:16.540Z</time>
      </trkpt>
      <trkpt lat="45.77005" lon="4.64987">
        <ele>505.2</ele>
        <time>2013-04-18T10:20:17.670Z</time>
      </trkpt>
      <trkpt lat="45.77007" lon="4.64986">
        <ele>505.3</ele>
        <time>2013-04-18T10:20:18.670Z</time>
      </trkpt>
      <trkpt lat="45.77012" lon="4.64983">
        <ele>505.5</ele>
        <time>2013-04-18T10:20:20.570Z</time>
      </trkpt>
      <trkpt lat="45.77014" lon="4.6498">
        <ele>505.6</ele>
        <time>2013-04-18T10:20:21.570Z</time>
      </trkpt>
      <trkpt lat="45.77016" lon="4.64977">
        <ele>505.9</ele>
        <time>2013-04-18T10:20:22.570Z</time>
      </trkpt>
      <trkpt lat="45.77017" lon="4.64974">
        <ele>506.2</ele>
        <time>2013-04-18T10:20:23.570Z</time>
      </trkpt>
      <trkpt lat="45.77018" lon="4.64971">
        <ele>506.5</ele>
        <time>2013-04-18T10:20:24.570Z</time>
      </trkpt>
      <trkpt lat="45.7702" lon="4.64967">
        <ele>506.7</ele>
        <time>2013-04-18T10:20:25.670Z</time>
      </trkpt>
      <trkpt lat="45.77021" lon="4.64963">
        <ele>506.9</ele>
        <time>2013-04-18T10:20:26.650Z</time>
      </trkpt>
      <trkpt lat="45.77022" lon="4.6496">
        <ele>507.1</ele>
        <time>2013-04-18T10:20:27.670Z</time>
      </trkpt>
      <trkpt lat="45.77023" lon="4.64957">
        <ele>507.4</ele>
        <time>2013-04-18T10:20:28.670Z</time>
      </trkpt>
      <trkpt lat="45.77025" lon="4.64953">
        <ele>507.6</ele>
        <time>2013-04-18T10:20:29.670Z</time>
      </trkpt>
      <trkpt lat="45.77026" lon="4.6495">
        <ele>507.8</ele>
        <time>2013-04-18T10:20:30.670Z</time>
      </trkpt>
      <trkpt lat="45.77027" lon="4.64947">
        <ele>507.9</ele>
        <time>2013-04-18T10:20:31.660Z</time>
      </trkpt>
      <trkpt lat="45.77028" lon="4.64944">
        <ele>508</ele>
        <time>2013-04-18T10:20:32.670Z</time>
      </trkpt>
      <trkpt lat="45.77029" lon="4.6494">
        <ele>508.1</ele>
        <time>2013-04-18T10:20:33.620Z</time>
      </trkpt>
      <trkpt lat="45.77031" lon="4.64937">
        <ele>508.2</ele>
        <time>2013-04-18T10:20:34.760Z</time>
      </trkpt>
      <trkpt lat="45.77031" lon="4.64934">
        <ele>508.4</ele>
        <time>2013-04-18T10:20:35.760Z</time>
      </trkpt>
      <trkpt lat="45.77032" lon="4.64931">
        <ele>508.5</ele>
        <time>2013-04-18T10:20:36.760Z</time>
      </trkpt>
      <trkpt lat="45.77035" lon="4.64924">
        <ele>508.7</ele>
        <time>2013-04-18T10:20:38.760Z</time>
      </trkpt>
      <trkpt lat="45.77037" lon="4.64916">
        <ele>509</ele>
        <time>2013-04-18T10:20:40.760Z</time>
      </trkpt>
      <trkpt lat="45.77038" lon="4.64913">
        <ele>509</ele>
        <time>2013-04-18T10:20:41.760Z</time>
      </trkpt>
      <trkpt lat="45.7704" lon="4.64911">
        <ele>509</ele>
        <time>2013-04-18T10:20:42.760Z</time>
      </trkpt>
      <trkpt lat="45.77042" lon="4.64908">
        <ele>509</ele>
        <time>2013-04-18T10:20:43.760Z</time>
      </trkpt>
      <trkpt lat="45.77043" lon="4.64904">
        <ele>509</ele>
        <time>2013-04-18T10:20:44.760Z</time>
      </trkpt>
      <trkpt lat="45.77046" lon="4.64899">
        <ele>508.9</ele>
        <time>2013-04-18T10:20:46.660Z</time>
      </trkpt>
      <trkpt lat="45.77047" lon="4.64896">
        <ele>508.9</ele>
        <time>2013-04-18T10:20:47.660Z</time>
      </trkpt>
      <trkpt lat="45.77049" lon="4.64894">
        <ele>508.8</ele>
        <time>2013-04-18T10:20:48.660Z</time>
      </trkpt>
      <trkpt lat="45.7705" lon="4.6489">
        <ele>508.7</ele>
        <time>2013-04-18T10:20:49.660Z</time>
      </trkpt>
      <trkpt lat="45.77051" lon="4.64887">
        <ele>508.7</ele>
        <time>2013-04-18T10:20:50.710Z</time>
      </trkpt>
      <trkpt lat="45.77052" lon="4.64883">
        <ele>508.7</ele>
        <time>2013-04-18T10:20:51.760Z</time>
      </trkpt>
      <trkpt lat="45.77053" lon="4.6488">
        <ele>508.7</ele>
        <time>2013-04-18T10:20:52.760Z</time>
      </trkpt>
      <trkpt lat="45.77054" lon="4.64876">
        <ele>508.7</ele>
        <time>2013-04-18T10:20:53.760Z</time>
      </trkpt>
      <trkpt lat="45.77054" lon="4.64871">
        <ele>508.9</ele>
        <time>2013-04-18T10:20:54.760Z</time>
      </trkpt>
      <trkpt lat="45.77054" lon="4.64867">
        <ele>509</ele>
        <time>2013-04-18T10:20:55.760Z</time>
      </trkpt>
      <trkpt lat="45.77054" lon="4.64863">
        <ele>509.2</ele>
        <time>2013-04-18T10:20:56.760Z</time>
      </trkpt>
      <trkpt lat="45.77054" lon="4.64858">
        <ele>509.3</ele>
        <time>2013-04-18T10:20:57.760Z</time>
      </trkpt>
      <trkpt lat="45.77056" lon="4.64853">
        <ele>511.9</ele>
        <time>2013-04-18T10:20:58.760Z</time>
      </trkpt>
      <trkpt lat="45.77057" lon="4.64848">
        <ele>509.1</ele>
        <time>2013-04-18T10:20:59.710Z</time>
      </trkpt>
      <trkpt lat="45.77058" lon="4.64844">
        <ele>508.9</ele>
        <time>2013-04-18T10:21:00.760Z</time>
      </trkpt>
      <trkpt lat="45.77059" lon="4.64839">
        <ele>508.6</ele>
        <time>2013-04-18T10:21:01.740Z</time>
      </trkpt>
      <trkpt lat="45.77064" lon="4.64831">
        <ele>507.5</ele>
        <time>2013-04-18T10:21:03.760Z</time>
      </trkpt>
      <trkpt lat="45.77069" lon="4.64824">
        <ele>506.2</ele>
        <time>2013-04-18T10:21:05.660Z</time>
      </trkpt>
      <trkpt lat="45.77071" lon="4.6482">
        <ele>505.6</ele>
        <time>2013-04-18T10:21:06.660Z</time>
      </trkpt>
      <trkpt lat="45.77073" lon="4.64816">
        <ele>505.3</ele>
        <time>2013-04-18T10:21:07.660Z</time>
      </trkpt>
      <trkpt lat="45.77075" lon="4.64813">
        <ele>504.7</ele>
        <time>2013-04-18T10:21:08.660Z</time>
      </trkpt>
      <trkpt lat="45.77077" lon="4.64809">
        <ele>504.3</ele>
        <time>2013-04-18T10:21:09.660Z</time>
      </trkpt>
      <trkpt lat="45.77077" lon="4.64805">
        <ele>504.1</ele>
        <time>2013-04-18T10:21:10.660Z</time>
      </trkpt>
      <trkpt lat="45.77079" lon="4.64802">
        <ele>503.7</ele>
        <time>2013-04-18T10:21:11.660Z</time>
      </trkpt>
      <trkpt lat="45.7708" lon="4.64797">
        <ele>503.4</ele>
        <time>2013-04-18T10:21:12.660Z</time>
      </trkpt>
      <trkpt lat="45.77081" lon="4.64793">
        <ele>503.1</ele>
        <time>2013-04-18T10:21:13.640Z</time>
      </trkpt>
      <trkpt lat="45.77083" lon="4.6479">
        <ele>502</ele>
        <time>2013-04-18T10:21:14.650Z</time>
      </trkpt>
      <trkpt lat="45.77086" lon="4.64787">
        <ele>500.9</ele>
        <time>2013-04-18T10:21:15.650Z</time>
      </trkpt>
      <trkpt lat="45.77088" lon="4.64784">
        <ele>499.8</ele>
        <time>2013-04-18T10:21:16.610Z</time>
      </trkpt>
      <trkpt lat="45.77091" lon="4.64781">
        <ele>498.5</ele>
        <time>2013-04-18T10:21:17.650Z</time>
      </trkpt>
      <trkpt lat="45.77095" lon="4.64778">
        <ele>497.1</ele>
        <time>2013-04-18T10:21:18.650Z</time>
      </trkpt>
      <trkpt lat="45.77098" lon="4.64777">
        <ele>495.9</ele>
        <time>2013-04-18T10:21:19.650Z</time>
      </trkpt>
      <trkpt lat="45.77102" lon="4.64777">
        <ele>494.3</ele>
        <time>2013-04-18T10:21:20.650Z</time>
      </trkpt>
      <trkpt lat="45.77105" lon="4.64776">
        <ele>493.1</ele>
        <time>2013-04-18T10:21:21.650Z</time>
      </trkpt>
      <trkpt lat="45.77108" lon="4.64777">
        <ele>491.6</ele>
        <time>2013-04-18T10:21:22.650Z</time>
      </trkpt>
      <trkpt lat="45.77112" lon="4.64778">
        <ele>490</ele>
        <time>2013-04-18T10:21:23.650Z</time>
      </trkpt>
      <trkpt lat="45.77115" lon="4.64779">
        <ele>489.7</ele>
        <time>2013-04-18T10:21:24.650Z</time>
      </trkpt>
      <trkpt lat="45.77117" lon="4.6478">
        <ele>489.3</ele>
        <time>2013-04-18T10:21:25.660Z</time>
      </trkpt>
      <trkpt lat="45.77122" lon="4.64781">
        <ele>488.8</ele>
        <time>2013-04-18T10:21:26.650Z</time>
      </trkpt>
      <trkpt lat="45.77126" lon="4.64782">
        <ele>488.2</ele>
        <time>2013-04-18T10:21:27.650Z</time>
      </trkpt>
      <trkpt lat="45.77131" lon="4.64783">
        <ele>487.5</ele>
        <time>2013-04-18T10:21:28.650Z</time>
      </trkpt>
      <trkpt lat="45.77136" lon="4.64783">
        <ele>486.9</ele>
        <time>2013-04-18T10:21:29.650Z</time>
      </trkpt>
      <trkpt lat="45.77139" lon="4.64782">
        <ele>486.7</ele>
        <time>2013-04-18T10:21:30.650Z</time>
      </trkpt>
      <trkpt lat="45.77142" lon="4.64782">
        <ele>487.3</ele>
        <time>2013-04-18T10:21:31.650Z</time>
      </trkpt>
      <trkpt lat="45.77146" lon="4.64781">
        <ele>487.8</ele>
        <time>2013-04-18T10:21:32.650Z</time>
      </trkpt>
      <trkpt lat="45.77149" lon="4.64781">
        <ele>488.4</ele>
        <time>2013-04-18T10:21:33.600Z</time>
      </trkpt>
      <trkpt lat="45.77151" lon="4.6478">
        <ele>489.1</ele>
        <time>2013-04-18T10:21:34.750Z</time>
      </trkpt>
      <trkpt lat="45.77153" lon="4.6478">
        <ele>489.4</ele>
        <time>2013-04-18T10:21:35.750Z</time>
      </trkpt>
      <trkpt lat="45.77156" lon="4.6478">
        <ele>489.6</ele>
        <time>2013-04-18T10:21:36.730Z</time>
      </trkpt>
      <trkpt lat="45.77159" lon="4.6478">
        <ele>490.1</ele>
        <time>2013-04-18T10:21:37.750Z</time>
      </trkpt>
      <trkpt lat="45.77162" lon="4.6478">
        <ele>490.4</ele>
        <time>2013-04-18T10:21:38.750Z</time>
      </trkpt>
      <trkpt lat="45.77164" lon="4.64781">
        <ele>490.6</ele>
        <time>2013-04-18T10:21:39.750Z</time>
      </trkpt>
      <trkpt lat="45.77166" lon="4.64781">
        <ele>490.5</ele>
        <time>2013-04-18T10:21:40.750Z</time>
      </trkpt>
      <trkpt lat="45.77169" lon="4.64781">
        <ele>491</ele>
        <time>2013-04-18T10:21:41.750Z</time>
      </trkpt>
      <trkpt lat="45.77172" lon="4.6478">
        <ele>491.9</ele>
        <time>2013-04-18T10:21:42.750Z</time>
      </trkpt>
      <trkpt lat="45.77175" lon="4.64778">
        <ele>493</ele>
        <time>2013-04-18T10:21:43.750Z</time>
      </trkpt>
      <trkpt lat="45.77178" lon="4.64776">
        <ele>494</ele>
        <time>2013-04-18T10:21:44.750Z</time>
      </trkpt>
      <trkpt lat="45.7718" lon="4.64775">
        <ele>494.8</ele>
        <time>2013-04-18T10:21:45.750Z</time>
      </trkpt>
      <trkpt lat="45.77182" lon="4.64774">
        <ele>495.3</ele>
        <time>2013-04-18T10:21:46.750Z</time>
      </trkpt>
      <trkpt lat="45.77185" lon="4.64773">
        <ele>496</ele>
        <time>2013-04-18T10:21:47.750Z</time>
      </trkpt>
      <trkpt lat="45.77187" lon="4.64772">
        <ele>496.8</ele>
        <time>2013-04-18T10:21:48.750Z</time>
      </trkpt>
      <trkpt lat="45.7719" lon="4.6477">
        <ele>497.7</ele>
        <time>2013-04-18T10:21:49.750Z</time>
      </trkpt>
      <trkpt lat="45.77196" lon="4.64766">
        <ele>499.3</ele>
        <time>2013-04-18T10:21:51.650Z</time>
      </trkpt>
      <trkpt lat="45.77199" lon="4.64764">
        <ele>499.8</ele>
        <time>2013-04-18T10:21:52.640Z</time>
      </trkpt>
      <trkpt lat="45.77201" lon="4.64762">
        <ele>500.1</ele>
        <time>2013-04-18T10:21:53.640Z</time>
      </trkpt>
      <trkpt lat="45.77202" lon="4.64761">
        <ele>500.4</ele>
        <time>2013-04-18T10:21:54.640Z</time>
      </trkpt>
      <trkpt lat="45.77203" lon="4.64759">
        <ele>500.9</ele>
        <time>2013-04-18T10:21:55.640Z</time>
      </trkpt>
      <trkpt lat="45.77205" lon="4.64757">
        <ele>501.3</ele>
        <time>2013-04-18T10:21:56.640Z</time>
      </trkpt>
      <trkpt lat="45.77207" lon="4.64755">
        <ele>501.7</ele>
        <time>2013-04-18T10:21:57.650Z</time>
      </trkpt>
      <trkpt lat="45.77209" lon="4.64754">
        <ele>504.5</ele>
        <time>2013-04-18T10:21:58.640Z</time>
      </trkpt>
      <trkpt lat="45.7721" lon="4.64752">
        <ele>502.2</ele>
        <time>2013-04-18T10:21:59.700Z</time>
      </trkpt>
      <trkpt lat="45.77213" lon="4.64751">
        <ele>502.6</ele>
        <time>2013-04-18T10:22:00.740Z</time>
      </trkpt>
      <trkpt lat="45.77215" lon="4.64748">
        <ele>503</ele>
        <time>2013-04-18T10:22:01.740Z</time>
      </trkpt>
      <trkpt lat="45.77217" lon="4.64746">
        <ele>503.3</ele>
        <time>2013-04-18T10:22:02.740Z</time>
      </trkpt>
      <trkpt lat="45.77219" lon="4.64744">
        <ele>503.6</ele>
        <time>2013-04-18T10:22:03.740Z</time>
      </trkpt>
      <trkpt lat="45.7722" lon="4.64742">
        <ele>503.9</ele>
        <time>2013-04-18T10:22:04.740Z</time>
      </trkpt>
      <trkpt lat="45.77222" lon="4.6474">
        <ele>504.2</ele>
        <time>2013-04-18T10:22:05.740Z</time>
      </trkpt>
      <trkpt lat="45.77224" lon="4.64738">
        <ele>504.5</ele>
        <time>2013-04-18T10:22:06.740Z</time>
      </trkpt>
      <trkpt lat="45.77228" lon="4.64733">
        <ele>505</ele>
        <time>2013-04-18T10:22:08.640Z</time>
      </trkpt>
      <trkpt lat="45.7723" lon="4.6473">
        <ele>505.3</ele>
        <time>2013-04-18T10:22:09.640Z</time>
      </trkpt>
      <trkpt lat="45.77233" lon="4.64728">
        <ele>505.4</ele>
        <time>2013-04-18T10:22:10.620Z</time>
      </trkpt>
      <trkpt lat="45.77235" lon="4.64726">
        <ele>505.5</ele>
        <time>2013-04-18T10:22:11.740Z</time>
      </trkpt>
      <trkpt lat="45.77237" lon="4.64723">
        <ele>505.8</ele>
        <time>2013-04-18T10:22:12.740Z</time>
      </trkpt>
      <trkpt lat="45.77239" lon="4.6472">
        <ele>505.9</ele>
        <time>2013-04-18T10:22:13.740Z</time>
      </trkpt>
      <trkpt lat="45.77241" lon="4.64717">
        <ele>505.9</ele>
        <time>2013-04-18T10:22:14.740Z</time>
      </trkpt>
      <trkpt lat="45.77243" lon="4.64715">
        <ele>505.9</ele>
        <time>2013-04-18T10:22:15.740Z</time>
      </trkpt>
      <trkpt lat="45.77244" lon="4.64712">
        <ele>506</ele>
        <time>2013-04-18T10:22:16.690Z</time>
      </trkpt>
      <trkpt lat="45.77245" lon="4.64709">
        <ele>506.3</ele>
        <time>2013-04-18T10:22:17.740Z</time>
      </trkpt>
      <trkpt lat="45.77246" lon="4.64705">
        <ele>506.5</ele>
        <time>2013-04-18T10:22:18.740Z</time>
      </trkpt>
      <trkpt lat="45.77247" lon="4.64702">
        <ele>506.7</ele>
        <time>2013-04-18T10:22:19.740Z</time>
      </trkpt>
      <trkpt lat="45.77248" lon="4.64699">
        <ele>506.9</ele>
        <time>2013-04-18T10:22:20.740Z</time>
      </trkpt>
      <trkpt lat="45.77249" lon="4.64695">
        <ele>507.2</ele>
        <time>2013-04-18T10:22:21.740Z</time>
      </trkpt>
      <trkpt lat="45.7725" lon="4.64692">
        <ele>507.1</ele>
        <time>2013-04-18T10:22:22.740Z</time>
      </trkpt>
      <trkpt lat="45.77252" lon="4.64688">
        <ele>506.8</ele>
        <time>2013-04-18T10:22:23.740Z</time>
      </trkpt>
      <trkpt lat="45.77253" lon="4.64685">
        <ele>506.7</ele>
        <time>2013-04-18T10:22:24.740Z</time>
      </trkpt>
      <trkpt lat="45.77254" lon="4.64681">
        <ele>506.6</ele>
        <time>2013-04-18T10:22:25.740Z</time>
      </trkpt>
      <trkpt lat="45.77254" lon="4.64677">
        <ele>506.7</ele>
        <time>2013-04-18T10:22:26.740Z</time>
      </trkpt>
      <trkpt lat="45.77254" lon="4.64673">
        <ele>506.5</ele>
        <time>2013-04-18T10:22:27.740Z</time>
      </trkpt>
      <trkpt lat="45.77254" lon="4.6467">
        <ele>506.7</ele>
        <time>2013-04-18T10:22:28.740Z</time>
      </trkpt>
      <trkpt lat="45.77253" lon="4.64666">
        <ele>507</ele>
        <time>2013-04-18T10:22:29.740Z</time>
      </trkpt>
      <trkpt lat="45.77254" lon="4.64662">
        <ele>506.9</ele>
        <time>2013-04-18T10:22:30.740Z</time>
      </trkpt>
      <trkpt lat="45.77255" lon="4.64658">
        <ele>506.7</ele>
        <time>2013-04-18T10:22:31.740Z</time>
      </trkpt>
      <trkpt lat="45.77256" lon="4.64654">
        <ele>506.3</ele>
        <time>2013-04-18T10:22:32.740Z</time>
      </trkpt>
      <trkpt lat="45.77258" lon="4.64646">
        <ele>505.3</ele>
        <time>2013-04-18T10:22:34.640Z</time>
      </trkpt>
      <trkpt lat="45.77259" lon="4.64643">
        <ele>504.7</ele>
        <time>2013-04-18T10:22:35.630Z</time>
      </trkpt>
      <trkpt lat="45.77262" lon="4.64639">
        <ele>503.6</ele>
        <time>2013-04-18T10:22:36.630Z</time>
      </trkpt>
      <trkpt lat="45.77263" lon="4.64634">
        <ele>503.3</ele>
        <time>2013-04-18T10:22:37.630Z</time>
      </trkpt>
      <trkpt lat="45.77262" lon="4.6463">
        <ele>503.8</ele>
        <time>2013-04-18T10:22:38.630Z</time>
      </trkpt>
      <trkpt lat="45.77262" lon="4.64625">
        <ele>504.1</ele>
        <time>2013-04-18T10:22:39.630Z</time>
      </trkpt>
      <trkpt lat="45.7726" lon="4.6462">
        <ele>505</ele>
        <time>2013-04-18T10:22:40.630Z</time>
      </trkpt>
      <trkpt lat="45.77259" lon="4.64616">
        <ele>506.1</ele>
        <time>2013-04-18T10:22:41.630Z</time>
      </trkpt>
      <trkpt lat="45.77258" lon="4.64612">
        <ele>506.5</ele>
        <time>2013-04-18T10:22:42.630Z</time>
      </trkpt>
      <trkpt lat="45.77258" lon="4.64608">
        <ele>506.4</ele>
        <time>2013-04-18T10:22:43.630Z</time>
      </trkpt>
      <trkpt lat="45.77259" lon="4.64603">
        <ele>506.2</ele>
        <time>2013-04-18T10:22:44.650Z</time>
      </trkpt>
      <trkpt lat="45.77259" lon="4.64594">
        <ele>505.8</ele>
        <time>2013-04-18T10:22:46.630Z</time>
      </trkpt>
      <trkpt lat="45.77259" lon="4.64589">
        <ele>505.8</ele>
        <time>2013-04-18T10:22:47.630Z</time>
      </trkpt>
      <trkpt lat="45.77258" lon="4.64585">
        <ele>506.1</ele>
        <time>2013-04-18T10:22:48.630Z</time>
      </trkpt>
      <trkpt lat="45.77256" lon="4.64581">
        <ele>507.1</ele>
        <time>2013-04-18T10:22:49.630Z</time>
      </trkpt>
      <trkpt lat="45.77254" lon="4.64577">
        <ele>507.5</ele>
        <time>2013-04-18T10:22:50.580Z</time>
      </trkpt>
      <trkpt lat="45.77253" lon="4.64572">
        <ele>507.7</ele>
        <time>2013-04-18T10:22:51.630Z</time>
      </trkpt>
      <trkpt lat="45.77253" lon="4.64568">
        <ele>507.1</ele>
        <time>2013-04-18T10:22:52.630Z</time>
      </trkpt>
      <trkpt lat="45.77254" lon="4.64566">
        <ele>506.7</ele>
        <time>2013-04-18T10:22:53.630Z</time>
      </trkpt>
      <trkpt lat="45.77256" lon="4.64564">
        <ele>506</ele>
        <time>2013-04-18T10:22:54.630Z</time>
      </trkpt>
      <trkpt lat="45.77258" lon="4.64563">
        <ele>505.3</ele>
        <time>2013-04-18T10:22:55.630Z</time>
      </trkpt>
      <trkpt lat="45.7726" lon="4.64562">
        <ele>504.3</ele>
        <time>2013-04-18T10:22:56.630Z</time>
      </trkpt>
      <trkpt lat="45.77264" lon="4.6456">
        <ele>507.3</ele>
        <time>2013-04-18T10:22:58.630Z</time>
      </trkpt>
      <trkpt lat="45.77265" lon="4.6456">
        <ele>502.8</ele>
        <time>2013-04-18T10:22:59.680Z</time>
      </trkpt>
      <trkpt lat="45.77266" lon="4.64558">
        <ele>502.5</ele>
        <time>2013-04-18T10:23:01.730Z</time>
      </trkpt>
      <trkpt lat="45.77267" lon="4.64557">
        <ele>502</ele>
        <time>2013-04-18T10:23:02.730Z</time>
      </trkpt>
      <trkpt lat="45.77268" lon="4.64556">
        <ele>501.8</ele>
        <time>2013-04-18T10:23:03.730Z</time>
      </trkpt>
      <trkpt lat="45.77269" lon="4.64555">
        <ele>501.9</ele>
        <time>2013-04-18T10:23:04.730Z</time>
      </trkpt>
      <trkpt lat="45.7727" lon="4.64553">
        <ele>501.9</ele>
        <time>2013-04-18T10:23:05.730Z</time>
      </trkpt>
      <trkpt lat="45.7727" lon="4.64552">
        <ele>502</ele>
        <time>2013-04-18T10:23:06.730Z</time>
      </trkpt>
      <trkpt lat="45.77272" lon="4.6455">
        <ele>502.1</ele>
        <time>2013-04-18T10:23:08.630Z</time>
      </trkpt>
      <trkpt lat="45.77273" lon="4.64549">
        <ele>502.4</ele>
        <time>2013-04-18T10:23:09.630Z</time>
      </trkpt>
      <trkpt lat="45.77273" lon="4.64547">
        <ele>502.8</ele>
        <time>2013-04-18T10:23:10.630Z</time>
      </trkpt>
      <trkpt lat="45.77274" lon="4.64546">
        <ele>503</ele>
        <time>2013-04-18T10:23:12.630Z</time>
      </trkpt>
      <trkpt lat="45.77273" lon="4.64545">
        <ele>503.4</ele>
        <time>2013-04-18T10:23:13.630Z</time>
      </trkpt>
      <trkpt lat="45.77272" lon="4.64544">
        <ele>503.9</ele>
        <time>2013-04-18T10:23:15.630Z</time>
      </trkpt>
      <trkpt lat="45.77271" lon="4.64542">
        <ele>504.4</ele>
        <time>2013-04-18T10:23:16.580Z</time>
      </trkpt>
      <trkpt lat="45.7727" lon="4.6454">
        <ele>504.9</ele>
        <time>2013-04-18T10:23:17.620Z</time>
      </trkpt>
      <trkpt lat="45.7727" lon="4.64538">
        <ele>505.4</ele>
        <time>2013-04-18T10:23:18.620Z</time>
      </trkpt>
      <trkpt lat="45.7727" lon="4.64536">
        <ele>505.9</ele>
        <time>2013-04-18T10:23:19.610Z</time>
      </trkpt>
      <trkpt lat="45.7727" lon="4.64535">
        <ele>506.2</ele>
        <time>2013-04-18T10:23:20.620Z</time>
      </trkpt>
      <trkpt lat="45.7727" lon="4.64534">
        <ele>506.5</ele>
        <time>2013-04-18T10:23:21.620Z</time>
      </trkpt>
      <trkpt lat="45.77271" lon="4.64532">
        <ele>506.9</ele>
        <time>2013-04-18T10:23:22.620Z</time>
      </trkpt>
      <trkpt lat="45.77272" lon="4.6453">
        <ele>507.4</ele>
        <time>2013-04-18T10:23:23.720Z</time>
      </trkpt>
      <trkpt lat="45.77272" lon="4.64529">
        <ele>507.8</ele>
        <time>2013-04-18T10:23:24.720Z</time>
      </trkpt>
      <trkpt lat="45.77273" lon="4.64528">
        <ele>508.2</ele>
        <time>2013-04-18T10:23:26.720Z</time>
      </trkpt>
      <trkpt lat="45.77273" lon="4.64527">
        <ele>508.7</ele>
        <time>2013-04-18T10:23:27.720Z</time>
      </trkpt>
      <trkpt lat="45.77274" lon="4.64525">
        <ele>509.4</ele>
        <time>2013-04-18T10:23:28.720Z</time>
      </trkpt>
      <trkpt lat="45.77274" lon="4.64523">
        <ele>510.4</ele>
        <time>2013-04-18T10:23:30.720Z</time>
      </trkpt>
      <trkpt lat="45.77275" lon="4.64521">
        <ele>511</ele>
        <time>2013-04-18T10:23:31.720Z</time>
      </trkpt>
      <trkpt lat="45.77275" lon="4.64519">
        <ele>511.6</ele>
        <time>2013-04-18T10:23:32.720Z</time>
      </trkpt>
      <trkpt lat="45.77274" lon="4.64518">
        <ele>512.1</ele>
        <time>2013-04-18T10:23:34.720Z</time>
      </trkpt>
      <trkpt lat="45.77275" lon="4.64515">
        <ele>513</ele>
        <time>2013-04-18T10:23:36.720Z</time>
      </trkpt>
      <trkpt lat="45.77275" lon="4.64514">
        <ele>513.5</ele>
        <time>2013-04-18T10:23:37.720Z</time>
      </trkpt>
      <trkpt lat="45.77275" lon="4.64512">
        <ele>514.2</ele>
        <time>2013-04-18T10:23:39.720Z</time>
      </trkpt>
      <trkpt lat="45.77275" lon="4.64509">
        <ele>515.5</ele>
        <time>2013-04-18T10:23:41.620Z</time>
      </trkpt>
      <trkpt lat="45.77275" lon="4.64507">
        <ele>516</ele>
        <time>2013-04-18T10:23:42.620Z</time>
      </trkpt>
      <trkpt lat="45.77274" lon="4.64506">
        <ele>516.3</ele>
        <time>2013-04-18T10:23:43.620Z</time>
      </trkpt>
      <trkpt lat="45.77273" lon="4.64504">
        <ele>516.8</ele>
        <time>2013-04-18T10:23:44.600Z</time>
      </trkpt>
      <trkpt lat="45.77273" lon="4.64503">
        <ele>517.2</ele>
        <time>2013-04-18T10:23:45.720Z</time>
      </trkpt>
      <trkpt lat="45.77272" lon="4.64501">
        <ele>517.5</ele>
        <time>2013-04-18T10:23:47.720Z</time>
      </trkpt>
      <trkpt lat="45.77272" lon="4.645">
        <ele>517.9</ele>
        <time>2013-04-18T10:23:48.720Z</time>
      </trkpt>
      <trkpt lat="45.77271" lon="4.64495">
        <ele>519.6</ele>
        <time>2013-04-18T10:23:51.610Z</time>
      </trkpt>
      <trkpt lat="45.7727" lon="4.64493">
        <ele>520.3</ele>
        <time>2013-04-18T10:23:53.610Z</time>
      </trkpt>
      <trkpt lat="45.77269" lon="4.64492">
        <ele>520.4</ele>
        <time>2013-04-18T10:23:55.610Z</time>
      </trkpt>
      <trkpt lat="45.77268" lon="4.6449">
        <ele>520.8</ele>
        <time>2013-04-18T10:23:57.610Z</time>
      </trkpt>
      <trkpt lat="45.77266" lon="4.64489">
        <ele>519.2</ele>
        <time>2013-04-18T10:23:58.590Z</time>
      </trkpt>
      <trkpt lat="45.77265" lon="4.64488">
        <ele>521.4</ele>
        <time>2013-04-18T10:23:59.670Z</time>
      </trkpt>
      <trkpt lat="45.77265" lon="4.64487">
        <ele>521.8</ele>
        <time>2013-04-18T10:24:00.710Z</time>
      </trkpt>
      <trkpt lat="45.77265" lon="4.64484">
        <ele>522.6</ele>
        <time>2013-04-18T10:24:02.710Z</time>
      </trkpt>
      <trkpt lat="45.77265" lon="4.64483">
        <ele>523.2</ele>
        <time>2013-04-18T10:24:03.710Z</time>
      </trkpt>
      <trkpt lat="45.77265" lon="4.64481">
        <ele>523.8</ele>
        <time>2013-04-18T10:24:04.710Z</time>
      </trkpt>
      <trkpt lat="45.77266" lon="4.6448">
        <ele>524.4</ele>
        <time>2013-04-18T10:24:06.710Z</time>
      </trkpt>
      <trkpt lat="45.77266" lon="4.64479">
        <ele>524.9</ele>
        <time>2013-04-18T10:24:07.710Z</time>
      </trkpt>
      <trkpt lat="45.77267" lon="4.64478">
        <ele>525.3</ele>
        <time>2013-04-18T10:24:08.710Z</time>
      </trkpt>
      <trkpt lat="45.77266" lon="4.64476">
        <ele>526.1</ele>
        <time>2013-04-18T10:24:10.610Z</time>
      </trkpt>
      <trkpt lat="45.77266" lon="4.64473">
        <ele>527</ele>
        <time>2013-04-18T10:24:12.610Z</time>
      </trkpt>
      <trkpt lat="45.77266" lon="4.64471">
        <ele>527.6</ele>
        <time>2013-04-18T10:24:13.610Z</time>
      </trkpt>
      <trkpt lat="45.77266" lon="4.6447">
        <ele>528.1</ele>
        <time>2013-04-18T10:24:14.610Z</time>
      </trkpt>
      <trkpt lat="45.77267" lon="4.64466">
        <ele>529.8</ele>
        <time>2013-04-18T10:24:17.610Z</time>
      </trkpt>
      <trkpt lat="45.77267" lon="4.64465">
        <ele>530.3</ele>
        <time>2013-04-18T10:24:18.610Z</time>
      </trkpt>
      <trkpt lat="45.77267" lon="4.64463">
        <ele>530.9</ele>
        <time>2013-04-18T10:24:19.610Z</time>
      </trkpt>
      <trkpt lat="45.77267" lon="4.64461">
        <ele>531.9</ele>
        <time>2013-04-18T10:24:21.610Z</time>
      </trkpt>
      <trkpt lat="45.77268" lon="4.6446">
        <ele>532.4</ele>
        <time>2013-04-18T10:24:22.610Z</time>
      </trkpt>
      <trkpt lat="45.77267" lon="4.64457">
        <ele>533.4</ele>
        <time>2013-04-18T10:24:24.610Z</time>
      </trkpt>
      <trkpt lat="45.77267" lon="4.64455">
        <ele>533.9</ele>
        <time>2013-04-18T10:24:25.610Z</time>
      </trkpt>
      <trkpt lat="45.77267" lon="4.64453">
        <ele>534.7</ele>
        <time>2013-04-18T10:24:26.610Z</time>
      </trkpt>
      <trkpt lat="45.77269" lon="4.6445">
        <ele>536.4</ele>
        <time>2013-04-18T10:24:27.610Z</time>
      </trkpt>
      <trkpt lat="45.77269" lon="4.64447">
        <ele>537.6</ele>
        <time>2013-04-18T10:24:28.610Z</time>
      </trkpt>
      <trkpt lat="45.77269" lon="4.64445">
        <ele>538.2</ele>
        <time>2013-04-18T10:24:29.610Z</time>
      </trkpt>
      <trkpt lat="45.77268" lon="4.64443">
        <ele>538.6</ele>
        <time>2013-04-18T10:24:31.600Z</time>
      </trkpt>
      <trkpt lat="45.77267" lon="4.64443">
        <ele>538.6</ele>
        <time>2013-04-18T10:24:32.600Z</time>
      </trkpt>
      <trkpt lat="45.77266" lon="4.64442">
        <ele>538.8</ele>
        <time>2013-04-18T10:24:33.660Z</time>
      </trkpt>
      <trkpt lat="45.77266" lon="4.64439">
        <ele>539.5</ele>
        <time>2013-04-18T10:24:34.700Z</time>
      </trkpt>
      <trkpt lat="45.77265" lon="4.64437">
        <ele>540</ele>
        <time>2013-04-18T10:24:35.700Z</time>
      </trkpt>
      <trkpt lat="45.77263" lon="4.64435">
        <ele>540.2</ele>
        <time>2013-04-18T10:24:37.580Z</time>
      </trkpt>
      <trkpt lat="45.77262" lon="4.64434">
        <ele>540.5</ele>
        <time>2013-04-18T10:24:38.600Z</time>
      </trkpt>
      <trkpt lat="45.77261" lon="4.64431">
        <ele>541.2</ele>
        <time>2013-04-18T10:24:39.600Z</time>
      </trkpt>
      <trkpt lat="45.7726" lon="4.64428">
        <ele>541.9</ele>
        <time>2013-04-18T10:24:40.600Z</time>
      </trkpt>
      <trkpt lat="45.77261" lon="4.64427">
        <ele>542.5</ele>
        <time>2013-04-18T10:24:41.600Z</time>
      </trkpt>
      <trkpt lat="45.7726" lon="4.64425">
        <ele>542.9</ele>
        <time>2013-04-18T10:24:42.600Z</time>
      </trkpt>
      <trkpt lat="45.7726" lon="4.64422">
        <ele>543.6</ele>
        <time>2013-04-18T10:24:43.600Z</time>
      </trkpt>
      <trkpt lat="45.77259" lon="4.6442">
        <ele>544.4</ele>
        <time>2013-04-18T10:24:44.600Z</time>
      </trkpt>
      <trkpt lat="45.77259" lon="4.64417">
        <ele>545.1</ele>
        <time>2013-04-18T10:24:45.600Z</time>
      </trkpt>
      <trkpt lat="45.77258" lon="4.64415">
        <ele>545.6</ele>
        <time>2013-04-18T10:24:46.600Z</time>
      </trkpt>
      <trkpt lat="45.77257" lon="4.64413">
        <ele>546.1</ele>
        <time>2013-04-18T10:24:48.610Z</time>
      </trkpt>
      <trkpt lat="45.77256" lon="4.64411">
        <ele>546.5</ele>
        <time>2013-04-18T10:24:49.600Z</time>
      </trkpt>
      <trkpt lat="45.77256" lon="4.64409">
        <ele>547.1</ele>
        <time>2013-04-18T10:24:50.610Z</time>
      </trkpt>
      <trkpt lat="45.77255" lon="4.64407">
        <ele>547.6</ele>
        <time>2013-04-18T10:24:51.700Z</time>
      </trkpt>
      <trkpt lat="45.77254" lon="4.64406">
        <ele>547.8</ele>
        <time>2013-04-18T10:24:52.700Z</time>
      </trkpt>
      <trkpt lat="45.77253" lon="4.64405">
        <ele>548</ele>
        <time>2013-04-18T10:24:53.700Z</time>
      </trkpt>
      <trkpt lat="45.77252" lon="4.64405">
        <ele>548</ele>
        <time>2013-04-18T10:24:55.700Z</time>
      </trkpt>
      <trkpt lat="45.77253" lon="4.64403">
        <ele>548.6</ele>
        <time>2013-04-18T10:24:56.700Z</time>
      </trkpt>
      <trkpt lat="45.77253" lon="4.64401">
        <ele>549.4</ele>
        <time>2013-04-18T10:24:57.700Z</time>
      </trkpt>
      <trkpt lat="45.77253" lon="4.64399">
        <ele>534.8</ele>
        <time>2013-04-18T10:24:58.700Z</time>
      </trkpt>
      <trkpt lat="45.77253" lon="4.64397">
        <ele>550.7</ele>
        <time>2013-04-18T10:24:59.550Z</time>
      </trkpt>
      <trkpt lat="45.77255" lon="4.64394">
        <ele>551.7</ele>
        <time>2013-04-18T10:25:00.600Z</time>
      </trkpt>
      <trkpt lat="45.77256" lon="4.64391">
        <ele>552.8</ele>
        <time>2013-04-18T10:25:01.580Z</time>
      </trkpt>
      <trkpt lat="45.77257" lon="4.64388">
        <ele>553.6</ele>
        <time>2013-04-18T10:25:02.600Z</time>
      </trkpt>
      <trkpt lat="45.77256" lon="4.64387">
        <ele>553.9</ele>
        <time>2013-04-18T10:25:03.600Z</time>
      </trkpt>
      <trkpt lat="45.77256" lon="4.64385">
        <ele>554.2</ele>
        <time>2013-04-18T10:25:04.600Z</time>
      </trkpt>
      <trkpt lat="45.77256" lon="4.64384">
        <ele>554.4</ele>
        <time>2013-04-18T10:25:05.600Z</time>
      </trkpt>
      <trkpt lat="45.77255" lon="4.64382">
        <ele>554.6</ele>
        <time>2013-04-18T10:25:06.600Z</time>
      </trkpt>
      <trkpt lat="45.77254" lon="4.64381">
        <ele>554.8</ele>
        <time>2013-04-18T10:25:07.600Z</time>
      </trkpt>
      <trkpt lat="45.77254" lon="4.64379">
        <ele>555.1</ele>
        <time>2013-04-18T10:25:08.700Z</time>
      </trkpt>
      <trkpt lat="45.77254" lon="4.64378">
        <ele>555.4</ele>
        <time>2013-04-18T10:25:09.700Z</time>
      </trkpt>
      <trkpt lat="45.77254" lon="4.64376">
        <ele>555.7</ele>
        <time>2013-04-18T10:25:11.710Z</time>
      </trkpt>
      <trkpt lat="45.77253" lon="4.64374">
        <ele>556</ele>
        <time>2013-04-18T10:25:12.690Z</time>
      </trkpt>
      <trkpt lat="45.77253" lon="4.64372">
        <ele>556.4</ele>
        <time>2013-04-18T10:25:13.690Z</time>
      </trkpt>
      <trkpt lat="45.77253" lon="4.64369">
        <ele>556.8</ele>
        <time>2013-04-18T10:25:14.680Z</time>
      </trkpt>
      <trkpt lat="45.77252" lon="4.64368">
        <ele>557</ele>
        <time>2013-04-18T10:25:15.690Z</time>
      </trkpt>
      <trkpt lat="45.77251" lon="4.64366">
        <ele>557.2</ele>
        <time>2013-04-18T10:25:16.570Z</time>
      </trkpt>
      <trkpt lat="45.7725" lon="4.64364">
        <ele>557.4</ele>
        <time>2013-04-18T10:25:17.690Z</time>
      </trkpt>
      <trkpt lat="45.7725" lon="4.64362">
        <ele>557.7</ele>
        <time>2013-04-18T10:25:18.690Z</time>
      </trkpt>
      <trkpt lat="45.77249" lon="4.6436">
        <ele>558.1</ele>
        <time>2013-04-18T10:25:19.690Z</time>
      </trkpt>
      <trkpt lat="45.77249" lon="4.64358">
        <ele>558.4</ele>
        <time>2013-04-18T10:25:20.690Z</time>
      </trkpt>
      <trkpt lat="45.77248" lon="4.64356">
        <ele>558.8</ele>
        <time>2013-04-18T10:25:21.690Z</time>
      </trkpt>
      <trkpt lat="45.77248" lon="4.64355">
        <ele>559</ele>
        <time>2013-04-18T10:25:22.690Z</time>
      </trkpt>
      <trkpt lat="45.77248" lon="4.64352">
        <ele>559.7</ele>
        <time>2013-04-18T10:25:24.590Z</time>
      </trkpt>
      <trkpt lat="45.77249" lon="4.6435">
        <ele>560.6</ele>
        <time>2013-04-18T10:25:26.590Z</time>
      </trkpt>
      <trkpt lat="45.7725" lon="4.64348">
        <ele>561.1</ele>
        <time>2013-04-18T10:25:27.570Z</time>
      </trkpt>
      <trkpt lat="45.7725" lon="4.64346">
        <ele>561.7</ele>
        <time>2013-04-18T10:25:28.590Z</time>
      </trkpt>
      <trkpt lat="45.7725" lon="4.64344">
        <ele>562.3</ele>
        <time>2013-04-18T10:25:29.590Z</time>
      </trkpt>
      <trkpt lat="45.7725" lon="4.64342">
        <ele>562.6</ele>
        <time>2013-04-18T10:25:30.590Z</time>
      </trkpt>
      <trkpt lat="45.77248" lon="4.64341">
        <ele>562.5</ele>
        <time>2013-04-18T10:25:31.590Z</time>
      </trkpt>
      <trkpt lat="45.77247" lon="4.6434">
        <ele>562.6</ele>
        <time>2013-04-18T10:25:32.590Z</time>
      </trkpt>
      <trkpt lat="45.77248" lon="4.64338">
        <ele>563.1</ele>
        <time>2013-04-18T10:25:33.640Z</time>
      </trkpt>
      <trkpt lat="45.77249" lon="4.64336">
        <ele>563.9</ele>
        <time>2013-04-18T10:25:34.690Z</time>
      </trkpt>
      <trkpt lat="45.77249" lon="4.64334">
        <ele>564.6</ele>
        <time>2013-04-18T10:25:35.690Z</time>
      </trkpt>
      <trkpt lat="45.77251" lon="4.64332">
        <ele>565.3</ele>
        <time>2013-04-18T10:25:36.690Z</time>
      </trkpt>
      <trkpt lat="45.77252" lon="4.64331">
        <ele>565.8</ele>
        <time>2013-04-18T10:25:37.690Z</time>
      </trkpt>
      <trkpt lat="45.77253" lon="4.64329">
        <ele>566.3</ele>
        <time>2013-04-18T10:25:38.690Z</time>
      </trkpt>
      <trkpt lat="45.77254" lon="4.64326">
        <ele>567</ele>
        <time>2013-04-18T10:25:40.590Z</time>
      </trkpt>
      <trkpt lat="45.77255" lon="4.64325">
        <ele>567.4</ele>
        <time>2013-04-18T10:25:41.590Z</time>
      </trkpt>
      <trkpt lat="45.77257" lon="4.64323">
        <ele>568</ele>
        <time>2013-04-18T10:25:42.590Z</time>
      </trkpt>
      <trkpt lat="45.77258" lon="4.64321">
        <ele>568.7</ele>
        <time>2013-04-18T10:25:43.590Z</time>
      </trkpt>
      <trkpt lat="45.7726" lon="4.64318">
        <ele>569.3</ele>
        <time>2013-04-18T10:25:44.690Z</time>
      </trkpt>
      <trkpt lat="45.77261" lon="4.64317">
        <ele>569.8</ele>
        <time>2013-04-18T10:25:45.690Z</time>
      </trkpt>
      <trkpt lat="45.77261" lon="4.64314">
        <ele>570.3</ele>
        <time>2013-04-18T10:25:46.690Z</time>
      </trkpt>
      <trkpt lat="45.77261" lon="4.64312">
        <ele>570.8</ele>
        <time>2013-04-18T10:25:47.690Z</time>
      </trkpt>
      <trkpt lat="45.7726" lon="4.64311">
        <ele>571</ele>
        <time>2013-04-18T10:25:48.690Z</time>
      </trkpt>
      <trkpt lat="45.77259" lon="4.64309">
        <ele>571.5</ele>
        <time>2013-04-18T10:25:49.690Z</time>
      </trkpt>
      <trkpt lat="45.77257" lon="4.64304">
        <ele>572.7</ele>
        <time>2013-04-18T10:25:51.590Z</time>
      </trkpt>
      <trkpt lat="45.77257" lon="4.64301">
        <ele>573.2</ele>
        <time>2013-04-18T10:25:52.580Z</time>
      </trkpt>
      <trkpt lat="45.77258" lon="4.643">
        <ele>573.6</ele>
        <time>2013-04-18T10:25:53.570Z</time>
      </trkpt>
      <trkpt lat="45.77259" lon="4.64299">
        <ele>573.9</ele>
        <time>2013-04-18T10:25:54.680Z</time>
      </trkpt>
      <trkpt lat="45.77258" lon="4.64296">
        <ele>574.4</ele>
        <time>2013-04-18T10:25:56.680Z</time>
      </trkpt>
      <trkpt lat="45.77258" lon="4.64293">
        <ele>558.6</ele>
        <time>2013-04-18T10:25:58.680Z</time>
      </trkpt>
      <trkpt lat="45.77258" lon="4.64291">
        <ele>575.5</ele>
        <time>2013-04-18T10:25:59.640Z</time>
      </trkpt>
      <trkpt lat="45.77257" lon="4.64289">
        <ele>575.9</ele>
        <time>2013-04-18T10:26:00.680Z</time>
      </trkpt>
      <trkpt lat="45.77257" lon="4.64288">
        <ele>576.2</ele>
        <time>2013-04-18T10:26:01.680Z</time>
      </trkpt>
      <trkpt lat="45.77256" lon="4.64286">
        <ele>576.5</ele>
        <time>2013-04-18T10:26:02.680Z</time>
      </trkpt>
      <trkpt lat="45.77255" lon="4.64284">
        <ele>576.9</ele>
        <time>2013-04-18T10:26:03.680Z</time>
      </trkpt>
      <trkpt lat="45.77253" lon="4.64282">
        <ele>577.2</ele>
        <time>2013-04-18T10:26:04.660Z</time>
      </trkpt>
      <trkpt lat="45.77253" lon="4.64281">
        <ele>577.4</ele>
        <time>2013-04-18T10:26:05.680Z</time>
      </trkpt>
      <trkpt lat="45.77252" lon="4.6428">
        <ele>577.7</ele>
        <time>2013-04-18T10:26:06.680Z</time>
      </trkpt>
      <trkpt lat="45.77251" lon="4.64278">
        <ele>578</ele>
        <time>2013-04-18T10:26:07.680Z</time>
      </trkpt>
      <trkpt lat="45.77251" lon="4.64274">
        <ele>579</ele>
        <time>2013-04-18T10:26:09.580Z</time>
      </trkpt>
      <trkpt lat="45.77251" lon="4.64273">
        <ele>579.4</ele>
        <time>2013-04-18T10:26:10.580Z</time>
      </trkpt>
      <trkpt lat="45.77252" lon="4.64271">
        <ele>579.9</ele>
        <time>2013-04-18T10:26:12.580Z</time>
      </trkpt>
      <trkpt lat="45.77253" lon="4.6427">
        <ele>580.3</ele>
        <time>2013-04-18T10:26:13.580Z</time>
      </trkpt>
      <trkpt lat="45.77253" lon="4.64269">
        <ele>580.6</ele>
        <time>2013-04-18T10:26:14.580Z</time>
      </trkpt>
      <trkpt lat="45.77254" lon="4.64267">
        <ele>581</ele>
        <time>2013-04-18T10:26:15.580Z</time>
      </trkpt>
      <trkpt lat="45.77254" lon="4.64266">
        <ele>581.4</ele>
        <time>2013-04-18T10:26:16.530Z</time>
      </trkpt>
      <trkpt lat="45.77254" lon="4.64263">
        <ele>582.2</ele>
        <time>2013-04-18T10:26:17.580Z</time>
      </trkpt>
      <trkpt lat="45.77255" lon="4.6426">
        <ele>583</ele>
        <time>2013-04-18T10:26:18.680Z</time>
      </trkpt>
      <trkpt lat="45.77254" lon="4.64258">
        <ele>583.5</ele>
        <time>2013-04-18T10:26:19.680Z</time>
      </trkpt>
      <trkpt lat="45.77255" lon="4.64256">
        <ele>584.1</ele>
        <time>2013-04-18T10:26:20.680Z</time>
      </trkpt>
      <trkpt lat="45.77254" lon="4.64254">
        <ele>584.7</ele>
        <time>2013-04-18T10:26:21.680Z</time>
      </trkpt>
      <trkpt lat="45.77255" lon="4.64252">
        <ele>585.1</ele>
        <time>2013-04-18T10:26:22.680Z</time>
      </trkpt>
      <trkpt lat="45.77254" lon="4.64251">
        <ele>585.3</ele>
        <time>2013-04-18T10:26:23.680Z</time>
      </trkpt>
      <trkpt lat="45.77252" lon="4.64248">
        <ele>585.9</ele>
        <time>2013-04-18T10:26:24.680Z</time>
      </trkpt>
      <trkpt lat="45.77251" lon="4.64244">
        <ele>586.6</ele>
        <time>2013-04-18T10:26:25.680Z</time>
      </trkpt>
      <trkpt lat="45.77249" lon="4.64243">
        <ele>586.9</ele>
        <time>2013-04-18T10:26:26.680Z</time>
      </trkpt>
      <trkpt lat="45.77248" lon="4.64241">
        <ele>587.2</ele>
        <time>2013-04-18T10:26:27.680Z</time>
      </trkpt>
      <trkpt lat="45.77247" lon="4.6424">
        <ele>587.7</ele>
        <time>2013-04-18T10:26:29.660Z</time>
      </trkpt>
      <trkpt lat="45.77247" lon="4.64237">
        <ele>588.4</ele>
        <time>2013-04-18T10:26:30.680Z</time>
      </trkpt>
      <trkpt lat="45.77246" lon="4.64234">
        <ele>589</ele>
        <time>2013-04-18T10:26:31.680Z</time>
      </trkpt>
      <trkpt lat="45.77246" lon="4.64233">
        <ele>589.5</ele>
        <time>2013-04-18T10:26:32.670Z</time>
      </trkpt>
      <trkpt lat="45.77245" lon="4.64232">
        <ele>589.7</ele>
        <time>2013-04-18T10:26:34.670Z</time>
      </trkpt>
      <trkpt lat="45.77244" lon="4.64231">
        <ele>590</ele>
        <time>2013-04-18T10:26:35.670Z</time>
      </trkpt>
      <trkpt lat="45.77244" lon="4.64229">
        <ele>590.4</ele>
        <time>2013-04-18T10:26:36.670Z</time>
      </trkpt>
      <trkpt lat="45.77243" lon="4.64228">
        <ele>590.7</ele>
        <time>2013-04-18T10:26:37.670Z</time>
      </trkpt>
      <trkpt lat="45.77242" lon="4.64228">
        <ele>590.8</ele>
        <time>2013-04-18T10:26:38.670Z</time>
      </trkpt>
      <trkpt lat="45.77241" lon="4.64228">
        <ele>590.9</ele>
        <time>2013-04-18T10:26:39.670Z</time>
      </trkpt>
      <trkpt lat="45.7724" lon="4.64228">
        <ele>591</ele>
        <time>2013-04-18T10:26:40.670Z</time>
      </trkpt>
      <trkpt lat="45.77239" lon="4.64226">
        <ele>591.4</ele>
        <time>2013-04-18T10:26:41.670Z</time>
      </trkpt>
      <trkpt lat="45.77237" lon="4.64225">
        <ele>591.7</ele>
        <time>2013-04-18T10:26:42.650Z</time>
      </trkpt>
      <trkpt lat="45.77235" lon="4.64225">
        <ele>591.9</ele>
        <time>2013-04-18T10:26:43.770Z</time>
      </trkpt>
      <trkpt lat="45.77234" lon="4.64223">
        <ele>592.3</ele>
        <time>2013-04-18T10:26:44.770Z</time>
      </trkpt>
      <trkpt lat="45.77233" lon="4.64221">
        <ele>593</ele>
        <time>2013-04-18T10:26:46.670Z</time>
      </trkpt>
      <trkpt lat="45.77231" lon="4.64219">
        <ele>593.6</ele>
        <time>2013-04-18T10:26:47.670Z</time>
      </trkpt>
      <trkpt lat="45.7723" lon="4.64216">
        <ele>594.5</ele>
        <time>2013-04-18T10:26:48.670Z</time>
      </trkpt>
      <trkpt lat="45.77229" lon="4.64213">
        <ele>595.1</ele>
        <time>2013-04-18T10:26:49.670Z</time>
      </trkpt>
      <trkpt lat="45.77229" lon="4.64212">
        <ele>595.5</ele>
        <time>2013-04-18T10:26:50.620Z</time>
      </trkpt>
      <trkpt lat="45.77229" lon="4.64211">
        <ele>595.9</ele>
        <time>2013-04-18T10:26:51.770Z</time>
      </trkpt>
      <trkpt lat="45.77228" lon="4.64209">
        <ele>596.3</ele>
        <time>2013-04-18T10:26:52.770Z</time>
      </trkpt>
      <trkpt lat="45.77226" lon="4.64207">
        <ele>596.9</ele>
        <time>2013-04-18T10:26:54.570Z</time>
      </trkpt>
      <trkpt lat="45.77225" lon="4.64205">
        <ele>597.3</ele>
        <time>2013-04-18T10:26:55.770Z</time>
      </trkpt>
      <trkpt lat="45.77224" lon="4.64205">
        <ele>597.5</ele>
        <time>2013-04-18T10:26:56.670Z</time>
      </trkpt>
      <trkpt lat="45.7722" lon="4.64203">
        <ele>579.9</ele>
        <time>2013-04-18T10:26:58.570Z</time>
      </trkpt>
      <trkpt lat="45.77218" lon="4.64202">
        <ele>597.7</ele>
        <time>2013-04-18T10:26:59.540Z</time>
      </trkpt>
      <trkpt lat="45.77216" lon="4.642">
        <ele>597.9</ele>
        <time>2013-04-18T10:27:00.670Z</time>
      </trkpt>
      <trkpt lat="45.77213" lon="4.64199">
        <ele>598</ele>
        <time>2013-04-18T10:27:01.670Z</time>
      </trkpt>
      <trkpt lat="45.77211" lon="4.64198">
        <ele>598</ele>
        <time>2013-04-18T10:27:02.670Z</time>
      </trkpt>
      <trkpt lat="45.77208" lon="4.64196">
        <ele>598</ele>
        <time>2013-04-18T10:27:03.670Z</time>
      </trkpt>
      <trkpt lat="45.77205" lon="4.64195">
        <ele>598</ele>
        <time>2013-04-18T10:27:04.670Z</time>
      </trkpt>
      <trkpt lat="45.77202" lon="4.64194">
        <ele>597.8</ele>
        <time>2013-04-18T10:27:05.670Z</time>
      </trkpt>
      <trkpt lat="45.77199" lon="4.64193">
        <ele>597.7</ele>
        <time>2013-04-18T10:27:06.670Z</time>
      </trkpt>
      <trkpt lat="45.77195" lon="4.64192">
        <ele>597.6</ele>
        <time>2013-04-18T10:27:07.650Z</time>
      </trkpt>
      <trkpt lat="45.77192" lon="4.64191">
        <ele>597.2</ele>
        <time>2013-04-18T10:27:08.670Z</time>
      </trkpt>
      <trkpt lat="45.77189" lon="4.6419">
        <ele>596.9</ele>
        <time>2013-04-18T10:27:09.670Z</time>
      </trkpt>
      <trkpt lat="45.77187" lon="4.64189">
        <ele>596.8</ele>
        <time>2013-04-18T10:27:10.670Z</time>
      </trkpt>
      <trkpt lat="45.77184" lon="4.64187">
        <ele>596.6</ele>
        <time>2013-04-18T10:27:11.670Z</time>
      </trkpt>
      <trkpt lat="45.77181" lon="4.64186">
        <ele>596.3</ele>
        <time>2013-04-18T10:27:12.670Z</time>
      </trkpt>
      <trkpt lat="45.77178" lon="4.64186">
        <ele>595.9</ele>
        <time>2013-04-18T10:27:13.670Z</time>
      </trkpt>
      <trkpt lat="45.77175" lon="4.64185">
        <ele>595.5</ele>
        <time>2013-04-18T10:27:14.660Z</time>
      </trkpt>
      <trkpt lat="45.77172" lon="4.64183">
        <ele>595.3</ele>
        <time>2013-04-18T10:27:15.660Z</time>
      </trkpt>
      <trkpt lat="45.7717" lon="4.64182">
        <ele>595.2</ele>
        <time>2013-04-18T10:27:16.620Z</time>
      </trkpt>
      <trkpt lat="45.77168" lon="4.6418">
        <ele>595.4</ele>
        <time>2013-04-18T10:27:17.660Z</time>
      </trkpt>
      <trkpt lat="45.77166" lon="4.64177">
        <ele>595.6</ele>
        <time>2013-04-18T10:27:18.660Z</time>
      </trkpt>
      <trkpt lat="45.77164" lon="4.64175">
        <ele>595.5</ele>
        <time>2013-04-18T10:27:19.660Z</time>
      </trkpt>
      <trkpt lat="45.77162" lon="4.64173">
        <ele>595.4</ele>
        <time>2013-04-18T10:27:20.760Z</time>
      </trkpt>
      <trkpt lat="45.77159" lon="4.64171">
        <ele>595.4</ele>
        <time>2013-04-18T10:27:21.760Z</time>
      </trkpt>
      <trkpt lat="45.77156" lon="4.64169">
        <ele>595.3</ele>
        <time>2013-04-18T10:27:22.760Z</time>
      </trkpt>
      <trkpt lat="45.77153" lon="4.64167">
        <ele>595</ele>
        <time>2013-04-18T10:27:23.760Z</time>
      </trkpt>
      <trkpt lat="45.77145" lon="4.64164">
        <ele>593.9</ele>
        <time>2013-04-18T10:27:25.760Z</time>
      </trkpt>
      <trkpt lat="45.77142" lon="4.64164">
        <ele>593.2</ele>
        <time>2013-04-18T10:27:26.760Z</time>
      </trkpt>
      <trkpt lat="45.77139" lon="4.64165">
        <ele>592.4</ele>
        <time>2013-04-18T10:27:27.760Z</time>
      </trkpt>
      <trkpt lat="45.77136" lon="4.64166">
        <ele>592.2</ele>
        <time>2013-04-18T10:27:28.760Z</time>
      </trkpt>
      <trkpt lat="45.77133" lon="4.64168">
        <ele>591.7</ele>
        <time>2013-04-18T10:27:29.760Z</time>
      </trkpt>
      <trkpt lat="45.77132" lon="4.64172">
        <ele>590.8</ele>
        <time>2013-04-18T10:27:30.760Z</time>
      </trkpt>
      <trkpt lat="45.77131" lon="4.64175">
        <ele>590.1</ele>
        <time>2013-04-18T10:27:31.760Z</time>
      </trkpt>
      <trkpt lat="45.77129" lon="4.6418">
        <ele>589.2</ele>
        <time>2013-04-18T10:27:32.740Z</time>
      </trkpt>
      <trkpt lat="45.77127" lon="4.64185">
        <ele>588.3</ele>
        <time>2013-04-18T10:27:33.710Z</time>
      </trkpt>
      <trkpt lat="45.77126" lon="4.64189">
        <ele>587.8</ele>
        <time>2013-04-18T10:27:34.760Z</time>
      </trkpt>
      <trkpt lat="45.77123" lon="4.64197">
        <ele>587</ele>
        <time>2013-04-18T10:27:36.660Z</time>
      </trkpt>
      <trkpt lat="45.77123" lon="4.64201">
        <ele>586.3</ele>
        <time>2013-04-18T10:27:37.660Z</time>
      </trkpt>
      <trkpt lat="45.77122" lon="4.64207">
        <ele>585.6</ele>
        <time>2013-04-18T10:27:38.660Z</time>
      </trkpt>
      <trkpt lat="45.77121" lon="4.64213">
        <ele>584.7</ele>
        <time>2013-04-18T10:27:39.660Z</time>
      </trkpt>
      <trkpt lat="45.77121" lon="4.64219">
        <ele>583.7</ele>
        <time>2013-04-18T10:27:40.660Z</time>
      </trkpt>
      <trkpt lat="45.7712" lon="4.64226">
        <ele>583</ele>
        <time>2013-04-18T10:27:41.660Z</time>
      </trkpt>
      <trkpt lat="45.77119" lon="4.64231">
        <ele>582.7</ele>
        <time>2013-04-18T10:27:42.660Z</time>
      </trkpt>
      <trkpt lat="45.77118" lon="4.64236">
        <ele>582.4</ele>
        <time>2013-04-18T10:27:43.660Z</time>
      </trkpt>
      <trkpt lat="45.77115" lon="4.64243">
        <ele>582.5</ele>
        <time>2013-04-18T10:27:45.660Z</time>
      </trkpt>
      <trkpt lat="45.77115" lon="4.64247">
        <ele>582.1</ele>
        <time>2013-04-18T10:27:46.660Z</time>
      </trkpt>
      <trkpt lat="45.77115" lon="4.6425">
        <ele>581.6</ele>
        <time>2013-04-18T10:27:47.660Z</time>
      </trkpt>
      <trkpt lat="45.77115" lon="4.64254">
        <ele>581.3</ele>
        <time>2013-04-18T10:27:48.660Z</time>
      </trkpt>
      <trkpt lat="45.77114" lon="4.64258">
        <ele>581.2</ele>
        <time>2013-04-18T10:27:49.660Z</time>
      </trkpt>
      <trkpt lat="45.77113" lon="4.64262">
        <ele>581</ele>
        <time>2013-04-18T10:27:50.610Z</time>
      </trkpt>
      <trkpt lat="45.77113" lon="4.64267">
        <ele>580.4</ele>
        <time>2013-04-18T10:27:51.660Z</time>
      </trkpt>
      <trkpt lat="45.77113" lon="4.64273">
        <ele>580</ele>
        <time>2013-04-18T10:27:52.650Z</time>
      </trkpt>
      <trkpt lat="45.77113" lon="4.64277">
        <ele>579.5</ele>
        <time>2013-04-18T10:27:53.660Z</time>
      </trkpt>
      <trkpt lat="45.77112" lon="4.64281">
        <ele>579.1</ele>
        <time>2013-04-18T10:27:54.650Z</time>
      </trkpt>
      <trkpt lat="45.77113" lon="4.64285">
        <ele>578.7</ele>
        <time>2013-04-18T10:27:55.650Z</time>
      </trkpt>
      <trkpt lat="45.77113" lon="4.64289">
        <ele>577.9</ele>
        <time>2013-04-18T10:27:56.750Z</time>
      </trkpt>
      <trkpt lat="45.77113" lon="4.64292">
        <ele>577.5</ele>
        <time>2013-04-18T10:27:57.750Z</time>
      </trkpt>
      <trkpt lat="45.77113" lon="4.64296">
        <ele>595.2</ele>
        <time>2013-04-18T10:27:58.750Z</time>
      </trkpt>
      <trkpt lat="45.77113" lon="4.64305">
        <ele>576.4</ele>
        <time>2013-04-18T10:28:00.650Z</time>
      </trkpt>
      <trkpt lat="45.77113" lon="4.6431">
        <ele>575.8</ele>
        <time>2013-04-18T10:28:01.650Z</time>
      </trkpt>
      <trkpt lat="45.77114" lon="4.64314">
        <ele>575.3</ele>
        <time>2013-04-18T10:28:02.660Z</time>
      </trkpt>
      <trkpt lat="45.77113" lon="4.64317">
        <ele>575.2</ele>
        <time>2013-04-18T10:28:03.650Z</time>
      </trkpt>
      <trkpt lat="45.77113" lon="4.64321">
        <ele>574.9</ele>
        <time>2013-04-18T10:28:04.650Z</time>
      </trkpt>
      <trkpt lat="45.77112" lon="4.64324">
        <ele>575.1</ele>
        <time>2013-04-18T10:28:05.650Z</time>
      </trkpt>
      <trkpt lat="45.7711" lon="4.64334">
        <ele>575.3</ele>
        <time>2013-04-18T10:28:07.650Z</time>
      </trkpt>
      <trkpt lat="45.77109" lon="4.64339">
        <ele>575.6</ele>
        <time>2013-04-18T10:28:08.650Z</time>
      </trkpt>
      <trkpt lat="45.77109" lon="4.64343">
        <ele>575.6</ele>
        <time>2013-04-18T10:28:09.650Z</time>
      </trkpt>
      <trkpt lat="45.77109" lon="4.64348">
        <ele>575.3</ele>
        <time>2013-04-18T10:28:10.760Z</time>
      </trkpt>
      <trkpt lat="45.77109" lon="4.64354">
        <ele>575.1</ele>
        <time>2013-04-18T10:28:11.750Z</time>
      </trkpt>
      <trkpt lat="45.7711" lon="4.64359">
        <ele>574.6</ele>
        <time>2013-04-18T10:28:12.750Z</time>
      </trkpt>
      <trkpt lat="45.77111" lon="4.64365">
        <ele>574.1</ele>
        <time>2013-04-18T10:28:13.750Z</time>
      </trkpt>
      <trkpt lat="45.77111" lon="4.64371">
        <ele>573.8</ele>
        <time>2013-04-18T10:28:14.750Z</time>
      </trkpt>
      <trkpt lat="45.77111" lon="4.64383">
        <ele>573.3</ele>
        <time>2013-04-18T10:28:16.600Z</time>
      </trkpt>
      <trkpt lat="45.77111" lon="4.64389">
        <ele>573</ele>
        <time>2013-04-18T10:28:17.650Z</time>
      </trkpt>
      <trkpt lat="45.77111" lon="4.64395">
        <ele>572.5</ele>
        <time>2013-04-18T10:28:18.650Z</time>
      </trkpt>
      <trkpt lat="45.77111" lon="4.64401">
        <ele>572.1</ele>
        <time>2013-04-18T10:28:19.750Z</time>
      </trkpt>
      <trkpt lat="45.77111" lon="4.64407">
        <ele>571.6</ele>
        <time>2013-04-18T10:28:20.750Z</time>
      </trkpt>
      <trkpt lat="45.77111" lon="4.64413">
        <ele>571.5</ele>
        <time>2013-04-18T10:28:21.750Z</time>
      </trkpt>
      <trkpt lat="45.7711" lon="4.64418">
        <ele>571.2</ele>
        <time>2013-04-18T10:28:22.750Z</time>
      </trkpt>
      <trkpt lat="45.7711" lon="4.64424">
        <ele>571</ele>
        <time>2013-04-18T10:28:23.750Z</time>
      </trkpt>
      <trkpt lat="45.77109" lon="4.64428">
        <ele>571</ele>
        <time>2013-04-18T10:28:24.750Z</time>
      </trkpt>
      <trkpt lat="45.77108" lon="4.64434">
        <ele>570.8</ele>
        <time>2013-04-18T10:28:25.750Z</time>
      </trkpt>
      <trkpt lat="45.77108" lon="4.64441">
        <ele>570.2</ele>
        <time>2013-04-18T10:28:26.750Z</time>
      </trkpt>
      <trkpt lat="45.77107" lon="4.64447">
        <ele>570</ele>
        <time>2013-04-18T10:28:27.750Z</time>
      </trkpt>
      <trkpt lat="45.77106" lon="4.64452">
        <ele>569.8</ele>
        <time>2013-04-18T10:28:28.750Z</time>
      </trkpt>
      <trkpt lat="45.77103" lon="4.64463">
        <ele>569.7</ele>
        <time>2013-04-18T10:28:30.650Z</time>
      </trkpt>
      <trkpt lat="45.77101" lon="4.64466">
        <ele>569.7</ele>
        <time>2013-04-18T10:28:31.650Z</time>
      </trkpt>
      <trkpt lat="45.771" lon="4.6447">
        <ele>569.8</ele>
        <time>2013-04-18T10:28:32.650Z</time>
      </trkpt>
      <trkpt lat="45.77097" lon="4.64473">
        <ele>569.9</ele>
        <time>2013-04-18T10:28:33.670Z</time>
      </trkpt>
      <trkpt lat="45.77095" lon="4.64482">
        <ele>569</ele>
        <time>2013-04-18T10:28:35.640Z</time>
      </trkpt>
      <trkpt lat="45.77093" lon="4.64487">
        <ele>568.6</ele>
        <time>2013-04-18T10:28:36.640Z</time>
      </trkpt>
      <trkpt lat="45.77091" lon="4.64491">
        <ele>568.3</ele>
        <time>2013-04-18T10:28:37.640Z</time>
      </trkpt>
      <trkpt lat="45.77089" lon="4.64496">
        <ele>567.8</ele>
        <time>2013-04-18T10:28:38.640Z</time>
      </trkpt>
      <trkpt lat="45.77088" lon="4.64499">
        <ele>567.5</ele>
        <time>2013-04-18T10:28:39.640Z</time>
      </trkpt>
      <trkpt lat="45.77085" lon="4.64501">
        <ele>567.6</ele>
        <time>2013-04-18T10:28:40.740Z</time>
      </trkpt>
      <trkpt lat="45.77082" lon="4.64502">
        <ele>567.6</ele>
        <time>2013-04-18T10:28:41.720Z</time>
      </trkpt>
      <trkpt lat="45.77079" lon="4.64505">
        <ele>567.4</ele>
        <time>2013-04-18T10:28:42.740Z</time>
      </trkpt>
      <trkpt lat="45.77076" lon="4.64508">
        <ele>567</ele>
        <time>2013-04-18T10:28:43.740Z</time>
      </trkpt>
      <trkpt lat="45.77071" lon="4.64513">
        <ele>566.1</ele>
        <time>2013-04-18T10:28:45.640Z</time>
      </trkpt>
      <trkpt lat="45.77069" lon="4.64517">
        <ele>565.4</ele>
        <time>2013-04-18T10:28:46.640Z</time>
      </trkpt>
      <trkpt lat="45.77066" lon="4.6452">
        <ele>564.7</ele>
        <time>2013-04-18T10:28:47.640Z</time>
      </trkpt>
      <trkpt lat="45.77063" lon="4.64522">
        <ele>564.4</ele>
        <time>2013-04-18T10:28:48.640Z</time>
      </trkpt>
      <trkpt lat="45.7706" lon="4.64524">
        <ele>563.9</ele>
        <time>2013-04-18T10:28:49.640Z</time>
      </trkpt>
      <trkpt lat="45.77058" lon="4.64526">
        <ele>563.5</ele>
        <time>2013-04-18T10:28:50.690Z</time>
      </trkpt>
      <trkpt lat="45.77056" lon="4.64529">
        <ele>562.7</ele>
        <time>2013-04-18T10:28:51.740Z</time>
      </trkpt>
      <trkpt lat="45.77054" lon="4.64533">
        <ele>561.9</ele>
        <time>2013-04-18T10:28:52.740Z</time>
      </trkpt>
      <trkpt lat="45.77052" lon="4.64537">
        <ele>561.1</ele>
        <time>2013-04-18T10:28:53.720Z</time>
      </trkpt>
      <trkpt lat="45.7705" lon="4.64541">
        <ele>560.4</ele>
        <time>2013-04-18T10:28:54.740Z</time>
      </trkpt>
      <trkpt lat="45.77048" lon="4.64546">
        <ele>559.4</ele>
        <time>2013-04-18T10:28:55.740Z</time>
      </trkpt>
      <trkpt lat="45.77047" lon="4.6455">
        <ele>558.5</ele>
        <time>2013-04-18T10:28:56.740Z</time>
      </trkpt>
      <trkpt lat="45.77045" lon="4.64556">
        <ele>557.4</ele>
        <time>2013-04-18T10:28:57.740Z</time>
      </trkpt>
      <trkpt lat="45.77042" lon="4.6456">
        <ele>590.4</ele>
        <time>2013-04-18T10:28:58.740Z</time>
      </trkpt>
      <trkpt lat="45.77039" lon="4.64566">
        <ele>555.8</ele>
        <time>2013-04-18T10:29:00.640Z</time>
      </trkpt>
      <trkpt lat="45.77038" lon="4.6457">
        <ele>555</ele>
        <time>2013-04-18T10:29:01.640Z</time>
      </trkpt>
      <trkpt lat="45.77037" lon="4.64577">
        <ele>553.7</ele>
        <time>2013-04-18T10:29:02.640Z</time>
      </trkpt>
      <trkpt lat="45.77035" lon="4.64583">
        <ele>552.5</ele>
        <time>2013-04-18T10:29:03.620Z</time>
      </trkpt>
      <trkpt lat="45.77033" lon="4.64589">
        <ele>551.7</ele>
        <time>2013-04-18T10:29:04.740Z</time>
      </trkpt>
      <trkpt lat="45.77032" lon="4.64593">
        <ele>551</ele>
        <time>2013-04-18T10:29:05.740Z</time>
      </trkpt>
      <trkpt lat="45.77029" lon="4.64597">
        <ele>550.7</ele>
        <time>2013-04-18T10:29:06.740Z</time>
      </trkpt>
      <trkpt lat="45.77027" lon="4.64601">
        <ele>550.3</ele>
        <time>2013-04-18T10:29:07.740Z</time>
      </trkpt>
      <trkpt lat="45.77024" lon="4.64603">
        <ele>550</ele>
        <time>2013-04-18T10:29:08.740Z</time>
      </trkpt>
      <trkpt lat="45.77021" lon="4.64606">
        <ele>549.7</ele>
        <time>2013-04-18T10:29:09.740Z</time>
      </trkpt>
      <trkpt lat="45.77018" lon="4.64606">
        <ele>549.8</ele>
        <time>2013-04-18T10:29:10.740Z</time>
      </trkpt>
      <trkpt lat="45.77015" lon="4.64605">
        <ele>550.4</ele>
        <time>2013-04-18T10:29:11.740Z</time>
      </trkpt>
      <trkpt lat="45.77012" lon="4.64603">
        <ele>550.9</ele>
        <time>2013-04-18T10:29:12.730Z</time>
      </trkpt>
      <trkpt lat="45.77009" lon="4.64602">
        <ele>551.3</ele>
        <time>2013-04-18T10:29:13.740Z</time>
      </trkpt>
      <trkpt lat="45.77002" lon="4.646">
        <ele>552.3</ele>
        <time>2013-04-18T10:29:15.640Z</time>
      </trkpt>
      <trkpt lat="45.76998" lon="4.64598">
        <ele>552.8</ele>
        <time>2013-04-18T10:29:16.590Z</time>
      </trkpt>
      <trkpt lat="45.76996" lon="4.64597">
        <ele>553.2</ele>
        <time>2013-04-18T10:29:17.640Z</time>
      </trkpt>
      <trkpt lat="45.76994" lon="4.64596">
        <ele>553.4</ele>
        <time>2013-04-18T10:29:18.630Z</time>
      </trkpt>
      <trkpt lat="45.76993" lon="4.64595">
        <ele>553.6</ele>
        <time>2013-04-18T10:29:19.630Z</time>
      </trkpt>
      <trkpt lat="45.76992" lon="4.64594">
        <ele>553.9</ele>
        <time>2013-04-18T10:29:20.630Z</time>
      </trkpt>
      <trkpt lat="45.7699" lon="4.64593">
        <ele>554</ele>
        <time>2013-04-18T10:29:21.630Z</time>
      </trkpt>
      <trkpt lat="45.76988" lon="4.64592">
        <ele>554.3</ele>
        <time>2013-04-18T10:29:22.630Z</time>
      </trkpt>
      <trkpt lat="45.76987" lon="4.6459">
        <ele>554.7</ele>
        <time>2013-04-18T10:29:23.630Z</time>
      </trkpt>
      <trkpt lat="45.76986" lon="4.64589">
        <ele>555</ele>
        <time>2013-04-18T10:29:24.630Z</time>
      </trkpt>
      <trkpt lat="45.76985" lon="4.64587">
        <ele>555.2</ele>
        <time>2013-04-18T10:29:25.630Z</time>
      </trkpt>
      <trkpt lat="45.76984" lon="4.64586">
        <ele>555.4</ele>
        <time>2013-04-18T10:29:26.610Z</time>
      </trkpt>
      <trkpt lat="45.76984" lon="4.64585">
        <ele>555.7</ele>
        <time>2013-04-18T10:29:27.630Z</time>
      </trkpt>
      <trkpt lat="45.76983" lon="4.64584">
        <ele>555.9</ele>
        <time>2013-04-18T10:29:29.630Z</time>
      </trkpt>
      <trkpt lat="45.76982" lon="4.64583">
        <ele>556.1</ele>
        <time>2013-04-18T10:29:30.630Z</time>
      </trkpt>
      <trkpt lat="45.76982" lon="4.64582">
        <ele>556.3</ele>
        <time>2013-04-18T10:29:31.630Z</time>
      </trkpt>
      <trkpt lat="45.76981" lon="4.6458">
        <ele>556.7</ele>
        <time>2013-04-18T10:29:33.580Z</time>
      </trkpt>
      <trkpt lat="45.7698" lon="4.64579">
        <ele>556.8</ele>
        <time>2013-04-18T10:29:34.730Z</time>
      </trkpt>
      <trkpt lat="45.76978" lon="4.64578">
        <ele>557</ele>
        <time>2013-04-18T10:29:35.730Z</time>
      </trkpt>
      <trkpt lat="45.76977" lon="4.64577">
        <ele>557.2</ele>
        <time>2013-04-18T10:29:36.730Z</time>
      </trkpt>
      <trkpt lat="45.76977" lon="4.64575">
        <ele>557.6</ele>
        <time>2013-04-18T10:29:37.730Z</time>
      </trkpt>
      <trkpt lat="45.76975" lon="4.64573">
        <ele>557.9</ele>
        <time>2013-04-18T10:29:38.710Z</time>
      </trkpt>
      <trkpt lat="45.76972" lon="4.6457">
        <ele>558.3</ele>
        <time>2013-04-18T10:29:40.630Z</time>
      </trkpt>
      <trkpt lat="45.76971" lon="4.64569">
        <ele>558.5</ele>
        <time>2013-04-18T10:29:41.630Z</time>
      </trkpt>
      <trkpt lat="45.76971" lon="4.64567">
        <ele>558.9</ele>
        <time>2013-04-18T10:29:42.630Z</time>
      </trkpt>
      <trkpt lat="45.7697" lon="4.64566">
        <ele>559.1</ele>
        <time>2013-04-18T10:29:43.630Z</time>
      </trkpt>
      <trkpt lat="45.76969" lon="4.64564">
        <ele>559.3</ele>
        <time>2013-04-18T10:29:44.630Z</time>
      </trkpt>
      <trkpt lat="45.76969" lon="4.64562">
        <ele>559.7</ele>
        <time>2013-04-18T10:29:45.630Z</time>
      </trkpt>
      <trkpt lat="45.76967" lon="4.64559">
        <ele>560.2</ele>
        <time>2013-04-18T10:29:46.630Z</time>
      </trkpt>
      <trkpt lat="45.76967" lon="4.64557">
        <ele>560.6</ele>
        <time>2013-04-18T10:29:47.630Z</time>
      </trkpt>
      <trkpt lat="45.76967" lon="4.64554">
        <ele>561.1</ele>
        <time>2013-04-18T10:29:48.630Z</time>
      </trkpt>
      <trkpt lat="45.76966" lon="4.64551">
        <ele>561.7</ele>
        <time>2013-04-18T10:29:49.630Z</time>
      </trkpt>
      <trkpt lat="45.76966" lon="4.64549">
        <ele>562.1</ele>
        <time>2013-04-18T10:29:50.450Z</time>
      </trkpt>
      <trkpt lat="45.76966" lon="4.64547">
        <ele>562.5</ele>
        <time>2013-04-18T10:29:51.630Z</time>
      </trkpt>
      <trkpt lat="45.76966" lon="4.64544">
        <ele>563.2</ele>
        <time>2013-04-18T10:29:52.630Z</time>
      </trkpt>
      <trkpt lat="45.76968" lon="4.64541">
        <ele>563.8</ele>
        <time>2013-04-18T10:29:53.630Z</time>
      </trkpt>
      <trkpt lat="45.76969" lon="4.64539">
        <ele>564.4</ele>
        <time>2013-04-18T10:29:54.620Z</time>
      </trkpt>
      <trkpt lat="45.76969" lon="4.64536">
        <ele>564.9</ele>
        <time>2013-04-18T10:29:55.730Z</time>
      </trkpt>
      <trkpt lat="45.7697" lon="4.64535">
        <ele>565.3</ele>
        <time>2013-04-18T10:29:56.720Z</time>
      </trkpt>
      <trkpt lat="45.7697" lon="4.64534">
        <ele>577.2</ele>
        <time>2013-04-18T10:29:58.720Z</time>
      </trkpt>
      <trkpt lat="45.76969" lon="4.64532">
        <ele>565.8</ele>
        <time>2013-04-18T10:30:00.620Z</time>
      </trkpt>
      <trkpt lat="45.76967" lon="4.6453">
        <ele>566.1</ele>
        <time>2013-04-18T10:30:01.620Z</time>
      </trkpt>
      <trkpt lat="45.76966" lon="4.64528">
        <ele>566.3</ele>
        <time>2013-04-18T10:30:02.620Z</time>
      </trkpt>
      <trkpt lat="45.76965" lon="4.64526">
        <ele>566.5</ele>
        <time>2013-04-18T10:30:03.620Z</time>
      </trkpt>
      <trkpt lat="45.76965" lon="4.64524">
        <ele>566.8</ele>
        <time>2013-04-18T10:30:04.630Z</time>
      </trkpt>
      <trkpt lat="45.76965" lon="4.64522">
        <ele>567.3</ele>
        <time>2013-04-18T10:30:05.620Z</time>
      </trkpt>
      <trkpt lat="45.76966" lon="4.6452">
        <ele>567.7</ele>
        <time>2013-04-18T10:30:06.620Z</time>
      </trkpt>
      <trkpt lat="45.76966" lon="4.64517">
        <ele>568.3</ele>
        <time>2013-04-18T10:30:07.620Z</time>
      </trkpt>
      <trkpt lat="45.76967" lon="4.64514">
        <ele>568.9</ele>
        <time>2013-04-18T10:30:08.620Z</time>
      </trkpt>
      <trkpt lat="45.76967" lon="4.64512">
        <ele>569.3</ele>
        <time>2013-04-18T10:30:09.620Z</time>
      </trkpt>
      <trkpt lat="45.76966" lon="4.6451">
        <ele>569.6</ele>
        <time>2013-04-18T10:30:10.620Z</time>
      </trkpt>
      <trkpt lat="45.76965" lon="4.64507">
        <ele>569.9</ele>
        <time>2013-04-18T10:30:12.620Z</time>
      </trkpt>
      <trkpt lat="45.76965" lon="4.64505">
        <ele>570.4</ele>
        <time>2013-04-18T10:30:13.600Z</time>
      </trkpt>
      <trkpt lat="45.76966" lon="4.645">
        <ele>571.2</ele>
        <time>2013-04-18T10:30:15.620Z</time>
      </trkpt>
      <trkpt lat="45.76965" lon="4.64499">
        <ele>571.5</ele>
        <time>2013-04-18T10:30:16.670Z</time>
      </trkpt>
      <trkpt lat="45.76965" lon="4.64496">
        <ele>571.9</ele>
        <time>2013-04-18T10:30:17.720Z</time>
      </trkpt>
      <trkpt lat="45.76965" lon="4.64493">
        <ele>572.5</ele>
        <time>2013-04-18T10:30:18.720Z</time>
      </trkpt>
      <trkpt lat="45.76966" lon="4.64491">
        <ele>573.2</ele>
        <time>2013-04-18T10:30:19.720Z</time>
      </trkpt>
      <trkpt lat="45.76967" lon="4.64489">
        <ele>573.7</ele>
        <time>2013-04-18T10:30:20.720Z</time>
      </trkpt>
      <trkpt lat="45.76968" lon="4.64487">
        <ele>574.2</ele>
        <time>2013-04-18T10:30:21.720Z</time>
      </trkpt>
      <trkpt lat="45.76968" lon="4.64485">
        <ele>574.6</ele>
        <time>2013-04-18T10:30:22.720Z</time>
      </trkpt>
      <trkpt lat="45.76969" lon="4.64483">
        <ele>575.2</ele>
        <time>2013-04-18T10:30:23.720Z</time>
      </trkpt>
      <trkpt lat="45.76969" lon="4.6448">
        <ele>575.8</ele>
        <time>2013-04-18T10:30:24.720Z</time>
      </trkpt>
      <trkpt lat="45.7697" lon="4.64478">
        <ele>576.6</ele>
        <time>2013-04-18T10:30:25.720Z</time>
      </trkpt>
      <trkpt lat="45.76972" lon="4.64475">
        <ele>577.3</ele>
        <time>2013-04-18T10:30:26.720Z</time>
      </trkpt>
      <trkpt lat="45.76973" lon="4.64473">
        <ele>577.8</ele>
        <time>2013-04-18T10:30:27.720Z</time>
      </trkpt>
      <trkpt lat="45.76974" lon="4.64471">
        <ele>578.2</ele>
        <time>2013-04-18T10:30:28.720Z</time>
      </trkpt>
      <trkpt lat="45.76976" lon="4.64469">
        <ele>578.6</ele>
        <time>2013-04-18T10:30:29.720Z</time>
      </trkpt>
      <trkpt lat="45.76979" lon="4.64466">
        <ele>579.2</ele>
        <time>2013-04-18T10:30:31.620Z</time>
      </trkpt>
      <trkpt lat="45.76981" lon="4.64464">
        <ele>579.6</ele>
        <time>2013-04-18T10:30:32.620Z</time>
      </trkpt>
      <trkpt lat="45.76982" lon="4.64462">
        <ele>580</ele>
        <time>2013-04-18T10:30:33.590Z</time>
      </trkpt>
      <trkpt lat="45.76982" lon="4.6446">
        <ele>580.3</ele>
        <time>2013-04-18T10:30:34.720Z</time>
      </trkpt>
      <trkpt lat="45.76982" lon="4.64456">
        <ele>581</ele>
        <time>2013-04-18T10:30:36.610Z</time>
      </trkpt>
      <trkpt lat="45.76982" lon="4.64453">
        <ele>581.3</ele>
        <time>2013-04-18T10:30:37.610Z</time>
      </trkpt>
      <trkpt lat="45.76983" lon="4.64452">
        <ele>581.6</ele>
        <time>2013-04-18T10:30:38.610Z</time>
      </trkpt>
      <trkpt lat="45.76983" lon="4.6445">
        <ele>581.9</ele>
        <time>2013-04-18T10:30:39.610Z</time>
      </trkpt>
      <trkpt lat="45.76984" lon="4.64449">
        <ele>582.1</ele>
        <time>2013-04-18T10:30:40.710Z</time>
      </trkpt>
      <trkpt lat="45.76985" lon="4.64447">
        <ele>582.5</ele>
        <time>2013-04-18T10:30:41.710Z</time>
      </trkpt>
      <trkpt lat="45.76986" lon="4.64444">
        <ele>583</ele>
        <time>2013-04-18T10:30:42.710Z</time>
      </trkpt>
      <trkpt lat="45.76986" lon="4.64442">
        <ele>583.4</ele>
        <time>2013-04-18T10:30:43.710Z</time>
      </trkpt>
      <trkpt lat="45.76987" lon="4.64439">
        <ele>583.9</ele>
        <time>2013-04-18T10:30:44.710Z</time>
      </trkpt>
      <trkpt lat="45.76988" lon="4.64437">
        <ele>584.2</ele>
        <time>2013-04-18T10:30:45.710Z</time>
      </trkpt>
      <trkpt lat="45.76989" lon="4.64436">
        <ele>584.5</ele>
        <time>2013-04-18T10:30:46.710Z</time>
      </trkpt>
      <trkpt lat="45.76989" lon="4.64433">
        <ele>584.9</ele>
        <time>2013-04-18T10:30:47.710Z</time>
      </trkpt>
      <trkpt lat="45.7699" lon="4.6443">
        <ele>585.3</ele>
        <time>2013-04-18T10:30:48.710Z</time>
      </trkpt>
      <trkpt lat="45.7699" lon="4.64428">
        <ele>585.7</ele>
        <time>2013-04-18T10:30:49.710Z</time>
      </trkpt>
      <trkpt lat="45.76992" lon="4.64424">
        <ele>586.4</ele>
        <time>2013-04-18T10:30:51.610Z</time>
      </trkpt>
      <trkpt lat="45.76993" lon="4.64421">
        <ele>586.8</ele>
        <time>2013-04-18T10:30:52.610Z</time>
      </trkpt>
      <trkpt lat="45.76993" lon="4.6442">
        <ele>587</ele>
        <time>2013-04-18T10:30:53.610Z</time>
      </trkpt>
      <trkpt lat="45.76993" lon="4.64418">
        <ele>587.4</ele>
        <time>2013-04-18T10:30:55.610Z</time>
      </trkpt>
      <trkpt lat="45.76993" lon="4.64416">
        <ele>587.6</ele>
        <time>2013-04-18T10:30:56.610Z</time>
      </trkpt>
      <trkpt lat="45.76993" lon="4.64415">
        <ele>587.9</ele>
        <time>2013-04-18T10:30:57.610Z</time>
      </trkpt>
      <trkpt lat="45.76992" lon="4.64413">
        <ele>583.8</ele>
        <time>2013-04-18T10:30:58.610Z</time>
      </trkpt>
      <trkpt lat="45.76991" lon="4.6441">
        <ele>588.6</ele>
        <time>2013-04-18T10:30:59.660Z</time>
      </trkpt>
      <trkpt lat="45.76991" lon="4.64408">
        <ele>589</ele>
        <time>2013-04-18T10:31:00.710Z</time>
      </trkpt>
      <trkpt lat="45.76991" lon="4.64406">
        <ele>589.3</ele>
        <time>2013-04-18T10:31:01.710Z</time>
      </trkpt>
      <trkpt lat="45.76991" lon="4.64404">
        <ele>589.7</ele>
        <time>2013-04-18T10:31:02.710Z</time>
      </trkpt>
      <trkpt lat="45.76991" lon="4.64403">
        <ele>590.1</ele>
        <time>2013-04-18T10:31:03.710Z</time>
      </trkpt>
      <trkpt lat="45.76993" lon="4.64401">
        <ele>590.5</ele>
        <time>2013-04-18T10:31:04.710Z</time>
      </trkpt>
      <trkpt lat="45.76995" lon="4.644">
        <ele>591</ele>
        <time>2013-04-18T10:31:05.710Z</time>
      </trkpt>
      <trkpt lat="45.76997" lon="4.64397">
        <ele>591.8</ele>
        <time>2013-04-18T10:31:06.710Z</time>
      </trkpt>
      <trkpt lat="45.76999" lon="4.64395">
        <ele>592.6</ele>
        <time>2013-04-18T10:31:07.710Z</time>
      </trkpt>
      <trkpt lat="45.77" lon="4.64393">
        <ele>593.2</ele>
        <time>2013-04-18T10:31:08.710Z</time>
      </trkpt>
      <trkpt lat="45.77002" lon="4.6439">
        <ele>593.6</ele>
        <time>2013-04-18T10:31:09.710Z</time>
      </trkpt>
      <trkpt lat="45.77002" lon="4.64388">
        <ele>594</ele>
        <time>2013-04-18T10:31:10.710Z</time>
      </trkpt>
      <trkpt lat="45.77004" lon="4.64386">
        <ele>594.3</ele>
        <time>2013-04-18T10:31:11.710Z</time>
      </trkpt>
      <trkpt lat="45.77004" lon="4.64385">
        <ele>594.5</ele>
        <time>2013-04-18T10:31:12.710Z</time>
      </trkpt>
      <trkpt lat="45.77004" lon="4.64383">
        <ele>594.7</ele>
        <time>2013-04-18T10:31:13.710Z</time>
      </trkpt>
      <trkpt lat="45.77005" lon="4.64382">
        <ele>594.9</ele>
        <time>2013-04-18T10:31:14.710Z</time>
      </trkpt>
      <trkpt lat="45.77005" lon="4.6438">
        <ele>595.1</ele>
        <time>2013-04-18T10:31:15.700Z</time>
      </trkpt>
      <trkpt lat="45.77005" lon="4.64379">
        <ele>595.4</ele>
        <time>2013-04-18T10:31:16.530Z</time>
      </trkpt>
      <trkpt lat="45.77004" lon="4.64378">
        <ele>595.4</ele>
        <time>2013-04-18T10:31:18.700Z</time>
      </trkpt>
      <trkpt lat="45.77002" lon="4.64379">
        <ele>595.4</ele>
        <time>2013-04-18T10:31:20.700Z</time>
      </trkpt>
      <trkpt lat="45.77002" lon="4.64376">
        <ele>595.9</ele>
        <time>2013-04-18T10:31:22.700Z</time>
      </trkpt>
      <trkpt lat="45.77001" lon="4.64374">
        <ele>596.2</ele>
        <time>2013-04-18T10:31:23.700Z</time>
      </trkpt>
      <trkpt lat="45.77001" lon="4.64371">
        <ele>596.5</ele>
        <time>2013-04-18T10:31:24.700Z</time>
      </trkpt>
      <trkpt lat="45.77" lon="4.6437">
        <ele>596.8</ele>
        <time>2013-04-18T10:31:26.700Z</time>
      </trkpt>
      <trkpt lat="45.77" lon="4.64368">
        <ele>597</ele>
        <time>2013-04-18T10:31:27.700Z</time>
      </trkpt>
      <trkpt lat="45.76999" lon="4.64366">
        <ele>597.2</ele>
        <time>2013-04-18T10:31:28.700Z</time>
      </trkpt>
      <trkpt lat="45.76998" lon="4.64364">
        <ele>597.4</ele>
        <time>2013-04-18T10:31:30.700Z</time>
      </trkpt>
      <trkpt lat="45.76997" lon="4.64361">
        <ele>597.8</ele>
        <time>2013-04-18T10:31:31.700Z</time>
      </trkpt>
      <trkpt lat="45.76996" lon="4.64358">
        <ele>598.3</ele>
        <time>2013-04-18T10:31:32.700Z</time>
      </trkpt>
      <trkpt lat="45.76995" lon="4.64352">
        <ele>599.1</ele>
        <time>2013-04-18T10:31:34.600Z</time>
      </trkpt>
      <trkpt lat="45.76994" lon="4.6435">
        <ele>599.4</ele>
        <time>2013-04-18T10:31:35.600Z</time>
      </trkpt>
      <trkpt lat="45.76993" lon="4.64348">
        <ele>599.7</ele>
        <time>2013-04-18T10:31:36.600Z</time>
      </trkpt>
      <trkpt lat="45.76991" lon="4.64346">
        <ele>599.9</ele>
        <time>2013-04-18T10:31:37.600Z</time>
      </trkpt>
      <trkpt lat="45.7699" lon="4.64344">
        <ele>600.3</ele>
        <time>2013-04-18T10:31:38.600Z</time>
      </trkpt>
      <trkpt lat="45.7699" lon="4.64341">
        <ele>600.7</ele>
        <time>2013-04-18T10:31:39.600Z</time>
      </trkpt>
      <trkpt lat="45.76988" lon="4.6434">
        <ele>600.8</ele>
        <time>2013-04-18T10:31:40.600Z</time>
      </trkpt>
      <trkpt lat="45.76987" lon="4.64339">
        <ele>601</ele>
        <time>2013-04-18T10:31:41.600Z</time>
      </trkpt>
      <trkpt lat="45.76985" lon="4.64336">
        <ele>601.4</ele>
        <time>2013-04-18T10:31:42.580Z</time>
      </trkpt>
      <trkpt lat="45.76984" lon="4.64335">
        <ele>601.6</ele>
        <time>2013-04-18T10:31:43.700Z</time>
      </trkpt>
      <trkpt lat="45.76983" lon="4.64332">
        <ele>602</ele>
        <time>2013-04-18T10:31:44.700Z</time>
      </trkpt>
      <trkpt lat="45.76982" lon="4.64329">
        <ele>602.4</ele>
        <time>2013-04-18T10:31:45.700Z</time>
      </trkpt>
      <trkpt lat="45.7698" lon="4.64327">
        <ele>602.6</ele>
        <time>2013-04-18T10:31:46.700Z</time>
      </trkpt>
      <trkpt lat="45.76979" lon="4.64324">
        <ele>602.8</ele>
        <time>2013-04-18T10:31:47.700Z</time>
      </trkpt>
      <trkpt lat="45.76977" lon="4.64321">
        <ele>603.3</ele>
        <time>2013-04-18T10:31:49.600Z</time>
      </trkpt>
      <trkpt lat="45.76976" lon="4.64319">
        <ele>603.4</ele>
        <time>2013-04-18T10:31:50.650Z</time>
      </trkpt>
      <trkpt lat="45.76974" lon="4.64316">
        <ele>603.7</ele>
        <time>2013-04-18T10:31:51.700Z</time>
      </trkpt>
      <trkpt lat="45.76973" lon="4.64313">
        <ele>604</ele>
        <time>2013-04-18T10:31:52.700Z</time>
      </trkpt>
      <trkpt lat="45.76971" lon="4.64309">
        <ele>604.2</ele>
        <time>2013-04-18T10:31:54.600Z</time>
      </trkpt>
      <trkpt lat="45.7697" lon="4.64307">
        <ele>604.4</ele>
        <time>2013-04-18T10:31:55.580Z</time>
      </trkpt>
      <trkpt lat="45.76968" lon="4.64304">
        <ele>604.5</ele>
        <time>2013-04-18T10:31:56.590Z</time>
      </trkpt>
      <trkpt lat="45.76967" lon="4.64301">
        <ele>604.9</ele>
        <time>2013-04-18T10:31:57.700Z</time>
      </trkpt>
      <trkpt lat="45.76965" lon="4.64297">
        <ele>596.5</ele>
        <time>2013-04-18T10:31:58.690Z</time>
      </trkpt>
      <trkpt lat="45.76961" lon="4.64292">
        <ele>605.6</ele>
        <time>2013-04-18T10:32:00.590Z</time>
      </trkpt>
      <trkpt lat="45.7696" lon="4.6429">
        <ele>605.8</ele>
        <time>2013-04-18T10:32:01.590Z</time>
      </trkpt>
      <trkpt lat="45.76958" lon="4.64287">
        <ele>606</ele>
        <time>2013-04-18T10:32:02.590Z</time>
      </trkpt>
      <trkpt lat="45.76955" lon="4.64285">
        <ele>606.2</ele>
        <time>2013-04-18T10:32:03.590Z</time>
      </trkpt>
      <trkpt lat="45.76954" lon="4.64282">
        <ele>606.5</ele>
        <time>2013-04-18T10:32:04.590Z</time>
      </trkpt>
      <trkpt lat="45.76952" lon="4.6428">
        <ele>606.6</ele>
        <time>2013-04-18T10:32:05.590Z</time>
      </trkpt>
      <trkpt lat="45.7695" lon="4.64277">
        <ele>606.9</ele>
        <time>2013-04-18T10:32:06.570Z</time>
      </trkpt>
      <trkpt lat="45.76947" lon="4.64275">
        <ele>607</ele>
        <time>2013-04-18T10:32:07.590Z</time>
      </trkpt>
      <trkpt lat="45.76945" lon="4.64272">
        <ele>607.2</ele>
        <time>2013-04-18T10:32:08.590Z</time>
      </trkpt>
      <trkpt lat="45.76943" lon="4.6427">
        <ele>607.2</ele>
        <time>2013-04-18T10:32:09.590Z</time>
      </trkpt>
      <trkpt lat="45.76941" lon="4.64267">
        <ele>607.3</ele>
        <time>2013-04-18T10:32:10.590Z</time>
      </trkpt>
      <trkpt lat="45.76939" lon="4.64265">
        <ele>607.2</ele>
        <time>2013-04-18T10:32:11.590Z</time>
      </trkpt>
      <trkpt lat="45.76938" lon="4.64262">
        <ele>607.5</ele>
        <time>2013-04-18T10:32:12.590Z</time>
      </trkpt>
      <trkpt lat="45.76936" lon="4.6426">
        <ele>607.5</ele>
        <time>2013-04-18T10:32:13.590Z</time>
      </trkpt>
      <trkpt lat="45.76933" lon="4.64258">
        <ele>607.4</ele>
        <time>2013-04-18T10:32:14.590Z</time>
      </trkpt>
      <trkpt lat="45.76931" lon="4.64256">
        <ele>607.5</ele>
        <time>2013-04-18T10:32:15.590Z</time>
      </trkpt>
      <trkpt lat="45.76929" lon="4.64252">
        <ele>607.9</ele>
        <time>2013-04-18T10:32:16.460Z</time>
      </trkpt>
      <trkpt lat="45.76927" lon="4.64249">
        <ele>608</ele>
        <time>2013-04-18T10:32:17.690Z</time>
      </trkpt>
      <trkpt lat="45.76925" lon="4.64247">
        <ele>608.1</ele>
        <time>2013-04-18T10:32:18.690Z</time>
      </trkpt>
      <trkpt lat="45.76922" lon="4.64244">
        <ele>608.3</ele>
        <time>2013-04-18T10:32:19.690Z</time>
      </trkpt>
      <trkpt lat="45.7692" lon="4.64242">
        <ele>608.4</ele>
        <time>2013-04-18T10:32:20.690Z</time>
      </trkpt>
      <trkpt lat="45.76917" lon="4.64239">
        <ele>608.5</ele>
        <time>2013-04-18T10:32:22.590Z</time>
      </trkpt>
      <trkpt lat="45.76915" lon="4.64237">
        <ele>608.6</ele>
        <time>2013-04-18T10:32:23.590Z</time>
      </trkpt>
      <trkpt lat="45.76913" lon="4.64236">
        <ele>608.6</ele>
        <time>2013-04-18T10:32:24.590Z</time>
      </trkpt>
      <trkpt lat="45.76912" lon="4.64234">
        <ele>608.7</ele>
        <time>2013-04-18T10:32:25.590Z</time>
      </trkpt>
      <trkpt lat="45.7691" lon="4.64234">
        <ele>608.7</ele>
        <time>2013-04-18T10:32:26.590Z</time>
      </trkpt>
      <trkpt lat="45.76909" lon="4.64232">
        <ele>608.9</ele>
        <time>2013-04-18T10:32:27.690Z</time>
      </trkpt>
      <trkpt lat="45.76907" lon="4.6423">
        <ele>609</ele>
        <time>2013-04-18T10:32:28.690Z</time>
      </trkpt>
      <trkpt lat="45.76904" lon="4.64229">
        <ele>609.1</ele>
        <time>2013-04-18T10:32:29.690Z</time>
      </trkpt>
      <trkpt lat="45.76901" lon="4.64227">
        <ele>609</ele>
        <time>2013-04-18T10:32:30.690Z</time>
      </trkpt>
      <trkpt lat="45.76895" lon="4.64223">
        <ele>609.5</ele>
        <time>2013-04-18T10:32:32.590Z</time>
      </trkpt>
      <trkpt lat="45.76891" lon="4.64221">
        <ele>609.5</ele>
        <time>2013-04-18T10:32:33.640Z</time>
      </trkpt>
      <trkpt lat="45.76888" lon="4.64219">
        <ele>609.7</ele>
        <time>2013-04-18T10:32:34.690Z</time>
      </trkpt>
      <trkpt lat="45.76887" lon="4.64216">
        <ele>610.3</ele>
        <time>2013-04-18T10:32:35.690Z</time>
      </trkpt>
      <trkpt lat="45.76886" lon="4.64214">
        <ele>610.6</ele>
        <time>2013-04-18T10:32:36.690Z</time>
      </trkpt>
      <trkpt lat="45.76885" lon="4.64212">
        <ele>611</ele>
        <time>2013-04-18T10:32:37.680Z</time>
      </trkpt>
      <trkpt lat="45.76882" lon="4.64211">
        <ele>611.2</ele>
        <time>2013-04-18T10:32:38.690Z</time>
      </trkpt>
      <trkpt lat="45.7688" lon="4.6421">
        <ele>611.4</ele>
        <time>2013-04-18T10:32:39.680Z</time>
      </trkpt>
      <trkpt lat="45.76878" lon="4.64209">
        <ele>611.5</ele>
        <time>2013-04-18T10:32:40.680Z</time>
      </trkpt>
      <trkpt lat="45.76875" lon="4.64208">
        <ele>611.7</ele>
        <time>2013-04-18T10:32:41.680Z</time>
      </trkpt>
      <trkpt lat="45.76873" lon="4.64205">
        <ele>612.1</ele>
        <time>2013-04-18T10:32:42.690Z</time>
      </trkpt>
      <trkpt lat="45.76872" lon="4.64204">
        <ele>612.4</ele>
        <time>2013-04-18T10:32:43.580Z</time>
      </trkpt>
      <trkpt lat="45.76871" lon="4.642">
        <ele>613.1</ele>
        <time>2013-04-18T10:32:44.680Z</time>
      </trkpt>
      <trkpt lat="45.7687" lon="4.64197">
        <ele>613.7</ele>
        <time>2013-04-18T10:32:45.680Z</time>
      </trkpt>
      <trkpt lat="45.7687" lon="4.64195">
        <ele>614.2</ele>
        <time>2013-04-18T10:32:46.680Z</time>
      </trkpt>
      <trkpt lat="45.76869" lon="4.64192">
        <ele>614.8</ele>
        <time>2013-04-18T10:32:47.680Z</time>
      </trkpt>
      <trkpt lat="45.76869" lon="4.64189">
        <ele>615.5</ele>
        <time>2013-04-18T10:32:48.680Z</time>
      </trkpt>
      <trkpt lat="45.76869" lon="4.64186">
        <ele>616.2</ele>
        <time>2013-04-18T10:32:49.680Z</time>
      </trkpt>
      <trkpt lat="45.76869" lon="4.64183">
        <ele>616.7</ele>
        <time>2013-04-18T10:32:50.630Z</time>
      </trkpt>
      <trkpt lat="45.76869" lon="4.64182">
        <ele>617.1</ele>
        <time>2013-04-18T10:32:51.680Z</time>
      </trkpt>
      <trkpt lat="45.7687" lon="4.6418">
        <ele>617.4</ele>
        <time>2013-04-18T10:32:52.680Z</time>
      </trkpt>
      <trkpt lat="45.76869" lon="4.64178">
        <ele>617.9</ele>
        <time>2013-04-18T10:32:53.680Z</time>
      </trkpt>
      <trkpt lat="45.76869" lon="4.64176">
        <ele>618.3</ele>
        <time>2013-04-18T10:32:54.680Z</time>
      </trkpt>
      <trkpt lat="45.76869" lon="4.64173">
        <ele>618.9</ele>
        <time>2013-04-18T10:32:55.680Z</time>
      </trkpt>
      <trkpt lat="45.76868" lon="4.6417">
        <ele>619.5</ele>
        <time>2013-04-18T10:32:56.660Z</time>
      </trkpt>
      <trkpt lat="45.76868" lon="4.64168">
        <ele>620</ele>
        <time>2013-04-18T10:32:57.690Z</time>
      </trkpt>
      <trkpt lat="45.76867" lon="4.64165">
        <ele>612.3</ele>
        <time>2013-04-18T10:32:58.680Z</time>
      </trkpt>
      <trkpt lat="45.76866" lon="4.64162">
        <ele>621</ele>
        <time>2013-04-18T10:32:59.630Z</time>
      </trkpt>
      <trkpt lat="45.76865" lon="4.6416">
        <ele>621.3</ele>
        <time>2013-04-18T10:33:00.680Z</time>
      </trkpt>
      <trkpt lat="45.76865" lon="4.64158">
        <ele>621.8</ele>
        <time>2013-04-18T10:33:01.680Z</time>
      </trkpt>
      <trkpt lat="45.76865" lon="4.64154">
        <ele>622.4</ele>
        <time>2013-04-18T10:33:02.680Z</time>
      </trkpt>
      <trkpt lat="45.76864" lon="4.64151">
        <ele>622.9</ele>
        <time>2013-04-18T10:33:03.680Z</time>
      </trkpt>
      <trkpt lat="45.76864" lon="4.64148">
        <ele>623.5</ele>
        <time>2013-04-18T10:33:04.680Z</time>
      </trkpt>
      <trkpt lat="45.76864" lon="4.64146">
        <ele>623.9</ele>
        <time>2013-04-18T10:33:05.680Z</time>
      </trkpt>
      <trkpt lat="45.76864" lon="4.64143">
        <ele>624.4</ele>
        <time>2013-04-18T10:33:06.680Z</time>
      </trkpt>
      <trkpt lat="45.76864" lon="4.64142">
        <ele>624.7</ele>
        <time>2013-04-18T10:33:07.660Z</time>
      </trkpt>
      <trkpt lat="45.76863" lon="4.64139">
        <ele>625.2</ele>
        <time>2013-04-18T10:33:08.680Z</time>
      </trkpt>
      <trkpt lat="45.76864" lon="4.64136">
        <ele>625.9</ele>
        <time>2013-04-18T10:33:09.680Z</time>
      </trkpt>
      <trkpt lat="45.76864" lon="4.64133">
        <ele>626.4</ele>
        <time>2013-04-18T10:33:10.680Z</time>
      </trkpt>
      <trkpt lat="45.76865" lon="4.64131">
        <ele>626.9</ele>
        <time>2013-04-18T10:33:11.680Z</time>
      </trkpt>
      <trkpt lat="45.76865" lon="4.64129">
        <ele>627.3</ele>
        <time>2013-04-18T10:33:12.680Z</time>
      </trkpt>
      <trkpt lat="45.76864" lon="4.64127">
        <ele>627.7</ele>
        <time>2013-04-18T10:33:14.680Z</time>
      </trkpt>
      <trkpt lat="45.76864" lon="4.64125">
        <ele>628.1</ele>
        <time>2013-04-18T10:33:15.680Z</time>
      </trkpt>
      <trkpt lat="45.76863" lon="4.64123">
        <ele>628.6</ele>
        <time>2013-04-18T10:33:16.630Z</time>
      </trkpt>
      <trkpt lat="45.76863" lon="4.64119">
        <ele>629.4</ele>
        <time>2013-04-18T10:33:17.680Z</time>
      </trkpt>
      <trkpt lat="45.76863" lon="4.64116">
        <ele>630.1</ele>
        <time>2013-04-18T10:33:18.670Z</time>
      </trkpt>
      <trkpt lat="45.76864" lon="4.64112">
        <ele>630.9</ele>
        <time>2013-04-18T10:33:20.560Z</time>
      </trkpt>
      <trkpt lat="45.76864" lon="4.6411">
        <ele>631.3</ele>
        <time>2013-04-18T10:33:21.570Z</time>
      </trkpt>
      <trkpt lat="45.76863" lon="4.64108">
        <ele>631.6</ele>
        <time>2013-04-18T10:33:22.570Z</time>
      </trkpt>
      <trkpt lat="45.76863" lon="4.64106">
        <ele>632</ele>
        <time>2013-04-18T10:33:23.570Z</time>
      </trkpt>
      <trkpt lat="45.76863" lon="4.64103">
        <ele>632.6</ele>
        <time>2013-04-18T10:33:24.570Z</time>
      </trkpt>
      <trkpt lat="45.76863" lon="4.641">
        <ele>633</ele>
        <time>2013-04-18T10:33:25.570Z</time>
      </trkpt>
      <trkpt lat="45.76864" lon="4.64099">
        <ele>633.4</ele>
        <time>2013-04-18T10:33:26.770Z</time>
      </trkpt>
      <trkpt lat="45.76862" lon="4.64094">
        <ele>634.2</ele>
        <time>2013-04-18T10:33:29.570Z</time>
      </trkpt>
      <trkpt lat="45.76862" lon="4.64091">
        <ele>634.7</ele>
        <time>2013-04-18T10:33:30.570Z</time>
      </trkpt>
      <trkpt lat="45.76862" lon="4.64088">
        <ele>635.2</ele>
        <time>2013-04-18T10:33:31.570Z</time>
      </trkpt>
      <trkpt lat="45.76862" lon="4.64086">
        <ele>635.7</ele>
        <time>2013-04-18T10:33:32.570Z</time>
      </trkpt>
      <trkpt lat="45.76862" lon="4.64083">
        <ele>636.1</ele>
        <time>2013-04-18T10:33:34.750Z</time>
      </trkpt>
      <trkpt lat="45.76861" lon="4.64077">
        <ele>636.9</ele>
        <time>2013-04-18T10:33:36.570Z</time>
      </trkpt>
      <trkpt lat="45.76861" lon="4.64075">
        <ele>637.2</ele>
        <time>2013-04-18T10:33:37.670Z</time>
      </trkpt>
      <trkpt lat="45.7686" lon="4.64073">
        <ele>637.4</ele>
        <time>2013-04-18T10:33:38.670Z</time>
      </trkpt>
      <trkpt lat="45.76859" lon="4.6407">
        <ele>637.7</ele>
        <time>2013-04-18T10:33:39.670Z</time>
      </trkpt>
      <trkpt lat="45.76858" lon="4.64067">
        <ele>638</ele>
        <time>2013-04-18T10:33:40.670Z</time>
      </trkpt>
      <trkpt lat="45.76858" lon="4.64064">
        <ele>638.3</ele>
        <time>2013-04-18T10:33:41.670Z</time>
      </trkpt>
      <trkpt lat="45.76858" lon="4.64062">
        <ele>638.7</ele>
        <time>2013-04-18T10:33:42.770Z</time>
      </trkpt>
      <trkpt lat="45.76858" lon="4.64056">
        <ele>639.5</ele>
        <time>2013-04-18T10:33:44.570Z</time>
      </trkpt>
      <trkpt lat="45.7686" lon="4.64053">
        <ele>640.2</ele>
        <time>2013-04-18T10:33:45.770Z</time>
      </trkpt>
      <trkpt lat="45.76861" lon="4.64051">
        <ele>640.8</ele>
        <time>2013-04-18T10:33:46.770Z</time>
      </trkpt>
      <trkpt lat="45.76861" lon="4.64047">
        <ele>641.6</ele>
        <time>2013-04-18T10:33:48.770Z</time>
      </trkpt>
      <trkpt lat="45.76862" lon="4.64042">
        <ele>642.4</ele>
        <time>2013-04-18T10:33:50.620Z</time>
      </trkpt>
      <trkpt lat="45.76862" lon="4.6404">
        <ele>642.9</ele>
        <time>2013-04-18T10:33:51.670Z</time>
      </trkpt>
      <trkpt lat="45.76863" lon="4.64038">
        <ele>643.3</ele>
        <time>2013-04-18T10:33:52.670Z</time>
      </trkpt>
      <trkpt lat="45.76863" lon="4.64035">
        <ele>643.8</ele>
        <time>2013-04-18T10:33:54.670Z</time>
      </trkpt>
      <trkpt lat="45.76863" lon="4.64033">
        <ele>644.3</ele>
        <time>2013-04-18T10:33:55.670Z</time>
      </trkpt>
      <trkpt lat="45.76864" lon="4.6403">
        <ele>644.9</ele>
        <time>2013-04-18T10:33:56.670Z</time>
      </trkpt>
      <trkpt lat="45.76865" lon="4.64028">
        <ele>645.3</ele>
        <time>2013-04-18T10:33:57.670Z</time>
      </trkpt>
      <trkpt lat="45.76865" lon="4.64026">
        <ele>629</ele>
        <time>2013-04-18T10:33:58.660Z</time>
      </trkpt>
      <trkpt lat="45.76865" lon="4.64024">
        <ele>646</ele>
        <time>2013-04-18T10:33:59.490Z</time>
      </trkpt>
      <trkpt lat="45.76865" lon="4.64021">
        <ele>646.5</ele>
        <time>2013-04-18T10:34:00.660Z</time>
      </trkpt>
      <trkpt lat="45.76865" lon="4.64018">
        <ele>646.9</ele>
        <time>2013-04-18T10:34:01.660Z</time>
      </trkpt>
      <trkpt lat="45.76866" lon="4.64016">
        <ele>647.3</ele>
        <time>2013-04-18T10:34:02.660Z</time>
      </trkpt>
      <trkpt lat="45.76866" lon="4.64014">
        <ele>647.6</ele>
        <time>2013-04-18T10:34:03.660Z</time>
      </trkpt>
      <trkpt lat="45.76867" lon="4.64012">
        <ele>647.9</ele>
        <time>2013-04-18T10:34:05.660Z</time>
      </trkpt>
      <trkpt lat="45.76867" lon="4.64011">
        <ele>648.2</ele>
        <time>2013-04-18T10:34:06.660Z</time>
      </trkpt>
      <trkpt lat="45.76867" lon="4.64008">
        <ele>648.7</ele>
        <time>2013-04-18T10:34:07.660Z</time>
      </trkpt>
      <trkpt lat="45.76867" lon="4.64005">
        <ele>649.1</ele>
        <time>2013-04-18T10:34:08.660Z</time>
      </trkpt>
      <trkpt lat="45.76867" lon="4.64003">
        <ele>649.4</ele>
        <time>2013-04-18T10:34:09.660Z</time>
      </trkpt>
      <trkpt lat="45.76866" lon="4.64002">
        <ele>649.4</ele>
        <time>2013-04-18T10:34:11.660Z</time>
      </trkpt>
      <trkpt lat="45.76866" lon="4.64">
        <ele>649.7</ele>
        <time>2013-04-18T10:34:12.650Z</time>
      </trkpt>
      <trkpt lat="45.76866" lon="4.63998">
        <ele>650.2</ele>
        <time>2013-04-18T10:34:13.660Z</time>
      </trkpt>
      <trkpt lat="45.76866" lon="4.63995">
        <ele>650.7</ele>
        <time>2013-04-18T10:34:14.660Z</time>
      </trkpt>
      <trkpt lat="45.76865" lon="4.63992">
        <ele>651.2</ele>
        <time>2013-04-18T10:34:15.660Z</time>
      </trkpt>
      <trkpt lat="45.76865" lon="4.63991">
        <ele>651.5</ele>
        <time>2013-04-18T10:34:16.610Z</time>
      </trkpt>
      <trkpt lat="45.76865" lon="4.63989">
        <ele>651.9</ele>
        <time>2013-04-18T10:34:17.660Z</time>
      </trkpt>
      <trkpt lat="45.76865" lon="4.63987">
        <ele>652.2</ele>
        <time>2013-04-18T10:34:18.660Z</time>
      </trkpt>
      <trkpt lat="45.76865" lon="4.63985">
        <ele>652.8</ele>
        <time>2013-04-18T10:34:19.660Z</time>
      </trkpt>
      <trkpt lat="45.76866" lon="4.63983">
        <ele>653.5</ele>
        <time>2013-04-18T10:34:20.660Z</time>
      </trkpt>
      <trkpt lat="45.76866" lon="4.6398">
        <ele>654</ele>
        <time>2013-04-18T10:34:21.660Z</time>
      </trkpt>
      <trkpt lat="45.76866" lon="4.63977">
        <ele>654.7</ele>
        <time>2013-04-18T10:34:22.660Z</time>
      </trkpt>
      <trkpt lat="45.76865" lon="4.63975">
        <ele>655</ele>
        <time>2013-04-18T10:34:23.660Z</time>
      </trkpt>
      <trkpt lat="45.76865" lon="4.63973">
        <ele>655.3</ele>
        <time>2013-04-18T10:34:24.660Z</time>
      </trkpt>
      <trkpt lat="45.76865" lon="4.63972">
        <ele>655.6</ele>
        <time>2013-04-18T10:34:25.640Z</time>
      </trkpt>
      <trkpt lat="45.76865" lon="4.6397">
        <ele>656.1</ele>
        <time>2013-04-18T10:34:26.660Z</time>
      </trkpt>
      <trkpt lat="45.76866" lon="4.63968">
        <ele>656.6</ele>
        <time>2013-04-18T10:34:27.660Z</time>
      </trkpt>
      <trkpt lat="45.76866" lon="4.63966">
        <ele>657.3</ele>
        <time>2013-04-18T10:34:28.660Z</time>
      </trkpt>
      <trkpt lat="45.76866" lon="4.63964">
        <ele>657.9</ele>
        <time>2013-04-18T10:34:29.660Z</time>
      </trkpt>
      <trkpt lat="45.76866" lon="4.63962">
        <ele>658.3</ele>
        <time>2013-04-18T10:34:30.660Z</time>
      </trkpt>
      <trkpt lat="45.76867" lon="4.63961">
        <ele>658.6</ele>
        <time>2013-04-18T10:34:31.660Z</time>
      </trkpt>
      <trkpt lat="45.76868" lon="4.6396">
        <ele>659</ele>
        <time>2013-04-18T10:34:32.660Z</time>
      </trkpt>
      <trkpt lat="45.76868" lon="4.63958">
        <ele>659.5</ele>
        <time>2013-04-18T10:34:33.610Z</time>
      </trkpt>
      <trkpt lat="45.76868" lon="4.63956">
        <ele>659.9</ele>
        <time>2013-04-18T10:34:34.660Z</time>
      </trkpt>
      <trkpt lat="45.76869" lon="4.63954">
        <ele>660.4</ele>
        <time>2013-04-18T10:34:35.660Z</time>
      </trkpt>
      <trkpt lat="45.76869" lon="4.63952">
        <ele>661.1</ele>
        <time>2013-04-18T10:34:36.660Z</time>
      </trkpt>
      <trkpt lat="45.76869" lon="4.6395">
        <ele>661.5</ele>
        <time>2013-04-18T10:34:37.660Z</time>
      </trkpt>
      <trkpt lat="45.76869" lon="4.63948">
        <ele>662</ele>
        <time>2013-04-18T10:34:38.650Z</time>
      </trkpt>
      <trkpt lat="45.76868" lon="4.63947">
        <ele>662.2</ele>
        <time>2013-04-18T10:34:39.760Z</time>
      </trkpt>
      <trkpt lat="45.76868" lon="4.63946">
        <ele>662.4</ele>
        <time>2013-04-18T10:34:40.750Z</time>
      </trkpt>
      <trkpt lat="45.76867" lon="4.63945">
        <ele>662.5</ele>
        <time>2013-04-18T10:34:41.750Z</time>
      </trkpt>
      <trkpt lat="45.76866" lon="4.63944">
        <ele>662.7</ele>
        <time>2013-04-18T10:34:42.750Z</time>
      </trkpt>
      <trkpt lat="45.76865" lon="4.63941">
        <ele>663</ele>
        <time>2013-04-18T10:34:43.750Z</time>
      </trkpt>
      <trkpt lat="45.76865" lon="4.63938">
        <ele>663.3</ele>
        <time>2013-04-18T10:34:44.750Z</time>
      </trkpt>
      <trkpt lat="45.76864" lon="4.63935">
        <ele>663.7</ele>
        <time>2013-04-18T10:34:45.750Z</time>
      </trkpt>
      <trkpt lat="45.76864" lon="4.63933">
        <ele>664</ele>
        <time>2013-04-18T10:34:46.750Z</time>
      </trkpt>
      <trkpt lat="45.76863" lon="4.63931">
        <ele>664.2</ele>
        <time>2013-04-18T10:34:47.750Z</time>
      </trkpt>
      <trkpt lat="45.76863" lon="4.63929">
        <ele>664.5</ele>
        <time>2013-04-18T10:34:48.750Z</time>
      </trkpt>
      <trkpt lat="45.76862" lon="4.63923">
        <ele>665.2</ele>
        <time>2013-04-18T10:34:50.600Z</time>
      </trkpt>
      <trkpt lat="45.76861" lon="4.6392">
        <ele>665.4</ele>
        <time>2013-04-18T10:34:51.630Z</time>
      </trkpt>
      <trkpt lat="45.76859" lon="4.63918">
        <ele>665.5</ele>
        <time>2013-04-18T10:34:52.650Z</time>
      </trkpt>
      <trkpt lat="45.76859" lon="4.63916">
        <ele>665.9</ele>
        <time>2013-04-18T10:34:53.650Z</time>
      </trkpt>
      <trkpt lat="45.76857" lon="4.63914">
        <ele>665.9</ele>
        <time>2013-04-18T10:34:54.750Z</time>
      </trkpt>
      <trkpt lat="45.76856" lon="4.63912">
        <ele>666</ele>
        <time>2013-04-18T10:34:55.750Z</time>
      </trkpt>
      <trkpt lat="45.76855" lon="4.63911">
        <ele>666.2</ele>
        <time>2013-04-18T10:34:56.750Z</time>
      </trkpt>
      <trkpt lat="45.76855" lon="4.63909">
        <ele>666.5</ele>
        <time>2013-04-18T10:34:57.750Z</time>
      </trkpt>
      <trkpt lat="45.76854" lon="4.63907">
        <ele>649.7</ele>
        <time>2013-04-18T10:34:58.750Z</time>
      </trkpt>
      <trkpt lat="45.76854" lon="4.63905">
        <ele>667</ele>
        <time>2013-04-18T10:34:59.700Z</time>
      </trkpt>
      <trkpt lat="45.76853" lon="4.63903">
        <ele>667.3</ele>
        <time>2013-04-18T10:35:00.750Z</time>
      </trkpt>
      <trkpt lat="45.76852" lon="4.63901">
        <ele>667.5</ele>
        <time>2013-04-18T10:35:01.750Z</time>
      </trkpt>
      <trkpt lat="45.76852" lon="4.63899">
        <ele>667.9</ele>
        <time>2013-04-18T10:35:02.730Z</time>
      </trkpt>
      <trkpt lat="45.76852" lon="4.63897">
        <ele>668.3</ele>
        <time>2013-04-18T10:35:03.750Z</time>
      </trkpt>
      <trkpt lat="45.76852" lon="4.63892">
        <ele>669.1</ele>
        <time>2013-04-18T10:35:05.650Z</time>
      </trkpt>
      <trkpt lat="45.76851" lon="4.63889">
        <ele>669.6</ele>
        <time>2013-04-18T10:35:06.650Z</time>
      </trkpt>
      <trkpt lat="45.76851" lon="4.63886">
        <ele>670.1</ele>
        <time>2013-04-18T10:35:07.650Z</time>
      </trkpt>
      <trkpt lat="45.7685" lon="4.63884">
        <ele>670.3</ele>
        <time>2013-04-18T10:35:08.650Z</time>
      </trkpt>
      <trkpt lat="45.76849" lon="4.63882">
        <ele>670.6</ele>
        <time>2013-04-18T10:35:09.650Z</time>
      </trkpt>
      <trkpt lat="45.76849" lon="4.63879">
        <ele>670.9</ele>
        <time>2013-04-18T10:35:10.650Z</time>
      </trkpt>
      <trkpt lat="45.76848" lon="4.63878">
        <ele>671.2</ele>
        <time>2013-04-18T10:35:11.650Z</time>
      </trkpt>
      <trkpt lat="45.76848" lon="4.63876">
        <ele>671.5</ele>
        <time>2013-04-18T10:35:12.650Z</time>
      </trkpt>
      <trkpt lat="45.76847" lon="4.63873">
        <ele>671.8</ele>
        <time>2013-04-18T10:35:13.650Z</time>
      </trkpt>
      <trkpt lat="45.76847" lon="4.63871">
        <ele>672.2</ele>
        <time>2013-04-18T10:35:14.660Z</time>
      </trkpt>
      <trkpt lat="45.76847" lon="4.63869">
        <ele>672.5</ele>
        <time>2013-04-18T10:35:15.630Z</time>
      </trkpt>
      <trkpt lat="45.76846" lon="4.63866">
        <ele>672.9</ele>
        <time>2013-04-18T10:35:16.600Z</time>
      </trkpt>
      <trkpt lat="45.76845" lon="4.63863">
        <ele>673.3</ele>
        <time>2013-04-18T10:35:17.650Z</time>
      </trkpt>
      <trkpt lat="45.76844" lon="4.6386">
        <ele>673.7</ele>
        <time>2013-04-18T10:35:18.650Z</time>
      </trkpt>
      <trkpt lat="45.76842" lon="4.63856">
        <ele>674</ele>
        <time>2013-04-18T10:35:19.650Z</time>
      </trkpt>
      <trkpt lat="45.76842" lon="4.63854">
        <ele>674.3</ele>
        <time>2013-04-18T10:35:20.650Z</time>
      </trkpt>
      <trkpt lat="45.76842" lon="4.63851">
        <ele>674.8</ele>
        <time>2013-04-18T10:35:21.640Z</time>
      </trkpt>
      <trkpt lat="45.76842" lon="4.63848">
        <ele>675.2</ele>
        <time>2013-04-18T10:35:22.640Z</time>
      </trkpt>
      <trkpt lat="45.76843" lon="4.63845">
        <ele>675.7</ele>
        <time>2013-04-18T10:35:23.640Z</time>
      </trkpt>
      <trkpt lat="45.76843" lon="4.63842">
        <ele>676.1</ele>
        <time>2013-04-18T10:35:24.640Z</time>
      </trkpt>
      <trkpt lat="45.76842" lon="4.6384">
        <ele>676.3</ele>
        <time>2013-04-18T10:35:25.640Z</time>
      </trkpt>
      <trkpt lat="45.76842" lon="4.63837">
        <ele>676.7</ele>
        <time>2013-04-18T10:35:26.640Z</time>
      </trkpt>
      <trkpt lat="45.76842" lon="4.63834">
        <ele>677.1</ele>
        <time>2013-04-18T10:35:27.640Z</time>
      </trkpt>
      <trkpt lat="45.76841" lon="4.63828">
        <ele>677.9</ele>
        <time>2013-04-18T10:35:29.650Z</time>
      </trkpt>
      <trkpt lat="45.76841" lon="4.63825">
        <ele>678.3</ele>
        <time>2013-04-18T10:35:30.640Z</time>
      </trkpt>
      <trkpt lat="45.76841" lon="4.63822">
        <ele>678.8</ele>
        <time>2013-04-18T10:35:31.640Z</time>
      </trkpt>
      <trkpt lat="45.76841" lon="4.63819">
        <ele>679.3</ele>
        <time>2013-04-18T10:35:32.640Z</time>
      </trkpt>
      <trkpt lat="45.76841" lon="4.63816">
        <ele>679.7</ele>
        <time>2013-04-18T10:35:33.620Z</time>
      </trkpt>
      <trkpt lat="45.7684" lon="4.63814">
        <ele>680</ele>
        <time>2013-04-18T10:35:34.740Z</time>
      </trkpt>
      <trkpt lat="45.7684" lon="4.63812">
        <ele>680.3</ele>
        <time>2013-04-18T10:35:35.740Z</time>
      </trkpt>
      <trkpt lat="45.7684" lon="4.6381">
        <ele>680.5</ele>
        <time>2013-04-18T10:35:36.740Z</time>
      </trkpt>
      <trkpt lat="45.76839" lon="4.63808">
        <ele>680.8</ele>
        <time>2013-04-18T10:35:37.750Z</time>
      </trkpt>
      <trkpt lat="45.76839" lon="4.63805">
        <ele>681.1</ele>
        <time>2013-04-18T10:35:38.740Z</time>
      </trkpt>
      <trkpt lat="45.76839" lon="4.63802">
        <ele>681.3</ele>
        <time>2013-04-18T10:35:39.740Z</time>
      </trkpt>
      <trkpt lat="45.76838" lon="4.63799">
        <ele>681.6</ele>
        <time>2013-04-18T10:35:40.740Z</time>
      </trkpt>
      <trkpt lat="45.76838" lon="4.63796">
        <ele>681.9</ele>
        <time>2013-04-18T10:35:41.720Z</time>
      </trkpt>
      <trkpt lat="45.76838" lon="4.63793">
        <ele>682.2</ele>
        <time>2013-04-18T10:35:42.740Z</time>
      </trkpt>
      <trkpt lat="45.76838" lon="4.6379">
        <ele>682.6</ele>
        <time>2013-04-18T10:35:43.740Z</time>
      </trkpt>
      <trkpt lat="45.76838" lon="4.63788">
        <ele>682.9</ele>
        <time>2013-04-18T10:35:44.740Z</time>
      </trkpt>
      <trkpt lat="45.76837" lon="4.63782">
        <ele>683.4</ele>
        <time>2013-04-18T10:35:46.640Z</time>
      </trkpt>
      <trkpt lat="45.76836" lon="4.6378">
        <ele>683.3</ele>
        <time>2013-04-18T10:35:47.640Z</time>
      </trkpt>
      <trkpt lat="45.76834" lon="4.63779">
        <ele>683</ele>
        <time>2013-04-18T10:35:48.640Z</time>
      </trkpt>
      <trkpt lat="45.76831" lon="4.63778">
        <ele>682.6</ele>
        <time>2013-04-18T10:35:49.640Z</time>
      </trkpt>
      <trkpt lat="45.76829" lon="4.63777">
        <ele>682.2</ele>
        <time>2013-04-18T10:35:50.590Z</time>
      </trkpt>
      <trkpt lat="45.76828" lon="4.63778">
        <ele>681.8</ele>
        <time>2013-04-18T10:35:51.640Z</time>
      </trkpt>
      <trkpt lat="45.76826" lon="4.63777">
        <ele>681.5</ele>
        <time>2013-04-18T10:35:52.640Z</time>
      </trkpt>
      <trkpt lat="45.76824" lon="4.63777">
        <ele>681.1</ele>
        <time>2013-04-18T10:35:53.640Z</time>
      </trkpt>
      <trkpt lat="45.76823" lon="4.63778">
        <ele>680.6</ele>
        <time>2013-04-18T10:35:54.620Z</time>
      </trkpt>
      <trkpt lat="45.76821" lon="4.6378">
        <ele>680.2</ele>
        <time>2013-04-18T10:35:55.640Z</time>
      </trkpt>
      <trkpt lat="45.7682" lon="4.63781">
        <ele>679.6</ele>
        <time>2013-04-18T10:35:56.640Z</time>
      </trkpt>
      <trkpt lat="45.76818" lon="4.63783">
        <ele>679.2</ele>
        <time>2013-04-18T10:35:57.640Z</time>
      </trkpt>
      <trkpt lat="45.76816" lon="4.63784">
        <ele>669.5</ele>
        <time>2013-04-18T10:35:58.630Z</time>
      </trkpt>
      <trkpt lat="45.76814" lon="4.63785">
        <ele>678</ele>
        <time>2013-04-18T10:35:59.690Z</time>
      </trkpt>
      <trkpt lat="45.76811" lon="4.63786">
        <ele>677.3</ele>
        <time>2013-04-18T10:36:00.740Z</time>
      </trkpt>
      <trkpt lat="45.76808" lon="4.63787">
        <ele>676.6</ele>
        <time>2013-04-18T10:36:01.740Z</time>
      </trkpt>
      <trkpt lat="45.76806" lon="4.63788">
        <ele>676</ele>
        <time>2013-04-18T10:36:02.730Z</time>
      </trkpt>
      <trkpt lat="45.76804" lon="4.63788">
        <ele>675.5</ele>
        <time>2013-04-18T10:36:03.730Z</time>
      </trkpt>
      <trkpt lat="45.76802" lon="4.6379">
        <ele>674.9</ele>
        <time>2013-04-18T10:36:04.730Z</time>
      </trkpt>
      <trkpt lat="45.76799" lon="4.63796">
        <ele>673.6</ele>
        <time>2013-04-18T10:36:06.730Z</time>
      </trkpt>
      <trkpt lat="45.76797" lon="4.63799">
        <ele>673</ele>
        <time>2013-04-18T10:36:07.740Z</time>
      </trkpt>
      <trkpt lat="45.76796" lon="4.63802">
        <ele>672.4</ele>
        <time>2013-04-18T10:36:08.730Z</time>
      </trkpt>
      <trkpt lat="45.76796" lon="4.63805">
        <ele>672</ele>
        <time>2013-04-18T10:36:09.730Z</time>
      </trkpt>
      <trkpt lat="45.76796" lon="4.63807">
        <ele>671.6</ele>
        <time>2013-04-18T10:36:10.730Z</time>
      </trkpt>
      <trkpt lat="45.76795" lon="4.63811">
        <ele>671.1</ele>
        <time>2013-04-18T10:36:11.730Z</time>
      </trkpt>
      <trkpt lat="45.76795" lon="4.63815">
        <ele>670.5</ele>
        <time>2013-04-18T10:36:12.730Z</time>
      </trkpt>
      <trkpt lat="45.76794" lon="4.63819">
        <ele>669.9</ele>
        <time>2013-04-18T10:36:13.730Z</time>
      </trkpt>
      <trkpt lat="45.76794" lon="4.63822">
        <ele>669.3</ele>
        <time>2013-04-18T10:36:14.730Z</time>
      </trkpt>
      <trkpt lat="45.76793" lon="4.63827">
        <ele>668.6</ele>
        <time>2013-04-18T10:36:15.730Z</time>
      </trkpt>
      <trkpt lat="45.76792" lon="4.63831">
        <ele>667.9</ele>
        <time>2013-04-18T10:36:16.680Z</time>
      </trkpt>
      <trkpt lat="45.76792" lon="4.63835">
        <ele>667.2</ele>
        <time>2013-04-18T10:36:17.730Z</time>
      </trkpt>
      <trkpt lat="45.76792" lon="4.6384">
        <ele>666.5</ele>
        <time>2013-04-18T10:36:18.710Z</time>
      </trkpt>
      <trkpt lat="45.76792" lon="4.63844">
        <ele>666</ele>
        <time>2013-04-18T10:36:19.730Z</time>
      </trkpt>
      <trkpt lat="45.76795" lon="4.63852">
        <ele>665.1</ele>
        <time>2013-04-18T10:36:21.630Z</time>
      </trkpt>
      <trkpt lat="45.76796" lon="4.63857">
        <ele>664.6</ele>
        <time>2013-04-18T10:36:22.630Z</time>
      </trkpt>
      <trkpt lat="45.76798" lon="4.63862">
        <ele>664.1</ele>
        <time>2013-04-18T10:36:23.630Z</time>
      </trkpt>
      <trkpt lat="45.76799" lon="4.63866">
        <ele>663.7</ele>
        <time>2013-04-18T10:36:24.630Z</time>
      </trkpt>
      <trkpt lat="45.76802" lon="4.63871">
        <ele>663.4</ele>
        <time>2013-04-18T10:36:25.730Z</time>
      </trkpt>
      <trkpt lat="45.76803" lon="4.63875">
        <ele>663</ele>
        <time>2013-04-18T10:36:26.730Z</time>
      </trkpt>
      <trkpt lat="45.76805" lon="4.6388">
        <ele>662.5</ele>
        <time>2013-04-18T10:36:27.730Z</time>
      </trkpt>
      <trkpt lat="45.76805" lon="4.63884">
        <ele>661.8</ele>
        <time>2013-04-18T10:36:28.730Z</time>
      </trkpt>
      <trkpt lat="45.76805" lon="4.63888">
        <ele>661</ele>
        <time>2013-04-18T10:36:29.730Z</time>
      </trkpt>
      <trkpt lat="45.76803" lon="4.63895">
        <ele>659.2</ele>
        <time>2013-04-18T10:36:31.620Z</time>
      </trkpt>
      <trkpt lat="45.76802" lon="4.63899">
        <ele>658.4</ele>
        <time>2013-04-18T10:36:32.630Z</time>
      </trkpt>
      <trkpt lat="45.76802" lon="4.63903">
        <ele>657.6</ele>
        <time>2013-04-18T10:36:33.580Z</time>
      </trkpt>
      <trkpt lat="45.76801" lon="4.63907">
        <ele>656.6</ele>
        <time>2013-04-18T10:36:34.730Z</time>
      </trkpt>
      <trkpt lat="45.768" lon="4.63911">
        <ele>655.8</ele>
        <time>2013-04-18T10:36:35.730Z</time>
      </trkpt>
      <trkpt lat="45.76801" lon="4.63915">
        <ele>655.1</ele>
        <time>2013-04-18T10:36:36.730Z</time>
      </trkpt>
      <trkpt lat="45.76802" lon="4.63918">
        <ele>654.7</ele>
        <time>2013-04-18T10:36:37.730Z</time>
      </trkpt>
      <trkpt lat="45.76804" lon="4.63922">
        <ele>654.2</ele>
        <time>2013-04-18T10:36:38.730Z</time>
      </trkpt>
      <trkpt lat="45.76805" lon="4.63934">
        <ele>651.6</ele>
        <time>2013-04-18T10:36:40.630Z</time>
      </trkpt>
      <trkpt lat="45.76806" lon="4.63939">
        <ele>650.4</ele>
        <time>2013-04-18T10:36:41.630Z</time>
      </trkpt>
      <trkpt lat="45.76807" lon="4.63944">
        <ele>649.4</ele>
        <time>2013-04-18T10:36:42.630Z</time>
      </trkpt>
      <trkpt lat="45.76808" lon="4.6395">
        <ele>648.7</ele>
        <time>2013-04-18T10:36:43.620Z</time>
      </trkpt>
      <trkpt lat="45.76809" lon="4.63956">
        <ele>648</ele>
        <time>2013-04-18T10:36:44.710Z</time>
      </trkpt>
      <trkpt lat="45.7681" lon="4.63963">
        <ele>647</ele>
        <time>2013-04-18T10:36:45.720Z</time>
      </trkpt>
      <trkpt lat="45.76812" lon="4.63967">
        <ele>646.4</ele>
        <time>2013-04-18T10:36:46.720Z</time>
      </trkpt>
      <trkpt lat="45.76812" lon="4.63973">
        <ele>645.6</ele>
        <time>2013-04-18T10:36:47.720Z</time>
      </trkpt>
      <trkpt lat="45.76812" lon="4.63978">
        <ele>644.8</ele>
        <time>2013-04-18T10:36:48.720Z</time>
      </trkpt>
      <trkpt lat="45.76812" lon="4.63988">
        <ele>643.2</ele>
        <time>2013-04-18T10:36:50.680Z</time>
      </trkpt>
      <trkpt lat="45.76812" lon="4.63993">
        <ele>642.4</ele>
        <time>2013-04-18T10:36:51.720Z</time>
      </trkpt>
      <trkpt lat="45.76812" lon="4.63998">
        <ele>641.7</ele>
        <time>2013-04-18T10:36:52.720Z</time>
      </trkpt>
      <trkpt lat="45.76812" lon="4.64004">
        <ele>640.9</ele>
        <time>2013-04-18T10:36:53.720Z</time>
      </trkpt>
      <trkpt lat="45.76814" lon="4.64012">
        <ele>639.7</ele>
        <time>2013-04-18T10:36:55.620Z</time>
      </trkpt>
      <trkpt lat="45.76814" lon="4.64017">
        <ele>639</ele>
        <time>2013-04-18T10:36:56.620Z</time>
      </trkpt>
      <trkpt lat="45.76814" lon="4.64021">
        <ele>638.1</ele>
        <time>2013-04-18T10:36:57.620Z</time>
      </trkpt>
      <trkpt lat="45.76813" lon="4.64026">
        <ele>665.2</ele>
        <time>2013-04-18T10:36:58.620Z</time>
      </trkpt>
      <trkpt lat="45.76812" lon="4.64029">
        <ele>636.5</ele>
        <time>2013-04-18T10:36:59.570Z</time>
      </trkpt>
      <trkpt lat="45.76811" lon="4.64033">
        <ele>635.7</ele>
        <time>2013-04-18T10:37:00.620Z</time>
      </trkpt>
      <trkpt lat="45.7681" lon="4.64036">
        <ele>634.9</ele>
        <time>2013-04-18T10:37:01.630Z</time>
      </trkpt>
      <trkpt lat="45.76809" lon="4.64039">
        <ele>634.2</ele>
        <time>2013-04-18T10:37:02.620Z</time>
      </trkpt>
      <trkpt lat="45.76807" lon="4.64041">
        <ele>633.4</ele>
        <time>2013-04-18T10:37:03.620Z</time>
      </trkpt>
      <trkpt lat="45.76806" lon="4.64044">
        <ele>632.6</ele>
        <time>2013-04-18T10:37:04.720Z</time>
      </trkpt>
      <trkpt lat="45.76804" lon="4.64048">
        <ele>631.6</ele>
        <time>2013-04-18T10:37:05.720Z</time>
      </trkpt>
      <trkpt lat="45.76802" lon="4.64053">
        <ele>630.5</ele>
        <time>2013-04-18T10:37:06.720Z</time>
      </trkpt>
      <trkpt lat="45.76799" lon="4.64057">
        <ele>629.4</ele>
        <time>2013-04-18T10:37:07.700Z</time>
      </trkpt>
      <trkpt lat="45.76793" lon="4.64065">
        <ele>627.2</ele>
        <time>2013-04-18T10:37:09.720Z</time>
      </trkpt>
      <trkpt lat="45.7679" lon="4.64068">
        <ele>626.2</ele>
        <time>2013-04-18T10:37:10.720Z</time>
      </trkpt>
      <trkpt lat="45.76787" lon="4.64069">
        <ele>625.4</ele>
        <time>2013-04-18T10:37:11.720Z</time>
      </trkpt>
      <trkpt lat="45.76784" lon="4.64069">
        <ele>624.8</ele>
        <time>2013-04-18T10:37:12.720Z</time>
      </trkpt>
      <trkpt lat="45.76781" lon="4.64069">
        <ele>624.2</ele>
        <time>2013-04-18T10:37:13.720Z</time>
      </trkpt>
      <trkpt lat="45.76777" lon="4.64069">
        <ele>623.4</ele>
        <time>2013-04-18T10:37:14.720Z</time>
      </trkpt>
      <trkpt lat="45.76772" lon="4.64067">
        <ele>622.3</ele>
        <time>2013-04-18T10:37:15.720Z</time>
      </trkpt>
      <trkpt lat="45.76768" lon="4.64066">
        <ele>621.4</ele>
        <time>2013-04-18T10:37:16.500Z</time>
      </trkpt>
      <trkpt lat="45.76764" lon="4.64064">
        <ele>620.5</ele>
        <time>2013-04-18T10:37:17.620Z</time>
      </trkpt>
      <trkpt lat="45.7676" lon="4.64063">
        <ele>619.5</ele>
        <time>2013-04-18T10:37:18.620Z</time>
      </trkpt>
      <trkpt lat="45.76757" lon="4.6406">
        <ele>618.7</ele>
        <time>2013-04-18T10:37:19.620Z</time>
      </trkpt>
      <trkpt lat="45.76753" lon="4.64057">
        <ele>617.9</ele>
        <time>2013-04-18T10:37:20.620Z</time>
      </trkpt>
      <trkpt lat="45.7675" lon="4.64055">
        <ele>617</ele>
        <time>2013-04-18T10:37:21.620Z</time>
      </trkpt>
      <trkpt lat="45.76746" lon="4.64053">
        <ele>616.2</ele>
        <time>2013-04-18T10:37:22.720Z</time>
      </trkpt>
      <trkpt lat="45.76743" lon="4.64051">
        <ele>615.5</ele>
        <time>2013-04-18T10:37:23.720Z</time>
      </trkpt>
      <trkpt lat="45.7674" lon="4.6405">
        <ele>614.8</ele>
        <time>2013-04-18T10:37:24.710Z</time>
      </trkpt>
      <trkpt lat="45.76737" lon="4.64048">
        <ele>614.1</ele>
        <time>2013-04-18T10:37:25.710Z</time>
      </trkpt>
      <trkpt lat="45.76734" lon="4.64046">
        <ele>613.3</ele>
        <time>2013-04-18T10:37:26.710Z</time>
      </trkpt>
      <trkpt lat="45.7673" lon="4.64045">
        <ele>612.4</ele>
        <time>2013-04-18T10:37:27.710Z</time>
      </trkpt>
      <trkpt lat="45.76726" lon="4.64044">
        <ele>611.4</ele>
        <time>2013-04-18T10:37:28.710Z</time>
      </trkpt>
      <trkpt lat="45.76722" lon="4.64043">
        <ele>610.4</ele>
        <time>2013-04-18T10:37:29.710Z</time>
      </trkpt>
      <trkpt lat="45.76719" lon="4.64043">
        <ele>609.5</ele>
        <time>2013-04-18T10:37:30.710Z</time>
      </trkpt>
      <trkpt lat="45.76716" lon="4.64043">
        <ele>608.7</ele>
        <time>2013-04-18T10:37:31.710Z</time>
      </trkpt>
      <trkpt lat="45.7671" lon="4.64039">
        <ele>607.2</ele>
        <time>2013-04-18T10:37:33.670Z</time>
      </trkpt>
      <trkpt lat="45.76707" lon="4.64037">
        <ele>606.7</ele>
        <time>2013-04-18T10:37:34.710Z</time>
      </trkpt>
      <trkpt lat="45.76704" lon="4.64036">
        <ele>606</ele>
        <time>2013-04-18T10:37:35.710Z</time>
      </trkpt>
      <trkpt lat="45.76701" lon="4.64034">
        <ele>605.2</ele>
        <time>2013-04-18T10:37:36.710Z</time>
      </trkpt>
      <trkpt lat="45.76698" lon="4.64032">
        <ele>604.5</ele>
        <time>2013-04-18T10:37:37.710Z</time>
      </trkpt>
      <trkpt lat="45.76696" lon="4.64032">
        <ele>603.9</ele>
        <time>2013-04-18T10:37:38.710Z</time>
      </trkpt>
      <trkpt lat="45.76693" lon="4.64033">
        <ele>603.3</ele>
        <time>2013-04-18T10:37:39.720Z</time>
      </trkpt>
      <trkpt lat="45.7669" lon="4.64032">
        <ele>602.5</ele>
        <time>2013-04-18T10:37:40.710Z</time>
      </trkpt>
      <trkpt lat="45.76687" lon="4.64032">
        <ele>601.6</ele>
        <time>2013-04-18T10:37:41.710Z</time>
      </trkpt>
      <trkpt lat="45.76685" lon="4.64031">
        <ele>601</ele>
        <time>2013-04-18T10:37:42.710Z</time>
      </trkpt>
      <trkpt lat="45.76683" lon="4.64032">
        <ele>600.3</ele>
        <time>2013-04-18T10:37:43.710Z</time>
      </trkpt>
      <trkpt lat="45.76681" lon="4.64032">
        <ele>599.6</ele>
        <time>2013-04-18T10:37:44.710Z</time>
      </trkpt>
      <trkpt lat="45.76678" lon="4.64032">
        <ele>598.8</ele>
        <time>2013-04-18T10:37:45.710Z</time>
      </trkpt>
      <trkpt lat="45.76672" lon="4.6403">
        <ele>597.4</ele>
        <time>2013-04-18T10:37:47.610Z</time>
      </trkpt>
      <trkpt lat="45.76669" lon="4.64027">
        <ele>596.9</ele>
        <time>2013-04-18T10:37:48.610Z</time>
      </trkpt>
      <trkpt lat="45.76667" lon="4.64024">
        <ele>596.6</ele>
        <time>2013-04-18T10:37:49.610Z</time>
      </trkpt>
      <trkpt lat="45.76664" lon="4.64021">
        <ele>596.5</ele>
        <time>2013-04-18T10:37:50.660Z</time>
      </trkpt>
      <trkpt lat="45.76663" lon="4.64018">
        <ele>596.6</ele>
        <time>2013-04-18T10:37:51.710Z</time>
      </trkpt>
      <trkpt lat="45.76662" lon="4.64015">
        <ele>596.7</ele>
        <time>2013-04-18T10:37:52.710Z</time>
      </trkpt>
      <trkpt lat="45.76661" lon="4.64013">
        <ele>596.8</ele>
        <time>2013-04-18T10:37:53.710Z</time>
      </trkpt>
      <trkpt lat="45.7666" lon="4.64011">
        <ele>596.9</ele>
        <time>2013-04-18T10:37:54.710Z</time>
      </trkpt>
      <trkpt lat="45.76658" lon="4.64009">
        <ele>596.8</ele>
        <time>2013-04-18T10:37:55.710Z</time>
      </trkpt>
      <trkpt lat="45.76656" lon="4.64008">
        <ele>596.7</ele>
        <time>2013-04-18T10:37:56.710Z</time>
      </trkpt>
      <trkpt lat="45.76655" lon="4.64004">
        <ele>596.9</ele>
        <time>2013-04-18T10:37:57.710Z</time>
      </trkpt>
      <trkpt lat="45.76654" lon="4.64001">
        <ele>637</ele>
        <time>2013-04-18T10:37:58.700Z</time>
      </trkpt>
      <trkpt lat="45.76653" lon="4.63994">
        <ele>597.9</ele>
        <time>2013-04-18T10:38:00.610Z</time>
      </trkpt>
      <trkpt lat="45.76652" lon="4.63991">
        <ele>598</ele>
        <time>2013-04-18T10:38:01.710Z</time>
      </trkpt>
      <trkpt lat="45.76651" lon="4.6399">
        <ele>598.1</ele>
        <time>2013-04-18T10:38:02.710Z</time>
      </trkpt>
      <trkpt lat="45.76651" lon="4.63988">
        <ele>598.3</ele>
        <time>2013-04-18T10:38:03.710Z</time>
      </trkpt>
      <trkpt lat="45.7665" lon="4.63986">
        <ele>598.4</ele>
        <time>2013-04-18T10:38:04.710Z</time>
      </trkpt>
      <trkpt lat="45.76649" lon="4.63985">
        <ele>598.4</ele>
        <time>2013-04-18T10:38:05.710Z</time>
      </trkpt>
      <trkpt lat="45.76648" lon="4.63981">
        <ele>598.8</ele>
        <time>2013-04-18T10:38:07.600Z</time>
      </trkpt>
      <trkpt lat="45.76647" lon="4.63979">
        <ele>598.8</ele>
        <time>2013-04-18T10:38:08.600Z</time>
      </trkpt>
      <trkpt lat="45.76646" lon="4.63977">
        <ele>598.8</ele>
        <time>2013-04-18T10:38:09.600Z</time>
      </trkpt>
      <trkpt lat="45.76645" lon="4.63975">
        <ele>599</ele>
        <time>2013-04-18T10:38:10.600Z</time>
      </trkpt>
      <trkpt lat="45.76644" lon="4.63973">
        <ele>599</ele>
        <time>2013-04-18T10:38:11.600Z</time>
      </trkpt>
      <trkpt lat="45.76642" lon="4.63971">
        <ele>598.9</ele>
        <time>2013-04-18T10:38:12.700Z</time>
      </trkpt>
      <trkpt lat="45.76641" lon="4.6397">
        <ele>598.9</ele>
        <time>2013-04-18T10:38:13.700Z</time>
      </trkpt>
      <trkpt lat="45.7664" lon="4.63969">
        <ele>599</ele>
        <time>2013-04-18T10:38:14.700Z</time>
      </trkpt>
      <trkpt lat="45.76638" lon="4.63963">
        <ele>599.3</ele>
        <time>2013-04-18T10:38:17.600Z</time>
      </trkpt>
      <trkpt lat="45.76636" lon="4.63961">
        <ele>599.4</ele>
        <time>2013-04-18T10:38:18.610Z</time>
      </trkpt>
      <trkpt lat="45.76635" lon="4.63959">
        <ele>599.5</ele>
        <time>2013-04-18T10:38:19.600Z</time>
      </trkpt>
      <trkpt lat="45.76635" lon="4.63956">
        <ele>599.9</ele>
        <time>2013-04-18T10:38:20.600Z</time>
      </trkpt>
      <trkpt lat="45.76634" lon="4.63954">
        <ele>600.2</ele>
        <time>2013-04-18T10:38:21.600Z</time>
      </trkpt>
      <trkpt lat="45.76633" lon="4.63951">
        <ele>600.4</ele>
        <time>2013-04-18T10:38:22.600Z</time>
      </trkpt>
      <trkpt lat="45.76633" lon="4.63948">
        <ele>601</ele>
        <time>2013-04-18T10:38:23.600Z</time>
      </trkpt>
      <trkpt lat="45.76633" lon="4.63945">
        <ele>601.4</ele>
        <time>2013-04-18T10:38:24.580Z</time>
      </trkpt>
      <trkpt lat="45.76633" lon="4.63942">
        <ele>601.9</ele>
        <time>2013-04-18T10:38:25.700Z</time>
      </trkpt>
      <trkpt lat="45.76632" lon="4.6394">
        <ele>602.1</ele>
        <time>2013-04-18T10:38:26.700Z</time>
      </trkpt>
      <trkpt lat="45.76631" lon="4.63938">
        <ele>602.3</ele>
        <time>2013-04-18T10:38:27.700Z</time>
      </trkpt>
      <trkpt lat="45.7663" lon="4.63936">
        <ele>602.3</ele>
        <time>2013-04-18T10:38:28.700Z</time>
      </trkpt>
      <trkpt lat="45.76629" lon="4.63934">
        <ele>602.4</ele>
        <time>2013-04-18T10:38:29.700Z</time>
      </trkpt>
      <trkpt lat="45.76627" lon="4.63932">
        <ele>602.2</ele>
        <time>2013-04-18T10:38:31.600Z</time>
      </trkpt>
      <trkpt lat="45.76625" lon="4.6393">
        <ele>602.1</ele>
        <time>2013-04-18T10:38:32.600Z</time>
      </trkpt>
      <trkpt lat="45.76624" lon="4.63927">
        <ele>602.5</ele>
        <time>2013-04-18T10:38:33.650Z</time>
      </trkpt>
      <trkpt lat="45.76624" lon="4.63924">
        <ele>602.9</ele>
        <time>2013-04-18T10:38:34.700Z</time>
      </trkpt>
      <trkpt lat="45.76623" lon="4.63918">
        <ele>603.6</ele>
        <time>2013-04-18T10:38:36.600Z</time>
      </trkpt>
      <trkpt lat="45.76622" lon="4.63916">
        <ele>603.8</ele>
        <time>2013-04-18T10:38:37.600Z</time>
      </trkpt>
      <trkpt lat="45.76622" lon="4.63913">
        <ele>604.2</ele>
        <time>2013-04-18T10:38:38.600Z</time>
      </trkpt>
      <trkpt lat="45.76621" lon="4.6391">
        <ele>604.4</ele>
        <time>2013-04-18T10:38:39.700Z</time>
      </trkpt>
      <trkpt lat="45.76621" lon="4.63908">
        <ele>604.7</ele>
        <time>2013-04-18T10:38:40.700Z</time>
      </trkpt>
      <trkpt lat="45.76621" lon="4.63904">
        <ele>605.2</ele>
        <time>2013-04-18T10:38:41.710Z</time>
      </trkpt>
      <trkpt lat="45.76621" lon="4.63902">
        <ele>605.6</ele>
        <time>2013-04-18T10:38:42.700Z</time>
      </trkpt>
      <trkpt lat="45.7662" lon="4.63899">
        <ele>605.8</ele>
        <time>2013-04-18T10:38:43.700Z</time>
      </trkpt>
      <trkpt lat="45.76619" lon="4.63893">
        <ele>606.4</ele>
        <time>2013-04-18T10:38:45.600Z</time>
      </trkpt>
      <trkpt lat="45.76619" lon="4.63891">
        <ele>606.6</ele>
        <time>2013-04-18T10:38:46.600Z</time>
      </trkpt>
      <trkpt lat="45.76619" lon="4.63889">
        <ele>607</ele>
        <time>2013-04-18T10:38:47.590Z</time>
      </trkpt>
      <trkpt lat="45.7662" lon="4.63886">
        <ele>607.6</ele>
        <time>2013-04-18T10:38:48.590Z</time>
      </trkpt>
      <trkpt lat="45.7662" lon="4.63882">
        <ele>608.3</ele>
        <time>2013-04-18T10:38:49.590Z</time>
      </trkpt>
      <trkpt lat="45.7662" lon="4.63879">
        <ele>608.8</ele>
        <time>2013-04-18T10:38:50.550Z</time>
      </trkpt>
      <trkpt lat="45.76621" lon="4.63874">
        <ele>609.8</ele>
        <time>2013-04-18T10:38:52.590Z</time>
      </trkpt>
      <trkpt lat="45.7662" lon="4.63871">
        <ele>610.1</ele>
        <time>2013-04-18T10:38:53.590Z</time>
      </trkpt>
      <trkpt lat="45.76621" lon="4.63869">
        <ele>610.5</ele>
        <time>2013-04-18T10:38:54.690Z</time>
      </trkpt>
      <trkpt lat="45.76621" lon="4.63867">
        <ele>610.9</ele>
        <time>2013-04-18T10:38:55.690Z</time>
      </trkpt>
      <trkpt lat="45.7662" lon="4.63864">
        <ele>611.2</ele>
        <time>2013-04-18T10:38:56.690Z</time>
      </trkpt>
      <trkpt lat="45.7662" lon="4.63862">
        <ele>611.5</ele>
        <time>2013-04-18T10:38:57.690Z</time>
      </trkpt>
      <trkpt lat="45.7662" lon="4.6386">
        <ele>622</ele>
        <time>2013-04-18T10:38:58.690Z</time>
      </trkpt>
      <trkpt lat="45.7662" lon="4.63857">
        <ele>612.1</ele>
        <time>2013-04-18T10:38:59.560Z</time>
      </trkpt>
      <trkpt lat="45.76621" lon="4.63852">
        <ele>612.8</ele>
        <time>2013-04-18T10:39:01.590Z</time>
      </trkpt>
      <trkpt lat="45.7662" lon="4.63848">
        <ele>613.1</ele>
        <time>2013-04-18T10:39:02.570Z</time>
      </trkpt>
      <trkpt lat="45.76621" lon="4.63845">
        <ele>613.7</ele>
        <time>2013-04-18T10:39:03.590Z</time>
      </trkpt>
      <trkpt lat="45.76622" lon="4.63842">
        <ele>614.5</ele>
        <time>2013-04-18T10:39:04.690Z</time>
      </trkpt>
      <trkpt lat="45.76622" lon="4.63839">
        <ele>614.9</ele>
        <time>2013-04-18T10:39:05.690Z</time>
      </trkpt>
      <trkpt lat="45.76622" lon="4.63838">
        <ele>615</ele>
        <time>2013-04-18T10:39:06.690Z</time>
      </trkpt>
      <trkpt lat="45.76622" lon="4.63835">
        <ele>615.2</ele>
        <time>2013-04-18T10:39:07.690Z</time>
      </trkpt>
      <trkpt lat="45.76621" lon="4.63831">
        <ele>615.4</ele>
        <time>2013-04-18T10:39:08.690Z</time>
      </trkpt>
      <trkpt lat="45.7662" lon="4.63826">
        <ele>615.6</ele>
        <time>2013-04-18T10:39:10.590Z</time>
      </trkpt>
      <trkpt lat="45.76619" lon="4.63823">
        <ele>615.8</ele>
        <time>2013-04-18T10:39:11.590Z</time>
      </trkpt>
      <trkpt lat="45.76619" lon="4.63819">
        <ele>616.2</ele>
        <time>2013-04-18T10:39:12.590Z</time>
      </trkpt>
      <trkpt lat="45.76619" lon="4.63816">
        <ele>616.5</ele>
        <time>2013-04-18T10:39:13.790Z</time>
      </trkpt>
      <trkpt lat="45.76619" lon="4.63811">
        <ele>617.1</ele>
        <time>2013-04-18T10:39:15.590Z</time>
      </trkpt>
      <trkpt lat="45.76619" lon="4.63807">
        <ele>617.5</ele>
        <time>2013-04-18T10:39:17.590Z</time>
      </trkpt>
      <trkpt lat="45.76619" lon="4.63804">
        <ele>617.7</ele>
        <time>2013-04-18T10:39:18.590Z</time>
      </trkpt>
      <trkpt lat="45.76619" lon="4.63801">
        <ele>617.9</ele>
        <time>2013-04-18T10:39:19.590Z</time>
      </trkpt>
      <trkpt lat="45.76619" lon="4.63798">
        <ele>618.3</ele>
        <time>2013-04-18T10:39:20.690Z</time>
      </trkpt>
      <trkpt lat="45.7662" lon="4.63795">
        <ele>618.7</ele>
        <time>2013-04-18T10:39:21.690Z</time>
      </trkpt>
      <trkpt lat="45.7662" lon="4.63792">
        <ele>619.1</ele>
        <time>2013-04-18T10:39:22.690Z</time>
      </trkpt>
      <trkpt lat="45.7662" lon="4.63789">
        <ele>619.3</ele>
        <time>2013-04-18T10:39:23.690Z</time>
      </trkpt>
      <trkpt lat="45.76621" lon="4.63786">
        <ele>619.7</ele>
        <time>2013-04-18T10:39:24.690Z</time>
      </trkpt>
      <trkpt lat="45.76622" lon="4.63781">
        <ele>620.6</ele>
        <time>2013-04-18T10:39:26.590Z</time>
      </trkpt>
      <trkpt lat="45.76622" lon="4.63778">
        <ele>620.9</ele>
        <time>2013-04-18T10:39:27.580Z</time>
      </trkpt>
      <trkpt lat="45.76622" lon="4.63775">
        <ele>620.9</ele>
        <time>2013-04-18T10:39:28.580Z</time>
      </trkpt>
      <trkpt lat="45.76621" lon="4.6377">
        <ele>621</ele>
        <time>2013-04-18T10:39:29.770Z</time>
      </trkpt>
      <trkpt lat="45.76621" lon="4.63767">
        <ele>621</ele>
        <time>2013-04-18T10:39:30.780Z</time>
      </trkpt>
      <trkpt lat="45.76619" lon="4.63762">
        <ele>620.9</ele>
        <time>2013-04-18T10:39:32.580Z</time>
      </trkpt>
      <trkpt lat="45.76619" lon="4.63758">
        <ele>621.1</ele>
        <time>2013-04-18T10:39:33.540Z</time>
      </trkpt>
      <trkpt lat="45.76619" lon="4.63755">
        <ele>621.3</ele>
        <time>2013-04-18T10:39:34.680Z</time>
      </trkpt>
      <trkpt lat="45.76619" lon="4.63753">
        <ele>621.5</ele>
        <time>2013-04-18T10:39:35.680Z</time>
      </trkpt>
      <trkpt lat="45.7662" lon="4.63751">
        <ele>621.8</ele>
        <time>2013-04-18T10:39:36.680Z</time>
      </trkpt>
      <trkpt lat="45.76621" lon="4.63748">
        <ele>622.3</ele>
        <time>2013-04-18T10:39:37.680Z</time>
      </trkpt>
      <trkpt lat="45.76623" lon="4.63744">
        <ele>623.3</ele>
        <time>2013-04-18T10:39:38.680Z</time>
      </trkpt>
      <trkpt lat="45.76624" lon="4.6374">
        <ele>623.8</ele>
        <time>2013-04-18T10:39:40.580Z</time>
      </trkpt>
      <trkpt lat="45.76626" lon="4.63739">
        <ele>624.3</ele>
        <time>2013-04-18T10:39:41.580Z</time>
      </trkpt>
      <trkpt lat="45.76627" lon="4.63738">
        <ele>624.8</ele>
        <time>2013-04-18T10:39:42.760Z</time>
      </trkpt>
      <trkpt lat="45.76628" lon="4.63735">
        <ele>625.5</ele>
        <time>2013-04-18T10:39:44.680Z</time>
      </trkpt>
      <trkpt lat="45.7663" lon="4.63733">
        <ele>626.1</ele>
        <time>2013-04-18T10:39:45.680Z</time>
      </trkpt>
      <trkpt lat="45.76632" lon="4.63732">
        <ele>626.8</ele>
        <time>2013-04-18T10:39:46.680Z</time>
      </trkpt>
      <trkpt lat="45.76632" lon="4.63731">
        <ele>627.1</ele>
        <time>2013-04-18T10:39:47.680Z</time>
      </trkpt>
      <trkpt lat="45.76634" lon="4.63729">
        <ele>627.8</ele>
        <time>2013-04-18T10:39:50.530Z</time>
      </trkpt>
      <trkpt lat="45.76635" lon="4.63729">
        <ele>628.1</ele>
        <time>2013-04-18T10:39:51.580Z</time>
      </trkpt>
      <trkpt lat="45.76636" lon="4.63727">
        <ele>628.6</ele>
        <time>2013-04-18T10:39:52.580Z</time>
      </trkpt>
      <trkpt lat="45.76638" lon="4.63729">
        <ele>629.1</ele>
        <time>2013-04-18T10:39:53.580Z</time>
      </trkpt>
      <trkpt lat="45.76639" lon="4.63729">
        <ele>629.6</ele>
        <time>2013-04-18T10:39:54.580Z</time>
      </trkpt>
      <trkpt lat="45.76641" lon="4.6373">
        <ele>630.1</ele>
        <time>2013-04-18T10:39:55.580Z</time>
      </trkpt>
      <trkpt lat="45.76643" lon="4.6373">
        <ele>630.9</ele>
        <time>2013-04-18T10:39:57.580Z</time>
      </trkpt>
      <trkpt lat="45.76644" lon="4.6373">
        <ele>628.2</ele>
        <time>2013-04-18T10:39:58.580Z</time>
      </trkpt>
      <trkpt lat="45.76645" lon="4.63729">
        <ele>631.6</ele>
        <time>2013-04-18T10:39:59.530Z</time>
      </trkpt>
      <trkpt lat="45.76646" lon="4.6373">
        <ele>632.1</ele>
        <time>2013-04-18T10:40:00.680Z</time>
      </trkpt>
      <trkpt lat="45.76647" lon="4.6373">
        <ele>632.5</ele>
        <time>2013-04-18T10:40:01.680Z</time>
      </trkpt>
      <trkpt lat="45.76648" lon="4.63729">
        <ele>633</ele>
        <time>2013-04-18T10:40:03.680Z</time>
      </trkpt>
      <trkpt lat="45.7665" lon="4.63728">
        <ele>633.6</ele>
        <time>2013-04-18T10:40:04.680Z</time>
      </trkpt>
      <trkpt lat="45.76651" lon="4.63727">
        <ele>634.2</ele>
        <time>2013-04-18T10:40:05.680Z</time>
      </trkpt>
      <trkpt lat="45.76652" lon="4.63726">
        <ele>634.5</ele>
        <time>2013-04-18T10:40:06.680Z</time>
      </trkpt>
      <trkpt lat="45.76653" lon="4.63727">
        <ele>635</ele>
        <time>2013-04-18T10:40:07.660Z</time>
      </trkpt>
      <trkpt lat="45.76655" lon="4.63726">
        <ele>635.6</ele>
        <time>2013-04-18T10:40:08.670Z</time>
      </trkpt>
      <trkpt lat="45.76656" lon="4.63725">
        <ele>636.1</ele>
        <time>2013-04-18T10:40:10.670Z</time>
      </trkpt>
      <trkpt lat="45.76657" lon="4.63724">
        <ele>636.5</ele>
        <time>2013-04-18T10:40:11.670Z</time>
      </trkpt>
      <trkpt lat="45.76658" lon="4.63724">
        <ele>636.9</ele>
        <time>2013-04-18T10:40:12.670Z</time>
      </trkpt>
      <trkpt lat="45.76659" lon="4.63725">
        <ele>637.2</ele>
        <time>2013-04-18T10:40:13.670Z</time>
      </trkpt>
      <trkpt lat="45.76662" lon="4.63725">
        <ele>638.3</ele>
        <time>2013-04-18T10:40:15.570Z</time>
      </trkpt>
      <trkpt lat="45.76663" lon="4.63724">
        <ele>638.7</ele>
        <time>2013-04-18T10:40:16.530Z</time>
      </trkpt>
      <trkpt lat="45.76665" lon="4.63723">
        <ele>639.2</ele>
        <time>2013-04-18T10:40:18.570Z</time>
      </trkpt>
      <trkpt lat="45.76666" lon="4.63723">
        <ele>639.7</ele>
        <time>2013-04-18T10:40:20.770Z</time>
      </trkpt>
      <trkpt lat="45.76667" lon="4.63722">
        <ele>640.2</ele>
        <time>2013-04-18T10:40:21.750Z</time>
      </trkpt>
      <trkpt lat="45.76669" lon="4.63721">
        <ele>641</ele>
        <time>2013-04-18T10:40:23.570Z</time>
      </trkpt>
      <trkpt lat="45.76671" lon="4.63721">
        <ele>641.7</ele>
        <time>2013-04-18T10:40:25.670Z</time>
      </trkpt>
      <trkpt lat="45.76673" lon="4.63721">
        <ele>642.2</ele>
        <time>2013-04-18T10:40:27.670Z</time>
      </trkpt>
      <trkpt lat="45.76674" lon="4.63722">
        <ele>642.8</ele>
        <time>2013-04-18T10:40:29.770Z</time>
      </trkpt>
      <trkpt lat="45.76676" lon="4.63722">
        <ele>643.5</ele>
        <time>2013-04-18T10:40:31.570Z</time>
      </trkpt>
      <trkpt lat="45.76678" lon="4.63722">
        <ele>644</ele>
        <time>2013-04-18T10:40:33.720Z</time>
      </trkpt>
      <trkpt lat="45.7668" lon="4.63724">
        <ele>644.6</ele>
        <time>2013-04-18T10:40:35.770Z</time>
      </trkpt>
      <trkpt lat="45.76683" lon="4.63727">
        <ele>645.6</ele>
        <time>2013-04-18T10:40:37.570Z</time>
      </trkpt>
      <trkpt lat="45.76684" lon="4.63727">
        <ele>646</ele>
        <time>2013-04-18T10:40:39.770Z</time>
      </trkpt>
      <trkpt lat="45.76686" lon="4.63727">
        <ele>646.6</ele>
        <time>2013-04-18T10:40:41.770Z</time>
      </trkpt>
      <trkpt lat="45.76687" lon="4.63727">
        <ele>647.1</ele>
        <time>2013-04-18T10:40:42.770Z</time>
      </trkpt>
      <trkpt lat="45.76688" lon="4.63726">
        <ele>647.5</ele>
        <time>2013-04-18T10:40:43.770Z</time>
      </trkpt>
      <trkpt lat="45.76689" lon="4.63725">
        <ele>647.9</ele>
        <time>2013-04-18T10:40:45.770Z</time>
      </trkpt>
      <trkpt lat="45.7669" lon="4.63725">
        <ele>648.4</ele>
        <time>2013-04-18T10:40:47.770Z</time>
      </trkpt>
      <trkpt lat="45.76691" lon="4.63724">
        <ele>648.8</ele>
        <time>2013-04-18T10:40:49.770Z</time>
      </trkpt>
      <trkpt lat="45.76693" lon="4.63723">
        <ele>649.5</ele>
        <time>2013-04-18T10:40:51.660Z</time>
      </trkpt>
      <trkpt lat="45.76694" lon="4.63724">
        <ele>649.9</ele>
        <time>2013-04-18T10:40:52.660Z</time>
      </trkpt>
      <trkpt lat="45.76696" lon="4.63725">
        <ele>650.3</ele>
        <time>2013-04-18T10:40:53.660Z</time>
      </trkpt>
      <trkpt lat="45.76696" lon="4.63726">
        <ele>650.6</ele>
        <time>2013-04-18T10:40:54.660Z</time>
      </trkpt>
      <trkpt lat="45.76698" lon="4.63727">
        <ele>651.1</ele>
        <time>2013-04-18T10:40:55.660Z</time>
      </trkpt>
      <trkpt lat="45.76699" lon="4.63728">
        <ele>651.5</ele>
        <time>2013-04-18T10:40:57.660Z</time>
      </trkpt>
      <trkpt lat="45.767" lon="4.63728">
        <ele>638.7</ele>
        <time>2013-04-18T10:40:58.660Z</time>
      </trkpt>
      <trkpt lat="45.76701" lon="4.63729">
        <ele>652.2</ele>
        <time>2013-04-18T10:40:59.710Z</time>
      </trkpt>
      <trkpt lat="45.76702" lon="4.63729">
        <ele>652.8</ele>
        <time>2013-04-18T10:41:01.760Z</time>
      </trkpt>
      <trkpt lat="45.76704" lon="4.63729">
        <ele>653.5</ele>
        <time>2013-04-18T10:41:02.740Z</time>
      </trkpt>
      <trkpt lat="45.76706" lon="4.6373">
        <ele>654.3</ele>
        <time>2013-04-18T10:41:04.660Z</time>
      </trkpt>
      <trkpt lat="45.76707" lon="4.63731">
        <ele>654.6</ele>
        <time>2013-04-18T10:41:05.660Z</time>
      </trkpt>
      <trkpt lat="45.76708" lon="4.63732">
        <ele>654.9</ele>
        <time>2013-04-18T10:41:06.660Z</time>
      </trkpt>
      <trkpt lat="45.7671" lon="4.63732">
        <ele>655.5</ele>
        <time>2013-04-18T10:41:09.660Z</time>
      </trkpt>
      <trkpt lat="45.76712" lon="4.63733">
        <ele>656.2</ele>
        <time>2013-04-18T10:41:11.660Z</time>
      </trkpt>
      <trkpt lat="45.76713" lon="4.63732">
        <ele>656.7</ele>
        <time>2013-04-18T10:41:12.660Z</time>
      </trkpt>
      <trkpt lat="45.76715" lon="4.63731">
        <ele>657.4</ele>
        <time>2013-04-18T10:41:13.660Z</time>
      </trkpt>
      <trkpt lat="45.76716" lon="4.63731">
        <ele>657.8</ele>
        <time>2013-04-18T10:41:14.660Z</time>
      </trkpt>
      <trkpt lat="45.76716" lon="4.6373">
        <ele>658.2</ele>
        <time>2013-04-18T10:41:15.660Z</time>
      </trkpt>
      <trkpt lat="45.76719" lon="4.63728">
        <ele>659.1</ele>
        <time>2013-04-18T10:41:17.660Z</time>
      </trkpt>
      <trkpt lat="45.7672" lon="4.63727">
        <ele>659.7</ele>
        <time>2013-04-18T10:41:19.660Z</time>
      </trkpt>
      <trkpt lat="45.76721" lon="4.63729">
        <ele>660.1</ele>
        <time>2013-04-18T10:41:21.660Z</time>
      </trkpt>
      <trkpt lat="45.76722" lon="4.63728">
        <ele>660.6</ele>
        <time>2013-04-18T10:41:23.660Z</time>
      </trkpt>
      <trkpt lat="45.76724" lon="4.63728">
        <ele>661.1</ele>
        <time>2013-04-18T10:41:25.760Z</time>
      </trkpt>
      <trkpt lat="45.76725" lon="4.6373">
        <ele>661.3</ele>
        <time>2013-04-18T10:41:26.760Z</time>
      </trkpt>
      <trkpt lat="45.76726" lon="4.6373">
        <ele>661.7</ele>
        <time>2013-04-18T10:41:27.760Z</time>
      </trkpt>
      <trkpt lat="45.76727" lon="4.6373">
        <ele>662</ele>
        <time>2013-04-18T10:41:29.750Z</time>
      </trkpt>
      <trkpt lat="45.7673" lon="4.6373">
        <ele>663</ele>
        <time>2013-04-18T10:41:31.660Z</time>
      </trkpt>
      <trkpt lat="45.76731" lon="4.6373">
        <ele>663.4</ele>
        <time>2013-04-18T10:41:32.660Z</time>
      </trkpt>
      <trkpt lat="45.76732" lon="4.63731">
        <ele>663.6</ele>
        <time>2013-04-18T10:41:33.610Z</time>
      </trkpt>
      <trkpt lat="45.76733" lon="4.63732">
        <ele>663.9</ele>
        <time>2013-04-18T10:41:34.650Z</time>
      </trkpt>
      <trkpt lat="45.76735" lon="4.63732">
        <ele>664.5</ele>
        <time>2013-04-18T10:41:36.750Z</time>
      </trkpt>
      <trkpt lat="45.76736" lon="4.63732">
        <ele>664.9</ele>
        <time>2013-04-18T10:41:37.750Z</time>
      </trkpt>
      <trkpt lat="45.76738" lon="4.63733">
        <ele>665.2</ele>
        <time>2013-04-18T10:41:38.750Z</time>
      </trkpt>
      <trkpt lat="45.76739" lon="4.63732">
        <ele>665.6</ele>
        <time>2013-04-18T10:41:39.750Z</time>
      </trkpt>
      <trkpt lat="45.7674" lon="4.63732">
        <ele>665.9</ele>
        <time>2013-04-18T10:41:40.760Z</time>
      </trkpt>
      <trkpt lat="45.7674" lon="4.63731">
        <ele>666.3</ele>
        <time>2013-04-18T10:41:41.750Z</time>
      </trkpt>
      <trkpt lat="45.76741" lon="4.63731">
        <ele>666.6</ele>
        <time>2013-04-18T10:41:42.750Z</time>
      </trkpt>
      <trkpt lat="45.76742" lon="4.63732">
        <ele>666.8</ele>
        <time>2013-04-18T10:41:44.730Z</time>
      </trkpt>
      <trkpt lat="45.76743" lon="4.63733">
        <ele>667.1</ele>
        <time>2013-04-18T10:41:46.750Z</time>
      </trkpt>
      <trkpt lat="45.76745" lon="4.63734">
        <ele>667.6</ele>
        <time>2013-04-18T10:41:49.750Z</time>
      </trkpt>
      <trkpt lat="45.76746" lon="4.63733">
        <ele>668.1</ele>
        <time>2013-04-18T10:41:50.700Z</time>
      </trkpt>
      <trkpt lat="45.76747" lon="4.63733">
        <ele>668.4</ele>
        <time>2013-04-18T10:41:51.750Z</time>
      </trkpt>
      <trkpt lat="45.76749" lon="4.63733">
        <ele>668.8</ele>
        <time>2013-04-18T10:41:52.750Z</time>
      </trkpt>
      <trkpt lat="45.7675" lon="4.63733">
        <ele>669.2</ele>
        <time>2013-04-18T10:41:53.750Z</time>
      </trkpt>
      <trkpt lat="45.76751" lon="4.63733">
        <ele>669.5</ele>
        <time>2013-04-18T10:41:54.750Z</time>
      </trkpt>
      <trkpt lat="45.76752" lon="4.63734">
        <ele>669.7</ele>
        <time>2013-04-18T10:41:56.750Z</time>
      </trkpt>
      <trkpt lat="45.76754" lon="4.63732">
        <ele>655.5</ele>
        <time>2013-04-18T10:41:58.730Z</time>
      </trkpt>
      <trkpt lat="45.76755" lon="4.63733">
        <ele>670.6</ele>
        <time>2013-04-18T10:42:00.650Z</time>
      </trkpt>
      <trkpt lat="45.76757" lon="4.63733">
        <ele>670.9</ele>
        <time>2013-04-18T10:42:02.650Z</time>
      </trkpt>
      <trkpt lat="45.76758" lon="4.63732">
        <ele>671.3</ele>
        <time>2013-04-18T10:42:03.650Z</time>
      </trkpt>
      <trkpt lat="45.76759" lon="4.6373">
        <ele>671.7</ele>
        <time>2013-04-18T10:42:04.650Z</time>
      </trkpt>
      <trkpt lat="45.7676" lon="4.63728">
        <ele>672</ele>
        <time>2013-04-18T10:42:05.650Z</time>
      </trkpt>
      <trkpt lat="45.7676" lon="4.63726">
        <ele>672.2</ele>
        <time>2013-04-18T10:42:06.650Z</time>
      </trkpt>
      <trkpt lat="45.76761" lon="4.63725">
        <ele>672.5</ele>
        <time>2013-04-18T10:42:07.650Z</time>
      </trkpt>
      <trkpt lat="45.76762" lon="4.63723">
        <ele>673</ele>
        <time>2013-04-18T10:42:08.650Z</time>
      </trkpt>
      <trkpt lat="45.76763" lon="4.63721">
        <ele>673.4</ele>
        <time>2013-04-18T10:42:09.650Z</time>
      </trkpt>
      <trkpt lat="45.76764" lon="4.63719">
        <ele>673.8</ele>
        <time>2013-04-18T10:42:10.750Z</time>
      </trkpt>
      <trkpt lat="45.76764" lon="4.63718">
        <ele>674</ele>
        <time>2013-04-18T10:42:11.740Z</time>
      </trkpt>
      <trkpt lat="45.76765" lon="4.63716">
        <ele>674.3</ele>
        <time>2013-04-18T10:42:12.740Z</time>
      </trkpt>
      <trkpt lat="45.76766" lon="4.63715">
        <ele>674.6</ele>
        <time>2013-04-18T10:42:13.740Z</time>
      </trkpt>
      <trkpt lat="45.76767" lon="4.63711">
        <ele>675.1</ele>
        <time>2013-04-18T10:42:15.640Z</time>
      </trkpt>
      <trkpt lat="45.76768" lon="4.63711">
        <ele>675.4</ele>
        <time>2013-04-18T10:42:16.670Z</time>
      </trkpt>
      <trkpt lat="45.76769" lon="4.63709">
        <ele>675.9</ele>
        <time>2013-04-18T10:42:17.740Z</time>
      </trkpt>
      <trkpt lat="45.76771" lon="4.63707">
        <ele>676.3</ele>
        <time>2013-04-18T10:42:18.740Z</time>
      </trkpt>
      <trkpt lat="45.76771" lon="4.63704">
        <ele>676.6</ele>
        <time>2013-04-18T10:42:19.740Z</time>
      </trkpt>
      <trkpt lat="45.76771" lon="4.63702">
        <ele>676.8</ele>
        <time>2013-04-18T10:42:20.740Z</time>
      </trkpt>
      <trkpt lat="45.76771" lon="4.637">
        <ele>676.9</ele>
        <time>2013-04-18T10:42:21.740Z</time>
      </trkpt>
      <trkpt lat="45.76771" lon="4.63698">
        <ele>676.9</ele>
        <time>2013-04-18T10:42:22.720Z</time>
      </trkpt>
      <trkpt lat="45.7677" lon="4.63696">
        <ele>676.9</ele>
        <time>2013-04-18T10:42:23.740Z</time>
      </trkpt>
      <trkpt lat="45.76769" lon="4.63693">
        <ele>676.9</ele>
        <time>2013-04-18T10:42:24.740Z</time>
      </trkpt>
      <trkpt lat="45.76769" lon="4.6369">
        <ele>677</ele>
        <time>2013-04-18T10:42:25.740Z</time>
      </trkpt>
      <trkpt lat="45.7677" lon="4.63688">
        <ele>677.2</ele>
        <time>2013-04-18T10:42:26.740Z</time>
      </trkpt>
      <trkpt lat="45.7677" lon="4.63685">
        <ele>677.4</ele>
        <time>2013-04-18T10:42:27.740Z</time>
      </trkpt>
      <trkpt lat="45.76771" lon="4.63682">
        <ele>677.6</ele>
        <time>2013-04-18T10:42:28.740Z</time>
      </trkpt>
      <trkpt lat="45.76772" lon="4.6368">
        <ele>677.9</ele>
        <time>2013-04-18T10:42:29.740Z</time>
      </trkpt>
      <trkpt lat="45.76773" lon="4.63678">
        <ele>678.3</ele>
        <time>2013-04-18T10:42:30.740Z</time>
      </trkpt>
      <trkpt lat="45.76775" lon="4.63676">
        <ele>678.8</ele>
        <time>2013-04-18T10:42:31.740Z</time>
      </trkpt>
      <trkpt lat="45.76777" lon="4.63674">
        <ele>679.4</ele>
        <time>2013-04-18T10:42:32.740Z</time>
      </trkpt>
      <trkpt lat="45.76778" lon="4.63671">
        <ele>679.9</ele>
        <time>2013-04-18T10:42:33.690Z</time>
      </trkpt>
      <trkpt lat="45.76779" lon="4.63669">
        <ele>680.3</ele>
        <time>2013-04-18T10:42:34.740Z</time>
      </trkpt>
      <trkpt lat="45.7678" lon="4.63666">
        <ele>680.4</ele>
        <time>2013-04-18T10:42:36.640Z</time>
      </trkpt>
      <trkpt lat="45.7678" lon="4.63665">
        <ele>680.4</ele>
        <time>2013-04-18T10:42:37.640Z</time>
      </trkpt>
      <trkpt lat="45.7678" lon="4.63661">
        <ele>680.5</ele>
        <time>2013-04-18T10:42:38.640Z</time>
      </trkpt>
      <trkpt lat="45.76782" lon="4.63658">
        <ele>680.8</ele>
        <time>2013-04-18T10:42:39.640Z</time>
      </trkpt>
      <trkpt lat="45.76783" lon="4.63655">
        <ele>681.2</ele>
        <time>2013-04-18T10:42:40.740Z</time>
      </trkpt>
      <trkpt lat="45.76784" lon="4.63652">
        <ele>681.4</ele>
        <time>2013-04-18T10:42:41.740Z</time>
      </trkpt>
      <trkpt lat="45.76785" lon="4.63649">
        <ele>681.6</ele>
        <time>2013-04-18T10:42:42.750Z</time>
      </trkpt>
      <trkpt lat="45.76785" lon="4.63646">
        <ele>681.7</ele>
        <time>2013-04-18T10:42:43.740Z</time>
      </trkpt>
      <trkpt lat="45.76786" lon="4.63644">
        <ele>682</ele>
        <time>2013-04-18T10:42:44.740Z</time>
      </trkpt>
      <trkpt lat="45.76787" lon="4.63638">
        <ele>682.3</ele>
        <time>2013-04-18T10:42:46.640Z</time>
      </trkpt>
      <trkpt lat="45.76787" lon="4.63635">
        <ele>682.3</ele>
        <time>2013-04-18T10:42:47.640Z</time>
      </trkpt>
      <trkpt lat="45.76787" lon="4.63631">
        <ele>682.2</ele>
        <time>2013-04-18T10:42:48.640Z</time>
      </trkpt>
      <trkpt lat="45.76787" lon="4.63628">
        <ele>682.1</ele>
        <time>2013-04-18T10:42:49.640Z</time>
      </trkpt>
      <trkpt lat="45.76786" lon="4.63624">
        <ele>681.9</ele>
        <time>2013-04-18T10:42:50.690Z</time>
      </trkpt>
      <trkpt lat="45.76786" lon="4.63621">
        <ele>681.9</ele>
        <time>2013-04-18T10:42:51.740Z</time>
      </trkpt>
      <trkpt lat="45.76786" lon="4.63618">
        <ele>681.6</ele>
        <time>2013-04-18T10:42:52.730Z</time>
      </trkpt>
      <trkpt lat="45.76784" lon="4.63616">
        <ele>681.1</ele>
        <time>2013-04-18T10:42:53.730Z</time>
      </trkpt>
      <trkpt lat="45.76784" lon="4.63613">
        <ele>680.9</ele>
        <time>2013-04-18T10:42:54.730Z</time>
      </trkpt>
      <trkpt lat="45.76782" lon="4.63607">
        <ele>680.4</ele>
        <time>2013-04-18T10:42:56.630Z</time>
      </trkpt>
      <trkpt lat="45.76781" lon="4.63604">
        <ele>680.1</ele>
        <time>2013-04-18T10:42:57.630Z</time>
      </trkpt>
      <trkpt lat="45.7678" lon="4.63601">
        <ele>674.6</ele>
        <time>2013-04-18T10:42:58.630Z</time>
      </trkpt>
      <trkpt lat="45.76779" lon="4.63596">
        <ele>679.5</ele>
        <time>2013-04-18T10:42:59.690Z</time>
      </trkpt>
      <trkpt lat="45.76778" lon="4.63589">
        <ele>679.1</ele>
        <time>2013-04-18T10:43:01.630Z</time>
      </trkpt>
      <trkpt lat="45.76778" lon="4.63585">
        <ele>679</ele>
        <time>2013-04-18T10:43:02.630Z</time>
      </trkpt>
      <trkpt lat="45.76778" lon="4.63581">
        <ele>678.9</ele>
        <time>2013-04-18T10:43:03.630Z</time>
      </trkpt>
      <trkpt lat="45.76778" lon="4.63576">
        <ele>678.9</ele>
        <time>2013-04-18T10:43:04.630Z</time>
      </trkpt>
      <trkpt lat="45.76777" lon="4.63572">
        <ele>678.6</ele>
        <time>2013-04-18T10:43:05.730Z</time>
      </trkpt>
      <trkpt lat="45.76777" lon="4.63567">
        <ele>678.5</ele>
        <time>2013-04-18T10:43:06.730Z</time>
      </trkpt>
      <trkpt lat="45.76776" lon="4.63563">
        <ele>678.4</ele>
        <time>2013-04-18T10:43:07.730Z</time>
      </trkpt>
      <trkpt lat="45.76776" lon="4.63559">
        <ele>678.2</ele>
        <time>2013-04-18T10:43:08.730Z</time>
      </trkpt>
      <trkpt lat="45.76776" lon="4.63556">
        <ele>678.1</ele>
        <time>2013-04-18T10:43:09.730Z</time>
      </trkpt>
      <trkpt lat="45.76775" lon="4.63549">
        <ele>678.4</ele>
        <time>2013-04-18T10:43:11.630Z</time>
      </trkpt>
      <trkpt lat="45.76775" lon="4.63546">
        <ele>678.6</ele>
        <time>2013-04-18T10:43:12.630Z</time>
      </trkpt>
      <trkpt lat="45.76775" lon="4.63542">
        <ele>678.9</ele>
        <time>2013-04-18T10:43:13.610Z</time>
      </trkpt>
      <trkpt lat="45.76776" lon="4.63538">
        <ele>679.6</ele>
        <time>2013-04-18T10:43:14.730Z</time>
      </trkpt>
      <trkpt lat="45.76778" lon="4.63535">
        <ele>680.4</ele>
        <time>2013-04-18T10:43:15.730Z</time>
      </trkpt>
      <trkpt lat="45.76779" lon="4.63534">
        <ele>681</ele>
        <time>2013-04-18T10:43:16.680Z</time>
      </trkpt>
      <trkpt lat="45.7678" lon="4.63532">
        <ele>681.5</ele>
        <time>2013-04-18T10:43:17.730Z</time>
      </trkpt>
      <trkpt lat="45.76782" lon="4.63531">
        <ele>682.3</ele>
        <time>2013-04-18T10:43:18.730Z</time>
      </trkpt>
      <trkpt lat="45.76785" lon="4.63528">
        <ele>684</ele>
        <time>2013-04-18T10:43:20.630Z</time>
      </trkpt>
      <trkpt lat="45.76787" lon="4.63526">
        <ele>684.7</ele>
        <time>2013-04-18T10:43:21.640Z</time>
      </trkpt>
      <trkpt lat="45.76788" lon="4.63525">
        <ele>685.3</ele>
        <time>2013-04-18T10:43:22.630Z</time>
      </trkpt>
      <trkpt lat="45.76789" lon="4.63524">
        <ele>686</ele>
        <time>2013-04-18T10:43:24.630Z</time>
      </trkpt>
      <trkpt lat="45.7679" lon="4.63522">
        <ele>686.4</ele>
        <time>2013-04-18T10:43:25.730Z</time>
      </trkpt>
      <trkpt lat="45.76791" lon="4.6352">
        <ele>687.1</ele>
        <time>2013-04-18T10:43:26.710Z</time>
      </trkpt>
      <trkpt lat="45.76792" lon="4.63518">
        <ele>687.6</ele>
        <time>2013-04-18T10:43:27.730Z</time>
      </trkpt>
      <trkpt lat="45.76792" lon="4.63516">
        <ele>688</ele>
        <time>2013-04-18T10:43:28.730Z</time>
      </trkpt>
      <trkpt lat="45.76793" lon="4.6351">
        <ele>689</ele>
        <time>2013-04-18T10:43:30.630Z</time>
      </trkpt>
      <trkpt lat="45.76793" lon="4.63509">
        <ele>689.2</ele>
        <time>2013-04-18T10:43:31.630Z</time>
      </trkpt>
      <trkpt lat="45.76794" lon="4.63507">
        <ele>689.7</ele>
        <time>2013-04-18T10:43:33.580Z</time>
      </trkpt>
      <trkpt lat="45.76794" lon="4.63505">
        <ele>689.8</ele>
        <time>2013-04-18T10:43:34.620Z</time>
      </trkpt>
      <trkpt lat="45.76794" lon="4.63504">
        <ele>690</ele>
        <time>2013-04-18T10:43:35.720Z</time>
      </trkpt>
      <trkpt lat="45.76794" lon="4.63502">
        <ele>690</ele>
        <time>2013-04-18T10:43:36.720Z</time>
      </trkpt>
      <trkpt lat="45.76793" lon="4.635">
        <ele>690</ele>
        <time>2013-04-18T10:43:37.720Z</time>
      </trkpt>
      <trkpt lat="45.76793" lon="4.63497">
        <ele>690.1</ele>
        <time>2013-04-18T10:43:38.720Z</time>
      </trkpt>
      <trkpt lat="45.76793" lon="4.63495">
        <ele>690.3</ele>
        <time>2013-04-18T10:43:39.720Z</time>
      </trkpt>
      <trkpt lat="45.76792" lon="4.63491">
        <ele>690.5</ele>
        <time>2013-04-18T10:43:41.620Z</time>
      </trkpt>
      <trkpt lat="45.76792" lon="4.63489">
        <ele>690.4</ele>
        <time>2013-04-18T10:43:42.620Z</time>
      </trkpt>
      <trkpt lat="45.76791" lon="4.63488">
        <ele>690.2</ele>
        <time>2013-04-18T10:43:43.620Z</time>
      </trkpt>
      <trkpt lat="45.7679" lon="4.63487">
        <ele>690</ele>
        <time>2013-04-18T10:43:44.620Z</time>
      </trkpt>
      <trkpt lat="45.76789" lon="4.63485">
        <ele>690</ele>
        <time>2013-04-18T10:43:45.720Z</time>
      </trkpt>
      <trkpt lat="45.76789" lon="4.63483">
        <ele>690.1</ele>
        <time>2013-04-18T10:43:46.720Z</time>
      </trkpt>
      <trkpt lat="45.76789" lon="4.63481">
        <ele>690.1</ele>
        <time>2013-04-18T10:43:47.720Z</time>
      </trkpt>
      <trkpt lat="45.76788" lon="4.63478">
        <ele>690</ele>
        <time>2013-04-18T10:43:48.720Z</time>
      </trkpt>
      <trkpt lat="45.76787" lon="4.63475">
        <ele>690.1</ele>
        <time>2013-04-18T10:43:49.720Z</time>
      </trkpt>
      <trkpt lat="45.76786" lon="4.63473">
        <ele>689.9</ele>
        <time>2013-04-18T10:43:50.670Z</time>
      </trkpt>
      <trkpt lat="45.76785" lon="4.6347">
        <ele>689.7</ele>
        <time>2013-04-18T10:43:51.720Z</time>
      </trkpt>
      <trkpt lat="45.76784" lon="4.63467">
        <ele>689.5</ele>
        <time>2013-04-18T10:43:52.720Z</time>
      </trkpt>
      <trkpt lat="45.76782" lon="4.63464">
        <ele>689.1</ele>
        <time>2013-04-18T10:43:53.700Z</time>
      </trkpt>
      <trkpt lat="45.7678" lon="4.63457">
        <ele>688.8</ele>
        <time>2013-04-18T10:43:55.620Z</time>
      </trkpt>
      <trkpt lat="45.76779" lon="4.63455">
        <ele>688.6</ele>
        <time>2013-04-18T10:43:56.620Z</time>
      </trkpt>
      <trkpt lat="45.76777" lon="4.63453">
        <ele>688</ele>
        <time>2013-04-18T10:43:57.620Z</time>
      </trkpt>
      <trkpt lat="45.76775" lon="4.63451">
        <ele>685.6</ele>
        <time>2013-04-18T10:43:58.620Z</time>
      </trkpt>
      <trkpt lat="45.76773" lon="4.63448">
        <ele>686.9</ele>
        <time>2013-04-18T10:43:59.670Z</time>
      </trkpt>
      <trkpt lat="45.7677" lon="4.63443">
        <ele>686.1</ele>
        <time>2013-04-18T10:44:01.620Z</time>
      </trkpt>
      <trkpt lat="45.7677" lon="4.6344">
        <ele>686.2</ele>
        <time>2013-04-18T10:44:02.620Z</time>
      </trkpt>
      <trkpt lat="45.76769" lon="4.63437">
        <ele>686.1</ele>
        <time>2013-04-18T10:44:03.620Z</time>
      </trkpt>
      <trkpt lat="45.76768" lon="4.63433">
        <ele>686.4</ele>
        <time>2013-04-18T10:44:04.600Z</time>
      </trkpt>
      <trkpt lat="45.76768" lon="4.6343">
        <ele>686.7</ele>
        <time>2013-04-18T10:44:05.720Z</time>
      </trkpt>
      <trkpt lat="45.76768" lon="4.63426">
        <ele>687</ele>
        <time>2013-04-18T10:44:06.720Z</time>
      </trkpt>
      <trkpt lat="45.76768" lon="4.63423">
        <ele>687.2</ele>
        <time>2013-04-18T10:44:07.720Z</time>
      </trkpt>
      <trkpt lat="45.76767" lon="4.6342">
        <ele>687.3</ele>
        <time>2013-04-18T10:44:08.720Z</time>
      </trkpt>
      <trkpt lat="45.76766" lon="4.63418">
        <ele>687.3</ele>
        <time>2013-04-18T10:44:09.720Z</time>
      </trkpt>
      <trkpt lat="45.76764" lon="4.63412">
        <ele>687.3</ele>
        <time>2013-04-18T10:44:11.620Z</time>
      </trkpt>
      <trkpt lat="45.76763" lon="4.63409">
        <ele>687.3</ele>
        <time>2013-04-18T10:44:12.620Z</time>
      </trkpt>
      <trkpt lat="45.76761" lon="4.63405">
        <ele>687.4</ele>
        <time>2013-04-18T10:44:13.610Z</time>
      </trkpt>
      <trkpt lat="45.76759" lon="4.63401">
        <ele>687.4</ele>
        <time>2013-04-18T10:44:14.610Z</time>
      </trkpt>
      <trkpt lat="45.76757" lon="4.63399">
        <ele>687.1</ele>
        <time>2013-04-18T10:44:15.710Z</time>
      </trkpt>
      <trkpt lat="45.76755" lon="4.63394">
        <ele>687.1</ele>
        <time>2013-04-18T10:44:17.610Z</time>
      </trkpt>
      <trkpt lat="45.76754" lon="4.63391">
        <ele>687.1</ele>
        <time>2013-04-18T10:44:18.610Z</time>
      </trkpt>
      <trkpt lat="45.76752" lon="4.63388">
        <ele>686.8</ele>
        <time>2013-04-18T10:44:19.710Z</time>
      </trkpt>
      <trkpt lat="45.7675" lon="4.63386">
        <ele>686.4</ele>
        <time>2013-04-18T10:44:20.710Z</time>
      </trkpt>
      <trkpt lat="45.76748" lon="4.63385">
        <ele>686.3</ele>
        <time>2013-04-18T10:44:21.710Z</time>
      </trkpt>
      <trkpt lat="45.76747" lon="4.63383">
        <ele>686.3</ele>
        <time>2013-04-18T10:44:22.710Z</time>
      </trkpt>
      <trkpt lat="45.76746" lon="4.63381">
        <ele>686.4</ele>
        <time>2013-04-18T10:44:23.710Z</time>
      </trkpt>
      <trkpt lat="45.76744" lon="4.63376">
        <ele>687.1</ele>
        <time>2013-04-18T10:44:25.610Z</time>
      </trkpt>
      <trkpt lat="45.76744" lon="4.63374">
        <ele>687.2</ele>
        <time>2013-04-18T10:44:26.610Z</time>
      </trkpt>
      <trkpt lat="45.76743" lon="4.63373">
        <ele>687.2</ele>
        <time>2013-04-18T10:44:27.610Z</time>
      </trkpt>
      <trkpt lat="45.76741" lon="4.63372">
        <ele>687.1</ele>
        <time>2013-04-18T10:44:28.610Z</time>
      </trkpt>
      <trkpt lat="45.76739" lon="4.6337">
        <ele>686.9</ele>
        <time>2013-04-18T10:44:29.610Z</time>
      </trkpt>
      <trkpt lat="45.76737" lon="4.63369">
        <ele>686.6</ele>
        <time>2013-04-18T10:44:30.710Z</time>
      </trkpt>
      <trkpt lat="45.76735" lon="4.63367">
        <ele>686.2</ele>
        <time>2013-04-18T10:44:31.720Z</time>
      </trkpt>
      <trkpt lat="45.76733" lon="4.63366">
        <ele>686</ele>
        <time>2013-04-18T10:44:32.710Z</time>
      </trkpt>
      <trkpt lat="45.7673" lon="4.63361">
        <ele>686.3</ele>
        <time>2013-04-18T10:44:34.610Z</time>
      </trkpt>
      <trkpt lat="45.76728" lon="4.63359">
        <ele>686.4</ele>
        <time>2013-04-18T10:44:35.610Z</time>
      </trkpt>
      <trkpt lat="45.76727" lon="4.63356">
        <ele>686.7</ele>
        <time>2013-04-18T10:44:36.610Z</time>
      </trkpt>
      <trkpt lat="45.76725" lon="4.63353">
        <ele>687.3</ele>
        <time>2013-04-18T10:44:37.610Z</time>
      </trkpt>
      <trkpt lat="45.76725" lon="4.6335">
        <ele>688</ele>
        <time>2013-04-18T10:44:38.610Z</time>
      </trkpt>
      <trkpt lat="45.76724" lon="4.63347">
        <ele>688.8</ele>
        <time>2013-04-18T10:44:39.610Z</time>
      </trkpt>
      <trkpt lat="45.76724" lon="4.63343">
        <ele>689.6</ele>
        <time>2013-04-18T10:44:40.610Z</time>
      </trkpt>
      <trkpt lat="45.76722" lon="4.63339">
        <ele>690.3</ele>
        <time>2013-04-18T10:44:41.610Z</time>
      </trkpt>
      <trkpt lat="45.76721" lon="4.63336">
        <ele>690.9</ele>
        <time>2013-04-18T10:44:42.610Z</time>
      </trkpt>
      <trkpt lat="45.7672" lon="4.63333">
        <ele>691.6</ele>
        <time>2013-04-18T10:44:43.610Z</time>
      </trkpt>
      <trkpt lat="45.7672" lon="4.63328">
        <ele>692.6</ele>
        <time>2013-04-18T10:44:45.610Z</time>
      </trkpt>
      <trkpt lat="45.76719" lon="4.63325">
        <ele>692.8</ele>
        <time>2013-04-18T10:44:46.610Z</time>
      </trkpt>
      <trkpt lat="45.76718" lon="4.63323">
        <ele>693.1</ele>
        <time>2013-04-18T10:44:47.610Z</time>
      </trkpt>
      <trkpt lat="45.76718" lon="4.63321">
        <ele>693.6</ele>
        <time>2013-04-18T10:44:48.610Z</time>
      </trkpt>
      <trkpt lat="45.76717" lon="4.63319">
        <ele>693.9</ele>
        <time>2013-04-18T10:44:49.610Z</time>
      </trkpt>
      <trkpt lat="45.76717" lon="4.63317">
        <ele>694.3</ele>
        <time>2013-04-18T10:44:50.660Z</time>
      </trkpt>
      <trkpt lat="45.76717" lon="4.63315">
        <ele>694.7</ele>
        <time>2013-04-18T10:44:51.710Z</time>
      </trkpt>
      <trkpt lat="45.76716" lon="4.63312">
        <ele>695.1</ele>
        <time>2013-04-18T10:44:52.710Z</time>
      </trkpt>
      <trkpt lat="45.76715" lon="4.63309">
        <ele>695.3</ele>
        <time>2013-04-18T10:44:53.710Z</time>
      </trkpt>
      <trkpt lat="45.76714" lon="4.63307">
        <ele>695.6</ele>
        <time>2013-04-18T10:44:54.700Z</time>
      </trkpt>
      <trkpt lat="45.76714" lon="4.63304">
        <ele>696.2</ele>
        <time>2013-04-18T10:44:55.710Z</time>
      </trkpt>
      <trkpt lat="45.76713" lon="4.63301">
        <ele>696.6</ele>
        <time>2013-04-18T10:44:56.700Z</time>
      </trkpt>
      <trkpt lat="45.76714" lon="4.63297">
        <ele>693.3</ele>
        <time>2013-04-18T10:44:58.700Z</time>
      </trkpt>
      <trkpt lat="45.76714" lon="4.63292">
        <ele>698.3</ele>
        <time>2013-04-18T10:45:00.600Z</time>
      </trkpt>
      <trkpt lat="45.76714" lon="4.6329">
        <ele>698.7</ele>
        <time>2013-04-18T10:45:01.600Z</time>
      </trkpt>
      <trkpt lat="45.76714" lon="4.63288">
        <ele>699.1</ele>
        <time>2013-04-18T10:45:02.600Z</time>
      </trkpt>
      <trkpt lat="45.76714" lon="4.63286">
        <ele>699.5</ele>
        <time>2013-04-18T10:45:03.600Z</time>
      </trkpt>
      <trkpt lat="45.76714" lon="4.63284">
        <ele>699.7</ele>
        <time>2013-04-18T10:45:04.600Z</time>
      </trkpt>
      <trkpt lat="45.76713" lon="4.63283">
        <ele>699.7</ele>
        <time>2013-04-18T10:45:05.600Z</time>
      </trkpt>
      <trkpt lat="45.76713" lon="4.63282">
        <ele>700</ele>
        <time>2013-04-18T10:45:06.600Z</time>
      </trkpt>
      <trkpt lat="45.76713" lon="4.6328">
        <ele>700.4</ele>
        <time>2013-04-18T10:45:07.600Z</time>
      </trkpt>
      <trkpt lat="45.76713" lon="4.63278">
        <ele>700.8</ele>
        <time>2013-04-18T10:45:08.580Z</time>
      </trkpt>
      <trkpt lat="45.76713" lon="4.63275">
        <ele>701.3</ele>
        <time>2013-04-18T10:45:09.600Z</time>
      </trkpt>
      <trkpt lat="45.76715" lon="4.63272">
        <ele>702.4</ele>
        <time>2013-04-18T10:45:10.610Z</time>
      </trkpt>
      <trkpt lat="45.76716" lon="4.63269">
        <ele>703.2</ele>
        <time>2013-04-18T10:45:11.600Z</time>
      </trkpt>
      <trkpt lat="45.76715" lon="4.63267">
        <ele>703.5</ele>
        <time>2013-04-18T10:45:12.600Z</time>
      </trkpt>
      <trkpt lat="45.76714" lon="4.63264">
        <ele>703.7</ele>
        <time>2013-04-18T10:45:13.600Z</time>
      </trkpt>
      <trkpt lat="45.76714" lon="4.63261">
        <ele>704.1</ele>
        <time>2013-04-18T10:45:14.600Z</time>
      </trkpt>
      <trkpt lat="45.76713" lon="4.63258">
        <ele>704.6</ele>
        <time>2013-04-18T10:45:15.600Z</time>
      </trkpt>
      <trkpt lat="45.76713" lon="4.63256">
        <ele>705</ele>
        <time>2013-04-18T10:45:16.650Z</time>
      </trkpt>
      <trkpt lat="45.76713" lon="4.63254">
        <ele>705.3</ele>
        <time>2013-04-18T10:45:17.700Z</time>
      </trkpt>
      <trkpt lat="45.76713" lon="4.63252">
        <ele>705.5</ele>
        <time>2013-04-18T10:45:18.700Z</time>
      </trkpt>
      <trkpt lat="45.76712" lon="4.6325">
        <ele>705.7</ele>
        <time>2013-04-18T10:45:19.700Z</time>
      </trkpt>
      <trkpt lat="45.76711" lon="4.63248">
        <ele>705.7</ele>
        <time>2013-04-18T10:45:20.700Z</time>
      </trkpt>
      <trkpt lat="45.7671" lon="4.63247">
        <ele>705.7</ele>
        <time>2013-04-18T10:45:21.680Z</time>
      </trkpt>
      <trkpt lat="45.7671" lon="4.63245">
        <ele>705.9</ele>
        <time>2013-04-18T10:45:22.700Z</time>
      </trkpt>
      <trkpt lat="45.7671" lon="4.63243">
        <ele>706.3</ele>
        <time>2013-04-18T10:45:23.700Z</time>
      </trkpt>
      <trkpt lat="45.7671" lon="4.63241">
        <ele>706.6</ele>
        <time>2013-04-18T10:45:24.700Z</time>
      </trkpt>
      <trkpt lat="45.76709" lon="4.63239">
        <ele>706.5</ele>
        <time>2013-04-18T10:45:26.700Z</time>
      </trkpt>
      <trkpt lat="45.76708" lon="4.63238">
        <ele>706.8</ele>
        <time>2013-04-18T10:45:27.700Z</time>
      </trkpt>
      <trkpt lat="45.76708" lon="4.63235">
        <ele>707.2</ele>
        <time>2013-04-18T10:45:28.700Z</time>
      </trkpt>
      <trkpt lat="45.76708" lon="4.63232">
        <ele>707.6</ele>
        <time>2013-04-18T10:45:29.700Z</time>
      </trkpt>
      <trkpt lat="45.76708" lon="4.63231">
        <ele>707.9</ele>
        <time>2013-04-18T10:45:30.700Z</time>
      </trkpt>
      <trkpt lat="45.76708" lon="4.63229">
        <ele>708.2</ele>
        <time>2013-04-18T10:45:31.700Z</time>
      </trkpt>
      <trkpt lat="45.76708" lon="4.63228">
        <ele>708.3</ele>
        <time>2013-04-18T10:45:32.700Z</time>
      </trkpt>
      <trkpt lat="45.76707" lon="4.63224">
        <ele>708.8</ele>
        <time>2013-04-18T10:45:34.680Z</time>
      </trkpt>
      <trkpt lat="45.76707" lon="4.63222">
        <ele>708.9</ele>
        <time>2013-04-18T10:45:35.690Z</time>
      </trkpt>
      <trkpt lat="45.76706" lon="4.6322">
        <ele>709.1</ele>
        <time>2013-04-18T10:45:36.690Z</time>
      </trkpt>
      <trkpt lat="45.76705" lon="4.63219">
        <ele>709.1</ele>
        <time>2013-04-18T10:45:37.690Z</time>
      </trkpt>
      <trkpt lat="45.76704" lon="4.63217">
        <ele>709.1</ele>
        <time>2013-04-18T10:45:38.690Z</time>
      </trkpt>
      <trkpt lat="45.76703" lon="4.63215">
        <ele>708.9</ele>
        <time>2013-04-18T10:45:39.690Z</time>
      </trkpt>
      <trkpt lat="45.76701" lon="4.63213">
        <ele>708.9</ele>
        <time>2013-04-18T10:45:40.690Z</time>
      </trkpt>
      <trkpt lat="45.767" lon="4.63211">
        <ele>708.9</ele>
        <time>2013-04-18T10:45:41.690Z</time>
      </trkpt>
      <trkpt lat="45.767" lon="4.63208">
        <ele>709.2</ele>
        <time>2013-04-18T10:45:42.690Z</time>
      </trkpt>
      <trkpt lat="45.767" lon="4.63205">
        <ele>709.8</ele>
        <time>2013-04-18T10:45:43.690Z</time>
      </trkpt>
      <trkpt lat="45.767" lon="4.63203">
        <ele>710.2</ele>
        <time>2013-04-18T10:45:44.690Z</time>
      </trkpt>
      <trkpt lat="45.76699" lon="4.63201">
        <ele>710.4</ele>
        <time>2013-04-18T10:45:45.690Z</time>
      </trkpt>
      <trkpt lat="45.76699" lon="4.63199">
        <ele>710.6</ele>
        <time>2013-04-18T10:45:46.690Z</time>
      </trkpt>
      <trkpt lat="45.76697" lon="4.63193">
        <ele>711.2</ele>
        <time>2013-04-18T10:45:48.590Z</time>
      </trkpt>
      <trkpt lat="45.76696" lon="4.63192">
        <ele>711.2</ele>
        <time>2013-04-18T10:45:49.590Z</time>
      </trkpt>
      <trkpt lat="45.76696" lon="4.6319">
        <ele>711.2</ele>
        <time>2013-04-18T10:45:50.640Z</time>
      </trkpt>
      <trkpt lat="45.76695" lon="4.63188">
        <ele>711.3</ele>
        <time>2013-04-18T10:45:51.690Z</time>
      </trkpt>
      <trkpt lat="45.76695" lon="4.63186">
        <ele>711.7</ele>
        <time>2013-04-18T10:45:53.690Z</time>
      </trkpt>
      <trkpt lat="45.76694" lon="4.63182">
        <ele>712.2</ele>
        <time>2013-04-18T10:45:55.690Z</time>
      </trkpt>
      <trkpt lat="45.76694" lon="4.63178">
        <ele>712.7</ele>
        <time>2013-04-18T10:45:56.690Z</time>
      </trkpt>
      <trkpt lat="45.76694" lon="4.63176">
        <ele>713.3</ele>
        <time>2013-04-18T10:45:57.690Z</time>
      </trkpt>
      <trkpt lat="45.76694" lon="4.63172">
        <ele>708.7</ele>
        <time>2013-04-18T10:45:58.690Z</time>
      </trkpt>
      <trkpt lat="45.76692" lon="4.63169">
        <ele>713.7</ele>
        <time>2013-04-18T10:45:59.560Z</time>
      </trkpt>
      <trkpt lat="45.76691" lon="4.63166">
        <ele>713.8</ele>
        <time>2013-04-18T10:46:00.690Z</time>
      </trkpt>
      <trkpt lat="45.7669" lon="4.63163">
        <ele>714.1</ele>
        <time>2013-04-18T10:46:01.690Z</time>
      </trkpt>
      <trkpt lat="45.76689" lon="4.6316">
        <ele>714.3</ele>
        <time>2013-04-18T10:46:02.690Z</time>
      </trkpt>
      <trkpt lat="45.76688" lon="4.63158">
        <ele>714.5</ele>
        <time>2013-04-18T10:46:03.690Z</time>
      </trkpt>
      <trkpt lat="45.76687" lon="4.63155">
        <ele>714.6</ele>
        <time>2013-04-18T10:46:04.690Z</time>
      </trkpt>
      <trkpt lat="45.76687" lon="4.63151">
        <ele>715.2</ele>
        <time>2013-04-18T10:46:05.700Z</time>
      </trkpt>
      <trkpt lat="45.76687" lon="4.63148">
        <ele>715.9</ele>
        <time>2013-04-18T10:46:06.690Z</time>
      </trkpt>
      <trkpt lat="45.76687" lon="4.63146">
        <ele>716.5</ele>
        <time>2013-04-18T10:46:07.690Z</time>
      </trkpt>
      <trkpt lat="45.76688" lon="4.63143">
        <ele>717.2</ele>
        <time>2013-04-18T10:46:08.690Z</time>
      </trkpt>
      <trkpt lat="45.76688" lon="4.63141">
        <ele>717.8</ele>
        <time>2013-04-18T10:46:09.690Z</time>
      </trkpt>
      <trkpt lat="45.76688" lon="4.63139">
        <ele>718.2</ele>
        <time>2013-04-18T10:46:10.690Z</time>
      </trkpt>
      <trkpt lat="45.76688" lon="4.63137">
        <ele>718.5</ele>
        <time>2013-04-18T10:46:11.690Z</time>
      </trkpt>
      <trkpt lat="45.76688" lon="4.63135">
        <ele>718.8</ele>
        <time>2013-04-18T10:46:12.690Z</time>
      </trkpt>
      <trkpt lat="45.76689" lon="4.63133">
        <ele>719.3</ele>
        <time>2013-04-18T10:46:13.680Z</time>
      </trkpt>
      <trkpt lat="45.76689" lon="4.63131">
        <ele>719.7</ele>
        <time>2013-04-18T10:46:14.690Z</time>
      </trkpt>
      <trkpt lat="45.76688" lon="4.63128">
        <ele>719.9</ele>
        <time>2013-04-18T10:46:15.690Z</time>
      </trkpt>
      <trkpt lat="45.76688" lon="4.63126">
        <ele>720.3</ele>
        <time>2013-04-18T10:46:17.680Z</time>
      </trkpt>
      <trkpt lat="45.76689" lon="4.63124">
        <ele>720.7</ele>
        <time>2013-04-18T10:46:18.680Z</time>
      </trkpt>
      <trkpt lat="45.76689" lon="4.63123">
        <ele>721.1</ele>
        <time>2013-04-18T10:46:19.680Z</time>
      </trkpt>
      <trkpt lat="45.7669" lon="4.63122">
        <ele>721.4</ele>
        <time>2013-04-18T10:46:20.680Z</time>
      </trkpt>
      <trkpt lat="45.76691" lon="4.63121">
        <ele>721.9</ele>
        <time>2013-04-18T10:46:21.680Z</time>
      </trkpt>
      <trkpt lat="45.76693" lon="4.63119">
        <ele>722.5</ele>
        <time>2013-04-18T10:46:22.680Z</time>
      </trkpt>
      <trkpt lat="45.76694" lon="4.63116">
        <ele>723.1</ele>
        <time>2013-04-18T10:46:23.680Z</time>
      </trkpt>
      <trkpt lat="45.76695" lon="4.63115">
        <ele>723.5</ele>
        <time>2013-04-18T10:46:24.680Z</time>
      </trkpt>
      <trkpt lat="45.76696" lon="4.63112">
        <ele>724.3</ele>
        <time>2013-04-18T10:46:26.680Z</time>
      </trkpt>
      <trkpt lat="45.76696" lon="4.6311">
        <ele>724.5</ele>
        <time>2013-04-18T10:46:27.680Z</time>
      </trkpt>
      <trkpt lat="45.76697" lon="4.63109">
        <ele>724.7</ele>
        <time>2013-04-18T10:46:28.680Z</time>
      </trkpt>
      <trkpt lat="45.76697" lon="4.63108">
        <ele>724.9</ele>
        <time>2013-04-18T10:46:29.680Z</time>
      </trkpt>
      <trkpt lat="45.76698" lon="4.63106">
        <ele>725.2</ele>
        <time>2013-04-18T10:46:30.680Z</time>
      </trkpt>
      <trkpt lat="45.76698" lon="4.63104">
        <ele>725.4</ele>
        <time>2013-04-18T10:46:31.680Z</time>
      </trkpt>
      <trkpt lat="45.76698" lon="4.63103">
        <ele>725.7</ele>
        <time>2013-04-18T10:46:32.680Z</time>
      </trkpt>
      <trkpt lat="45.76699" lon="4.63101">
        <ele>726</ele>
        <time>2013-04-18T10:46:33.630Z</time>
      </trkpt>
      <trkpt lat="45.767" lon="4.631">
        <ele>726.4</ele>
        <time>2013-04-18T10:46:34.680Z</time>
      </trkpt>
      <trkpt lat="45.76701" lon="4.63099">
        <ele>726.7</ele>
        <time>2013-04-18T10:46:35.680Z</time>
      </trkpt>
      <trkpt lat="45.76703" lon="4.63097">
        <ele>727.1</ele>
        <time>2013-04-18T10:46:36.680Z</time>
      </trkpt>
      <trkpt lat="45.76704" lon="4.63096">
        <ele>727.6</ele>
        <time>2013-04-18T10:46:37.690Z</time>
      </trkpt>
      <trkpt lat="45.76706" lon="4.63095">
        <ele>728</ele>
        <time>2013-04-18T10:46:38.680Z</time>
      </trkpt>
      <trkpt lat="45.76708" lon="4.63095">
        <ele>728.4</ele>
        <time>2013-04-18T10:46:39.680Z</time>
      </trkpt>
      <trkpt lat="45.7671" lon="4.63094">
        <ele>728.7</ele>
        <time>2013-04-18T10:46:40.680Z</time>
      </trkpt>
      <trkpt lat="45.76711" lon="4.63094">
        <ele>729.1</ele>
        <time>2013-04-18T10:46:41.680Z</time>
      </trkpt>
      <trkpt lat="45.76713" lon="4.63093">
        <ele>729.5</ele>
        <time>2013-04-18T10:46:42.680Z</time>
      </trkpt>
      <trkpt lat="45.76715" lon="4.63092">
        <ele>729.9</ele>
        <time>2013-04-18T10:46:43.680Z</time>
      </trkpt>
      <trkpt lat="45.76717" lon="4.63092">
        <ele>730.3</ele>
        <time>2013-04-18T10:46:44.680Z</time>
      </trkpt>
      <trkpt lat="45.76718" lon="4.63092">
        <ele>730.5</ele>
        <time>2013-04-18T10:46:45.680Z</time>
      </trkpt>
      <trkpt lat="45.76718" lon="4.6309">
        <ele>730.7</ele>
        <time>2013-04-18T10:46:46.680Z</time>
      </trkpt>
      <trkpt lat="45.76719" lon="4.63089">
        <ele>731</ele>
        <time>2013-04-18T10:46:47.680Z</time>
      </trkpt>
      <trkpt lat="45.76721" lon="4.63089">
        <ele>731.4</ele>
        <time>2013-04-18T10:46:48.680Z</time>
      </trkpt>
      <trkpt lat="45.76723" lon="4.63089">
        <ele>731.7</ele>
        <time>2013-04-18T10:46:49.780Z</time>
      </trkpt>
      <trkpt lat="45.76727" lon="4.63093">
        <ele>731.9</ele>
        <time>2013-04-18T10:46:51.560Z</time>
      </trkpt>
      <trkpt lat="45.76729" lon="4.63095">
        <ele>732</ele>
        <time>2013-04-18T10:46:52.580Z</time>
      </trkpt>
      <trkpt lat="45.76731" lon="4.63098">
        <ele>732.1</ele>
        <time>2013-04-18T10:46:53.580Z</time>
      </trkpt>
      <trkpt lat="45.76733" lon="4.631">
        <ele>732.2</ele>
        <time>2013-04-18T10:46:54.680Z</time>
      </trkpt>
      <trkpt lat="45.76735" lon="4.63103">
        <ele>732.3</ele>
        <time>2013-04-18T10:46:55.680Z</time>
      </trkpt>
      <trkpt lat="45.76737" lon="4.63106">
        <ele>732.4</ele>
        <time>2013-04-18T10:46:56.680Z</time>
      </trkpt>
      <trkpt lat="45.76739" lon="4.63108">
        <ele>732.6</ele>
        <time>2013-04-18T10:46:57.670Z</time>
      </trkpt>
      <trkpt lat="45.76742" lon="4.63111">
        <ele>724.6</ele>
        <time>2013-04-18T10:46:58.670Z</time>
      </trkpt>
      <trkpt lat="45.76745" lon="4.63114">
        <ele>733.1</ele>
        <time>2013-04-18T10:46:59.630Z</time>
      </trkpt>
      <trkpt lat="45.76747" lon="4.63116">
        <ele>733.2</ele>
        <time>2013-04-18T10:47:00.670Z</time>
      </trkpt>
      <trkpt lat="45.7675" lon="4.63118">
        <ele>733.5</ele>
        <time>2013-04-18T10:47:01.670Z</time>
      </trkpt>
      <trkpt lat="45.76752" lon="4.63121">
        <ele>733.4</ele>
        <time>2013-04-18T10:47:02.670Z</time>
      </trkpt>
      <trkpt lat="45.76754" lon="4.63123">
        <ele>733.4</ele>
        <time>2013-04-18T10:47:03.670Z</time>
      </trkpt>
      <trkpt lat="45.76756" lon="4.63125">
        <ele>733.3</ele>
        <time>2013-04-18T10:47:04.770Z</time>
      </trkpt>
      <trkpt lat="45.76762" lon="4.63131">
        <ele>733.3</ele>
        <time>2013-04-18T10:47:06.570Z</time>
      </trkpt>
      <trkpt lat="45.76765" lon="4.63133">
        <ele>733.4</ele>
        <time>2013-04-18T10:47:07.570Z</time>
      </trkpt>
      <trkpt lat="45.76767" lon="4.63135">
        <ele>733.4</ele>
        <time>2013-04-18T10:47:08.770Z</time>
      </trkpt>
      <trkpt lat="45.76771" lon="4.6314">
        <ele>733.5</ele>
        <time>2013-04-18T10:47:10.570Z</time>
      </trkpt>
      <trkpt lat="45.76773" lon="4.63142">
        <ele>733.4</ele>
        <time>2013-04-18T10:47:11.570Z</time>
      </trkpt>
      <trkpt lat="45.76774" lon="4.63142">
        <ele>733.4</ele>
        <time>2013-04-18T10:47:12.570Z</time>
      </trkpt>
      <trkpt lat="45.76774" lon="4.63144">
        <ele>733.3</ele>
        <time>2013-04-18T10:47:15.650Z</time>
      </trkpt>
      <trkpt lat="45.76773" lon="4.63144">
        <ele>733.3</ele>
        <time>2013-04-18T10:47:22.770Z</time>
      </trkpt>
      <trkpt lat="45.76774" lon="4.63144">
        <ele>733.3</ele>
        <time>2013-04-18T10:47:24.770Z</time>
      </trkpt>
      <trkpt lat="45.76775" lon="4.63145">
        <ele>733.4</ele>
        <time>2013-04-18T10:47:25.770Z</time>
      </trkpt>
      <trkpt lat="45.76776" lon="4.63146">
        <ele>733.3</ele>
        <time>2013-04-18T10:47:26.770Z</time>
      </trkpt>
      <trkpt lat="45.76777" lon="4.63148">
        <ele>733.3</ele>
        <time>2013-04-18T10:47:27.770Z</time>
      </trkpt>
      <trkpt lat="45.76779" lon="4.63151">
        <ele>733.1</ele>
        <time>2013-04-18T10:47:28.770Z</time>
      </trkpt>
      <trkpt lat="45.7678" lon="4.63153">
        <ele>732.9</ele>
        <time>2013-04-18T10:47:29.770Z</time>
      </trkpt>
      <trkpt lat="45.76782" lon="4.63156">
        <ele>732.7</ele>
        <time>2013-04-18T10:47:30.750Z</time>
      </trkpt>
      <trkpt lat="45.76784" lon="4.63158">
        <ele>732.6</ele>
        <time>2013-04-18T10:47:31.770Z</time>
      </trkpt>
      <trkpt lat="45.76786" lon="4.63159">
        <ele>732.5</ele>
        <time>2013-04-18T10:47:32.770Z</time>
      </trkpt>
      <trkpt lat="45.76789" lon="4.63164">
        <ele>732.2</ele>
        <time>2013-04-18T10:47:34.770Z</time>
      </trkpt>
      <trkpt lat="45.7679" lon="4.63165">
        <ele>732.1</ele>
        <time>2013-04-18T10:47:35.760Z</time>
      </trkpt>
      <trkpt lat="45.76792" lon="4.63168">
        <ele>731.9</ele>
        <time>2013-04-18T10:47:36.760Z</time>
      </trkpt>
      <trkpt lat="45.76793" lon="4.63169">
        <ele>731.8</ele>
        <time>2013-04-18T10:47:37.760Z</time>
      </trkpt>
      <trkpt lat="45.76795" lon="4.63171">
        <ele>731.7</ele>
        <time>2013-04-18T10:47:38.760Z</time>
      </trkpt>
      <trkpt lat="45.76797" lon="4.63172">
        <ele>731.5</ele>
        <time>2013-04-18T10:47:39.760Z</time>
      </trkpt>
      <trkpt lat="45.76799" lon="4.63175">
        <ele>731.4</ele>
        <time>2013-04-18T10:47:40.760Z</time>
      </trkpt>
      <trkpt lat="45.76801" lon="4.63178">
        <ele>731.1</ele>
        <time>2013-04-18T10:47:41.760Z</time>
      </trkpt>
      <trkpt lat="45.76803" lon="4.6318">
        <ele>731</ele>
        <time>2013-04-18T10:47:42.760Z</time>
      </trkpt>
      <trkpt lat="45.76805" lon="4.63183">
        <ele>730.8</ele>
        <time>2013-04-18T10:47:43.740Z</time>
      </trkpt>
      <trkpt lat="45.76808" lon="4.63186">
        <ele>730.5</ele>
        <time>2013-04-18T10:47:44.760Z</time>
      </trkpt>
      <trkpt lat="45.7681" lon="4.63189">
        <ele>730.2</ele>
        <time>2013-04-18T10:47:45.760Z</time>
      </trkpt>
      <trkpt lat="45.76812" lon="4.63192">
        <ele>729.9</ele>
        <time>2013-04-18T10:47:46.760Z</time>
      </trkpt>
      <trkpt lat="45.76814" lon="4.63196">
        <ele>729.6</ele>
        <time>2013-04-18T10:47:47.760Z</time>
      </trkpt>
      <trkpt lat="45.76816" lon="4.63199">
        <ele>729.4</ele>
        <time>2013-04-18T10:47:48.760Z</time>
      </trkpt>
      <trkpt lat="45.76817" lon="4.63201">
        <ele>729.2</ele>
        <time>2013-04-18T10:47:49.760Z</time>
      </trkpt>
      <trkpt lat="45.76821" lon="4.63205">
        <ele>728.9</ele>
        <time>2013-04-18T10:47:51.660Z</time>
      </trkpt>
      <trkpt lat="45.76823" lon="4.63207">
        <ele>728.7</ele>
        <time>2013-04-18T10:47:52.660Z</time>
      </trkpt>
      <trkpt lat="45.76826" lon="4.63209">
        <ele>728.6</ele>
        <time>2013-04-18T10:47:53.660Z</time>
      </trkpt>
      <trkpt lat="45.76828" lon="4.63211">
        <ele>728.5</ele>
        <time>2013-04-18T10:47:54.660Z</time>
      </trkpt>
      <trkpt lat="45.76831" lon="4.63213">
        <ele>728.4</ele>
        <time>2013-04-18T10:47:55.660Z</time>
      </trkpt>
      <trkpt lat="45.76832" lon="4.63214">
        <ele>728.3</ele>
        <time>2013-04-18T10:47:56.640Z</time>
      </trkpt>
      <trkpt lat="45.76835" lon="4.63215">
        <ele>728.2</ele>
        <time>2013-04-18T10:47:57.660Z</time>
      </trkpt>
      <trkpt lat="45.76838" lon="4.63217">
        <ele>729.5</ele>
        <time>2013-04-18T10:47:58.660Z</time>
      </trkpt>
      <trkpt lat="45.76841" lon="4.63217">
        <ele>727.9</ele>
        <time>2013-04-18T10:47:59.710Z</time>
      </trkpt>
      <trkpt lat="45.76848" lon="4.63219">
        <ele>727.5</ele>
        <time>2013-04-18T10:48:01.660Z</time>
      </trkpt>
      <trkpt lat="45.76852" lon="4.6322">
        <ele>727.3</ele>
        <time>2013-04-18T10:48:02.660Z</time>
      </trkpt>
      <trkpt lat="45.76856" lon="4.63221">
        <ele>727.2</ele>
        <time>2013-04-18T10:48:03.660Z</time>
      </trkpt>
      <trkpt lat="45.7686" lon="4.63223">
        <ele>727</ele>
        <time>2013-04-18T10:48:04.660Z</time>
      </trkpt>
      <trkpt lat="45.76863" lon="4.63224">
        <ele>726.8</ele>
        <time>2013-04-18T10:48:05.760Z</time>
      </trkpt>
      <trkpt lat="45.76867" lon="4.63226">
        <ele>726.5</ele>
        <time>2013-04-18T10:48:06.760Z</time>
      </trkpt>
      <trkpt lat="45.7687" lon="4.63228">
        <ele>726.2</ele>
        <time>2013-04-18T10:48:07.740Z</time>
      </trkpt>
      <trkpt lat="45.76873" lon="4.6323">
        <ele>726</ele>
        <time>2013-04-18T10:48:08.760Z</time>
      </trkpt>
      <trkpt lat="45.76878" lon="4.63235">
        <ele>725.6</ele>
        <time>2013-04-18T10:48:10.660Z</time>
      </trkpt>
      <trkpt lat="45.76881" lon="4.63237">
        <ele>725.4</ele>
        <time>2013-04-18T10:48:11.660Z</time>
      </trkpt>
      <trkpt lat="45.76884" lon="4.63238">
        <ele>725.3</ele>
        <time>2013-04-18T10:48:12.660Z</time>
      </trkpt>
      <trkpt lat="45.76886" lon="4.63239">
        <ele>725.2</ele>
        <time>2013-04-18T10:48:13.660Z</time>
      </trkpt>
      <trkpt lat="45.76887" lon="4.63242">
        <ele>725.1</ele>
        <time>2013-04-18T10:48:14.650Z</time>
      </trkpt>
      <trkpt lat="45.76891" lon="4.63245">
        <ele>724.9</ele>
        <time>2013-04-18T10:48:15.760Z</time>
      </trkpt>
      <trkpt lat="45.76894" lon="4.63248">
        <ele>724.8</ele>
        <time>2013-04-18T10:48:16.710Z</time>
      </trkpt>
      <trkpt lat="45.76896" lon="4.6325">
        <ele>724.8</ele>
        <time>2013-04-18T10:48:17.750Z</time>
      </trkpt>
      <trkpt lat="45.76899" lon="4.63252">
        <ele>724.7</ele>
        <time>2013-04-18T10:48:18.750Z</time>
      </trkpt>
      <trkpt lat="45.76902" lon="4.63253">
        <ele>724.6</ele>
        <time>2013-04-18T10:48:19.750Z</time>
      </trkpt>
      <trkpt lat="45.76909" lon="4.63255">
        <ele>724.4</ele>
        <time>2013-04-18T10:48:21.650Z</time>
      </trkpt>
      <trkpt lat="45.76912" lon="4.63255">
        <ele>724.3</ele>
        <time>2013-04-18T10:48:22.650Z</time>
      </trkpt>
      <trkpt lat="45.76915" lon="4.63255">
        <ele>724.2</ele>
        <time>2013-04-18T10:48:23.650Z</time>
      </trkpt>
      <trkpt lat="45.76918" lon="4.63255">
        <ele>724.1</ele>
        <time>2013-04-18T10:48:24.650Z</time>
      </trkpt>
      <trkpt lat="45.76922" lon="4.63257">
        <ele>724.1</ele>
        <time>2013-04-18T10:48:25.650Z</time>
      </trkpt>
      <trkpt lat="45.76924" lon="4.6326">
        <ele>724.2</ele>
        <time>2013-04-18T10:48:26.650Z</time>
      </trkpt>
      <trkpt lat="45.76926" lon="4.63261">
        <ele>724.2</ele>
        <time>2013-04-18T10:48:27.650Z</time>
      </trkpt>
      <trkpt lat="45.76929" lon="4.63263">
        <ele>724.2</ele>
        <time>2013-04-18T10:48:28.660Z</time>
      </trkpt>
      <trkpt lat="45.76931" lon="4.63264">
        <ele>724.3</ele>
        <time>2013-04-18T10:48:29.650Z</time>
      </trkpt>
      <trkpt lat="45.76934" lon="4.63266">
        <ele>724.3</ele>
        <time>2013-04-18T10:48:30.650Z</time>
      </trkpt>
      <trkpt lat="45.76937" lon="4.63268">
        <ele>724.4</ele>
        <time>2013-04-18T10:48:31.650Z</time>
      </trkpt>
      <trkpt lat="45.76939" lon="4.63271">
        <ele>724.5</ele>
        <time>2013-04-18T10:48:32.630Z</time>
      </trkpt>
      <trkpt lat="45.76943" lon="4.63275">
        <ele>724.8</ele>
        <time>2013-04-18T10:48:34.750Z</time>
      </trkpt>
      <trkpt lat="45.76946" lon="4.63276">
        <ele>724.9</ele>
        <time>2013-04-18T10:48:35.750Z</time>
      </trkpt>
      <trkpt lat="45.76949" lon="4.63278">
        <ele>725.1</ele>
        <time>2013-04-18T10:48:36.760Z</time>
      </trkpt>
      <trkpt lat="45.76951" lon="4.63282">
        <ele>725.4</ele>
        <time>2013-04-18T10:48:37.750Z</time>
      </trkpt>
      <trkpt lat="45.76954" lon="4.63286">
        <ele>725.8</ele>
        <time>2013-04-18T10:48:38.750Z</time>
      </trkpt>
      <trkpt lat="45.76956" lon="4.63289">
        <ele>726.2</ele>
        <time>2013-04-18T10:48:39.750Z</time>
      </trkpt>
      <trkpt lat="45.76958" lon="4.63293">
        <ele>726.6</ele>
        <time>2013-04-18T10:48:40.750Z</time>
      </trkpt>
      <trkpt lat="45.7696" lon="4.63296">
        <ele>727</ele>
        <time>2013-04-18T10:48:41.750Z</time>
      </trkpt>
      <trkpt lat="45.76962" lon="4.63301">
        <ele>727.5</ele>
        <time>2013-04-18T10:48:42.750Z</time>
      </trkpt>
      <trkpt lat="45.76963" lon="4.63306">
        <ele>728</ele>
        <time>2013-04-18T10:48:43.750Z</time>
      </trkpt>
      <trkpt lat="45.76965" lon="4.63309">
        <ele>728.4</ele>
        <time>2013-04-18T10:48:44.750Z</time>
      </trkpt>
      <trkpt lat="45.76967" lon="4.63311">
        <ele>728.7</ele>
        <time>2013-04-18T10:48:45.730Z</time>
      </trkpt>
      <trkpt lat="45.76969" lon="4.63315">
        <ele>729.3</ele>
        <time>2013-04-18T10:48:46.750Z</time>
      </trkpt>
      <trkpt lat="45.76971" lon="4.63318">
        <ele>729.8</ele>
        <time>2013-04-18T10:48:47.750Z</time>
      </trkpt>
      <trkpt lat="45.76973" lon="4.63321">
        <ele>730.2</ele>
        <time>2013-04-18T10:48:48.750Z</time>
      </trkpt>
      <trkpt lat="45.76975" lon="4.63323">
        <ele>730.4</ele>
        <time>2013-04-18T10:48:49.750Z</time>
      </trkpt>
      <trkpt lat="45.76977" lon="4.63325">
        <ele>730.5</ele>
        <time>2013-04-18T10:48:50.700Z</time>
      </trkpt>
      <trkpt lat="45.76979" lon="4.63327">
        <ele>730.6</ele>
        <time>2013-04-18T10:48:51.750Z</time>
      </trkpt>
      <trkpt lat="45.76981" lon="4.63329">
        <ele>730.8</ele>
        <time>2013-04-18T10:48:52.750Z</time>
      </trkpt>
      <trkpt lat="45.76983" lon="4.63332">
        <ele>731</ele>
        <time>2013-04-18T10:48:53.750Z</time>
      </trkpt>
      <trkpt lat="45.76986" lon="4.63333">
        <ele>731</ele>
        <time>2013-04-18T10:48:54.750Z</time>
      </trkpt>
      <trkpt lat="45.76988" lon="4.63335">
        <ele>731.1</ele>
        <time>2013-04-18T10:48:55.740Z</time>
      </trkpt>
      <trkpt lat="45.76989" lon="4.63338">
        <ele>731.2</ele>
        <time>2013-04-18T10:48:56.740Z</time>
      </trkpt>
      <trkpt lat="45.7699" lon="4.6334">
        <ele>731.4</ele>
        <time>2013-04-18T10:48:57.740Z</time>
      </trkpt>
      <trkpt lat="45.76991" lon="4.63343">
        <ele>729.8</ele>
        <time>2013-04-18T10:48:58.740Z</time>
      </trkpt>
      <trkpt lat="45.76993" lon="4.63346">
        <ele>731.8</ele>
        <time>2013-04-18T10:48:59.700Z</time>
      </trkpt>
      <trkpt lat="45.76997" lon="4.63352">
        <ele>732.2</ele>
        <time>2013-04-18T10:49:01.640Z</time>
      </trkpt>
      <trkpt lat="45.76999" lon="4.63355">
        <ele>732.4</ele>
        <time>2013-04-18T10:49:02.640Z</time>
      </trkpt>
      <trkpt lat="45.77" lon="4.63358">
        <ele>732.6</ele>
        <time>2013-04-18T10:49:03.640Z</time>
      </trkpt>
      <trkpt lat="45.77001" lon="4.63361">
        <ele>732.8</ele>
        <time>2013-04-18T10:49:04.640Z</time>
      </trkpt>
      <trkpt lat="45.77002" lon="4.63363">
        <ele>733</ele>
        <time>2013-04-18T10:49:05.740Z</time>
      </trkpt>
      <trkpt lat="45.77003" lon="4.63366">
        <ele>733.2</ele>
        <time>2013-04-18T10:49:06.740Z</time>
      </trkpt>
      <trkpt lat="45.77004" lon="4.63368">
        <ele>733.4</ele>
        <time>2013-04-18T10:49:07.740Z</time>
      </trkpt>
      <trkpt lat="45.77005" lon="4.63372">
        <ele>733.7</ele>
        <time>2013-04-18T10:49:08.740Z</time>
      </trkpt>
      <trkpt lat="45.77007" lon="4.63378">
        <ele>734.1</ele>
        <time>2013-04-18T10:49:10.640Z</time>
      </trkpt>
      <trkpt lat="45.77009" lon="4.63381">
        <ele>734.2</ele>
        <time>2013-04-18T10:49:11.640Z</time>
      </trkpt>
      <trkpt lat="45.77011" lon="4.63384">
        <ele>734.3</ele>
        <time>2013-04-18T10:49:12.640Z</time>
      </trkpt>
      <trkpt lat="45.77013" lon="4.63387">
        <ele>734.4</ele>
        <time>2013-04-18T10:49:13.640Z</time>
      </trkpt>
      <trkpt lat="45.77015" lon="4.63389">
        <ele>734.3</ele>
        <time>2013-04-18T10:49:14.640Z</time>
      </trkpt>
      <trkpt lat="45.77018" lon="4.63392">
        <ele>734.3</ele>
        <time>2013-04-18T10:49:15.740Z</time>
      </trkpt>
      <trkpt lat="45.77025" lon="4.63398">
        <ele>734.3</ele>
        <time>2013-04-18T10:49:17.640Z</time>
      </trkpt>
      <trkpt lat="45.77026" lon="4.63402">
        <ele>734.5</ele>
        <time>2013-04-18T10:49:18.640Z</time>
      </trkpt>
      <trkpt lat="45.77028" lon="4.63407">
        <ele>734.9</ele>
        <time>2013-04-18T10:49:19.640Z</time>
      </trkpt>
      <trkpt lat="45.77029" lon="4.6341">
        <ele>735.1</ele>
        <time>2013-04-18T10:49:20.740Z</time>
      </trkpt>
      <trkpt lat="45.7703" lon="4.63413">
        <ele>735.2</ele>
        <time>2013-04-18T10:49:21.740Z</time>
      </trkpt>
      <trkpt lat="45.77032" lon="4.63416">
        <ele>735.4</ele>
        <time>2013-04-18T10:49:22.720Z</time>
      </trkpt>
      <trkpt lat="45.77033" lon="4.6342">
        <ele>735.6</ele>
        <time>2013-04-18T10:49:23.740Z</time>
      </trkpt>
      <trkpt lat="45.77035" lon="4.63427">
        <ele>736</ele>
        <time>2013-04-18T10:49:25.640Z</time>
      </trkpt>
      <trkpt lat="45.77036" lon="4.6343">
        <ele>736.1</ele>
        <time>2013-04-18T10:49:26.640Z</time>
      </trkpt>
      <trkpt lat="45.77037" lon="4.63432">
        <ele>736.1</ele>
        <time>2013-04-18T10:49:27.640Z</time>
      </trkpt>
      <trkpt lat="45.77038" lon="4.63434">
        <ele>736.2</ele>
        <time>2013-04-18T10:49:28.640Z</time>
      </trkpt>
      <trkpt lat="45.77039" lon="4.63437">
        <ele>736.3</ele>
        <time>2013-04-18T10:49:29.640Z</time>
      </trkpt>
      <trkpt lat="45.7704" lon="4.63439">
        <ele>736.3</ele>
        <time>2013-04-18T10:49:30.740Z</time>
      </trkpt>
      <trkpt lat="45.77042" lon="4.63442">
        <ele>736.3</ele>
        <time>2013-04-18T10:49:31.740Z</time>
      </trkpt>
      <trkpt lat="45.77043" lon="4.63445">
        <ele>736.3</ele>
        <time>2013-04-18T10:49:32.740Z</time>
      </trkpt>
      <trkpt lat="45.77045" lon="4.63448">
        <ele>735.9</ele>
        <time>2013-04-18T10:49:33.690Z</time>
      </trkpt>
      <trkpt lat="45.77047" lon="4.63451">
        <ele>735.4</ele>
        <time>2013-04-18T10:49:34.740Z</time>
      </trkpt>
      <trkpt lat="45.77049" lon="4.63452">
        <ele>734.9</ele>
        <time>2013-04-18T10:49:36.630Z</time>
      </trkpt>
      <trkpt lat="45.77051" lon="4.6345">
        <ele>734.7</ele>
        <time>2013-04-18T10:49:37.630Z</time>
      </trkpt>
      <trkpt lat="45.77053" lon="4.63448">
        <ele>734.4</ele>
        <time>2013-04-18T10:49:38.630Z</time>
      </trkpt>
      <trkpt lat="45.77055" lon="4.63445">
        <ele>734.2</ele>
        <time>2013-04-18T10:49:39.630Z</time>
      </trkpt>
      <trkpt lat="45.77056" lon="4.63441">
        <ele>733.6</ele>
        <time>2013-04-18T10:49:40.730Z</time>
      </trkpt>
      <trkpt lat="45.77058" lon="4.63438">
        <ele>733.1</ele>
        <time>2013-04-18T10:49:41.730Z</time>
      </trkpt>
      <trkpt lat="45.77061" lon="4.63436">
        <ele>732.5</ele>
        <time>2013-04-18T10:49:42.730Z</time>
      </trkpt>
      <trkpt lat="45.77064" lon="4.63434">
        <ele>731.9</ele>
        <time>2013-04-18T10:49:43.730Z</time>
      </trkpt>
      <trkpt lat="45.77067" lon="4.63433">
        <ele>731.3</ele>
        <time>2013-04-18T10:49:44.730Z</time>
      </trkpt>
      <trkpt lat="45.77073" lon="4.63437">
        <ele>730.5</ele>
        <time>2013-04-18T10:49:46.630Z</time>
      </trkpt>
      <trkpt lat="45.77075" lon="4.63439">
        <ele>730.2</ele>
        <time>2013-04-18T10:49:47.630Z</time>
      </trkpt>
      <trkpt lat="45.77078" lon="4.6344">
        <ele>729.8</ele>
        <time>2013-04-18T10:49:48.610Z</time>
      </trkpt>
      <trkpt lat="45.77081" lon="4.63438">
        <ele>729.3</ele>
        <time>2013-04-18T10:49:49.730Z</time>
      </trkpt>
      <trkpt lat="45.77084" lon="4.63436">
        <ele>728.6</ele>
        <time>2013-04-18T10:49:50.680Z</time>
      </trkpt>
      <trkpt lat="45.77087" lon="4.63435">
        <ele>728.1</ele>
        <time>2013-04-18T10:49:51.730Z</time>
      </trkpt>
      <trkpt lat="45.77091" lon="4.63436">
        <ele>727.7</ele>
        <time>2013-04-18T10:49:52.730Z</time>
      </trkpt>
      <trkpt lat="45.77094" lon="4.63437">
        <ele>727.3</ele>
        <time>2013-04-18T10:49:53.740Z</time>
      </trkpt>
      <trkpt lat="45.771" lon="4.63435">
        <ele>726.4</ele>
        <time>2013-04-18T10:49:55.630Z</time>
      </trkpt>
      <trkpt lat="45.77102" lon="4.63432">
        <ele>726.1</ele>
        <time>2013-04-18T10:49:56.630Z</time>
      </trkpt>
      <trkpt lat="45.77105" lon="4.6343">
        <ele>725.8</ele>
        <time>2013-04-18T10:49:57.630Z</time>
      </trkpt>
      <trkpt lat="45.77108" lon="4.6343">
        <ele>736</ele>
        <time>2013-04-18T10:49:58.630Z</time>
      </trkpt>
      <trkpt lat="45.7711" lon="4.63432">
        <ele>725.1</ele>
        <time>2013-04-18T10:49:59.580Z</time>
      </trkpt>
      <trkpt lat="45.77112" lon="4.63436">
        <ele>724.9</ele>
        <time>2013-04-18T10:50:00.630Z</time>
      </trkpt>
      <trkpt lat="45.77115" lon="4.6344">
        <ele>724.7</ele>
        <time>2013-04-18T10:50:01.630Z</time>
      </trkpt>
      <trkpt lat="45.77117" lon="4.63445">
        <ele>724.4</ele>
        <time>2013-04-18T10:50:02.630Z</time>
      </trkpt>
      <trkpt lat="45.77118" lon="4.63446">
        <ele>724.1</ele>
        <time>2013-04-18T10:50:03.630Z</time>
      </trkpt>
      <trkpt lat="45.7712" lon="4.63446">
        <ele>724</ele>
        <time>2013-04-18T10:50:04.630Z</time>
      </trkpt>
      <trkpt lat="45.77123" lon="4.63446">
        <ele>723.6</ele>
        <time>2013-04-18T10:50:05.630Z</time>
      </trkpt>
      <trkpt lat="45.77127" lon="4.63446">
        <ele>723.2</ele>
        <time>2013-04-18T10:50:06.630Z</time>
      </trkpt>
      <trkpt lat="45.77129" lon="4.63445">
        <ele>723</ele>
        <time>2013-04-18T10:50:07.630Z</time>
      </trkpt>
      <trkpt lat="45.77132" lon="4.63445">
        <ele>722.7</ele>
        <time>2013-04-18T10:50:08.630Z</time>
      </trkpt>
      <trkpt lat="45.77134" lon="4.63445">
        <ele>722.5</ele>
        <time>2013-04-18T10:50:09.630Z</time>
      </trkpt>
      <trkpt lat="45.77139" lon="4.63449">
        <ele>721.7</ele>
        <time>2013-04-18T10:50:11.730Z</time>
      </trkpt>
      <trkpt lat="45.77142" lon="4.6345">
        <ele>721</ele>
        <time>2013-04-18T10:50:12.730Z</time>
      </trkpt>
      <trkpt lat="45.77143" lon="4.63448">
        <ele>720.8</ele>
        <time>2013-04-18T10:50:13.730Z</time>
      </trkpt>
      <trkpt lat="45.77145" lon="4.63446">
        <ele>720.5</ele>
        <time>2013-04-18T10:50:14.730Z</time>
      </trkpt>
      <trkpt lat="45.77147" lon="4.63445">
        <ele>720.2</ele>
        <time>2013-04-18T10:50:15.730Z</time>
      </trkpt>
      <trkpt lat="45.77149" lon="4.63446">
        <ele>719.8</ele>
        <time>2013-04-18T10:50:16.680Z</time>
      </trkpt>
      <trkpt lat="45.77152" lon="4.63446">
        <ele>719.1</ele>
        <time>2013-04-18T10:50:17.730Z</time>
      </trkpt>
      <trkpt lat="45.77153" lon="4.63447">
        <ele>718.6</ele>
        <time>2013-04-18T10:50:18.720Z</time>
      </trkpt>
      <trkpt lat="45.77156" lon="4.63448">
        <ele>718.1</ele>
        <time>2013-04-18T10:50:19.720Z</time>
      </trkpt>
      <trkpt lat="45.77158" lon="4.63449">
        <ele>717.5</ele>
        <time>2013-04-18T10:50:20.720Z</time>
      </trkpt>
      <trkpt lat="45.7716" lon="4.63451">
        <ele>716.9</ele>
        <time>2013-04-18T10:50:21.710Z</time>
      </trkpt>
      <trkpt lat="45.77162" lon="4.63454">
        <ele>716.1</ele>
        <time>2013-04-18T10:50:22.720Z</time>
      </trkpt>
      <trkpt lat="45.77167" lon="4.63459">
        <ele>714.3</ele>
        <time>2013-04-18T10:50:24.620Z</time>
      </trkpt>
      <trkpt lat="45.7717" lon="4.6346">
        <ele>713.5</ele>
        <time>2013-04-18T10:50:25.620Z</time>
      </trkpt>
      <trkpt lat="45.77172" lon="4.63461">
        <ele>712.7</ele>
        <time>2013-04-18T10:50:26.620Z</time>
      </trkpt>
      <trkpt lat="45.77175" lon="4.63462">
        <ele>711.9</ele>
        <time>2013-04-18T10:50:27.620Z</time>
      </trkpt>
      <trkpt lat="45.77177" lon="4.63463">
        <ele>711.3</ele>
        <time>2013-04-18T10:50:28.620Z</time>
      </trkpt>
      <trkpt lat="45.77181" lon="4.63464">
        <ele>710.2</ele>
        <time>2013-04-18T10:50:29.620Z</time>
      </trkpt>
      <trkpt lat="45.77184" lon="4.63467">
        <ele>709.2</ele>
        <time>2013-04-18T10:50:30.620Z</time>
      </trkpt>
      <trkpt lat="45.77186" lon="4.6347">
        <ele>708.5</ele>
        <time>2013-04-18T10:50:31.620Z</time>
      </trkpt>
      <trkpt lat="45.77187" lon="4.63473">
        <ele>707.9</ele>
        <time>2013-04-18T10:50:32.620Z</time>
      </trkpt>
      <trkpt lat="45.77187" lon="4.63476">
        <ele>707.5</ele>
        <time>2013-04-18T10:50:33.630Z</time>
      </trkpt>
      <trkpt lat="45.77188" lon="4.63479">
        <ele>707.2</ele>
        <time>2013-04-18T10:50:34.720Z</time>
      </trkpt>
      <trkpt lat="45.77187" lon="4.63483">
        <ele>706.9</ele>
        <time>2013-04-18T10:50:35.720Z</time>
      </trkpt>
      <trkpt lat="45.77187" lon="4.63486">
        <ele>706.7</ele>
        <time>2013-04-18T10:50:36.720Z</time>
      </trkpt>
      <trkpt lat="45.77187" lon="4.6349">
        <ele>706.4</ele>
        <time>2013-04-18T10:50:37.720Z</time>
      </trkpt>
      <trkpt lat="45.77187" lon="4.63494">
        <ele>706.1</ele>
        <time>2013-04-18T10:50:38.720Z</time>
      </trkpt>
      <trkpt lat="45.77187" lon="4.63498">
        <ele>705.8</ele>
        <time>2013-04-18T10:50:39.720Z</time>
      </trkpt>
      <trkpt lat="45.77187" lon="4.63503">
        <ele>705.3</ele>
        <time>2013-04-18T10:50:40.720Z</time>
      </trkpt>
      <trkpt lat="45.77186" lon="4.63508">
        <ele>704.7</ele>
        <time>2013-04-18T10:50:41.720Z</time>
      </trkpt>
      <trkpt lat="45.77186" lon="4.63512">
        <ele>704.4</ele>
        <time>2013-04-18T10:50:42.720Z</time>
      </trkpt>
      <trkpt lat="45.77184" lon="4.63515">
        <ele>704.3</ele>
        <time>2013-04-18T10:50:43.720Z</time>
      </trkpt>
      <trkpt lat="45.77182" lon="4.63519">
        <ele>704.4</ele>
        <time>2013-04-18T10:50:44.700Z</time>
      </trkpt>
      <trkpt lat="45.77181" lon="4.63521">
        <ele>704.3</ele>
        <time>2013-04-18T10:50:45.720Z</time>
      </trkpt>
      <trkpt lat="45.77179" lon="4.63524">
        <ele>704.3</ele>
        <time>2013-04-18T10:50:46.720Z</time>
      </trkpt>
      <trkpt lat="45.77179" lon="4.63527">
        <ele>704.1</ele>
        <time>2013-04-18T10:50:47.720Z</time>
      </trkpt>
      <trkpt lat="45.77178" lon="4.63531">
        <ele>703.6</ele>
        <time>2013-04-18T10:50:48.720Z</time>
      </trkpt>
      <trkpt lat="45.77179" lon="4.63534">
        <ele>703.1</ele>
        <time>2013-04-18T10:50:49.720Z</time>
      </trkpt>
      <trkpt lat="45.7718" lon="4.63542">
        <ele>701.8</ele>
        <time>2013-04-18T10:50:51.620Z</time>
      </trkpt>
      <trkpt lat="45.7718" lon="4.63545">
        <ele>701.5</ele>
        <time>2013-04-18T10:50:52.620Z</time>
      </trkpt>
      <trkpt lat="45.77179" lon="4.63549">
        <ele>701.2</ele>
        <time>2013-04-18T10:50:53.620Z</time>
      </trkpt>
      <trkpt lat="45.77179" lon="4.63552">
        <ele>700.8</ele>
        <time>2013-04-18T10:50:54.620Z</time>
      </trkpt>
      <trkpt lat="45.77179" lon="4.63555">
        <ele>700.3</ele>
        <time>2013-04-18T10:50:55.620Z</time>
      </trkpt>
      <trkpt lat="45.77181" lon="4.63559">
        <ele>699.5</ele>
        <time>2013-04-18T10:50:56.600Z</time>
      </trkpt>
      <trkpt lat="45.77182" lon="4.63561">
        <ele>698.8</ele>
        <time>2013-04-18T10:50:57.620Z</time>
      </trkpt>
      <trkpt lat="45.77184" lon="4.63563">
        <ele>729.9</ele>
        <time>2013-04-18T10:50:58.610Z</time>
      </trkpt>
      <trkpt lat="45.77185" lon="4.63565">
        <ele>697.6</ele>
        <time>2013-04-18T10:50:59.480Z</time>
      </trkpt>
      <trkpt lat="45.77186" lon="4.63568">
        <ele>697</ele>
        <time>2013-04-18T10:51:00.610Z</time>
      </trkpt>
      <trkpt lat="45.77187" lon="4.63569">
        <ele>696.6</ele>
        <time>2013-04-18T10:51:01.610Z</time>
      </trkpt>
      <trkpt lat="45.77188" lon="4.6357">
        <ele>696.2</ele>
        <time>2013-04-18T10:51:02.630Z</time>
      </trkpt>
      <trkpt lat="45.77189" lon="4.63571">
        <ele>695.7</ele>
        <time>2013-04-18T10:51:03.610Z</time>
      </trkpt>
      <trkpt lat="45.77192" lon="4.63573">
        <ele>695.1</ele>
        <time>2013-04-18T10:51:04.610Z</time>
      </trkpt>
      <trkpt lat="45.77195" lon="4.63573">
        <ele>694.5</ele>
        <time>2013-04-18T10:51:05.610Z</time>
      </trkpt>
      <trkpt lat="45.77197" lon="4.63574">
        <ele>693.7</ele>
        <time>2013-04-18T10:51:06.610Z</time>
      </trkpt>
      <trkpt lat="45.77199" lon="4.63577">
        <ele>692.9</ele>
        <time>2013-04-18T10:51:07.710Z</time>
      </trkpt>
      <trkpt lat="45.772" lon="4.6358">
        <ele>692.2</ele>
        <time>2013-04-18T10:51:08.710Z</time>
      </trkpt>
      <trkpt lat="45.772" lon="4.63583">
        <ele>691.9</ele>
        <time>2013-04-18T10:51:09.710Z</time>
      </trkpt>
      <trkpt lat="45.772" lon="4.63585">
        <ele>691.6</ele>
        <time>2013-04-18T10:51:10.710Z</time>
      </trkpt>
      <trkpt lat="45.77199" lon="4.63587">
        <ele>691.4</ele>
        <time>2013-04-18T10:51:11.710Z</time>
      </trkpt>
      <trkpt lat="45.77197" lon="4.6359">
        <ele>691.3</ele>
        <time>2013-04-18T10:51:12.710Z</time>
      </trkpt>
      <trkpt lat="45.77196" lon="4.63593">
        <ele>691.1</ele>
        <time>2013-04-18T10:51:13.710Z</time>
      </trkpt>
      <trkpt lat="45.77194" lon="4.63595">
        <ele>690.9</ele>
        <time>2013-04-18T10:51:14.710Z</time>
      </trkpt>
      <trkpt lat="45.77193" lon="4.63598">
        <ele>690.7</ele>
        <time>2013-04-18T10:51:15.710Z</time>
      </trkpt>
      <trkpt lat="45.77191" lon="4.63604">
        <ele>689.9</ele>
        <time>2013-04-18T10:51:17.610Z</time>
      </trkpt>
      <trkpt lat="45.77192" lon="4.63613">
        <ele>688.2</ele>
        <time>2013-04-18T10:51:19.610Z</time>
      </trkpt>
      <trkpt lat="45.77193" lon="4.63618">
        <ele>687</ele>
        <time>2013-04-18T10:51:20.610Z</time>
      </trkpt>
      <trkpt lat="45.77194" lon="4.63623">
        <ele>686</ele>
        <time>2013-04-18T10:51:21.610Z</time>
      </trkpt>
      <trkpt lat="45.77195" lon="4.63628">
        <ele>684.9</ele>
        <time>2013-04-18T10:51:22.710Z</time>
      </trkpt>
      <trkpt lat="45.77197" lon="4.63633">
        <ele>683.8</ele>
        <time>2013-04-18T10:51:23.710Z</time>
      </trkpt>
      <trkpt lat="45.77199" lon="4.63638">
        <ele>682.5</ele>
        <time>2013-04-18T10:51:24.710Z</time>
      </trkpt>
      <trkpt lat="45.77201" lon="4.63643">
        <ele>681.6</ele>
        <time>2013-04-18T10:51:25.710Z</time>
      </trkpt>
      <trkpt lat="45.77203" lon="4.63647">
        <ele>680.8</ele>
        <time>2013-04-18T10:51:26.710Z</time>
      </trkpt>
      <trkpt lat="45.77204" lon="4.6365">
        <ele>680.1</ele>
        <time>2013-04-18T10:51:27.710Z</time>
      </trkpt>
      <trkpt lat="45.77206" lon="4.63654">
        <ele>679.5</ele>
        <time>2013-04-18T10:51:28.710Z</time>
      </trkpt>
      <trkpt lat="45.77207" lon="4.63657">
        <ele>678.9</ele>
        <time>2013-04-18T10:51:29.690Z</time>
      </trkpt>
      <trkpt lat="45.77208" lon="4.6366">
        <ele>678.5</ele>
        <time>2013-04-18T10:51:30.710Z</time>
      </trkpt>
      <trkpt lat="45.7721" lon="4.63661">
        <ele>678</ele>
        <time>2013-04-18T10:51:31.710Z</time>
      </trkpt>
      <trkpt lat="45.77213" lon="4.63663">
        <ele>677.5</ele>
        <time>2013-04-18T10:51:32.710Z</time>
      </trkpt>
      <trkpt lat="45.77221" lon="4.63667">
        <ele>676.2</ele>
        <time>2013-04-18T10:51:34.610Z</time>
      </trkpt>
      <trkpt lat="45.77223" lon="4.6367">
        <ele>675.6</ele>
        <time>2013-04-18T10:51:35.610Z</time>
      </trkpt>
      <trkpt lat="45.77225" lon="4.63673">
        <ele>675.1</ele>
        <time>2013-04-18T10:51:36.610Z</time>
      </trkpt>
      <trkpt lat="45.77227" lon="4.63676">
        <ele>674.7</ele>
        <time>2013-04-18T10:51:37.610Z</time>
      </trkpt>
      <trkpt lat="45.7723" lon="4.63677">
        <ele>674.4</ele>
        <time>2013-04-18T10:51:38.610Z</time>
      </trkpt>
      <trkpt lat="45.77232" lon="4.63679">
        <ele>674.1</ele>
        <time>2013-04-18T10:51:39.600Z</time>
      </trkpt>
      <trkpt lat="45.77233" lon="4.63681">
        <ele>673.9</ele>
        <time>2013-04-18T10:51:40.600Z</time>
      </trkpt>
      <trkpt lat="45.77235" lon="4.63684">
        <ele>673.5</ele>
        <time>2013-04-18T10:51:41.590Z</time>
      </trkpt>
      <trkpt lat="45.77237" lon="4.63687">
        <ele>673.1</ele>
        <time>2013-04-18T10:51:42.600Z</time>
      </trkpt>
      <trkpt lat="45.77239" lon="4.6369">
        <ele>672.8</ele>
        <time>2013-04-18T10:51:43.600Z</time>
      </trkpt>
      <trkpt lat="45.77241" lon="4.63694">
        <ele>672.4</ele>
        <time>2013-04-18T10:51:44.600Z</time>
      </trkpt>
      <trkpt lat="45.77241" lon="4.63695">
        <ele>672.3</ele>
        <time>2013-04-18T10:51:45.600Z</time>
      </trkpt>
      <trkpt lat="45.7724" lon="4.63698">
        <ele>672</ele>
        <time>2013-04-18T10:51:46.600Z</time>
      </trkpt>
      <trkpt lat="45.7724" lon="4.63701">
        <ele>671.7</ele>
        <time>2013-04-18T10:51:47.600Z</time>
      </trkpt>
      <trkpt lat="45.77238" lon="4.63702">
        <ele>671.6</ele>
        <time>2013-04-18T10:51:48.600Z</time>
      </trkpt>
      <trkpt lat="45.77237" lon="4.63704">
        <ele>671.5</ele>
        <time>2013-04-18T10:51:49.600Z</time>
      </trkpt>
      <trkpt lat="45.77235" lon="4.63706">
        <ele>671.3</ele>
        <time>2013-04-18T10:51:50.650Z</time>
      </trkpt>
      <trkpt lat="45.77232" lon="4.63708">
        <ele>671</ele>
        <time>2013-04-18T10:51:51.700Z</time>
      </trkpt>
      <trkpt lat="45.7723" lon="4.63711">
        <ele>670.7</ele>
        <time>2013-04-18T10:51:52.700Z</time>
      </trkpt>
      <trkpt lat="45.77226" lon="4.63717">
        <ele>669.8</ele>
        <time>2013-04-18T10:51:54.600Z</time>
      </trkpt>
      <trkpt lat="45.77224" lon="4.6372">
        <ele>669.3</ele>
        <time>2013-04-18T10:51:55.600Z</time>
      </trkpt>
      <trkpt lat="45.77222" lon="4.63723">
        <ele>668.9</ele>
        <time>2013-04-18T10:51:56.600Z</time>
      </trkpt>
      <trkpt lat="45.7722" lon="4.63726">
        <ele>668.9</ele>
        <time>2013-04-18T10:51:57.600Z</time>
      </trkpt>
      <trkpt lat="45.77219" lon="4.63729">
        <ele>711.9</ele>
        <time>2013-04-18T10:51:58.600Z</time>
      </trkpt>
      <trkpt lat="45.77217" lon="4.63732">
        <ele>668.7</ele>
        <time>2013-04-18T10:51:59.650Z</time>
      </trkpt>
      <trkpt lat="45.77215" lon="4.63736">
        <ele>668.6</ele>
        <time>2013-04-18T10:52:00.700Z</time>
      </trkpt>
      <trkpt lat="45.77212" lon="4.6374">
        <ele>668.3</ele>
        <time>2013-04-18T10:52:01.700Z</time>
      </trkpt>
      <trkpt lat="45.7721" lon="4.6375">
        <ele>667.5</ele>
        <time>2013-04-18T10:52:03.580Z</time>
      </trkpt>
      <trkpt lat="45.77209" lon="4.63755">
        <ele>666.8</ele>
        <time>2013-04-18T10:52:04.600Z</time>
      </trkpt>
      <trkpt lat="45.77209" lon="4.63761">
        <ele>666</ele>
        <time>2013-04-18T10:52:05.600Z</time>
      </trkpt>
      <trkpt lat="45.77209" lon="4.63767">
        <ele>665.1</ele>
        <time>2013-04-18T10:52:06.600Z</time>
      </trkpt>
      <trkpt lat="45.77208" lon="4.63772">
        <ele>664.4</ele>
        <time>2013-04-18T10:52:07.600Z</time>
      </trkpt>
      <trkpt lat="45.77209" lon="4.63775">
        <ele>663.9</ele>
        <time>2013-04-18T10:52:08.600Z</time>
      </trkpt>
      <trkpt lat="45.77209" lon="4.63777">
        <ele>663.6</ele>
        <time>2013-04-18T10:52:09.600Z</time>
      </trkpt>
      <trkpt lat="45.7721" lon="4.63781">
        <ele>663</ele>
        <time>2013-04-18T10:52:10.600Z</time>
      </trkpt>
      <trkpt lat="45.77211" lon="4.63784">
        <ele>662.4</ele>
        <time>2013-04-18T10:52:11.600Z</time>
      </trkpt>
      <trkpt lat="45.77212" lon="4.63788">
        <ele>661.8</ele>
        <time>2013-04-18T10:52:12.600Z</time>
      </trkpt>
      <trkpt lat="45.77214" lon="4.63791">
        <ele>661.3</ele>
        <time>2013-04-18T10:52:13.600Z</time>
      </trkpt>
      <trkpt lat="45.77217" lon="4.63794">
        <ele>660.8</ele>
        <time>2013-04-18T10:52:14.600Z</time>
      </trkpt>
      <trkpt lat="45.77221" lon="4.63796">
        <ele>660.3</ele>
        <time>2013-04-18T10:52:16.650Z</time>
      </trkpt>
      <trkpt lat="45.77223" lon="4.63799">
        <ele>660</ele>
        <time>2013-04-18T10:52:17.690Z</time>
      </trkpt>
      <trkpt lat="45.77225" lon="4.63802">
        <ele>659.7</ele>
        <time>2013-04-18T10:52:18.690Z</time>
      </trkpt>
      <trkpt lat="45.77228" lon="4.63805">
        <ele>659.3</ele>
        <time>2013-04-18T10:52:19.690Z</time>
      </trkpt>
      <trkpt lat="45.77231" lon="4.63808">
        <ele>659</ele>
        <time>2013-04-18T10:52:20.690Z</time>
      </trkpt>
      <trkpt lat="45.77233" lon="4.63811">
        <ele>658.6</ele>
        <time>2013-04-18T10:52:21.690Z</time>
      </trkpt>
      <trkpt lat="45.77235" lon="4.63815">
        <ele>658</ele>
        <time>2013-04-18T10:52:22.690Z</time>
      </trkpt>
      <trkpt lat="45.77237" lon="4.63818">
        <ele>657.5</ele>
        <time>2013-04-18T10:52:23.690Z</time>
      </trkpt>
      <trkpt lat="45.77237" lon="4.63823">
        <ele>656.8</ele>
        <time>2013-04-18T10:52:24.690Z</time>
      </trkpt>
      <trkpt lat="45.77237" lon="4.63826">
        <ele>656.2</ele>
        <time>2013-04-18T10:52:25.690Z</time>
      </trkpt>
      <trkpt lat="45.77237" lon="4.63831">
        <ele>655.5</ele>
        <time>2013-04-18T10:52:26.680Z</time>
      </trkpt>
      <trkpt lat="45.77235" lon="4.63836">
        <ele>654.5</ele>
        <time>2013-04-18T10:52:28.690Z</time>
      </trkpt>
      <trkpt lat="45.77233" lon="4.63839">
        <ele>654.1</ele>
        <time>2013-04-18T10:52:29.690Z</time>
      </trkpt>
      <trkpt lat="45.77231" lon="4.63845">
        <ele>653.1</ele>
        <time>2013-04-18T10:52:31.590Z</time>
      </trkpt>
      <trkpt lat="45.77229" lon="4.63849">
        <ele>652.4</ele>
        <time>2013-04-18T10:52:32.590Z</time>
      </trkpt>
      <trkpt lat="45.77228" lon="4.63853">
        <ele>651.8</ele>
        <time>2013-04-18T10:52:33.640Z</time>
      </trkpt>
      <trkpt lat="45.77228" lon="4.63856">
        <ele>651.3</ele>
        <time>2013-04-18T10:52:34.690Z</time>
      </trkpt>
      <trkpt lat="45.77227" lon="4.63865">
        <ele>650</ele>
        <time>2013-04-18T10:52:36.590Z</time>
      </trkpt>
      <trkpt lat="45.77228" lon="4.6387">
        <ele>649.5</ele>
        <time>2013-04-18T10:52:37.590Z</time>
      </trkpt>
      <trkpt lat="45.7723" lon="4.63875">
        <ele>649</ele>
        <time>2013-04-18T10:52:38.590Z</time>
      </trkpt>
      <trkpt lat="45.77232" lon="4.6388">
        <ele>648.5</ele>
        <time>2013-04-18T10:52:39.670Z</time>
      </trkpt>
      <trkpt lat="45.77234" lon="4.63889">
        <ele>647.6</ele>
        <time>2013-04-18T10:52:41.590Z</time>
      </trkpt>
      <trkpt lat="45.77234" lon="4.63894">
        <ele>647.1</ele>
        <time>2013-04-18T10:52:42.790Z</time>
      </trkpt>
      <trkpt lat="45.77235" lon="4.63901">
        <ele>646.3</ele>
        <time>2013-04-18T10:52:44.590Z</time>
      </trkpt>
      <trkpt lat="45.77235" lon="4.63905">
        <ele>645.8</ele>
        <time>2013-04-18T10:52:45.690Z</time>
      </trkpt>
      <trkpt lat="45.77236" lon="4.63909">
        <ele>645.4</ele>
        <time>2013-04-18T10:52:46.690Z</time>
      </trkpt>
      <trkpt lat="45.77237" lon="4.63914">
        <ele>645</ele>
        <time>2013-04-18T10:52:47.690Z</time>
      </trkpt>
      <trkpt lat="45.77239" lon="4.63919">
        <ele>644.7</ele>
        <time>2013-04-18T10:52:48.690Z</time>
      </trkpt>
      <trkpt lat="45.7724" lon="4.63922">
        <ele>644.4</ele>
        <time>2013-04-18T10:52:49.690Z</time>
      </trkpt>
      <trkpt lat="45.77241" lon="4.6393">
        <ele>643.5</ele>
        <time>2013-04-18T10:52:51.790Z</time>
      </trkpt>
      <trkpt lat="45.77242" lon="4.63933">
        <ele>643.1</ele>
        <time>2013-04-18T10:52:52.790Z</time>
      </trkpt>
      <trkpt lat="45.77243" lon="4.63939">
        <ele>642.5</ele>
        <time>2013-04-18T10:52:54.590Z</time>
      </trkpt>
      <trkpt lat="45.77244" lon="4.63941">
        <ele>642.3</ele>
        <time>2013-04-18T10:52:55.690Z</time>
      </trkpt>
      <trkpt lat="45.77244" lon="4.63944">
        <ele>642</ele>
        <time>2013-04-18T10:52:56.690Z</time>
      </trkpt>
      <trkpt lat="45.77244" lon="4.63948">
        <ele>641.4</ele>
        <time>2013-04-18T10:52:57.690Z</time>
      </trkpt>
      <trkpt lat="45.77245" lon="4.63952">
        <ele>687</ele>
        <time>2013-04-18T10:52:58.680Z</time>
      </trkpt>
      <trkpt lat="45.77244" lon="4.63959">
        <ele>639.9</ele>
        <time>2013-04-18T10:53:00.590Z</time>
      </trkpt>
      <trkpt lat="45.77243" lon="4.6396">
        <ele>639.5</ele>
        <time>2013-04-18T10:53:01.790Z</time>
      </trkpt>
      <trkpt lat="45.77239" lon="4.63963">
        <ele>638.3</ele>
        <time>2013-04-18T10:53:03.680Z</time>
      </trkpt>
      <trkpt lat="45.77237" lon="4.63966">
        <ele>637.6</ele>
        <time>2013-04-18T10:53:04.680Z</time>
      </trkpt>
      <trkpt lat="45.77234" lon="4.63968">
        <ele>636.9</ele>
        <time>2013-04-18T10:53:05.680Z</time>
      </trkpt>
      <trkpt lat="45.77231" lon="4.63969">
        <ele>636.1</ele>
        <time>2013-04-18T10:53:06.680Z</time>
      </trkpt>
      <trkpt lat="45.77229" lon="4.6397">
        <ele>635.5</ele>
        <time>2013-04-18T10:53:07.680Z</time>
      </trkpt>
      <trkpt lat="45.77228" lon="4.63973">
        <ele>634.9</ele>
        <time>2013-04-18T10:53:08.680Z</time>
      </trkpt>
      <trkpt lat="45.77227" lon="4.63976">
        <ele>634.4</ele>
        <time>2013-04-18T10:53:09.680Z</time>
      </trkpt>
      <trkpt lat="45.77226" lon="4.63979">
        <ele>634</ele>
        <time>2013-04-18T10:53:10.680Z</time>
      </trkpt>
      <trkpt lat="45.77226" lon="4.63983">
        <ele>633.5</ele>
        <time>2013-04-18T10:53:11.680Z</time>
      </trkpt>
      <trkpt lat="45.77227" lon="4.63986">
        <ele>633.3</ele>
        <time>2013-04-18T10:53:12.680Z</time>
      </trkpt>
      <trkpt lat="45.77228" lon="4.6399">
        <ele>633.1</ele>
        <time>2013-04-18T10:53:13.680Z</time>
      </trkpt>
      <trkpt lat="45.77228" lon="4.63998">
        <ele>632.3</ele>
        <time>2013-04-18T10:53:15.680Z</time>
      </trkpt>
      <trkpt lat="45.77228" lon="4.64002">
        <ele>631.9</ele>
        <time>2013-04-18T10:53:16.630Z</time>
      </trkpt>
      <trkpt lat="45.77229" lon="4.64008">
        <ele>631.4</ele>
        <time>2013-04-18T10:53:17.680Z</time>
      </trkpt>
      <trkpt lat="45.7723" lon="4.64014">
        <ele>631</ele>
        <time>2013-04-18T10:53:18.680Z</time>
      </trkpt>
      <trkpt lat="45.77231" lon="4.64018">
        <ele>630.6</ele>
        <time>2013-04-18T10:53:19.680Z</time>
      </trkpt>
      <trkpt lat="45.77232" lon="4.64022">
        <ele>630.3</ele>
        <time>2013-04-18T10:53:20.780Z</time>
      </trkpt>
      <trkpt lat="45.77234" lon="4.64031">
        <ele>629.6</ele>
        <time>2013-04-18T10:53:22.780Z</time>
      </trkpt>
      <trkpt lat="45.77237" lon="4.6404">
        <ele>629</ele>
        <time>2013-04-18T10:53:24.680Z</time>
      </trkpt>
      <trkpt lat="45.77237" lon="4.64044">
        <ele>628.6</ele>
        <time>2013-04-18T10:53:25.680Z</time>
      </trkpt>
      <trkpt lat="45.77238" lon="4.64048">
        <ele>628.3</ele>
        <time>2013-04-18T10:53:26.660Z</time>
      </trkpt>
      <trkpt lat="45.77238" lon="4.64051">
        <ele>628</ele>
        <time>2013-04-18T10:53:27.680Z</time>
      </trkpt>
      <trkpt lat="45.77238" lon="4.64053">
        <ele>627.7</ele>
        <time>2013-04-18T10:53:28.680Z</time>
      </trkpt>
      <trkpt lat="45.77238" lon="4.64057">
        <ele>627.2</ele>
        <time>2013-04-18T10:53:29.680Z</time>
      </trkpt>
      <trkpt lat="45.77238" lon="4.64064">
        <ele>626.1</ele>
        <time>2013-04-18T10:53:31.580Z</time>
      </trkpt>
      <trkpt lat="45.77237" lon="4.64066">
        <ele>625.5</ele>
        <time>2013-04-18T10:53:32.580Z</time>
      </trkpt>
      <trkpt lat="45.77236" lon="4.64067">
        <ele>625.1</ele>
        <time>2013-04-18T10:53:33.730Z</time>
      </trkpt>
      <trkpt lat="45.77235" lon="4.64071">
        <ele>624.1</ele>
        <time>2013-04-18T10:53:35.580Z</time>
      </trkpt>
      <trkpt lat="45.77234" lon="4.64073">
        <ele>623.6</ele>
        <time>2013-04-18T10:53:36.580Z</time>
      </trkpt>
      <trkpt lat="45.77232" lon="4.64075">
        <ele>623.2</ele>
        <time>2013-04-18T10:53:37.580Z</time>
      </trkpt>
      <trkpt lat="45.77232" lon="4.64078">
        <ele>622.6</ele>
        <time>2013-04-18T10:53:38.580Z</time>
      </trkpt>
      <trkpt lat="45.77231" lon="4.6408">
        <ele>622.1</ele>
        <time>2013-04-18T10:53:39.560Z</time>
      </trkpt>
      <trkpt lat="45.77229" lon="4.64082">
        <ele>621.4</ele>
        <time>2013-04-18T10:53:40.580Z</time>
      </trkpt>
      <trkpt lat="45.77229" lon="4.64085">
        <ele>620.9</ele>
        <time>2013-04-18T10:53:41.580Z</time>
      </trkpt>
      <trkpt lat="45.77229" lon="4.64089">
        <ele>620.3</ele>
        <time>2013-04-18T10:53:42.780Z</time>
      </trkpt>
      <trkpt lat="45.77229" lon="4.64092">
        <ele>619.7</ele>
        <time>2013-04-18T10:53:43.770Z</time>
      </trkpt>
      <trkpt lat="45.77228" lon="4.64098">
        <ele>618.4</ele>
        <time>2013-04-18T10:53:45.670Z</time>
      </trkpt>
      <trkpt lat="45.77226" lon="4.64101">
        <ele>617.6</ele>
        <time>2013-04-18T10:53:46.670Z</time>
      </trkpt>
      <trkpt lat="45.77225" lon="4.64103">
        <ele>616.9</ele>
        <time>2013-04-18T10:53:47.670Z</time>
      </trkpt>
      <trkpt lat="45.77224" lon="4.64105">
        <ele>616.3</ele>
        <time>2013-04-18T10:53:48.670Z</time>
      </trkpt>
      <trkpt lat="45.77222" lon="4.64108">
        <ele>615.5</ele>
        <time>2013-04-18T10:53:49.670Z</time>
      </trkpt>
      <trkpt lat="45.77222" lon="4.64112">
        <ele>614.8</ele>
        <time>2013-04-18T10:53:50.630Z</time>
      </trkpt>
      <trkpt lat="45.77222" lon="4.64116">
        <ele>614.1</ele>
        <time>2013-04-18T10:53:51.670Z</time>
      </trkpt>
      <trkpt lat="45.77224" lon="4.64122">
        <ele>613.3</ele>
        <time>2013-04-18T10:53:52.570Z</time>
      </trkpt>
      <trkpt lat="45.77225" lon="4.64126">
        <ele>612.8</ele>
        <time>2013-04-18T10:53:53.670Z</time>
      </trkpt>
      <trkpt lat="45.77225" lon="4.64129">
        <ele>612.3</ele>
        <time>2013-04-18T10:53:54.670Z</time>
      </trkpt>
      <trkpt lat="45.77225" lon="4.64132">
        <ele>611.6</ele>
        <time>2013-04-18T10:53:55.670Z</time>
      </trkpt>
      <trkpt lat="45.77227" lon="4.64142">
        <ele>610</ele>
        <time>2013-04-18T10:53:57.570Z</time>
      </trkpt>
      <trkpt lat="45.77227" lon="4.64147">
        <ele>652.1</ele>
        <time>2013-04-18T10:53:58.570Z</time>
      </trkpt>
      <trkpt lat="45.77227" lon="4.64152">
        <ele>608.1</ele>
        <time>2013-04-18T10:53:59.620Z</time>
      </trkpt>
      <trkpt lat="45.77228" lon="4.64155">
        <ele>607.6</ele>
        <time>2013-04-18T10:54:00.670Z</time>
      </trkpt>
      <trkpt lat="45.77228" lon="4.64157">
        <ele>607.2</ele>
        <time>2013-04-18T10:54:01.670Z</time>
      </trkpt>
      <trkpt lat="45.77228" lon="4.64159">
        <ele>606.9</ele>
        <time>2013-04-18T10:54:02.670Z</time>
      </trkpt>
      <trkpt lat="45.77229" lon="4.64161">
        <ele>606.5</ele>
        <time>2013-04-18T10:54:04.670Z</time>
      </trkpt>
      <trkpt lat="45.7723" lon="4.64162">
        <ele>606.4</ele>
        <time>2013-04-18T10:54:05.670Z</time>
      </trkpt>
      <trkpt lat="45.77232" lon="4.64163">
        <ele>606.3</ele>
        <time>2013-04-18T10:54:06.670Z</time>
      </trkpt>
      <trkpt lat="45.77233" lon="4.64165">
        <ele>606.1</ele>
        <time>2013-04-18T10:54:08.570Z</time>
      </trkpt>
      <trkpt lat="45.77235" lon="4.64164">
        <ele>606.5</ele>
        <time>2013-04-18T10:54:10.770Z</time>
      </trkpt>
      <trkpt lat="45.77236" lon="4.64163">
        <ele>606.8</ele>
        <time>2013-04-18T10:54:11.770Z</time>
      </trkpt>
      <trkpt lat="45.7724" lon="4.64162">
        <ele>607.3</ele>
        <time>2013-04-18T10:54:13.570Z</time>
      </trkpt>
      <trkpt lat="45.77242" lon="4.64161">
        <ele>607.7</ele>
        <time>2013-04-18T10:54:14.770Z</time>
      </trkpt>
      <trkpt lat="45.77245" lon="4.64157">
        <ele>608.7</ele>
        <time>2013-04-18T10:54:16.570Z</time>
      </trkpt>
      <trkpt lat="45.77247" lon="4.64157">
        <ele>608.9</ele>
        <time>2013-04-18T10:54:18.670Z</time>
      </trkpt>
      <trkpt lat="45.77249" lon="4.64156">
        <ele>609.1</ele>
        <time>2013-04-18T10:54:19.670Z</time>
      </trkpt>
      <trkpt lat="45.7725" lon="4.64156">
        <ele>609.4</ele>
        <time>2013-04-18T10:54:20.670Z</time>
      </trkpt>
      <trkpt lat="45.77251" lon="4.64154">
        <ele>609.8</ele>
        <time>2013-04-18T10:54:21.670Z</time>
      </trkpt>
      <trkpt lat="45.77253" lon="4.64154">
        <ele>609.9</ele>
        <time>2013-04-18T10:54:22.670Z</time>
      </trkpt>
      <trkpt lat="45.77253" lon="4.64153">
        <ele>610.3</ele>
        <time>2013-04-18T10:54:23.670Z</time>
      </trkpt>
      <trkpt lat="45.77255" lon="4.64152">
        <ele>610.6</ele>
        <time>2013-04-18T10:54:24.660Z</time>
      </trkpt>
      <trkpt lat="45.77257" lon="4.64151">
        <ele>611</ele>
        <time>2013-04-18T10:54:26.660Z</time>
      </trkpt>
      <trkpt lat="45.77259" lon="4.6415">
        <ele>611.3</ele>
        <time>2013-04-18T10:54:27.670Z</time>
      </trkpt>
      <trkpt lat="45.7726" lon="4.6415">
        <ele>611.5</ele>
        <time>2013-04-18T10:54:28.660Z</time>
      </trkpt>
      <trkpt lat="45.77263" lon="4.6415">
        <ele>611.8</ele>
        <time>2013-04-18T10:54:29.670Z</time>
      </trkpt>
      <trkpt lat="45.77267" lon="4.64147">
        <ele>612.6</ele>
        <time>2013-04-18T10:54:31.760Z</time>
      </trkpt>
      <trkpt lat="45.77269" lon="4.64146">
        <ele>613</ele>
        <time>2013-04-18T10:54:32.760Z</time>
      </trkpt>
      <trkpt lat="45.77274" lon="4.64143">
        <ele>613.9</ele>
        <time>2013-04-18T10:54:34.660Z</time>
      </trkpt>
      <trkpt lat="45.77276" lon="4.64143">
        <ele>614.2</ele>
        <time>2013-04-18T10:54:35.660Z</time>
      </trkpt>
      <trkpt lat="45.77278" lon="4.64141">
        <ele>614.6</ele>
        <time>2013-04-18T10:54:36.660Z</time>
      </trkpt>
      <trkpt lat="45.77279" lon="4.64139">
        <ele>614.9</ele>
        <time>2013-04-18T10:54:37.660Z</time>
      </trkpt>
      <trkpt lat="45.77281" lon="4.64136">
        <ele>615.4</ele>
        <time>2013-04-18T10:54:38.660Z</time>
      </trkpt>
      <trkpt lat="45.77281" lon="4.64134">
        <ele>615.7</ele>
        <time>2013-04-18T10:54:39.660Z</time>
      </trkpt>
      <trkpt lat="45.77282" lon="4.64133">
        <ele>615.9</ele>
        <time>2013-04-18T10:54:40.660Z</time>
      </trkpt>
      <trkpt lat="45.77282" lon="4.64131">
        <ele>616.2</ele>
        <time>2013-04-18T10:54:41.660Z</time>
      </trkpt>
      <trkpt lat="45.77282" lon="4.6413">
        <ele>616.6</ele>
        <time>2013-04-18T10:54:42.660Z</time>
      </trkpt>
      <trkpt lat="45.77283" lon="4.64128">
        <ele>616.8</ele>
        <time>2013-04-18T10:54:43.660Z</time>
      </trkpt>
      <trkpt lat="45.77284" lon="4.64126">
        <ele>617.2</ele>
        <time>2013-04-18T10:54:44.760Z</time>
      </trkpt>
      <trkpt lat="45.77286" lon="4.64124">
        <ele>617.5</ele>
        <time>2013-04-18T10:54:45.760Z</time>
      </trkpt>
      <trkpt lat="45.77287" lon="4.64123">
        <ele>617.8</ele>
        <time>2013-04-18T10:54:46.760Z</time>
      </trkpt>
      <trkpt lat="45.77287" lon="4.64121">
        <ele>618.1</ele>
        <time>2013-04-18T10:54:48.760Z</time>
      </trkpt>
      <trkpt lat="45.77288" lon="4.64118">
        <ele>618.7</ele>
        <time>2013-04-18T10:54:50.710Z</time>
      </trkpt>
      <trkpt lat="45.77289" lon="4.64116">
        <ele>619.1</ele>
        <time>2013-04-18T10:54:51.760Z</time>
      </trkpt>
      <trkpt lat="45.77289" lon="4.64114">
        <ele>619.4</ele>
        <time>2013-04-18T10:54:52.760Z</time>
      </trkpt>
      <trkpt lat="45.77288" lon="4.64112">
        <ele>619.8</ele>
        <time>2013-04-18T10:54:53.760Z</time>
      </trkpt>
      <trkpt lat="45.77288" lon="4.64109">
        <ele>620.3</ele>
        <time>2013-04-18T10:54:54.760Z</time>
      </trkpt>
      <trkpt lat="45.77289" lon="4.64107">
        <ele>620.8</ele>
        <time>2013-04-18T10:54:55.760Z</time>
      </trkpt>
      <trkpt lat="45.7729" lon="4.64104">
        <ele>621.4</ele>
        <time>2013-04-18T10:54:56.740Z</time>
      </trkpt>
      <trkpt lat="45.7729" lon="4.64101">
        <ele>622</ele>
        <time>2013-04-18T10:54:57.760Z</time>
      </trkpt>
      <trkpt lat="45.7729" lon="4.64099">
        <ele>633.4</ele>
        <time>2013-04-18T10:54:58.750Z</time>
      </trkpt>
      <trkpt lat="45.77291" lon="4.64098">
        <ele>622.6</ele>
        <time>2013-04-18T10:54:59.710Z</time>
      </trkpt>
      <trkpt lat="45.77292" lon="4.64096">
        <ele>622.9</ele>
        <time>2013-04-18T10:55:00.760Z</time>
      </trkpt>
      <trkpt lat="45.77292" lon="4.64095">
        <ele>623.2</ele>
        <time>2013-04-18T10:55:01.760Z</time>
      </trkpt>
      <trkpt lat="45.77292" lon="4.64093">
        <ele>623.5</ele>
        <time>2013-04-18T10:55:02.760Z</time>
      </trkpt>
      <trkpt lat="45.77292" lon="4.64091">
        <ele>624.1</ele>
        <time>2013-04-18T10:55:04.750Z</time>
      </trkpt>
      <trkpt lat="45.77293" lon="4.64085">
        <ele>625.1</ele>
        <time>2013-04-18T10:55:06.650Z</time>
      </trkpt>
      <trkpt lat="45.77293" lon="4.64082">
        <ele>625.6</ele>
        <time>2013-04-18T10:55:07.640Z</time>
      </trkpt>
      <trkpt lat="45.77293" lon="4.6408">
        <ele>625.9</ele>
        <time>2013-04-18T10:55:08.650Z</time>
      </trkpt>
      <trkpt lat="45.77293" lon="4.64078">
        <ele>626.1</ele>
        <time>2013-04-18T10:55:09.650Z</time>
      </trkpt>
      <trkpt lat="45.77294" lon="4.64076">
        <ele>626.4</ele>
        <time>2013-04-18T10:55:10.750Z</time>
      </trkpt>
      <trkpt lat="45.77294" lon="4.64074">
        <ele>626.7</ele>
        <time>2013-04-18T10:55:11.750Z</time>
      </trkpt>
      <trkpt lat="45.77294" lon="4.64073">
        <ele>626.9</ele>
        <time>2013-04-18T10:55:12.750Z</time>
      </trkpt>
      <trkpt lat="45.77293" lon="4.64071">
        <ele>627.2</ele>
        <time>2013-04-18T10:55:13.750Z</time>
      </trkpt>
      <trkpt lat="45.77293" lon="4.64069">
        <ele>627.4</ele>
        <time>2013-04-18T10:55:14.750Z</time>
      </trkpt>
      <trkpt lat="45.77292" lon="4.64068">
        <ele>627.6</ele>
        <time>2013-04-18T10:55:15.750Z</time>
      </trkpt>
      <trkpt lat="45.77292" lon="4.64065">
        <ele>628.2</ele>
        <time>2013-04-18T10:55:17.750Z</time>
      </trkpt>
      <trkpt lat="45.77292" lon="4.64062">
        <ele>628.6</ele>
        <time>2013-04-18T10:55:18.750Z</time>
      </trkpt>
      <trkpt lat="45.77292" lon="4.6406">
        <ele>628.9</ele>
        <time>2013-04-18T10:55:19.750Z</time>
      </trkpt>
      <trkpt lat="45.77291" lon="4.64056">
        <ele>629.6</ele>
        <time>2013-04-18T10:55:21.650Z</time>
      </trkpt>
      <trkpt lat="45.7729" lon="4.64055">
        <ele>629.8</ele>
        <time>2013-04-18T10:55:22.650Z</time>
      </trkpt>
      <trkpt lat="45.77288" lon="4.64053">
        <ele>630.2</ele>
        <time>2013-04-18T10:55:24.650Z</time>
      </trkpt>
      <trkpt lat="45.77287" lon="4.64052">
        <ele>630.4</ele>
        <time>2013-04-18T10:55:25.650Z</time>
      </trkpt>
      <trkpt lat="45.77287" lon="4.6405">
        <ele>630.7</ele>
        <time>2013-04-18T10:55:27.650Z</time>
      </trkpt>
      <trkpt lat="45.77286" lon="4.64047">
        <ele>631.1</ele>
        <time>2013-04-18T10:55:29.660Z</time>
      </trkpt>
      <trkpt lat="45.77286" lon="4.64044">
        <ele>631.5</ele>
        <time>2013-04-18T10:55:30.650Z</time>
      </trkpt>
      <trkpt lat="45.77285" lon="4.64041">
        <ele>631.9</ele>
        <time>2013-04-18T10:55:31.650Z</time>
      </trkpt>
      <trkpt lat="45.77285" lon="4.64038">
        <ele>632.3</ele>
        <time>2013-04-18T10:55:32.650Z</time>
      </trkpt>
      <trkpt lat="45.77284" lon="4.64035">
        <ele>632.7</ele>
        <time>2013-04-18T10:55:33.600Z</time>
      </trkpt>
      <trkpt lat="45.77283" lon="4.64032">
        <ele>633.1</ele>
        <time>2013-04-18T10:55:34.630Z</time>
      </trkpt>
      <trkpt lat="45.77282" lon="4.64029">
        <ele>633.6</ele>
        <time>2013-04-18T10:55:35.650Z</time>
      </trkpt>
      <trkpt lat="45.77281" lon="4.64026">
        <ele>634</ele>
        <time>2013-04-18T10:55:36.650Z</time>
      </trkpt>
      <trkpt lat="45.77282" lon="4.64024">
        <ele>634.3</ele>
        <time>2013-04-18T10:55:37.650Z</time>
      </trkpt>
      <trkpt lat="45.77281" lon="4.64022">
        <ele>634.6</ele>
        <time>2013-04-18T10:55:38.650Z</time>
      </trkpt>
      <trkpt lat="45.7728" lon="4.64019">
        <ele>635.1</ele>
        <time>2013-04-18T10:55:39.650Z</time>
      </trkpt>
      <trkpt lat="45.7728" lon="4.64016">
        <ele>635.5</ele>
        <time>2013-04-18T10:55:40.650Z</time>
      </trkpt>
      <trkpt lat="45.7728" lon="4.64012">
        <ele>636.1</ele>
        <time>2013-04-18T10:55:41.650Z</time>
      </trkpt>
      <trkpt lat="45.77279" lon="4.6401">
        <ele>636.4</ele>
        <time>2013-04-18T10:55:42.650Z</time>
      </trkpt>
      <trkpt lat="45.77279" lon="4.64007">
        <ele>636.8</ele>
        <time>2013-04-18T10:55:43.650Z</time>
      </trkpt>
      <trkpt lat="45.7728" lon="4.64004">
        <ele>637.2</ele>
        <time>2013-04-18T10:55:44.650Z</time>
      </trkpt>
      <trkpt lat="45.7728" lon="4.64001">
        <ele>637.7</ele>
        <time>2013-04-18T10:55:45.640Z</time>
      </trkpt>
      <trkpt lat="45.7728" lon="4.63998">
        <ele>638</ele>
        <time>2013-04-18T10:55:46.640Z</time>
      </trkpt>
      <trkpt lat="45.7728" lon="4.63997">
        <ele>638.1</ele>
        <time>2013-04-18T10:55:47.630Z</time>
      </trkpt>
      <trkpt lat="45.77278" lon="4.63996">
        <ele>638.4</ele>
        <time>2013-04-18T10:55:48.640Z</time>
      </trkpt>
      <trkpt lat="45.77277" lon="4.63995">
        <ele>638.5</ele>
        <time>2013-04-18T10:55:49.640Z</time>
      </trkpt>
      <trkpt lat="45.77275" lon="4.63993">
        <ele>638.6</ele>
        <time>2013-04-18T10:55:51.640Z</time>
      </trkpt>
      <trkpt lat="45.77274" lon="4.6399">
        <ele>638.8</ele>
        <time>2013-04-18T10:55:52.640Z</time>
      </trkpt>
      <trkpt lat="45.77274" lon="4.63988">
        <ele>639</ele>
        <time>2013-04-18T10:55:53.640Z</time>
      </trkpt>
      <trkpt lat="45.77273" lon="4.63986">
        <ele>639.2</ele>
        <time>2013-04-18T10:55:54.640Z</time>
      </trkpt>
      <trkpt lat="45.77272" lon="4.63982">
        <ele>639.5</ele>
        <time>2013-04-18T10:55:55.640Z</time>
      </trkpt>
      <trkpt lat="45.77272" lon="4.63979">
        <ele>639.9</ele>
        <time>2013-04-18T10:55:56.640Z</time>
      </trkpt>
      <trkpt lat="45.77272" lon="4.63976">
        <ele>640.1</ele>
        <time>2013-04-18T10:55:57.640Z</time>
      </trkpt>
      <trkpt lat="45.77271" lon="4.63974">
        <ele>637.2</ele>
        <time>2013-04-18T10:55:58.640Z</time>
      </trkpt>
      <trkpt lat="45.77271" lon="4.63972">
        <ele>640.5</ele>
        <time>2013-04-18T10:55:59.590Z</time>
      </trkpt>
      <trkpt lat="45.77271" lon="4.63971">
        <ele>640.7</ele>
        <time>2013-04-18T10:56:00.740Z</time>
      </trkpt>
      <trkpt lat="45.77271" lon="4.63969">
        <ele>641</ele>
        <time>2013-04-18T10:56:01.740Z</time>
      </trkpt>
      <trkpt lat="45.77271" lon="4.63967">
        <ele>641.3</ele>
        <time>2013-04-18T10:56:02.740Z</time>
      </trkpt>
      <trkpt lat="45.77271" lon="4.63964">
        <ele>641.7</ele>
        <time>2013-04-18T10:56:03.740Z</time>
      </trkpt>
      <trkpt lat="45.77271" lon="4.6396">
        <ele>642.2</ele>
        <time>2013-04-18T10:56:04.740Z</time>
      </trkpt>
      <trkpt lat="45.77271" lon="4.63957">
        <ele>642.8</ele>
        <time>2013-04-18T10:56:05.740Z</time>
      </trkpt>
      <trkpt lat="45.7727" lon="4.63954">
        <ele>643.1</ele>
        <time>2013-04-18T10:56:06.740Z</time>
      </trkpt>
      <trkpt lat="45.7727" lon="4.63952">
        <ele>643.4</ele>
        <time>2013-04-18T10:56:07.740Z</time>
      </trkpt>
      <trkpt lat="45.7727" lon="4.6395">
        <ele>643.7</ele>
        <time>2013-04-18T10:56:08.740Z</time>
      </trkpt>
      <trkpt lat="45.77269" lon="4.63947">
        <ele>644</ele>
        <time>2013-04-18T10:56:09.740Z</time>
      </trkpt>
      <trkpt lat="45.77269" lon="4.63945">
        <ele>644.3</ele>
        <time>2013-04-18T10:56:10.740Z</time>
      </trkpt>
      <trkpt lat="45.77269" lon="4.63939">
        <ele>644.9</ele>
        <time>2013-04-18T10:56:12.640Z</time>
      </trkpt>
      <trkpt lat="45.77269" lon="4.63935">
        <ele>645.3</ele>
        <time>2013-04-18T10:56:13.640Z</time>
      </trkpt>
      <trkpt lat="45.7727" lon="4.63932">
        <ele>645.5</ele>
        <time>2013-04-18T10:56:14.640Z</time>
      </trkpt>
      <trkpt lat="45.7727" lon="4.6393">
        <ele>645.7</ele>
        <time>2013-04-18T10:56:15.640Z</time>
      </trkpt>
      <trkpt lat="45.77271" lon="4.63928">
        <ele>646</ele>
        <time>2013-04-18T10:56:16.590Z</time>
      </trkpt>
      <trkpt lat="45.77271" lon="4.63926">
        <ele>646.2</ele>
        <time>2013-04-18T10:56:17.640Z</time>
      </trkpt>
      <trkpt lat="45.77272" lon="4.63923">
        <ele>646.5</ele>
        <time>2013-04-18T10:56:18.640Z</time>
      </trkpt>
      <trkpt lat="45.77273" lon="4.6392">
        <ele>646.7</ele>
        <time>2013-04-18T10:56:19.640Z</time>
      </trkpt>
      <trkpt lat="45.77272" lon="4.63918">
        <ele>646.9</ele>
        <time>2013-04-18T10:56:20.640Z</time>
      </trkpt>
      <trkpt lat="45.77272" lon="4.63915">
        <ele>647.2</ele>
        <time>2013-04-18T10:56:21.640Z</time>
      </trkpt>
      <trkpt lat="45.77272" lon="4.63913">
        <ele>647.4</ele>
        <time>2013-04-18T10:56:22.640Z</time>
      </trkpt>
      <trkpt lat="45.77271" lon="4.63911">
        <ele>647.6</ele>
        <time>2013-04-18T10:56:23.640Z</time>
      </trkpt>
      <trkpt lat="45.77271" lon="4.63909">
        <ele>647.9</ele>
        <time>2013-04-18T10:56:24.620Z</time>
      </trkpt>
      <trkpt lat="45.7727" lon="4.63906">
        <ele>648.2</ele>
        <time>2013-04-18T10:56:25.640Z</time>
      </trkpt>
      <trkpt lat="45.7727" lon="4.63903">
        <ele>648.5</ele>
        <time>2013-04-18T10:56:26.630Z</time>
      </trkpt>
      <trkpt lat="45.77268" lon="4.63899">
        <ele>648.9</ele>
        <time>2013-04-18T10:56:27.640Z</time>
      </trkpt>
      <trkpt lat="45.77268" lon="4.63897">
        <ele>649.2</ele>
        <time>2013-04-18T10:56:28.630Z</time>
      </trkpt>
      <trkpt lat="45.77267" lon="4.63894">
        <ele>649.4</ele>
        <time>2013-04-18T10:56:29.630Z</time>
      </trkpt>
      <trkpt lat="45.77266" lon="4.63891">
        <ele>649.7</ele>
        <time>2013-04-18T10:56:30.630Z</time>
      </trkpt>
      <trkpt lat="45.77265" lon="4.63889">
        <ele>650</ele>
        <time>2013-04-18T10:56:31.630Z</time>
      </trkpt>
      <trkpt lat="45.77264" lon="4.63887">
        <ele>650.2</ele>
        <time>2013-04-18T10:56:32.630Z</time>
      </trkpt>
      <trkpt lat="45.77262" lon="4.63883">
        <ele>650.5</ele>
        <time>2013-04-18T10:56:33.590Z</time>
      </trkpt>
      <trkpt lat="45.77261" lon="4.6388">
        <ele>650.9</ele>
        <time>2013-04-18T10:56:34.630Z</time>
      </trkpt>
      <trkpt lat="45.77261" lon="4.63877">
        <ele>651.2</ele>
        <time>2013-04-18T10:56:35.630Z</time>
      </trkpt>
      <trkpt lat="45.7726" lon="4.63875">
        <ele>651.3</ele>
        <time>2013-04-18T10:56:36.630Z</time>
      </trkpt>
      <trkpt lat="45.7726" lon="4.63873">
        <ele>651.5</ele>
        <time>2013-04-18T10:56:37.630Z</time>
      </trkpt>
      <trkpt lat="45.7726" lon="4.63869">
        <ele>651.9</ele>
        <time>2013-04-18T10:56:38.730Z</time>
      </trkpt>
      <trkpt lat="45.7726" lon="4.63866">
        <ele>652.2</ele>
        <time>2013-04-18T10:56:39.730Z</time>
      </trkpt>
      <trkpt lat="45.7726" lon="4.63864">
        <ele>652.3</ele>
        <time>2013-04-18T10:56:40.730Z</time>
      </trkpt>
      <trkpt lat="45.77261" lon="4.63862">
        <ele>652.5</ele>
        <time>2013-04-18T10:56:41.730Z</time>
      </trkpt>
      <trkpt lat="45.7726" lon="4.63859">
        <ele>652.9</ele>
        <time>2013-04-18T10:56:42.730Z</time>
      </trkpt>
      <trkpt lat="45.7726" lon="4.63854">
        <ele>653.4</ele>
        <time>2013-04-18T10:56:43.730Z</time>
      </trkpt>
      <trkpt lat="45.7726" lon="4.6385">
        <ele>653.8</ele>
        <time>2013-04-18T10:56:44.730Z</time>
      </trkpt>
      <trkpt lat="45.77259" lon="4.63846">
        <ele>654.3</ele>
        <time>2013-04-18T10:56:45.730Z</time>
      </trkpt>
      <trkpt lat="45.77259" lon="4.63843">
        <ele>654.7</ele>
        <time>2013-04-18T10:56:46.730Z</time>
      </trkpt>
      <trkpt lat="45.77258" lon="4.63839">
        <ele>655.1</ele>
        <time>2013-04-18T10:56:47.730Z</time>
      </trkpt>
      <trkpt lat="45.77258" lon="4.63836">
        <ele>655.4</ele>
        <time>2013-04-18T10:56:48.730Z</time>
      </trkpt>
      <trkpt lat="45.77257" lon="4.63834">
        <ele>655.7</ele>
        <time>2013-04-18T10:56:49.730Z</time>
      </trkpt>
      <trkpt lat="45.77254" lon="4.63828">
        <ele>656.7</ele>
        <time>2013-04-18T10:56:51.730Z</time>
      </trkpt>
      <trkpt lat="45.77254" lon="4.63825">
        <ele>657.1</ele>
        <time>2013-04-18T10:56:52.730Z</time>
      </trkpt>
      <trkpt lat="45.77255" lon="4.63822">
        <ele>657.5</ele>
        <time>2013-04-18T10:56:53.730Z</time>
      </trkpt>
      <trkpt lat="45.77256" lon="4.6382">
        <ele>657.8</ele>
        <time>2013-04-18T10:56:54.730Z</time>
      </trkpt>
      <trkpt lat="45.77258" lon="4.63818">
        <ele>657.9</ele>
        <time>2013-04-18T10:56:55.730Z</time>
      </trkpt>
      <trkpt lat="45.7726" lon="4.63817">
        <ele>658</ele>
        <time>2013-04-18T10:56:56.730Z</time>
      </trkpt>
      <trkpt lat="45.77263" lon="4.63816">
        <ele>658</ele>
        <time>2013-04-18T10:56:57.730Z</time>
      </trkpt>
      <trkpt lat="45.77264" lon="4.63816">
        <ele>654.7</ele>
        <time>2013-04-18T10:56:58.730Z</time>
      </trkpt>
      <trkpt lat="45.77266" lon="4.63816">
        <ele>657.9</ele>
        <time>2013-04-18T10:56:59.580Z</time>
      </trkpt>
      <trkpt lat="45.77268" lon="4.63815">
        <ele>658</ele>
        <time>2013-04-18T10:57:00.610Z</time>
      </trkpt>
      <trkpt lat="45.7727" lon="4.63816">
        <ele>657.8</ele>
        <time>2013-04-18T10:57:01.630Z</time>
      </trkpt>
      <trkpt lat="45.77273" lon="4.63818">
        <ele>657.4</ele>
        <time>2013-04-18T10:57:02.630Z</time>
      </trkpt>
      <trkpt lat="45.77277" lon="4.63818">
        <ele>657.3</ele>
        <time>2013-04-18T10:57:03.630Z</time>
      </trkpt>
      <trkpt lat="45.7728" lon="4.63819">
        <ele>657</ele>
        <time>2013-04-18T10:57:04.630Z</time>
      </trkpt>
      <trkpt lat="45.77283" lon="4.6382">
        <ele>656.8</ele>
        <time>2013-04-18T10:57:05.630Z</time>
      </trkpt>
      <trkpt lat="45.77286" lon="4.63821">
        <ele>656.5</ele>
        <time>2013-04-18T10:57:06.630Z</time>
      </trkpt>
      <trkpt lat="45.77289" lon="4.63822">
        <ele>656.3</ele>
        <time>2013-04-18T10:57:07.620Z</time>
      </trkpt>
      <trkpt lat="45.77292" lon="4.63823">
        <ele>656</ele>
        <time>2013-04-18T10:57:08.620Z</time>
      </trkpt>
      <trkpt lat="45.77294" lon="4.63825">
        <ele>655.6</ele>
        <time>2013-04-18T10:57:09.620Z</time>
      </trkpt>
      <trkpt lat="45.77297" lon="4.63828">
        <ele>655.1</ele>
        <time>2013-04-18T10:57:10.620Z</time>
      </trkpt>
      <trkpt lat="45.773" lon="4.6383">
        <ele>654.7</ele>
        <time>2013-04-18T10:57:11.600Z</time>
      </trkpt>
      <trkpt lat="45.77303" lon="4.63832">
        <ele>654.3</ele>
        <time>2013-04-18T10:57:12.620Z</time>
      </trkpt>
      <trkpt lat="45.77306" lon="4.63834">
        <ele>653.9</ele>
        <time>2013-04-18T10:57:13.620Z</time>
      </trkpt>
      <trkpt lat="45.77309" lon="4.63836">
        <ele>653.3</ele>
        <time>2013-04-18T10:57:14.620Z</time>
      </trkpt>
      <trkpt lat="45.77313" lon="4.63839">
        <ele>652.7</ele>
        <time>2013-04-18T10:57:15.620Z</time>
      </trkpt>
      <trkpt lat="45.77316" lon="4.6384">
        <ele>652.3</ele>
        <time>2013-04-18T10:57:16.680Z</time>
      </trkpt>
      <trkpt lat="45.77322" lon="4.63841">
        <ele>651.6</ele>
        <time>2013-04-18T10:57:18.620Z</time>
      </trkpt>
      <trkpt lat="45.77325" lon="4.63841">
        <ele>651.3</ele>
        <time>2013-04-18T10:57:19.620Z</time>
      </trkpt>
      <trkpt lat="45.77327" lon="4.63841">
        <ele>651.1</ele>
        <time>2013-04-18T10:57:20.620Z</time>
      </trkpt>
      <trkpt lat="45.7733" lon="4.63841">
        <ele>650.8</ele>
        <time>2013-04-18T10:57:21.620Z</time>
      </trkpt>
      <trkpt lat="45.77332" lon="4.6384">
        <ele>650.7</ele>
        <time>2013-04-18T10:57:22.620Z</time>
      </trkpt>
      <trkpt lat="45.77334" lon="4.63839">
        <ele>650.5</ele>
        <time>2013-04-18T10:57:23.600Z</time>
      </trkpt>
      <trkpt lat="45.77335" lon="4.63839">
        <ele>650.3</ele>
        <time>2013-04-18T10:57:24.620Z</time>
      </trkpt>
      <trkpt lat="45.77338" lon="4.63839">
        <ele>650</ele>
        <time>2013-04-18T10:57:25.620Z</time>
      </trkpt>
      <trkpt lat="45.7734" lon="4.63837">
        <ele>649.7</ele>
        <time>2013-04-18T10:57:26.720Z</time>
      </trkpt>
      <trkpt lat="45.77343" lon="4.63836">
        <ele>649.4</ele>
        <time>2013-04-18T10:57:27.720Z</time>
      </trkpt>
      <trkpt lat="45.77346" lon="4.63834">
        <ele>649.1</ele>
        <time>2013-04-18T10:57:28.720Z</time>
      </trkpt>
      <trkpt lat="45.77349" lon="4.63833">
        <ele>648.7</ele>
        <time>2013-04-18T10:57:29.720Z</time>
      </trkpt>
      <trkpt lat="45.77352" lon="4.63831">
        <ele>648.5</ele>
        <time>2013-04-18T10:57:30.720Z</time>
      </trkpt>
      <trkpt lat="45.77355" lon="4.63829">
        <ele>648.2</ele>
        <time>2013-04-18T10:57:31.720Z</time>
      </trkpt>
      <trkpt lat="45.77359" lon="4.63826">
        <ele>647.9</ele>
        <time>2013-04-18T10:57:32.720Z</time>
      </trkpt>
      <trkpt lat="45.77364" lon="4.63822">
        <ele>647.2</ele>
        <time>2013-04-18T10:57:34.620Z</time>
      </trkpt>
      <trkpt lat="45.77368" lon="4.63819">
        <ele>646.7</ele>
        <time>2013-04-18T10:57:35.600Z</time>
      </trkpt>
      <trkpt lat="45.77371" lon="4.63817">
        <ele>646.3</ele>
        <time>2013-04-18T10:57:36.620Z</time>
      </trkpt>
      <trkpt lat="45.77373" lon="4.63814">
        <ele>645.9</ele>
        <time>2013-04-18T10:57:37.620Z</time>
      </trkpt>
      <trkpt lat="45.77376" lon="4.63811">
        <ele>645.4</ele>
        <time>2013-04-18T10:57:38.620Z</time>
      </trkpt>
      <trkpt lat="45.77379" lon="4.63809">
        <ele>645</ele>
        <time>2013-04-18T10:57:39.620Z</time>
      </trkpt>
      <trkpt lat="45.77382" lon="4.63807">
        <ele>644.4</ele>
        <time>2013-04-18T10:57:40.620Z</time>
      </trkpt>
      <trkpt lat="45.77385" lon="4.63805">
        <ele>643.9</ele>
        <time>2013-04-18T10:57:41.620Z</time>
      </trkpt>
      <trkpt lat="45.77387" lon="4.63803">
        <ele>643.6</ele>
        <time>2013-04-18T10:57:42.620Z</time>
      </trkpt>
      <trkpt lat="45.7739" lon="4.63803">
        <ele>643.1</ele>
        <time>2013-04-18T10:57:43.620Z</time>
      </trkpt>
      <trkpt lat="45.77393" lon="4.63804">
        <ele>642.6</ele>
        <time>2013-04-18T10:57:44.620Z</time>
      </trkpt>
      <trkpt lat="45.77395" lon="4.63805">
        <ele>642.2</ele>
        <time>2013-04-18T10:57:45.620Z</time>
      </trkpt>
      <trkpt lat="45.77397" lon="4.63805">
        <ele>641.9</ele>
        <time>2013-04-18T10:57:46.610Z</time>
      </trkpt>
      <trkpt lat="45.77398" lon="4.63804">
        <ele>641.8</ele>
        <time>2013-04-18T10:57:47.720Z</time>
      </trkpt>
      <trkpt lat="45.77401" lon="4.63802">
        <ele>641.5</ele>
        <time>2013-04-18T10:57:48.710Z</time>
      </trkpt>
      <trkpt lat="45.77403" lon="4.638">
        <ele>641.1</ele>
        <time>2013-04-18T10:57:49.710Z</time>
      </trkpt>
      <trkpt lat="45.77409" lon="4.63794">
        <ele>640.3</ele>
        <time>2013-04-18T10:57:51.710Z</time>
      </trkpt>
      <trkpt lat="45.77412" lon="4.63791">
        <ele>639.8</ele>
        <time>2013-04-18T10:57:52.710Z</time>
      </trkpt>
      <trkpt lat="45.77415" lon="4.63789">
        <ele>639.3</ele>
        <time>2013-04-18T10:57:53.710Z</time>
      </trkpt>
      <trkpt lat="45.77419" lon="4.63787">
        <ele>638.9</ele>
        <time>2013-04-18T10:57:54.710Z</time>
      </trkpt>
      <trkpt lat="45.77422" lon="4.63786">
        <ele>638.7</ele>
        <time>2013-04-18T10:57:55.710Z</time>
      </trkpt>
      <trkpt lat="45.77426" lon="4.63785">
        <ele>638.5</ele>
        <time>2013-04-18T10:57:56.710Z</time>
      </trkpt>
      <trkpt lat="45.77429" lon="4.63783">
        <ele>638.3</ele>
        <time>2013-04-18T10:57:57.710Z</time>
      </trkpt>
      <trkpt lat="45.77432" lon="4.63782">
        <ele>658.8</ele>
        <time>2013-04-18T10:57:58.690Z</time>
      </trkpt>
      <trkpt lat="45.77435" lon="4.6378">
        <ele>637.8</ele>
        <time>2013-04-18T10:57:59.580Z</time>
      </trkpt>
      <trkpt lat="45.77438" lon="4.63779">
        <ele>637.5</ele>
        <time>2013-04-18T10:58:00.710Z</time>
      </trkpt>
      <trkpt lat="45.77441" lon="4.63777">
        <ele>637.2</ele>
        <time>2013-04-18T10:58:01.710Z</time>
      </trkpt>
      <trkpt lat="45.77444" lon="4.63776">
        <ele>636.7</ele>
        <time>2013-04-18T10:58:02.710Z</time>
      </trkpt>
      <trkpt lat="45.77447" lon="4.63774">
        <ele>636.1</ele>
        <time>2013-04-18T10:58:03.710Z</time>
      </trkpt>
      <trkpt lat="45.77449" lon="4.63772">
        <ele>635.5</ele>
        <time>2013-04-18T10:58:04.710Z</time>
      </trkpt>
      <trkpt lat="45.77452" lon="4.63769">
        <ele>634.6</ele>
        <time>2013-04-18T10:58:06.610Z</time>
      </trkpt>
      <trkpt lat="45.77454" lon="4.63769">
        <ele>634.4</ele>
        <time>2013-04-18T10:58:07.610Z</time>
      </trkpt>
      <trkpt lat="45.77456" lon="4.63771">
        <ele>634.4</ele>
        <time>2013-04-18T10:58:08.610Z</time>
      </trkpt>
      <trkpt lat="45.77458" lon="4.63772">
        <ele>634.3</ele>
        <time>2013-04-18T10:58:09.690Z</time>
      </trkpt>
      <trkpt lat="45.7746" lon="4.63775">
        <ele>634.4</ele>
        <time>2013-04-18T10:58:10.710Z</time>
      </trkpt>
      <trkpt lat="45.77463" lon="4.63777">
        <ele>634.3</ele>
        <time>2013-04-18T10:58:11.710Z</time>
      </trkpt>
      <trkpt lat="45.77466" lon="4.63779">
        <ele>634</ele>
        <time>2013-04-18T10:58:12.710Z</time>
      </trkpt>
      <trkpt lat="45.77469" lon="4.63781">
        <ele>633.6</ele>
        <time>2013-04-18T10:58:13.720Z</time>
      </trkpt>
      <trkpt lat="45.77475" lon="4.63784">
        <ele>632.3</ele>
        <time>2013-04-18T10:58:15.610Z</time>
      </trkpt>
      <trkpt lat="45.77478" lon="4.63786">
        <ele>631.7</ele>
        <time>2013-04-18T10:58:16.660Z</time>
      </trkpt>
      <trkpt lat="45.7748" lon="4.63788">
        <ele>631.2</ele>
        <time>2013-04-18T10:58:17.710Z</time>
      </trkpt>
      <trkpt lat="45.77481" lon="4.63791">
        <ele>630.9</ele>
        <time>2013-04-18T10:58:18.710Z</time>
      </trkpt>
      <trkpt lat="45.77484" lon="4.63792">
        <ele>630.2</ele>
        <time>2013-04-18T10:58:19.710Z</time>
      </trkpt>
      <trkpt lat="45.77486" lon="4.63792">
        <ele>629.6</ele>
        <time>2013-04-18T10:58:20.710Z</time>
      </trkpt>
      <trkpt lat="45.77488" lon="4.63792">
        <ele>629</ele>
        <time>2013-04-18T10:58:21.710Z</time>
      </trkpt>
      <trkpt lat="45.77491" lon="4.63792">
        <ele>628.2</ele>
        <time>2013-04-18T10:58:22.690Z</time>
      </trkpt>
      <trkpt lat="45.77494" lon="4.63794">
        <ele>627.3</ele>
        <time>2013-04-18T10:58:23.710Z</time>
      </trkpt>
      <trkpt lat="45.77498" lon="4.63796">
        <ele>626.3</ele>
        <time>2013-04-18T10:58:24.710Z</time>
      </trkpt>
      <trkpt lat="45.77503" lon="4.638">
        <ele>624.7</ele>
        <time>2013-04-18T10:58:26.610Z</time>
      </trkpt>
      <trkpt lat="45.77505" lon="4.63802">
        <ele>624.1</ele>
        <time>2013-04-18T10:58:27.610Z</time>
      </trkpt>
      <trkpt lat="45.77508" lon="4.63804">
        <ele>623.4</ele>
        <time>2013-04-18T10:58:28.600Z</time>
      </trkpt>
      <trkpt lat="45.7751" lon="4.63804">
        <ele>622.7</ele>
        <time>2013-04-18T10:58:29.600Z</time>
      </trkpt>
      <trkpt lat="45.77511" lon="4.63803">
        <ele>622.2</ele>
        <time>2013-04-18T10:58:30.700Z</time>
      </trkpt>
      <trkpt lat="45.77513" lon="4.63804">
        <ele>621.7</ele>
        <time>2013-04-18T10:58:31.700Z</time>
      </trkpt>
      <trkpt lat="45.77516" lon="4.63806">
        <ele>620.8</ele>
        <time>2013-04-18T10:58:32.700Z</time>
      </trkpt>
      <trkpt lat="45.77522" lon="4.63808">
        <ele>618.9</ele>
        <time>2013-04-18T10:58:34.680Z</time>
      </trkpt>
      <trkpt lat="45.77525" lon="4.63808">
        <ele>618.1</ele>
        <time>2013-04-18T10:58:35.700Z</time>
      </trkpt>
      <trkpt lat="45.77528" lon="4.63809">
        <ele>617.2</ele>
        <time>2013-04-18T10:58:36.700Z</time>
      </trkpt>
      <trkpt lat="45.77531" lon="4.63809">
        <ele>616.3</ele>
        <time>2013-04-18T10:58:37.700Z</time>
      </trkpt>
      <trkpt lat="45.77533" lon="4.6381">
        <ele>615.5</ele>
        <time>2013-04-18T10:58:38.700Z</time>
      </trkpt>
      <trkpt lat="45.77537" lon="4.63812">
        <ele>614.2</ele>
        <time>2013-04-18T10:58:40.600Z</time>
      </trkpt>
      <trkpt lat="45.77539" lon="4.63814">
        <ele>613.5</ele>
        <time>2013-04-18T10:58:41.600Z</time>
      </trkpt>
      <trkpt lat="45.77541" lon="4.63816">
        <ele>613</ele>
        <time>2013-04-18T10:58:42.600Z</time>
      </trkpt>
      <trkpt lat="45.77544" lon="4.63819">
        <ele>612.4</ele>
        <time>2013-04-18T10:58:43.600Z</time>
      </trkpt>
      <trkpt lat="45.77546" lon="4.63822">
        <ele>611.6</ele>
        <time>2013-04-18T10:58:44.600Z</time>
      </trkpt>
      <trkpt lat="45.77549" lon="4.63826">
        <ele>610.7</ele>
        <time>2013-04-18T10:58:45.600Z</time>
      </trkpt>
      <trkpt lat="45.77555" lon="4.63834">
        <ele>609.3</ele>
        <time>2013-04-18T10:58:47.600Z</time>
      </trkpt>
      <trkpt lat="45.77557" lon="4.63838">
        <ele>608.6</ele>
        <time>2013-04-18T10:58:48.600Z</time>
      </trkpt>
      <trkpt lat="45.77558" lon="4.6384">
        <ele>608.2</ele>
        <time>2013-04-18T10:58:49.600Z</time>
      </trkpt>
      <trkpt lat="45.7756" lon="4.63843">
        <ele>607.9</ele>
        <time>2013-04-18T10:58:50.550Z</time>
      </trkpt>
      <trkpt lat="45.77562" lon="4.63844">
        <ele>607.4</ele>
        <time>2013-04-18T10:58:51.600Z</time>
      </trkpt>
      <trkpt lat="45.77564" lon="4.63844">
        <ele>606.9</ele>
        <time>2013-04-18T10:58:52.600Z</time>
      </trkpt>
      <trkpt lat="45.77568" lon="4.63843">
        <ele>606.1</ele>
        <time>2013-04-18T10:58:53.600Z</time>
      </trkpt>
      <trkpt lat="45.77573" lon="4.63843">
        <ele>605.1</ele>
        <time>2013-04-18T10:58:54.600Z</time>
      </trkpt>
      <trkpt lat="45.77577" lon="4.63844">
        <ele>604.4</ele>
        <time>2013-04-18T10:58:55.700Z</time>
      </trkpt>
      <trkpt lat="45.77579" lon="4.63846">
        <ele>603.8</ele>
        <time>2013-04-18T10:58:56.700Z</time>
      </trkpt>
      <trkpt lat="45.77582" lon="4.63848">
        <ele>603.2</ele>
        <time>2013-04-18T10:58:57.680Z</time>
      </trkpt>
      <trkpt lat="45.77585" lon="4.6385">
        <ele>632.6</ele>
        <time>2013-04-18T10:58:58.700Z</time>
      </trkpt>
      <trkpt lat="45.77589" lon="4.63852">
        <ele>602.6</ele>
        <time>2013-04-18T10:58:59.650Z</time>
      </trkpt>
      <trkpt lat="45.77592" lon="4.63854">
        <ele>602.5</ele>
        <time>2013-04-18T10:59:00.700Z</time>
      </trkpt>
      <trkpt lat="45.77595" lon="4.63855">
        <ele>602.3</ele>
        <time>2013-04-18T10:59:01.700Z</time>
      </trkpt>
      <trkpt lat="45.77597" lon="4.63857">
        <ele>602.3</ele>
        <time>2013-04-18T10:59:02.700Z</time>
      </trkpt>
      <trkpt lat="45.776" lon="4.63859">
        <ele>602.3</ele>
        <time>2013-04-18T10:59:03.700Z</time>
      </trkpt>
      <trkpt lat="45.77602" lon="4.63861">
        <ele>602.3</ele>
        <time>2013-04-18T10:59:04.700Z</time>
      </trkpt>
      <trkpt lat="45.77608" lon="4.63866">
        <ele>601.9</ele>
        <time>2013-04-18T10:59:06.600Z</time>
      </trkpt>
      <trkpt lat="45.77611" lon="4.63868">
        <ele>601.8</ele>
        <time>2013-04-18T10:59:07.580Z</time>
      </trkpt>
      <trkpt lat="45.77617" lon="4.63872">
        <ele>601.8</ele>
        <time>2013-04-18T10:59:09.700Z</time>
      </trkpt>
      <trkpt lat="45.77619" lon="4.63874">
        <ele>601.8</ele>
        <time>2013-04-18T10:59:10.690Z</time>
      </trkpt>
      <trkpt lat="45.77622" lon="4.63875">
        <ele>601.9</ele>
        <time>2013-04-18T10:59:11.690Z</time>
      </trkpt>
      <trkpt lat="45.77625" lon="4.63877">
        <ele>602</ele>
        <time>2013-04-18T10:59:12.690Z</time>
      </trkpt>
      <trkpt lat="45.7763" lon="4.63879">
        <ele>602.2</ele>
        <time>2013-04-18T10:59:13.690Z</time>
      </trkpt>
      <trkpt lat="45.7764" lon="4.63883">
        <ele>602.8</ele>
        <time>2013-04-18T10:59:15.790Z</time>
      </trkpt>
      <trkpt lat="45.77648" lon="4.63885">
        <ele>603.5</ele>
        <time>2013-04-18T10:59:17.690Z</time>
      </trkpt>
      <trkpt lat="45.77651" lon="4.63887">
        <ele>603.8</ele>
        <time>2013-04-18T10:59:18.690Z</time>
      </trkpt>
      <trkpt lat="45.77655" lon="4.63889">
        <ele>604.1</ele>
        <time>2013-04-18T10:59:19.690Z</time>
      </trkpt>
      <trkpt lat="45.77663" lon="4.63894">
        <ele>604.6</ele>
        <time>2013-04-18T10:59:21.590Z</time>
      </trkpt>
      <trkpt lat="45.77666" lon="4.63897">
        <ele>604.9</ele>
        <time>2013-04-18T10:59:22.590Z</time>
      </trkpt>
      <trkpt lat="45.7767" lon="4.63899">
        <ele>605</ele>
        <time>2013-04-18T10:59:23.590Z</time>
      </trkpt>
      <trkpt lat="45.77675" lon="4.639">
        <ele>605.1</ele>
        <time>2013-04-18T10:59:24.690Z</time>
      </trkpt>
      <trkpt lat="45.77678" lon="4.63902">
        <ele>605.2</ele>
        <time>2013-04-18T10:59:25.690Z</time>
      </trkpt>
      <trkpt lat="45.77682" lon="4.63906">
        <ele>605.3</ele>
        <time>2013-04-18T10:59:26.690Z</time>
      </trkpt>
      <trkpt lat="45.77685" lon="4.63908">
        <ele>605.5</ele>
        <time>2013-04-18T10:59:27.690Z</time>
      </trkpt>
      <trkpt lat="45.77687" lon="4.6391">
        <ele>605.6</ele>
        <time>2013-04-18T10:59:28.690Z</time>
      </trkpt>
      <trkpt lat="45.7769" lon="4.63912">
        <ele>605.7</ele>
        <time>2013-04-18T10:59:29.790Z</time>
      </trkpt>
      <trkpt lat="45.77696" lon="4.63916">
        <ele>605.9</ele>
        <time>2013-04-18T10:59:31.590Z</time>
      </trkpt>
      <trkpt lat="45.77699" lon="4.63918">
        <ele>605.8</ele>
        <time>2013-04-18T10:59:32.590Z</time>
      </trkpt>
      <trkpt lat="45.77702" lon="4.63919">
        <ele>605.6</ele>
        <time>2013-04-18T10:59:33.640Z</time>
      </trkpt>
      <trkpt lat="45.77705" lon="4.63921">
        <ele>605.3</ele>
        <time>2013-04-18T10:59:34.690Z</time>
      </trkpt>
      <trkpt lat="45.77708" lon="4.63923">
        <ele>605</ele>
        <time>2013-04-18T10:59:35.690Z</time>
      </trkpt>
      <trkpt lat="45.7771" lon="4.63924">
        <ele>604.9</ele>
        <time>2013-04-18T10:59:36.690Z</time>
      </trkpt>
      <trkpt lat="45.77713" lon="4.63925">
        <ele>604.7</ele>
        <time>2013-04-18T10:59:37.690Z</time>
      </trkpt>
      <trkpt lat="45.77717" lon="4.63926">
        <ele>604.5</ele>
        <time>2013-04-18T10:59:38.690Z</time>
      </trkpt>
      <trkpt lat="45.77721" lon="4.63926">
        <ele>604.4</ele>
        <time>2013-04-18T10:59:39.690Z</time>
      </trkpt>
      <trkpt lat="45.77724" lon="4.63925">
        <ele>604.3</ele>
        <time>2013-04-18T10:59:40.690Z</time>
      </trkpt>
      <trkpt lat="45.77726" lon="4.63924">
        <ele>604.3</ele>
        <time>2013-04-18T10:59:41.690Z</time>
      </trkpt>
      <trkpt lat="45.77728" lon="4.63924">
        <ele>604.2</ele>
        <time>2013-04-18T10:59:42.690Z</time>
      </trkpt>
      <trkpt lat="45.77731" lon="4.63924">
        <ele>604</ele>
        <time>2013-04-18T10:59:43.690Z</time>
      </trkpt>
      <trkpt lat="45.77737" lon="4.63928">
        <ele>603.5</ele>
        <time>2013-04-18T10:59:45.790Z</time>
      </trkpt>
      <trkpt lat="45.77744" lon="4.63933">
        <ele>603.2</ele>
        <time>2013-04-18T10:59:47.590Z</time>
      </trkpt>
      <trkpt lat="45.77747" lon="4.63936">
        <ele>603.1</ele>
        <time>2013-04-18T10:59:48.590Z</time>
      </trkpt>
      <trkpt lat="45.77749" lon="4.63939">
        <ele>603</ele>
        <time>2013-04-18T10:59:49.590Z</time>
      </trkpt>
      <trkpt lat="45.77751" lon="4.63939">
        <ele>603</ele>
        <time>2013-04-18T10:59:50.550Z</time>
      </trkpt>
      <trkpt lat="45.77755" lon="4.63941">
        <ele>603</ele>
        <time>2013-04-18T10:59:51.680Z</time>
      </trkpt>
      <trkpt lat="45.77758" lon="4.63943">
        <ele>603</ele>
        <time>2013-04-18T10:59:52.680Z</time>
      </trkpt>
      <trkpt lat="45.7776" lon="4.63945">
        <ele>602.9</ele>
        <time>2013-04-18T10:59:53.680Z</time>
      </trkpt>
      <trkpt lat="45.77763" lon="4.63947">
        <ele>602.9</ele>
        <time>2013-04-18T10:59:54.680Z</time>
      </trkpt>
      <trkpt lat="45.77766" lon="4.6395">
        <ele>602.8</ele>
        <time>2013-04-18T10:59:55.680Z</time>
      </trkpt>
      <trkpt lat="45.77769" lon="4.63952">
        <ele>602.7</ele>
        <time>2013-04-18T10:59:56.670Z</time>
      </trkpt>
      <trkpt lat="45.77774" lon="4.63956">
        <ele>613.3</ele>
        <time>2013-04-18T10:59:58.680Z</time>
      </trkpt>
      <trkpt lat="45.77777" lon="4.63959">
        <ele>603</ele>
        <time>2013-04-18T10:59:59.640Z</time>
      </trkpt>
      <trkpt lat="45.77779" lon="4.63963">
        <ele>603</ele>
        <time>2013-04-18T11:00:00.680Z</time>
      </trkpt>
      <trkpt lat="45.77781" lon="4.63967">
        <ele>603</ele>
        <time>2013-04-18T11:00:01.680Z</time>
      </trkpt>
      <trkpt lat="45.77783" lon="4.6397">
        <ele>603</ele>
        <time>2013-04-18T11:00:02.680Z</time>
      </trkpt>
      <trkpt lat="45.77785" lon="4.63973">
        <ele>602.9</ele>
        <time>2013-04-18T11:00:03.680Z</time>
      </trkpt>
      <trkpt lat="45.77789" lon="4.63981">
        <ele>602.6</ele>
        <time>2013-04-18T11:00:05.580Z</time>
      </trkpt>
      <trkpt lat="45.7779" lon="4.63985">
        <ele>602.5</ele>
        <time>2013-04-18T11:00:06.780Z</time>
      </trkpt>
      <trkpt lat="45.77789" lon="4.63992">
        <ele>602.1</ele>
        <time>2013-04-18T11:00:08.580Z</time>
      </trkpt>
      <trkpt lat="45.77787" lon="4.63996">
        <ele>601.9</ele>
        <time>2013-04-18T11:00:09.680Z</time>
      </trkpt>
      <trkpt lat="45.77784" lon="4.63998">
        <ele>601.6</ele>
        <time>2013-04-18T11:00:10.680Z</time>
      </trkpt>
      <trkpt lat="45.77781" lon="4.64">
        <ele>601.3</ele>
        <time>2013-04-18T11:00:11.680Z</time>
      </trkpt>
      <trkpt lat="45.77777" lon="4.64">
        <ele>600.9</ele>
        <time>2013-04-18T11:00:12.680Z</time>
      </trkpt>
      <trkpt lat="45.77773" lon="4.64">
        <ele>600.5</ele>
        <time>2013-04-18T11:00:13.680Z</time>
      </trkpt>
      <trkpt lat="45.77767" lon="4.64">
        <ele>599.8</ele>
        <time>2013-04-18T11:00:15.580Z</time>
      </trkpt>
      <trkpt lat="45.77763" lon="4.64">
        <ele>599.4</ele>
        <time>2013-04-18T11:00:16.530Z</time>
      </trkpt>
      <trkpt lat="45.77759" lon="4.64">
        <ele>599</ele>
        <time>2013-04-18T11:00:17.580Z</time>
      </trkpt>
      <trkpt lat="45.77757" lon="4.64">
        <ele>598.7</ele>
        <time>2013-04-18T11:00:18.580Z</time>
      </trkpt>
      <trkpt lat="45.77754" lon="4.64001">
        <ele>598.4</ele>
        <time>2013-04-18T11:00:19.580Z</time>
      </trkpt>
      <trkpt lat="45.77753" lon="4.64004">
        <ele>597.8</ele>
        <time>2013-04-18T11:00:20.760Z</time>
      </trkpt>
      <trkpt lat="45.7775" lon="4.64012">
        <ele>596.2</ele>
        <time>2013-04-18T11:00:22.580Z</time>
      </trkpt>
      <trkpt lat="45.77748" lon="4.64016">
        <ele>595.2</ele>
        <time>2013-04-18T11:00:23.580Z</time>
      </trkpt>
      <trkpt lat="45.77746" lon="4.6402">
        <ele>594.4</ele>
        <time>2013-04-18T11:00:24.580Z</time>
      </trkpt>
      <trkpt lat="45.77744" lon="4.64023">
        <ele>593.4</ele>
        <time>2013-04-18T11:00:25.680Z</time>
      </trkpt>
      <trkpt lat="45.77741" lon="4.64027">
        <ele>592.2</ele>
        <time>2013-04-18T11:00:26.680Z</time>
      </trkpt>
      <trkpt lat="45.77739" lon="4.64028">
        <ele>591.5</ele>
        <time>2013-04-18T11:00:27.680Z</time>
      </trkpt>
      <trkpt lat="45.77736" lon="4.64027">
        <ele>591</ele>
        <time>2013-04-18T11:00:28.680Z</time>
      </trkpt>
      <trkpt lat="45.77733" lon="4.64027">
        <ele>590.5</ele>
        <time>2013-04-18T11:00:29.680Z</time>
      </trkpt>
      <trkpt lat="45.77727" lon="4.64028">
        <ele>589</ele>
        <time>2013-04-18T11:00:31.580Z</time>
      </trkpt>
      <trkpt lat="45.77724" lon="4.64029">
        <ele>588.2</ele>
        <time>2013-04-18T11:00:32.760Z</time>
      </trkpt>
      <trkpt lat="45.77719" lon="4.64031">
        <ele>587</ele>
        <time>2013-04-18T11:00:34.670Z</time>
      </trkpt>
      <trkpt lat="45.77715" lon="4.64036">
        <ele>585.3</ele>
        <time>2013-04-18T11:00:36.770Z</time>
      </trkpt>
      <trkpt lat="45.77709" lon="4.64043">
        <ele>582.6</ele>
        <time>2013-04-18T11:00:38.570Z</time>
      </trkpt>
      <trkpt lat="45.77706" lon="4.64045">
        <ele>581.1</ele>
        <time>2013-04-18T11:00:39.570Z</time>
      </trkpt>
      <trkpt lat="45.77702" lon="4.64046">
        <ele>579.9</ele>
        <time>2013-04-18T11:00:40.670Z</time>
      </trkpt>
      <trkpt lat="45.77698" lon="4.64046">
        <ele>578.9</ele>
        <time>2013-04-18T11:00:41.690Z</time>
      </trkpt>
      <trkpt lat="45.77695" lon="4.64047">
        <ele>577.7</ele>
        <time>2013-04-18T11:00:42.670Z</time>
      </trkpt>
      <trkpt lat="45.77691" lon="4.64047">
        <ele>577.3</ele>
        <time>2013-04-18T11:00:43.670Z</time>
      </trkpt>
      <trkpt lat="45.77687" lon="4.64048">
        <ele>576.7</ele>
        <time>2013-04-18T11:00:44.770Z</time>
      </trkpt>
      <trkpt lat="45.7768" lon="4.64051">
        <ele>575.4</ele>
        <time>2013-04-18T11:00:46.670Z</time>
      </trkpt>
      <trkpt lat="45.77677" lon="4.64052">
        <ele>574.8</ele>
        <time>2013-04-18T11:00:47.670Z</time>
      </trkpt>
      <trkpt lat="45.77674" lon="4.64053">
        <ele>574.3</ele>
        <time>2013-04-18T11:00:48.670Z</time>
      </trkpt>
      <trkpt lat="45.77669" lon="4.64056">
        <ele>573.2</ele>
        <time>2013-04-18T11:00:50.540Z</time>
      </trkpt>
      <trkpt lat="45.77668" lon="4.64056">
        <ele>573</ele>
        <time>2013-04-18T11:00:51.670Z</time>
      </trkpt>
      <trkpt lat="45.77666" lon="4.64056">
        <ele>572.9</ele>
        <time>2013-04-18T11:00:52.670Z</time>
      </trkpt>
      <trkpt lat="45.77664" lon="4.64056">
        <ele>572.7</ele>
        <time>2013-04-18T11:00:53.670Z</time>
      </trkpt>
      <trkpt lat="45.77661" lon="4.64057">
        <ele>572.5</ele>
        <time>2013-04-18T11:00:54.670Z</time>
      </trkpt>
      <trkpt lat="45.77659" lon="4.64057">
        <ele>572.4</ele>
        <time>2013-04-18T11:00:55.770Z</time>
      </trkpt>
      <trkpt lat="45.77656" lon="4.64057">
        <ele>572.3</ele>
        <time>2013-04-18T11:00:56.770Z</time>
      </trkpt>
      <trkpt lat="45.77654" lon="4.64058">
        <ele>572</ele>
        <time>2013-04-18T11:00:57.750Z</time>
      </trkpt>
      <trkpt lat="45.77651" lon="4.64059">
        <ele>599.1</ele>
        <time>2013-04-18T11:00:58.770Z</time>
      </trkpt>
      <trkpt lat="45.77645" lon="4.64061">
        <ele>571.1</ele>
        <time>2013-04-18T11:01:00.670Z</time>
      </trkpt>
      <trkpt lat="45.77643" lon="4.64062">
        <ele>570.6</ele>
        <time>2013-04-18T11:01:01.670Z</time>
      </trkpt>
      <trkpt lat="45.7764" lon="4.64064">
        <ele>570.3</ele>
        <time>2013-04-18T11:01:02.670Z</time>
      </trkpt>
      <trkpt lat="45.77636" lon="4.64065">
        <ele>569.5</ele>
        <time>2013-04-18T11:01:03.670Z</time>
      </trkpt>
      <trkpt lat="45.77632" lon="4.64065">
        <ele>569</ele>
        <time>2013-04-18T11:01:04.670Z</time>
      </trkpt>
      <trkpt lat="45.77629" lon="4.64066">
        <ele>568.4</ele>
        <time>2013-04-18T11:01:05.670Z</time>
      </trkpt>
      <trkpt lat="45.77625" lon="4.64067">
        <ele>567.8</ele>
        <time>2013-04-18T11:01:06.670Z</time>
      </trkpt>
      <trkpt lat="45.77622" lon="4.64068">
        <ele>567.2</ele>
        <time>2013-04-18T11:01:07.650Z</time>
      </trkpt>
      <trkpt lat="45.7762" lon="4.64068">
        <ele>566.8</ele>
        <time>2013-04-18T11:01:08.670Z</time>
      </trkpt>
      <trkpt lat="45.77618" lon="4.6407">
        <ele>566.3</ele>
        <time>2013-04-18T11:01:09.670Z</time>
      </trkpt>
      <trkpt lat="45.77616" lon="4.64072">
        <ele>565.7</ele>
        <time>2013-04-18T11:01:10.770Z</time>
      </trkpt>
      <trkpt lat="45.77614" lon="4.64074">
        <ele>565</ele>
        <time>2013-04-18T11:01:11.770Z</time>
      </trkpt>
      <trkpt lat="45.77611" lon="4.64076">
        <ele>564.3</ele>
        <time>2013-04-18T11:01:12.760Z</time>
      </trkpt>
      <trkpt lat="45.7761" lon="4.64079">
        <ele>563.5</ele>
        <time>2013-04-18T11:01:13.770Z</time>
      </trkpt>
      <trkpt lat="45.77608" lon="4.64081">
        <ele>562.7</ele>
        <time>2013-04-18T11:01:14.760Z</time>
      </trkpt>
      <trkpt lat="45.77605" lon="4.64088">
        <ele>560.9</ele>
        <time>2013-04-18T11:01:16.620Z</time>
      </trkpt>
      <trkpt lat="45.77604" lon="4.6409">
        <ele>560.3</ele>
        <time>2013-04-18T11:01:17.660Z</time>
      </trkpt>
      <trkpt lat="45.77604" lon="4.64093">
        <ele>559.8</ele>
        <time>2013-04-18T11:01:18.660Z</time>
      </trkpt>
      <trkpt lat="45.77605" lon="4.64095">
        <ele>559.4</ele>
        <time>2013-04-18T11:01:19.640Z</time>
      </trkpt>
      <trkpt lat="45.77604" lon="4.64099">
        <ele>558.8</ele>
        <time>2013-04-18T11:01:20.660Z</time>
      </trkpt>
      <trkpt lat="45.77605" lon="4.64102">
        <ele>558.1</ele>
        <time>2013-04-18T11:01:21.660Z</time>
      </trkpt>
      <trkpt lat="45.77604" lon="4.64106">
        <ele>557.5</ele>
        <time>2013-04-18T11:01:22.660Z</time>
      </trkpt>
      <trkpt lat="45.77604" lon="4.64109">
        <ele>556.9</ele>
        <time>2013-04-18T11:01:23.660Z</time>
      </trkpt>
      <trkpt lat="45.77605" lon="4.64112">
        <ele>556.4</ele>
        <time>2013-04-18T11:01:24.660Z</time>
      </trkpt>
      <trkpt lat="45.77605" lon="4.64115">
        <ele>555.9</ele>
        <time>2013-04-18T11:01:25.660Z</time>
      </trkpt>
      <trkpt lat="45.77604" lon="4.64117">
        <ele>555.3</ele>
        <time>2013-04-18T11:01:26.660Z</time>
      </trkpt>
      <trkpt lat="45.77604" lon="4.6412">
        <ele>554.7</ele>
        <time>2013-04-18T11:01:27.660Z</time>
      </trkpt>
      <trkpt lat="45.77605" lon="4.64122">
        <ele>554.3</ele>
        <time>2013-04-18T11:01:28.660Z</time>
      </trkpt>
      <trkpt lat="45.77606" lon="4.64125">
        <ele>554</ele>
        <time>2013-04-18T11:01:29.660Z</time>
      </trkpt>
      <trkpt lat="45.77607" lon="4.64128">
        <ele>553.5</ele>
        <time>2013-04-18T11:01:30.640Z</time>
      </trkpt>
      <trkpt lat="45.77607" lon="4.64131">
        <ele>552.9</ele>
        <time>2013-04-18T11:01:31.660Z</time>
      </trkpt>
      <trkpt lat="45.77607" lon="4.64134">
        <ele>552.3</ele>
        <time>2013-04-18T11:01:32.660Z</time>
      </trkpt>
      <trkpt lat="45.77608" lon="4.64137">
        <ele>551.8</ele>
        <time>2013-04-18T11:01:33.610Z</time>
      </trkpt>
      <trkpt lat="45.77609" lon="4.6414">
        <ele>551.5</ele>
        <time>2013-04-18T11:01:34.770Z</time>
      </trkpt>
      <trkpt lat="45.7761" lon="4.64143">
        <ele>550.8</ele>
        <time>2013-04-18T11:01:35.760Z</time>
      </trkpt>
      <trkpt lat="45.77612" lon="4.64146">
        <ele>550.2</ele>
        <time>2013-04-18T11:01:36.760Z</time>
      </trkpt>
      <trkpt lat="45.77612" lon="4.6415">
        <ele>549.3</ele>
        <time>2013-04-18T11:01:37.760Z</time>
      </trkpt>
      <trkpt lat="45.77613" lon="4.64154">
        <ele>548.3</ele>
        <time>2013-04-18T11:01:38.760Z</time>
      </trkpt>
      <trkpt lat="45.77615" lon="4.64158">
        <ele>547.4</ele>
        <time>2013-04-18T11:01:39.760Z</time>
      </trkpt>
      <trkpt lat="45.77617" lon="4.64161">
        <ele>546.7</ele>
        <time>2013-04-18T11:01:40.760Z</time>
      </trkpt>
      <trkpt lat="45.77619" lon="4.64164">
        <ele>546.1</ele>
        <time>2013-04-18T11:01:41.760Z</time>
      </trkpt>
      <trkpt lat="45.77621" lon="4.64167">
        <ele>545.2</ele>
        <time>2013-04-18T11:01:42.760Z</time>
      </trkpt>
      <trkpt lat="45.77623" lon="4.6417">
        <ele>544.7</ele>
        <time>2013-04-18T11:01:43.760Z</time>
      </trkpt>
      <trkpt lat="45.77624" lon="4.64174">
        <ele>544.1</ele>
        <time>2013-04-18T11:01:44.760Z</time>
      </trkpt>
      <trkpt lat="45.77627" lon="4.64181">
        <ele>542.7</ele>
        <time>2013-04-18T11:01:46.660Z</time>
      </trkpt>
      <trkpt lat="45.77629" lon="4.64186">
        <ele>541.8</ele>
        <time>2013-04-18T11:01:47.660Z</time>
      </trkpt>
      <trkpt lat="45.77632" lon="4.64189">
        <ele>541.1</ele>
        <time>2013-04-18T11:01:48.660Z</time>
      </trkpt>
      <trkpt lat="45.77635" lon="4.64192">
        <ele>540.5</ele>
        <time>2013-04-18T11:01:49.660Z</time>
      </trkpt>
      <trkpt lat="45.77637" lon="4.64195">
        <ele>539.9</ele>
        <time>2013-04-18T11:01:50.710Z</time>
      </trkpt>
      <trkpt lat="45.7764" lon="4.64196">
        <ele>539.6</ele>
        <time>2013-04-18T11:01:51.760Z</time>
      </trkpt>
      <trkpt lat="45.77643" lon="4.64197">
        <ele>539.3</ele>
        <time>2013-04-18T11:01:52.750Z</time>
      </trkpt>
      <trkpt lat="45.77645" lon="4.64199">
        <ele>538.8</ele>
        <time>2013-04-18T11:01:53.740Z</time>
      </trkpt>
      <trkpt lat="45.77647" lon="4.64202">
        <ele>538.2</ele>
        <time>2013-04-18T11:01:54.750Z</time>
      </trkpt>
      <trkpt lat="45.77649" lon="4.64206">
        <ele>537.2</ele>
        <time>2013-04-18T11:01:55.750Z</time>
      </trkpt>
      <trkpt lat="45.77652" lon="4.64211">
        <ele>535.9</ele>
        <time>2013-04-18T11:01:56.750Z</time>
      </trkpt>
      <trkpt lat="45.77654" lon="4.64217">
        <ele>534.7</ele>
        <time>2013-04-18T11:01:57.750Z</time>
      </trkpt>
      <trkpt lat="45.77656" lon="4.6422">
        <ele>577</ele>
        <time>2013-04-18T11:01:58.750Z</time>
      </trkpt>
      <trkpt lat="45.77657" lon="4.64225">
        <ele>533</ele>
        <time>2013-04-18T11:01:59.710Z</time>
      </trkpt>
      <trkpt lat="45.7766" lon="4.64231">
        <ele>532.3</ele>
        <time>2013-04-18T11:02:00.750Z</time>
      </trkpt>
      <trkpt lat="45.77662" lon="4.64236">
        <ele>531.8</ele>
        <time>2013-04-18T11:02:01.750Z</time>
      </trkpt>
      <trkpt lat="45.77663" lon="4.64242">
        <ele>531.4</ele>
        <time>2013-04-18T11:02:02.750Z</time>
      </trkpt>
      <trkpt lat="45.77662" lon="4.64251">
        <ele>530.4</ele>
        <time>2013-04-18T11:02:04.650Z</time>
      </trkpt>
      <trkpt lat="45.77662" lon="4.64255">
        <ele>530.3</ele>
        <time>2013-04-18T11:02:05.650Z</time>
      </trkpt>
      <trkpt lat="45.77662" lon="4.64258">
        <ele>530.3</ele>
        <time>2013-04-18T11:02:06.650Z</time>
      </trkpt>
      <trkpt lat="45.77662" lon="4.64262">
        <ele>530.2</ele>
        <time>2013-04-18T11:02:07.650Z</time>
      </trkpt>
      <trkpt lat="45.77661" lon="4.64266">
        <ele>529.8</ele>
        <time>2013-04-18T11:02:08.650Z</time>
      </trkpt>
      <trkpt lat="45.7766" lon="4.64271">
        <ele>529.5</ele>
        <time>2013-04-18T11:02:09.650Z</time>
      </trkpt>
      <trkpt lat="45.77659" lon="4.64275">
        <ele>529.1</ele>
        <time>2013-04-18T11:02:10.650Z</time>
      </trkpt>
      <trkpt lat="45.77658" lon="4.64279">
        <ele>528.8</ele>
        <time>2013-04-18T11:02:11.650Z</time>
      </trkpt>
      <trkpt lat="45.77658" lon="4.64281">
        <ele>528.8</ele>
        <time>2013-04-18T11:02:12.650Z</time>
      </trkpt>
      <trkpt lat="45.77659" lon="4.64283">
        <ele>529.3</ele>
        <time>2013-04-18T11:02:14.650Z</time>
      </trkpt>
      <trkpt lat="45.77661" lon="4.64284">
        <ele>529.8</ele>
        <time>2013-04-18T11:02:15.630Z</time>
      </trkpt>
      <trkpt lat="45.77662" lon="4.64285">
        <ele>530.1</ele>
        <time>2013-04-18T11:02:16.600Z</time>
      </trkpt>
      <trkpt lat="45.77663" lon="4.64285">
        <ele>530.3</ele>
        <time>2013-04-18T11:02:18.650Z</time>
      </trkpt>
      <trkpt lat="45.77664" lon="4.64287">
        <ele>530.7</ele>
        <time>2013-04-18T11:02:22.650Z</time>
      </trkpt>
      <trkpt lat="45.77665" lon="4.64287">
        <ele>531</ele>
        <time>2013-04-18T11:02:23.650Z</time>
      </trkpt>
      <trkpt lat="45.77667" lon="4.64287">
        <ele>531.4</ele>
        <time>2013-04-18T11:02:25.650Z</time>
      </trkpt>
      <trkpt lat="45.77668" lon="4.64288">
        <ele>531.9</ele>
        <time>2013-04-18T11:02:27.650Z</time>
      </trkpt>
      <trkpt lat="45.7767" lon="4.6429">
        <ele>532.9</ele>
        <time>2013-04-18T11:02:29.650Z</time>
      </trkpt>
      <trkpt lat="45.77672" lon="4.64289">
        <ele>533.6</ele>
        <time>2013-04-18T11:02:31.750Z</time>
      </trkpt>
      <trkpt lat="45.77674" lon="4.64291">
        <ele>534.2</ele>
        <time>2013-04-18T11:02:32.750Z</time>
      </trkpt>
      <trkpt lat="45.77676" lon="4.64292">
        <ele>535.3</ele>
        <time>2013-04-18T11:02:34.640Z</time>
      </trkpt>
      <trkpt lat="45.77677" lon="4.64292">
        <ele>535.7</ele>
        <time>2013-04-18T11:02:35.740Z</time>
      </trkpt>
      <trkpt lat="45.77679" lon="4.64293">
        <ele>536.5</ele>
        <time>2013-04-18T11:02:36.760Z</time>
      </trkpt>
      <trkpt lat="45.77681" lon="4.64294">
        <ele>537.3</ele>
        <time>2013-04-18T11:02:37.740Z</time>
      </trkpt>
      <trkpt lat="45.77682" lon="4.64294">
        <ele>537.7</ele>
        <time>2013-04-18T11:02:38.740Z</time>
      </trkpt>
      <trkpt lat="45.77683" lon="4.64294">
        <ele>538.2</ele>
        <time>2013-04-18T11:02:39.740Z</time>
      </trkpt>
      <trkpt lat="45.77685" lon="4.64295">
        <ele>538.8</ele>
        <time>2013-04-18T11:02:41.640Z</time>
      </trkpt>
      <trkpt lat="45.77686" lon="4.64297">
        <ele>539.3</ele>
        <time>2013-04-18T11:02:44.720Z</time>
      </trkpt>
      <trkpt lat="45.77687" lon="4.64295">
        <ele>539.7</ele>
        <time>2013-04-18T11:02:47.740Z</time>
      </trkpt>
      <trkpt lat="45.77689" lon="4.64295">
        <ele>540.3</ele>
        <time>2013-04-18T11:02:49.740Z</time>
      </trkpt>
      <trkpt lat="45.7769" lon="4.64296">
        <ele>540.9</ele>
        <time>2013-04-18T11:02:51.640Z</time>
      </trkpt>
      <trkpt lat="45.77691" lon="4.64295">
        <ele>541.4</ele>
        <time>2013-04-18T11:02:52.640Z</time>
      </trkpt>
      <trkpt lat="45.77692" lon="4.64295">
        <ele>541.7</ele>
        <time>2013-04-18T11:02:54.640Z</time>
      </trkpt>
      <trkpt lat="45.77694" lon="4.64294">
        <ele>542.3</ele>
        <time>2013-04-18T11:02:55.640Z</time>
      </trkpt>
      <trkpt lat="45.77695" lon="4.64294">
        <ele>542.7</ele>
        <time>2013-04-18T11:02:56.640Z</time>
      </trkpt>
      <trkpt lat="45.77696" lon="4.64294">
        <ele>543.1</ele>
        <time>2013-04-18T11:02:57.640Z</time>
      </trkpt>
      <trkpt lat="45.77696" lon="4.64294">
        <ele>542.4</ele>
        <time>2013-04-18T11:02:58.620Z</time>
      </trkpt>
      <trkpt lat="45.77699" lon="4.64293">
        <ele>544.2</ele>
        <time>2013-04-18T11:03:00.740Z</time>
      </trkpt>
      <trkpt lat="45.777" lon="4.64293">
        <ele>544.7</ele>
        <time>2013-04-18T11:03:01.740Z</time>
      </trkpt>
      <trkpt lat="45.77701" lon="4.64292">
        <ele>545.3</ele>
        <time>2013-04-18T11:03:02.740Z</time>
      </trkpt>
      <trkpt lat="45.77702" lon="4.64292">
        <ele>545.8</ele>
        <time>2013-04-18T11:03:03.740Z</time>
      </trkpt>
      <trkpt lat="45.77703" lon="4.64292">
        <ele>546.2</ele>
        <time>2013-04-18T11:03:04.740Z</time>
      </trkpt>
      <trkpt lat="45.77704" lon="4.64293">
        <ele>546.6</ele>
        <time>2013-04-18T11:03:05.740Z</time>
      </trkpt>
      <trkpt lat="45.77706" lon="4.64293">
        <ele>547.2</ele>
        <time>2013-04-18T11:03:06.740Z</time>
      </trkpt>
      <trkpt lat="45.77707" lon="4.64294">
        <ele>547.7</ele>
        <time>2013-04-18T11:03:08.740Z</time>
      </trkpt>
      <trkpt lat="45.77708" lon="4.64295">
        <ele>548.3</ele>
        <time>2013-04-18T11:03:10.720Z</time>
      </trkpt>
      <trkpt lat="45.77709" lon="4.64296">
        <ele>548.7</ele>
        <time>2013-04-18T11:03:11.740Z</time>
      </trkpt>
      <trkpt lat="45.7771" lon="4.64296">
        <ele>549.2</ele>
        <time>2013-04-18T11:03:13.740Z</time>
      </trkpt>
      <trkpt lat="45.77711" lon="4.64296">
        <ele>549.7</ele>
        <time>2013-04-18T11:03:15.740Z</time>
      </trkpt>
      <trkpt lat="45.77713" lon="4.64294">
        <ele>550.3</ele>
        <time>2013-04-18T11:03:16.690Z</time>
      </trkpt>
      <trkpt lat="45.77715" lon="4.64294">
        <ele>550.9</ele>
        <time>2013-04-18T11:03:17.730Z</time>
      </trkpt>
      <trkpt lat="45.77715" lon="4.64295">
        <ele>551.4</ele>
        <time>2013-04-18T11:03:20.630Z</time>
      </trkpt>
      <trkpt lat="45.77717" lon="4.64296">
        <ele>552</ele>
        <time>2013-04-18T11:03:22.630Z</time>
      </trkpt>
      <trkpt lat="45.77718" lon="4.64296">
        <ele>552.7</ele>
        <time>2013-04-18T11:03:24.620Z</time>
      </trkpt>
      <trkpt lat="45.7772" lon="4.64296">
        <ele>553.2</ele>
        <time>2013-04-18T11:03:26.730Z</time>
      </trkpt>
      <trkpt lat="45.77721" lon="4.64295">
        <ele>553.8</ele>
        <time>2013-04-18T11:03:27.730Z</time>
      </trkpt>
      <trkpt lat="45.77722" lon="4.64294">
        <ele>554</ele>
        <time>2013-04-18T11:03:29.730Z</time>
      </trkpt>
      <trkpt lat="45.77723" lon="4.64293">
        <ele>554.5</ele>
        <time>2013-04-18T11:03:32.730Z</time>
      </trkpt>
      <trkpt lat="45.77724" lon="4.64291">
        <ele>554.8</ele>
        <time>2013-04-18T11:03:33.680Z</time>
      </trkpt>
      <trkpt lat="45.77725" lon="4.6429">
        <ele>555.2</ele>
        <time>2013-04-18T11:03:34.730Z</time>
      </trkpt>
      <trkpt lat="45.77726" lon="4.6429">
        <ele>555.6</ele>
        <time>2013-04-18T11:03:35.730Z</time>
      </trkpt>
      <trkpt lat="45.77728" lon="4.64289">
        <ele>556.3</ele>
        <time>2013-04-18T11:03:36.730Z</time>
      </trkpt>
      <trkpt lat="45.77729" lon="4.64289">
        <ele>556.7</ele>
        <time>2013-04-18T11:03:37.730Z</time>
      </trkpt>
      <trkpt lat="45.7773" lon="4.64289">
        <ele>557.3</ele>
        <time>2013-04-18T11:03:41.730Z</time>
      </trkpt>
      <trkpt lat="45.77731" lon="4.64289">
        <ele>558.1</ele>
        <time>2013-04-18T11:03:43.730Z</time>
      </trkpt>
      <trkpt lat="45.77733" lon="4.64289">
        <ele>558.9</ele>
        <time>2013-04-18T11:03:45.730Z</time>
      </trkpt>
      <trkpt lat="45.77734" lon="4.6429">
        <ele>559.3</ele>
        <time>2013-04-18T11:03:46.730Z</time>
      </trkpt>
      <trkpt lat="45.77735" lon="4.64291">
        <ele>559.9</ele>
        <time>2013-04-18T11:03:47.730Z</time>
      </trkpt>
      <trkpt lat="45.77736" lon="4.64292">
        <ele>560.7</ele>
        <time>2013-04-18T11:03:48.730Z</time>
      </trkpt>
      <trkpt lat="45.77738" lon="4.64294">
        <ele>561.4</ele>
        <time>2013-04-18T11:03:49.730Z</time>
      </trkpt>
      <trkpt lat="45.77739" lon="4.64294">
        <ele>562</ele>
        <time>2013-04-18T11:03:51.730Z</time>
      </trkpt>
      <trkpt lat="45.7774" lon="4.64295">
        <ele>562.5</ele>
        <time>2013-04-18T11:03:52.720Z</time>
      </trkpt>
      <trkpt lat="45.77741" lon="4.64294">
        <ele>563.1</ele>
        <time>2013-04-18T11:03:53.710Z</time>
      </trkpt>
      <trkpt lat="45.77742" lon="4.64293">
        <ele>563.5</ele>
        <time>2013-04-18T11:03:54.720Z</time>
      </trkpt>
      <trkpt lat="45.77743" lon="4.64293">
        <ele>563.8</ele>
        <time>2013-04-18T11:03:55.730Z</time>
      </trkpt>
      <trkpt lat="45.77744" lon="4.64291">
        <ele>564.2</ele>
        <time>2013-04-18T11:03:57.720Z</time>
      </trkpt>
      <trkpt lat="45.77745" lon="4.64289">
        <ele>551.9</ele>
        <time>2013-04-18T11:03:58.720Z</time>
      </trkpt>
      <trkpt lat="45.77747" lon="4.64287">
        <ele>565.1</ele>
        <time>2013-04-18T11:04:00.620Z</time>
      </trkpt>
      <trkpt lat="45.77748" lon="4.64286">
        <ele>565.4</ele>
        <time>2013-04-18T11:04:02.630Z</time>
      </trkpt>
      <trkpt lat="45.77749" lon="4.64285">
        <ele>565.9</ele>
        <time>2013-04-18T11:04:03.620Z</time>
      </trkpt>
      <trkpt lat="45.7775" lon="4.64285">
        <ele>566.4</ele>
        <time>2013-04-18T11:04:04.620Z</time>
      </trkpt>
      <trkpt lat="45.77752" lon="4.64284">
        <ele>567.2</ele>
        <time>2013-04-18T11:04:06.720Z</time>
      </trkpt>
      <trkpt lat="45.77752" lon="4.64283">
        <ele>567.4</ele>
        <time>2013-04-18T11:04:07.720Z</time>
      </trkpt>
      <trkpt lat="45.77753" lon="4.64282">
        <ele>567.7</ele>
        <time>2013-04-18T11:04:08.720Z</time>
      </trkpt>
      <trkpt lat="45.77755" lon="4.6428">
        <ele>568.3</ele>
        <time>2013-04-18T11:04:10.620Z</time>
      </trkpt>
      <trkpt lat="45.77756" lon="4.64278">
        <ele>568.4</ele>
        <time>2013-04-18T11:04:11.620Z</time>
      </trkpt>
      <trkpt lat="45.77756" lon="4.64277">
        <ele>568.5</ele>
        <time>2013-04-18T11:04:12.620Z</time>
      </trkpt>
      <trkpt lat="45.77757" lon="4.64275">
        <ele>568.9</ele>
        <time>2013-04-18T11:04:14.620Z</time>
      </trkpt>
      <trkpt lat="45.77758" lon="4.64275">
        <ele>569.3</ele>
        <time>2013-04-18T11:04:16.590Z</time>
      </trkpt>
      <trkpt lat="45.77759" lon="4.64275">
        <ele>569.8</ele>
        <time>2013-04-18T11:04:19.700Z</time>
      </trkpt>
      <trkpt lat="45.77762" lon="4.64273">
        <ele>570.8</ele>
        <time>2013-04-18T11:04:21.620Z</time>
      </trkpt>
      <trkpt lat="45.77763" lon="4.64271">
        <ele>571.2</ele>
        <time>2013-04-18T11:04:22.620Z</time>
      </trkpt>
      <trkpt lat="45.77764" lon="4.64271">
        <ele>571.5</ele>
        <time>2013-04-18T11:04:23.620Z</time>
      </trkpt>
      <trkpt lat="45.77765" lon="4.6427">
        <ele>571.9</ele>
        <time>2013-04-18T11:04:24.620Z</time>
      </trkpt>
      <trkpt lat="45.77766" lon="4.64269">
        <ele>572.5</ele>
        <time>2013-04-18T11:04:26.620Z</time>
      </trkpt>
      <trkpt lat="45.77768" lon="4.6427">
        <ele>573.4</ele>
        <time>2013-04-18T11:04:28.620Z</time>
      </trkpt>
      <trkpt lat="45.77769" lon="4.6427">
        <ele>574</ele>
        <time>2013-04-18T11:04:30.620Z</time>
      </trkpt>
      <trkpt lat="45.7777" lon="4.64269">
        <ele>574.3</ele>
        <time>2013-04-18T11:04:32.620Z</time>
      </trkpt>
      <trkpt lat="45.7777" lon="4.64268">
        <ele>574.3</ele>
        <time>2013-04-18T11:04:35.710Z</time>
      </trkpt>
      <trkpt lat="45.77772" lon="4.64267">
        <ele>574.9</ele>
        <time>2013-04-18T11:04:37.710Z</time>
      </trkpt>
      <trkpt lat="45.77773" lon="4.64266">
        <ele>575.2</ele>
        <time>2013-04-18T11:04:38.710Z</time>
      </trkpt>
      <trkpt lat="45.77774" lon="4.64265">
        <ele>576</ele>
        <time>2013-04-18T11:04:40.710Z</time>
      </trkpt>
      <trkpt lat="45.77776" lon="4.64265">
        <ele>576.7</ele>
        <time>2013-04-18T11:04:42.710Z</time>
      </trkpt>
      <trkpt lat="45.77778" lon="4.64263">
        <ele>577.5</ele>
        <time>2013-04-18T11:04:45.610Z</time>
      </trkpt>
      <trkpt lat="45.77779" lon="4.64262">
        <ele>577.9</ele>
        <time>2013-04-18T11:04:46.610Z</time>
      </trkpt>
      <trkpt lat="45.7778" lon="4.64261">
        <ele>578.2</ele>
        <time>2013-04-18T11:04:47.610Z</time>
      </trkpt>
      <trkpt lat="45.77781" lon="4.64261">
        <ele>578.7</ele>
        <time>2013-04-18T11:04:48.590Z</time>
      </trkpt>
      <trkpt lat="45.77782" lon="4.64261">
        <ele>579.1</ele>
        <time>2013-04-18T11:04:49.610Z</time>
      </trkpt>
      <trkpt lat="45.77783" lon="4.64262">
        <ele>579.7</ele>
        <time>2013-04-18T11:04:50.560Z</time>
      </trkpt>
      <trkpt lat="45.77785" lon="4.64263">
        <ele>580.1</ele>
        <time>2013-04-18T11:04:51.610Z</time>
      </trkpt>
      <trkpt lat="45.77786" lon="4.64264">
        <ele>580.8</ele>
        <time>2013-04-18T11:04:52.610Z</time>
      </trkpt>
      <trkpt lat="45.77787" lon="4.64264">
        <ele>581.2</ele>
        <time>2013-04-18T11:04:53.610Z</time>
      </trkpt>
      <trkpt lat="45.77789" lon="4.64265">
        <ele>581.9</ele>
        <time>2013-04-18T11:04:55.610Z</time>
      </trkpt>
      <trkpt lat="45.77789" lon="4.64267">
        <ele>582.2</ele>
        <time>2013-04-18T11:04:56.610Z</time>
      </trkpt>
      <trkpt lat="45.7779" lon="4.64268">
        <ele>566.3</ele>
        <time>2013-04-18T11:04:58.610Z</time>
      </trkpt>
      <trkpt lat="45.77791" lon="4.64269">
        <ele>583</ele>
        <time>2013-04-18T11:04:59.620Z</time>
      </trkpt>
      <trkpt lat="45.77792" lon="4.64269">
        <ele>583.4</ele>
        <time>2013-04-18T11:05:00.710Z</time>
      </trkpt>
      <trkpt lat="45.77793" lon="4.6427">
        <ele>583.8</ele>
        <time>2013-04-18T11:05:01.710Z</time>
      </trkpt>
      <trkpt lat="45.77794" lon="4.6427">
        <ele>584.2</ele>
        <time>2013-04-18T11:05:03.710Z</time>
      </trkpt>
      <trkpt lat="45.77796" lon="4.6427">
        <ele>584.8</ele>
        <time>2013-04-18T11:05:05.710Z</time>
      </trkpt>
      <trkpt lat="45.77797" lon="4.64269">
        <ele>585.2</ele>
        <time>2013-04-18T11:05:06.710Z</time>
      </trkpt>
      <trkpt lat="45.77797" lon="4.64268">
        <ele>585.3</ele>
        <time>2013-04-18T11:05:07.710Z</time>
      </trkpt>
      <trkpt lat="45.77797" lon="4.64267">
        <ele>585.4</ele>
        <time>2013-04-18T11:05:08.710Z</time>
      </trkpt>
      <trkpt lat="45.77799" lon="4.64265">
        <ele>585.8</ele>
        <time>2013-04-18T11:05:10.710Z</time>
      </trkpt>
      <trkpt lat="45.778" lon="4.64264">
        <ele>586.1</ele>
        <time>2013-04-18T11:05:11.710Z</time>
      </trkpt>
      <trkpt lat="45.77801" lon="4.64263">
        <ele>586.5</ele>
        <time>2013-04-18T11:05:12.710Z</time>
      </trkpt>
      <trkpt lat="45.77803" lon="4.6426">
        <ele>587.2</ele>
        <time>2013-04-18T11:05:14.600Z</time>
      </trkpt>
      <trkpt lat="45.77804" lon="4.64259">
        <ele>587.5</ele>
        <time>2013-04-18T11:05:15.610Z</time>
      </trkpt>
      <trkpt lat="45.77804" lon="4.64257">
        <ele>587.7</ele>
        <time>2013-04-18T11:05:16.660Z</time>
      </trkpt>
      <trkpt lat="45.77805" lon="4.64256">
        <ele>588</ele>
        <time>2013-04-18T11:05:17.700Z</time>
      </trkpt>
      <trkpt lat="45.77806" lon="4.64255">
        <ele>588.3</ele>
        <time>2013-04-18T11:05:18.700Z</time>
      </trkpt>
      <trkpt lat="45.77807" lon="4.64254">
        <ele>588.5</ele>
        <time>2013-04-18T11:05:19.700Z</time>
      </trkpt>
      <trkpt lat="45.77808" lon="4.64252">
        <ele>588.7</ele>
        <time>2013-04-18T11:05:20.700Z</time>
      </trkpt>
      <trkpt lat="45.77809" lon="4.64252">
        <ele>589</ele>
        <time>2013-04-18T11:05:21.700Z</time>
      </trkpt>
      <trkpt lat="45.77812" lon="4.64254">
        <ele>589.7</ele>
        <time>2013-04-18T11:05:23.700Z</time>
      </trkpt>
      <trkpt lat="45.77813" lon="4.64256">
        <ele>590.2</ele>
        <time>2013-04-18T11:05:24.700Z</time>
      </trkpt>
      <trkpt lat="45.77816" lon="4.6426">
        <ele>591.2</ele>
        <time>2013-04-18T11:05:26.580Z</time>
      </trkpt>
      <trkpt lat="45.77818" lon="4.6426">
        <ele>591.6</ele>
        <time>2013-04-18T11:05:27.600Z</time>
      </trkpt>
      <trkpt lat="45.77819" lon="4.6426">
        <ele>591.9</ele>
        <time>2013-04-18T11:05:28.600Z</time>
      </trkpt>
      <trkpt lat="45.77821" lon="4.6426">
        <ele>592.4</ele>
        <time>2013-04-18T11:05:29.700Z</time>
      </trkpt>
      <trkpt lat="45.77823" lon="4.6426">
        <ele>593</ele>
        <time>2013-04-18T11:05:30.700Z</time>
      </trkpt>
      <trkpt lat="45.77825" lon="4.6426">
        <ele>593.5</ele>
        <time>2013-04-18T11:05:31.700Z</time>
      </trkpt>
      <trkpt lat="45.77827" lon="4.6426">
        <ele>593.9</ele>
        <time>2013-04-18T11:05:32.700Z</time>
      </trkpt>
      <trkpt lat="45.77829" lon="4.64257">
        <ele>594.4</ele>
        <time>2013-04-18T11:05:34.800Z</time>
      </trkpt>
      <trkpt lat="45.77833" lon="4.64255">
        <ele>595.3</ele>
        <time>2013-04-18T11:05:36.700Z</time>
      </trkpt>
      <trkpt lat="45.77835" lon="4.64254">
        <ele>595.6</ele>
        <time>2013-04-18T11:05:37.700Z</time>
      </trkpt>
      <trkpt lat="45.77836" lon="4.64253">
        <ele>595.7</ele>
        <time>2013-04-18T11:05:38.700Z</time>
      </trkpt>
      <trkpt lat="45.77837" lon="4.64251">
        <ele>596</ele>
        <time>2013-04-18T11:05:39.680Z</time>
      </trkpt>
      <trkpt lat="45.77838" lon="4.64251">
        <ele>596.2</ele>
        <time>2013-04-18T11:05:40.800Z</time>
      </trkpt>
      <trkpt lat="45.7784" lon="4.64248">
        <ele>596.7</ele>
        <time>2013-04-18T11:05:42.600Z</time>
      </trkpt>
      <trkpt lat="45.77841" lon="4.64247">
        <ele>596.9</ele>
        <time>2013-04-18T11:05:43.600Z</time>
      </trkpt>
      <trkpt lat="45.77841" lon="4.64246">
        <ele>597.1</ele>
        <time>2013-04-18T11:05:44.600Z</time>
      </trkpt>
      <trkpt lat="45.77842" lon="4.64244">
        <ele>597.4</ele>
        <time>2013-04-18T11:05:45.700Z</time>
      </trkpt>
      <trkpt lat="45.77844" lon="4.64243">
        <ele>597.8</ele>
        <time>2013-04-18T11:05:46.700Z</time>
      </trkpt>
      <trkpt lat="45.77845" lon="4.64244">
        <ele>598.1</ele>
        <time>2013-04-18T11:05:47.700Z</time>
      </trkpt>
      <trkpt lat="45.77846" lon="4.64246">
        <ele>598.3</ele>
        <time>2013-04-18T11:05:48.700Z</time>
      </trkpt>
      <trkpt lat="45.77847" lon="4.64248">
        <ele>598.4</ele>
        <time>2013-04-18T11:05:49.700Z</time>
      </trkpt>
      <trkpt lat="45.77847" lon="4.6425">
        <ele>598.5</ele>
        <time>2013-04-18T11:05:50.650Z</time>
      </trkpt>
      <trkpt lat="45.77848" lon="4.64253">
        <ele>598.8</ele>
        <time>2013-04-18T11:05:51.700Z</time>
      </trkpt>
      <trkpt lat="45.77848" lon="4.64256">
        <ele>599.1</ele>
        <time>2013-04-18T11:05:52.680Z</time>
      </trkpt>
      <trkpt lat="45.77849" lon="4.64259">
        <ele>599.3</ele>
        <time>2013-04-18T11:05:53.700Z</time>
      </trkpt>
      <trkpt lat="45.77849" lon="4.64262">
        <ele>599.6</ele>
        <time>2013-04-18T11:05:54.700Z</time>
      </trkpt>
      <trkpt lat="45.77851" lon="4.64269">
        <ele>600.3</ele>
        <time>2013-04-18T11:05:56.790Z</time>
      </trkpt>
      <trkpt lat="45.77851" lon="4.64274">
        <ele>585.3</ele>
        <time>2013-04-18T11:05:58.790Z</time>
      </trkpt>
      <trkpt lat="45.77849" lon="4.6428">
        <ele>600.6</ele>
        <time>2013-04-18T11:06:00.590Z</time>
      </trkpt>
      <trkpt lat="45.77848" lon="4.64283">
        <ele>600.8</ele>
        <time>2013-04-18T11:06:01.590Z</time>
      </trkpt>
      <trkpt lat="45.77848" lon="4.64286">
        <ele>601.1</ele>
        <time>2013-04-18T11:06:02.590Z</time>
      </trkpt>
      <trkpt lat="45.77848" lon="4.64289">
        <ele>601.3</ele>
        <time>2013-04-18T11:06:03.790Z</time>
      </trkpt>
      <trkpt lat="45.77846" lon="4.64295">
        <ele>601.6</ele>
        <time>2013-04-18T11:06:05.590Z</time>
      </trkpt>
      <trkpt lat="45.77845" lon="4.64298">
        <ele>601.8</ele>
        <time>2013-04-18T11:06:06.590Z</time>
      </trkpt>
      <trkpt lat="45.77844" lon="4.64303">
        <ele>602</ele>
        <time>2013-04-18T11:06:07.590Z</time>
      </trkpt>
      <trkpt lat="45.77843" lon="4.64307">
        <ele>602.3</ele>
        <time>2013-04-18T11:06:08.590Z</time>
      </trkpt>
      <trkpt lat="45.77843" lon="4.64312">
        <ele>602.5</ele>
        <time>2013-04-18T11:06:09.590Z</time>
      </trkpt>
      <trkpt lat="45.77842" lon="4.64315">
        <ele>602.7</ele>
        <time>2013-04-18T11:06:10.590Z</time>
      </trkpt>
      <trkpt lat="45.77841" lon="4.6432">
        <ele>603</ele>
        <time>2013-04-18T11:06:11.590Z</time>
      </trkpt>
      <trkpt lat="45.77841" lon="4.64324">
        <ele>603.3</ele>
        <time>2013-04-18T11:06:12.590Z</time>
      </trkpt>
      <trkpt lat="45.77841" lon="4.64329">
        <ele>603.7</ele>
        <time>2013-04-18T11:06:13.590Z</time>
      </trkpt>
      <trkpt lat="45.77841" lon="4.64334">
        <ele>604.1</ele>
        <time>2013-04-18T11:06:14.570Z</time>
      </trkpt>
      <trkpt lat="45.7784" lon="4.64341">
        <ele>604.6</ele>
        <time>2013-04-18T11:06:16.640Z</time>
      </trkpt>
      <trkpt lat="45.7784" lon="4.64344">
        <ele>604.8</ele>
        <time>2013-04-18T11:06:17.690Z</time>
      </trkpt>
      <trkpt lat="45.7784" lon="4.64348">
        <ele>605.1</ele>
        <time>2013-04-18T11:06:18.690Z</time>
      </trkpt>
      <trkpt lat="45.7784" lon="4.64352">
        <ele>605.3</ele>
        <time>2013-04-18T11:06:19.690Z</time>
      </trkpt>
      <trkpt lat="45.77841" lon="4.64355">
        <ele>605.7</ele>
        <time>2013-04-18T11:06:20.690Z</time>
      </trkpt>
      <trkpt lat="45.7784" lon="4.64359">
        <ele>605.9</ele>
        <time>2013-04-18T11:06:21.690Z</time>
      </trkpt>
      <trkpt lat="45.77839" lon="4.64362">
        <ele>605.7</ele>
        <time>2013-04-18T11:06:22.690Z</time>
      </trkpt>
      <trkpt lat="45.77837" lon="4.64366">
        <ele>605.4</ele>
        <time>2013-04-18T11:06:23.690Z</time>
      </trkpt>
      <trkpt lat="45.77835" lon="4.64368">
        <ele>605</ele>
        <time>2013-04-18T11:06:24.690Z</time>
      </trkpt>
      <trkpt lat="45.77832" lon="4.64371">
        <ele>604.3</ele>
        <time>2013-04-18T11:06:25.690Z</time>
      </trkpt>
      <trkpt lat="45.77827" lon="4.64375">
        <ele>602.8</ele>
        <time>2013-04-18T11:06:27.590Z</time>
      </trkpt>
      <trkpt lat="45.77824" lon="4.64376">
        <ele>602.1</ele>
        <time>2013-04-18T11:06:28.590Z</time>
      </trkpt>
      <trkpt lat="45.77822" lon="4.64378">
        <ele>601.4</ele>
        <time>2013-04-18T11:06:29.590Z</time>
      </trkpt>
      <trkpt lat="45.77819" lon="4.64379">
        <ele>600.7</ele>
        <time>2013-04-18T11:06:30.590Z</time>
      </trkpt>
      <trkpt lat="45.77817" lon="4.64381">
        <ele>600.1</ele>
        <time>2013-04-18T11:06:31.790Z</time>
      </trkpt>
      <trkpt lat="45.77812" lon="4.64383">
        <ele>598.6</ele>
        <time>2013-04-18T11:06:33.650Z</time>
      </trkpt>
      <trkpt lat="45.77809" lon="4.64384">
        <ele>597.8</ele>
        <time>2013-04-18T11:06:34.690Z</time>
      </trkpt>
      <trkpt lat="45.77807" lon="4.64384">
        <ele>597</ele>
        <time>2013-04-18T11:06:35.690Z</time>
      </trkpt>
      <trkpt lat="45.77804" lon="4.64384">
        <ele>596</ele>
        <time>2013-04-18T11:06:36.680Z</time>
      </trkpt>
      <trkpt lat="45.77802" lon="4.64384">
        <ele>595</ele>
        <time>2013-04-18T11:06:37.680Z</time>
      </trkpt>
      <trkpt lat="45.778" lon="4.64383">
        <ele>594.2</ele>
        <time>2013-04-18T11:06:38.680Z</time>
      </trkpt>
      <trkpt lat="45.77798" lon="4.64382">
        <ele>593.4</ele>
        <time>2013-04-18T11:06:39.680Z</time>
      </trkpt>
      <trkpt lat="45.77794" lon="4.64381">
        <ele>591.5</ele>
        <time>2013-04-18T11:06:41.790Z</time>
      </trkpt>
      <trkpt lat="45.77791" lon="4.64383">
        <ele>590.1</ele>
        <time>2013-04-18T11:06:43.580Z</time>
      </trkpt>
      <trkpt lat="45.77789" lon="4.64385">
        <ele>589.3</ele>
        <time>2013-04-18T11:06:44.580Z</time>
      </trkpt>
      <trkpt lat="45.77786" lon="4.64386">
        <ele>588.5</ele>
        <time>2013-04-18T11:06:45.580Z</time>
      </trkpt>
      <trkpt lat="45.77784" lon="4.64387">
        <ele>587.7</ele>
        <time>2013-04-18T11:06:46.780Z</time>
      </trkpt>
      <trkpt lat="45.77779" lon="4.64392">
        <ele>585.8</ele>
        <time>2013-04-18T11:06:48.680Z</time>
      </trkpt>
      <trkpt lat="45.77777" lon="4.64392">
        <ele>584.7</ele>
        <time>2013-04-18T11:06:49.680Z</time>
      </trkpt>
      <trkpt lat="45.77774" lon="4.64393">
        <ele>583.6</ele>
        <time>2013-04-18T11:06:50.630Z</time>
      </trkpt>
      <trkpt lat="45.77772" lon="4.64393">
        <ele>582.9</ele>
        <time>2013-04-18T11:06:51.680Z</time>
      </trkpt>
      <trkpt lat="45.77769" lon="4.64395">
        <ele>581.8</ele>
        <time>2013-04-18T11:06:52.680Z</time>
      </trkpt>
      <trkpt lat="45.77767" lon="4.64394">
        <ele>580.8</ele>
        <time>2013-04-18T11:06:53.660Z</time>
      </trkpt>
      <trkpt lat="45.77765" lon="4.64393">
        <ele>579.6</ele>
        <time>2013-04-18T11:06:54.680Z</time>
      </trkpt>
      <trkpt lat="45.77762" lon="4.64393">
        <ele>578.7</ele>
        <time>2013-04-18T11:06:55.680Z</time>
      </trkpt>
      <trkpt lat="45.77761" lon="4.64393">
        <ele>577.9</ele>
        <time>2013-04-18T11:06:56.680Z</time>
      </trkpt>
      <trkpt lat="45.77759" lon="4.64392">
        <ele>577.3</ele>
        <time>2013-04-18T11:06:57.680Z</time>
      </trkpt>
      <trkpt lat="45.77758" lon="4.64391">
        <ele>593</ele>
        <time>2013-04-18T11:06:58.680Z</time>
      </trkpt>
      <trkpt lat="45.77754" lon="4.64391">
        <ele>574.8</ele>
        <time>2013-04-18T11:07:00.580Z</time>
      </trkpt>
      <trkpt lat="45.77751" lon="4.64391">
        <ele>573.7</ele>
        <time>2013-04-18T11:07:01.780Z</time>
      </trkpt>
      <trkpt lat="45.77746" lon="4.64389">
        <ele>571.1</ele>
        <time>2013-04-18T11:07:03.580Z</time>
      </trkpt>
      <trkpt lat="45.77743" lon="4.64389">
        <ele>569.8</ele>
        <time>2013-04-18T11:07:04.560Z</time>
      </trkpt>
      <trkpt lat="45.7774" lon="4.64389">
        <ele>568.8</ele>
        <time>2013-04-18T11:07:05.780Z</time>
      </trkpt>
      <trkpt lat="45.77735" lon="4.64389">
        <ele>566.7</ele>
        <time>2013-04-18T11:07:07.780Z</time>
      </trkpt>
      <trkpt lat="45.77731" lon="4.6439">
        <ele>564.9</ele>
        <time>2013-04-18T11:07:09.580Z</time>
      </trkpt>
      <trkpt lat="45.77729" lon="4.6439">
        <ele>563.8</ele>
        <time>2013-04-18T11:07:10.580Z</time>
      </trkpt>
      <trkpt lat="45.77725" lon="4.6439">
        <ele>562.5</ele>
        <time>2013-04-18T11:07:11.780Z</time>
      </trkpt>
      <trkpt lat="45.7772" lon="4.64392">
        <ele>560.4</ele>
        <time>2013-04-18T11:07:13.580Z</time>
      </trkpt>
      <trkpt lat="45.77718" lon="4.64392">
        <ele>559.7</ele>
        <time>2013-04-18T11:07:14.580Z</time>
      </trkpt>
      <trkpt lat="45.77717" lon="4.64391">
        <ele>559.1</ele>
        <time>2013-04-18T11:07:15.780Z</time>
      </trkpt>
      <trkpt lat="45.77713" lon="4.64388">
        <ele>557.4</ele>
        <time>2013-04-18T11:07:17.470Z</time>
      </trkpt>
      <trkpt lat="45.77712" lon="4.64386">
        <ele>556.7</ele>
        <time>2013-04-18T11:07:18.570Z</time>
      </trkpt>
      <trkpt lat="45.77711" lon="4.64386">
        <ele>556.3</ele>
        <time>2013-04-18T11:07:19.570Z</time>
      </trkpt>
      <trkpt lat="45.7771" lon="4.64389">
        <ele>556.1</ele>
        <time>2013-04-18T11:07:21.770Z</time>
      </trkpt>
      <trkpt lat="45.77708" lon="4.64394">
        <ele>555.8</ele>
        <time>2013-04-18T11:07:23.570Z</time>
      </trkpt>
      <trkpt lat="45.77707" lon="4.64397">
        <ele>555.7</ele>
        <time>2013-04-18T11:07:24.770Z</time>
      </trkpt>
      <trkpt lat="45.77703" lon="4.64405">
        <ele>555.3</ele>
        <time>2013-04-18T11:07:26.770Z</time>
      </trkpt>
      <trkpt lat="45.77701" lon="4.64407">
        <ele>554.6</ele>
        <time>2013-04-18T11:07:27.770Z</time>
      </trkpt>
      <trkpt lat="45.77699" lon="4.64409">
        <ele>553.9</ele>
        <time>2013-04-18T11:07:28.770Z</time>
      </trkpt>
      <trkpt lat="45.77694" lon="4.64413">
        <ele>552.5</ele>
        <time>2013-04-18T11:07:30.750Z</time>
      </trkpt>
      <trkpt lat="45.77693" lon="4.64415">
        <ele>552.1</ele>
        <time>2013-04-18T11:07:31.770Z</time>
      </trkpt>
      <trkpt lat="45.7769" lon="4.64417">
        <ele>551.5</ele>
        <time>2013-04-18T11:07:32.770Z</time>
      </trkpt>
      <trkpt lat="45.77686" lon="4.64423">
        <ele>550.4</ele>
        <time>2013-04-18T11:07:34.770Z</time>
      </trkpt>
      <trkpt lat="45.77684" lon="4.64427">
        <ele>549.9</ele>
        <time>2013-04-18T11:07:35.770Z</time>
      </trkpt>
      <trkpt lat="45.77682" lon="4.64432">
        <ele>549.6</ele>
        <time>2013-04-18T11:07:36.770Z</time>
      </trkpt>
      <trkpt lat="45.77681" lon="4.64436">
        <ele>549.4</ele>
        <time>2013-04-18T11:07:37.770Z</time>
      </trkpt>
      <trkpt lat="45.7768" lon="4.6444">
        <ele>549.3</ele>
        <time>2013-04-18T11:07:38.770Z</time>
      </trkpt>
      <trkpt lat="45.77678" lon="4.64445">
        <ele>549.2</ele>
        <time>2013-04-18T11:07:39.770Z</time>
      </trkpt>
      <trkpt lat="45.77676" lon="4.64449">
        <ele>548.5</ele>
        <time>2013-04-18T11:07:40.770Z</time>
      </trkpt>
      <trkpt lat="45.77675" lon="4.64453">
        <ele>547.8</ele>
        <time>2013-04-18T11:07:41.770Z</time>
      </trkpt>
      <trkpt lat="45.77673" lon="4.64456">
        <ele>547.2</ele>
        <time>2013-04-18T11:07:42.770Z</time>
      </trkpt>
      <trkpt lat="45.77669" lon="4.64463">
        <ele>546</ele>
        <time>2013-04-18T11:07:44.670Z</time>
      </trkpt>
      <trkpt lat="45.77668" lon="4.64465">
        <ele>545.4</ele>
        <time>2013-04-18T11:07:45.670Z</time>
      </trkpt>
      <trkpt lat="45.77666" lon="4.64468">
        <ele>544.8</ele>
        <time>2013-04-18T11:07:46.670Z</time>
      </trkpt>
      <trkpt lat="45.77664" lon="4.64472">
        <ele>544.2</ele>
        <time>2013-04-18T11:07:47.670Z</time>
      </trkpt>
      <trkpt lat="45.77662" lon="4.64476">
        <ele>543.4</ele>
        <time>2013-04-18T11:07:48.770Z</time>
      </trkpt>
      <trkpt lat="45.77659" lon="4.6448">
        <ele>542.5</ele>
        <time>2013-04-18T11:07:49.770Z</time>
      </trkpt>
      <trkpt lat="45.77657" lon="4.64485">
        <ele>541.7</ele>
        <time>2013-04-18T11:07:50.720Z</time>
      </trkpt>
      <trkpt lat="45.77655" lon="4.64489">
        <ele>541.1</ele>
        <time>2013-04-18T11:07:51.770Z</time>
      </trkpt>
      <trkpt lat="45.77653" lon="4.64493">
        <ele>540.4</ele>
        <time>2013-04-18T11:07:52.770Z</time>
      </trkpt>
      <trkpt lat="45.77649" lon="4.64502">
        <ele>538.7</ele>
        <time>2013-04-18T11:07:54.650Z</time>
      </trkpt>
      <trkpt lat="45.77646" lon="4.64506">
        <ele>537.7</ele>
        <time>2013-04-18T11:07:55.670Z</time>
      </trkpt>
      <trkpt lat="45.77644" lon="4.64509">
        <ele>537</ele>
        <time>2013-04-18T11:07:56.670Z</time>
      </trkpt>
      <trkpt lat="45.77641" lon="4.64512">
        <ele>536.1</ele>
        <time>2013-04-18T11:07:57.770Z</time>
      </trkpt>
      <trkpt lat="45.77637" lon="4.64515">
        <ele>563.9</ele>
        <time>2013-04-18T11:07:58.760Z</time>
      </trkpt>
      <trkpt lat="45.77631" lon="4.64522">
        <ele>533.3</ele>
        <time>2013-04-18T11:08:00.660Z</time>
      </trkpt>
      <trkpt lat="45.77629" lon="4.64525">
        <ele>532.5</ele>
        <time>2013-04-18T11:08:01.660Z</time>
      </trkpt>
      <trkpt lat="45.77625" lon="4.6453">
        <ele>531.4</ele>
        <time>2013-04-18T11:08:02.660Z</time>
      </trkpt>
      <trkpt lat="45.77622" lon="4.64534">
        <ele>530.3</ele>
        <time>2013-04-18T11:08:03.660Z</time>
      </trkpt>
      <trkpt lat="45.77619" lon="4.64537">
        <ele>529.4</ele>
        <time>2013-04-18T11:08:04.650Z</time>
      </trkpt>
      <trkpt lat="45.77618" lon="4.6454">
        <ele>528.9</ele>
        <time>2013-04-18T11:08:05.660Z</time>
      </trkpt>
      <trkpt lat="45.77616" lon="4.64545">
        <ele>528.4</ele>
        <time>2013-04-18T11:08:06.660Z</time>
      </trkpt>
      <trkpt lat="45.77615" lon="4.64548">
        <ele>527.9</ele>
        <time>2013-04-18T11:08:07.660Z</time>
      </trkpt>
      <trkpt lat="45.77614" lon="4.64552">
        <ele>527.6</ele>
        <time>2013-04-18T11:08:08.660Z</time>
      </trkpt>
      <trkpt lat="45.77612" lon="4.64555">
        <ele>527.2</ele>
        <time>2013-04-18T11:08:09.670Z</time>
      </trkpt>
      <trkpt lat="45.77612" lon="4.64558">
        <ele>526.8</ele>
        <time>2013-04-18T11:08:10.660Z</time>
      </trkpt>
      <trkpt lat="45.77611" lon="4.64563">
        <ele>526.2</ele>
        <time>2013-04-18T11:08:11.660Z</time>
      </trkpt>
      <trkpt lat="45.7761" lon="4.64569">
        <ele>525.3</ele>
        <time>2013-04-18T11:08:12.660Z</time>
      </trkpt>
      <trkpt lat="45.77607" lon="4.64574">
        <ele>524.3</ele>
        <time>2013-04-18T11:08:13.660Z</time>
      </trkpt>
      <trkpt lat="45.77604" lon="4.64579">
        <ele>523.3</ele>
        <time>2013-04-18T11:08:14.660Z</time>
      </trkpt>
      <trkpt lat="45.77602" lon="4.64583">
        <ele>522.4</ele>
        <time>2013-04-18T11:08:15.640Z</time>
      </trkpt>
      <trkpt lat="45.77599" lon="4.64588">
        <ele>521.2</ele>
        <time>2013-04-18T11:08:16.610Z</time>
      </trkpt>
      <trkpt lat="45.77595" lon="4.64593">
        <ele>519.9</ele>
        <time>2013-04-18T11:08:17.660Z</time>
      </trkpt>
      <trkpt lat="45.77592" lon="4.64598">
        <ele>518.8</ele>
        <time>2013-04-18T11:08:18.660Z</time>
      </trkpt>
      <trkpt lat="45.77589" lon="4.64602">
        <ele>518.1</ele>
        <time>2013-04-18T11:08:19.760Z</time>
      </trkpt>
      <trkpt lat="45.77585" lon="4.64606">
        <ele>517.5</ele>
        <time>2013-04-18T11:08:20.760Z</time>
      </trkpt>
      <trkpt lat="45.77582" lon="4.64609">
        <ele>516.8</ele>
        <time>2013-04-18T11:08:21.760Z</time>
      </trkpt>
      <trkpt lat="45.77578" lon="4.64612">
        <ele>515.7</ele>
        <time>2013-04-18T11:08:22.760Z</time>
      </trkpt>
      <trkpt lat="45.77575" lon="4.64615">
        <ele>514.7</ele>
        <time>2013-04-18T11:08:23.760Z</time>
      </trkpt>
      <trkpt lat="45.77573" lon="4.64617">
        <ele>513.8</ele>
        <time>2013-04-18T11:08:24.760Z</time>
      </trkpt>
      <trkpt lat="45.77569" lon="4.6462">
        <ele>512.8</ele>
        <time>2013-04-18T11:08:25.760Z</time>
      </trkpt>
      <trkpt lat="45.77566" lon="4.64622">
        <ele>511.8</ele>
        <time>2013-04-18T11:08:26.760Z</time>
      </trkpt>
      <trkpt lat="45.77562" lon="4.64624">
        <ele>510.8</ele>
        <time>2013-04-18T11:08:27.760Z</time>
      </trkpt>
      <trkpt lat="45.77555" lon="4.64623">
        <ele>509.7</ele>
        <time>2013-04-18T11:08:29.660Z</time>
      </trkpt>
      <trkpt lat="45.77552" lon="4.64622">
        <ele>509</ele>
        <time>2013-04-18T11:08:30.660Z</time>
      </trkpt>
      <trkpt lat="45.77549" lon="4.64623">
        <ele>508</ele>
        <time>2013-04-18T11:08:31.660Z</time>
      </trkpt>
      <trkpt lat="45.77546" lon="4.64624">
        <ele>507.1</ele>
        <time>2013-04-18T11:08:32.660Z</time>
      </trkpt>
      <trkpt lat="45.77544" lon="4.64625">
        <ele>506.5</ele>
        <time>2013-04-18T11:08:33.710Z</time>
      </trkpt>
      <trkpt lat="45.77541" lon="4.64623">
        <ele>506</ele>
        <time>2013-04-18T11:08:34.760Z</time>
      </trkpt>
      <trkpt lat="45.77538" lon="4.64621">
        <ele>505.3</ele>
        <time>2013-04-18T11:08:35.760Z</time>
      </trkpt>
      <trkpt lat="45.77536" lon="4.6462">
        <ele>504.7</ele>
        <time>2013-04-18T11:08:36.760Z</time>
      </trkpt>
      <trkpt lat="45.77533" lon="4.6462">
        <ele>504</ele>
        <time>2013-04-18T11:08:37.760Z</time>
      </trkpt>
      <trkpt lat="45.77527" lon="4.64622">
        <ele>502.4</ele>
        <time>2013-04-18T11:08:39.660Z</time>
      </trkpt>
      <trkpt lat="45.77527" lon="4.64624">
        <ele>502.2</ele>
        <time>2013-04-18T11:08:40.650Z</time>
      </trkpt>
      <trkpt lat="45.77527" lon="4.64626">
        <ele>502.3</ele>
        <time>2013-04-18T11:08:41.650Z</time>
      </trkpt>
      <trkpt lat="45.77527" lon="4.64628">
        <ele>502.3</ele>
        <time>2013-04-18T11:08:42.650Z</time>
      </trkpt>
      <trkpt lat="45.77527" lon="4.64629">
        <ele>502.2</ele>
        <time>2013-04-18T11:08:43.650Z</time>
      </trkpt>
      <trkpt lat="45.77527" lon="4.64632">
        <ele>502.1</ele>
        <time>2013-04-18T11:08:45.650Z</time>
      </trkpt>
      <trkpt lat="45.77527" lon="4.64635">
        <ele>501.9</ele>
        <time>2013-04-18T11:08:47.650Z</time>
      </trkpt>
      <trkpt lat="45.77526" lon="4.64636">
        <ele>501.7</ele>
        <time>2013-04-18T11:08:50.610Z</time>
      </trkpt>
      <trkpt lat="45.77527" lon="4.64638">
        <ele>501.8</ele>
        <time>2013-04-18T11:08:55.650Z</time>
      </trkpt>
      <trkpt lat="45.77528" lon="4.64641">
        <ele>501.8</ele>
        <time>2013-04-18T11:08:57.650Z</time>
      </trkpt>
      <trkpt lat="45.77528" lon="4.64643">
        <ele>526.2</ele>
        <time>2013-04-18T11:08:58.650Z</time>
      </trkpt>
      <trkpt lat="45.77528" lon="4.64646">
        <ele>501.4</ele>
        <time>2013-04-18T11:08:59.700Z</time>
      </trkpt>
      <trkpt lat="45.77529" lon="4.64649">
        <ele>501.1</ele>
        <time>2013-04-18T11:09:00.750Z</time>
      </trkpt>
      <trkpt lat="45.7753" lon="4.64653">
        <ele>500.8</ele>
        <time>2013-04-18T11:09:01.750Z</time>
      </trkpt>
      <trkpt lat="45.7753" lon="4.64656">
        <ele>500.5</ele>
        <time>2013-04-18T11:09:02.750Z</time>
      </trkpt>
      <trkpt lat="45.77531" lon="4.64664">
        <ele>499.9</ele>
        <time>2013-04-18T11:09:04.650Z</time>
      </trkpt>
      <trkpt lat="45.77531" lon="4.64666">
        <ele>499.6</ele>
        <time>2013-04-18T11:09:05.650Z</time>
      </trkpt>
      <trkpt lat="45.77532" lon="4.64668">
        <ele>499.3</ele>
        <time>2013-04-18T11:09:06.650Z</time>
      </trkpt>
      <trkpt lat="45.77532" lon="4.64672">
        <ele>498.7</ele>
        <time>2013-04-18T11:09:07.650Z</time>
      </trkpt>
      <trkpt lat="45.77533" lon="4.64676">
        <ele>498.1</ele>
        <time>2013-04-18T11:09:08.650Z</time>
      </trkpt>
      <trkpt lat="45.77535" lon="4.64677">
        <ele>497.9</ele>
        <time>2013-04-18T11:09:09.650Z</time>
      </trkpt>
      <trkpt lat="45.77536" lon="4.64678">
        <ele>497.8</ele>
        <time>2013-04-18T11:09:10.650Z</time>
      </trkpt>
      <trkpt lat="45.77538" lon="4.6468">
        <ele>497.7</ele>
        <time>2013-04-18T11:09:11.650Z</time>
      </trkpt>
      <trkpt lat="45.77539" lon="4.64682">
        <ele>497.3</ele>
        <time>2013-04-18T11:09:12.650Z</time>
      </trkpt>
      <trkpt lat="45.77541" lon="4.64685">
        <ele>496.8</ele>
        <time>2013-04-18T11:09:13.650Z</time>
      </trkpt>
      <trkpt lat="45.77542" lon="4.64687">
        <ele>496.4</ele>
        <time>2013-04-18T11:09:14.650Z</time>
      </trkpt>
      <trkpt lat="45.77548" lon="4.64687">
        <ele>496.8</ele>
        <time>2013-04-18T11:09:16.670Z</time>
      </trkpt>
      <trkpt lat="45.77555" lon="4.64686">
        <ele>497.7</ele>
        <time>2013-04-18T11:09:18.650Z</time>
      </trkpt>
      <trkpt lat="45.77558" lon="4.64687">
        <ele>497.3</ele>
        <time>2013-04-18T11:09:19.650Z</time>
      </trkpt>
      <trkpt lat="45.77562" lon="4.64688">
        <ele>496.6</ele>
        <time>2013-04-18T11:09:20.640Z</time>
      </trkpt>
      <trkpt lat="45.77565" lon="4.6469">
        <ele>496</ele>
        <time>2013-04-18T11:09:21.640Z</time>
      </trkpt>
      <trkpt lat="45.77568" lon="4.6469">
        <ele>495.6</ele>
        <time>2013-04-18T11:09:22.740Z</time>
      </trkpt>
      <trkpt lat="45.77571" lon="4.64692">
        <ele>495</ele>
        <time>2013-04-18T11:09:23.740Z</time>
      </trkpt>
      <trkpt lat="45.77573" lon="4.64692">
        <ele>494.8</ele>
        <time>2013-04-18T11:09:24.740Z</time>
      </trkpt>
      <trkpt lat="45.77576" lon="4.64693">
        <ele>494.1</ele>
        <time>2013-04-18T11:09:25.740Z</time>
      </trkpt>
      <trkpt lat="45.77577" lon="4.64695">
        <ele>493.3</ele>
        <time>2013-04-18T11:09:26.740Z</time>
      </trkpt>
      <trkpt lat="45.77579" lon="4.64698">
        <ele>492.6</ele>
        <time>2013-04-18T11:09:27.700Z</time>
      </trkpt>
      <trkpt lat="45.77579" lon="4.647">
        <ele>491.8</ele>
        <time>2013-04-18T11:09:28.740Z</time>
      </trkpt>
      <trkpt lat="45.77579" lon="4.64703">
        <ele>491.2</ele>
        <time>2013-04-18T11:09:29.740Z</time>
      </trkpt>
      <trkpt lat="45.77578" lon="4.64707">
        <ele>490.3</ele>
        <time>2013-04-18T11:09:30.740Z</time>
      </trkpt>
      <trkpt lat="45.77576" lon="4.64711">
        <ele>489.1</ele>
        <time>2013-04-18T11:09:31.740Z</time>
      </trkpt>
      <trkpt lat="45.77575" lon="4.64715">
        <ele>488.1</ele>
        <time>2013-04-18T11:09:32.740Z</time>
      </trkpt>
      <trkpt lat="45.77574" lon="4.64718">
        <ele>487.1</ele>
        <time>2013-04-18T11:09:33.690Z</time>
      </trkpt>
      <trkpt lat="45.77573" lon="4.64722">
        <ele>486</ele>
        <time>2013-04-18T11:09:34.740Z</time>
      </trkpt>
      <trkpt lat="45.7757" lon="4.64725">
        <ele>485.4</ele>
        <time>2013-04-18T11:09:35.740Z</time>
      </trkpt>
      <trkpt lat="45.77569" lon="4.64727">
        <ele>484.9</ele>
        <time>2013-04-18T11:09:36.750Z</time>
      </trkpt>
      <trkpt lat="45.77567" lon="4.64729">
        <ele>484.4</ele>
        <time>2013-04-18T11:09:37.740Z</time>
      </trkpt>
      <trkpt lat="45.77561" lon="4.64732">
        <ele>483.2</ele>
        <time>2013-04-18T11:09:39.640Z</time>
      </trkpt>
      <trkpt lat="45.77559" lon="4.64734">
        <ele>482.5</ele>
        <time>2013-04-18T11:09:40.640Z</time>
      </trkpt>
      <trkpt lat="45.77557" lon="4.64736">
        <ele>481.8</ele>
        <time>2013-04-18T11:09:41.640Z</time>
      </trkpt>
      <trkpt lat="45.77556" lon="4.64739">
        <ele>481</ele>
        <time>2013-04-18T11:09:42.640Z</time>
      </trkpt>
      <trkpt lat="45.77554" lon="4.64741">
        <ele>480.5</ele>
        <time>2013-04-18T11:09:43.640Z</time>
      </trkpt>
      <trkpt lat="45.77553" lon="4.64743">
        <ele>479.9</ele>
        <time>2013-04-18T11:09:44.640Z</time>
      </trkpt>
      <trkpt lat="45.77552" lon="4.64745">
        <ele>479.3</ele>
        <time>2013-04-18T11:09:45.640Z</time>
      </trkpt>
      <trkpt lat="45.7755" lon="4.64747">
        <ele>478.7</ele>
        <time>2013-04-18T11:09:46.640Z</time>
      </trkpt>
      <trkpt lat="45.77548" lon="4.64748">
        <ele>477.9</ele>
        <time>2013-04-18T11:09:47.640Z</time>
      </trkpt>
      <trkpt lat="45.77546" lon="4.64751">
        <ele>477</ele>
        <time>2013-04-18T11:09:48.740Z</time>
      </trkpt>
      <trkpt lat="45.77544" lon="4.64752">
        <ele>476.5</ele>
        <time>2013-04-18T11:09:49.740Z</time>
      </trkpt>
      <trkpt lat="45.77539" lon="4.64755">
        <ele>475.2</ele>
        <time>2013-04-18T11:09:51.640Z</time>
      </trkpt>
      <trkpt lat="45.77537" lon="4.64754">
        <ele>474.8</ele>
        <time>2013-04-18T11:09:52.640Z</time>
      </trkpt>
      <trkpt lat="45.77536" lon="4.64755">
        <ele>474.6</ele>
        <time>2013-04-18T11:09:53.640Z</time>
      </trkpt>
      <trkpt lat="45.77536" lon="4.64756">
        <ele>474.6</ele>
        <time>2013-04-18T11:09:54.640Z</time>
      </trkpt>
      <trkpt lat="45.77537" lon="4.64758">
        <ele>474.8</ele>
        <time>2013-04-18T11:09:55.640Z</time>
      </trkpt>
      <trkpt lat="45.77538" lon="4.6476">
        <ele>474.8</ele>
        <time>2013-04-18T11:09:56.640Z</time>
      </trkpt>
      <trkpt lat="45.77536" lon="4.64763">
        <ele>510.3</ele>
        <time>2013-04-18T11:09:58.630Z</time>
      </trkpt>
      <trkpt lat="45.77534" lon="4.64764">
        <ele>473.7</ele>
        <time>2013-04-18T11:09:59.690Z</time>
      </trkpt>
      <trkpt lat="45.77532" lon="4.64768">
        <ele>473</ele>
        <time>2013-04-18T11:10:01.720Z</time>
      </trkpt>
      <trkpt lat="45.77531" lon="4.64769">
        <ele>472.4</ele>
        <time>2013-04-18T11:10:02.730Z</time>
      </trkpt>
      <trkpt lat="45.77529" lon="4.64771">
        <ele>471.9</ele>
        <time>2013-04-18T11:10:03.730Z</time>
      </trkpt>
      <trkpt lat="45.77528" lon="4.64773">
        <ele>471.3</ele>
        <time>2013-04-18T11:10:04.730Z</time>
      </trkpt>
      <trkpt lat="45.77527" lon="4.64774">
        <ele>471</ele>
        <time>2013-04-18T11:10:05.730Z</time>
      </trkpt>
      <trkpt lat="45.77526" lon="4.64776">
        <ele>470.7</ele>
        <time>2013-04-18T11:10:06.730Z</time>
      </trkpt>
      <trkpt lat="45.77524" lon="4.64778">
        <ele>470.3</ele>
        <time>2013-04-18T11:10:07.730Z</time>
      </trkpt>
      <trkpt lat="45.77523" lon="4.64781">
        <ele>470.2</ele>
        <time>2013-04-18T11:10:08.730Z</time>
      </trkpt>
      <trkpt lat="45.77522" lon="4.64783">
        <ele>470</ele>
        <time>2013-04-18T11:10:09.730Z</time>
      </trkpt>
      <trkpt lat="45.77521" lon="4.64784">
        <ele>470</ele>
        <time>2013-04-18T11:10:10.730Z</time>
      </trkpt>
      <trkpt lat="45.7752" lon="4.64786">
        <ele>469.8</ele>
        <time>2013-04-18T11:10:11.730Z</time>
      </trkpt>
      <trkpt lat="45.77518" lon="4.64789">
        <ele>469.5</ele>
        <time>2013-04-18T11:10:12.710Z</time>
      </trkpt>
      <trkpt lat="45.77517" lon="4.6479">
        <ele>469.1</ele>
        <time>2013-04-18T11:10:13.730Z</time>
      </trkpt>
      <trkpt lat="45.77514" lon="4.64792">
        <ele>468.6</ele>
        <time>2013-04-18T11:10:14.730Z</time>
      </trkpt>
      <trkpt lat="45.77512" lon="4.64793">
        <ele>468.2</ele>
        <time>2013-04-18T11:10:15.730Z</time>
      </trkpt>
      <trkpt lat="45.77511" lon="4.64794">
        <ele>467.7</ele>
        <time>2013-04-18T11:10:16.680Z</time>
      </trkpt>
      <trkpt lat="45.77509" lon="4.64797">
        <ele>467.4</ele>
        <time>2013-04-18T11:10:17.730Z</time>
      </trkpt>
      <trkpt lat="45.77508" lon="4.64798">
        <ele>467.2</ele>
        <time>2013-04-18T11:10:18.730Z</time>
      </trkpt>
      <trkpt lat="45.77507" lon="4.64801">
        <ele>466.8</ele>
        <time>2013-04-18T11:10:19.730Z</time>
      </trkpt>
      <trkpt lat="45.77505" lon="4.64802">
        <ele>466.4</ele>
        <time>2013-04-18T11:10:20.730Z</time>
      </trkpt>
      <trkpt lat="45.77504" lon="4.64803">
        <ele>466.1</ele>
        <time>2013-04-18T11:10:21.730Z</time>
      </trkpt>
      <trkpt lat="45.77503" lon="4.64803">
        <ele>465.8</ele>
        <time>2013-04-18T11:10:22.730Z</time>
      </trkpt>
      <trkpt lat="45.77501" lon="4.64804">
        <ele>465.3</ele>
        <time>2013-04-18T11:10:23.740Z</time>
      </trkpt>
      <trkpt lat="45.77499" lon="4.64805">
        <ele>464.8</ele>
        <time>2013-04-18T11:10:24.730Z</time>
      </trkpt>
      <trkpt lat="45.77498" lon="4.64806">
        <ele>464.5</ele>
        <time>2013-04-18T11:10:25.730Z</time>
      </trkpt>
      <trkpt lat="45.77496" lon="4.64808">
        <ele>463.9</ele>
        <time>2013-04-18T11:10:26.730Z</time>
      </trkpt>
      <trkpt lat="45.77493" lon="4.64812">
        <ele>463.2</ele>
        <time>2013-04-18T11:10:27.730Z</time>
      </trkpt>
      <trkpt lat="45.77491" lon="4.64814">
        <ele>462.7</ele>
        <time>2013-04-18T11:10:28.730Z</time>
      </trkpt>
      <trkpt lat="45.77489" lon="4.64819">
        <ele>462.3</ele>
        <time>2013-04-18T11:10:30.630Z</time>
      </trkpt>
      <trkpt lat="45.77488" lon="4.64821">
        <ele>462</ele>
        <time>2013-04-18T11:10:31.630Z</time>
      </trkpt>
      <trkpt lat="45.77487" lon="4.64823">
        <ele>461.6</ele>
        <time>2013-04-18T11:10:32.640Z</time>
      </trkpt>
      <trkpt lat="45.77486" lon="4.64826">
        <ele>461.3</ele>
        <time>2013-04-18T11:10:33.580Z</time>
      </trkpt>
      <trkpt lat="45.77484" lon="4.64829">
        <ele>461.1</ele>
        <time>2013-04-18T11:10:34.630Z</time>
      </trkpt>
      <trkpt lat="45.77483" lon="4.64833">
        <ele>460.8</ele>
        <time>2013-04-18T11:10:35.710Z</time>
      </trkpt>
      <trkpt lat="45.77482" lon="4.64837">
        <ele>460.4</ele>
        <time>2013-04-18T11:10:36.730Z</time>
      </trkpt>
      <trkpt lat="45.77482" lon="4.64841">
        <ele>460</ele>
        <time>2013-04-18T11:10:37.730Z</time>
      </trkpt>
      <trkpt lat="45.7748" lon="4.64845">
        <ele>459.5</ele>
        <time>2013-04-18T11:10:38.730Z</time>
      </trkpt>
      <trkpt lat="45.7748" lon="4.64854">
        <ele>458.9</ele>
        <time>2013-04-18T11:10:40.630Z</time>
      </trkpt>
      <trkpt lat="45.77478" lon="4.64859">
        <ele>458.3</ele>
        <time>2013-04-18T11:10:41.630Z</time>
      </trkpt>
      <trkpt lat="45.77477" lon="4.64864">
        <ele>458.1</ele>
        <time>2013-04-18T11:10:42.620Z</time>
      </trkpt>
      <trkpt lat="45.77475" lon="4.64869">
        <ele>458</ele>
        <time>2013-04-18T11:10:43.630Z</time>
      </trkpt>
      <trkpt lat="45.77473" lon="4.64874">
        <ele>457.6</ele>
        <time>2013-04-18T11:10:44.620Z</time>
      </trkpt>
      <trkpt lat="45.77471" lon="4.64878">
        <ele>457.4</ele>
        <time>2013-04-18T11:10:45.720Z</time>
      </trkpt>
      <trkpt lat="45.77469" lon="4.64883">
        <ele>457.2</ele>
        <time>2013-04-18T11:10:46.720Z</time>
      </trkpt>
      <trkpt lat="45.77467" lon="4.64888">
        <ele>456.9</ele>
        <time>2013-04-18T11:10:47.700Z</time>
      </trkpt>
      <trkpt lat="45.77465" lon="4.64893">
        <ele>456.7</ele>
        <time>2013-04-18T11:10:48.720Z</time>
      </trkpt>
      <trkpt lat="45.77463" lon="4.64898">
        <ele>456.4</ele>
        <time>2013-04-18T11:10:49.720Z</time>
      </trkpt>
      <trkpt lat="45.77461" lon="4.64902">
        <ele>456.1</ele>
        <time>2013-04-18T11:10:50.680Z</time>
      </trkpt>
      <trkpt lat="45.77459" lon="4.64906">
        <ele>455.7</ele>
        <time>2013-04-18T11:10:51.720Z</time>
      </trkpt>
      <trkpt lat="45.77456" lon="4.6491">
        <ele>455.2</ele>
        <time>2013-04-18T11:10:52.720Z</time>
      </trkpt>
      <trkpt lat="45.77455" lon="4.64915">
        <ele>454.9</ele>
        <time>2013-04-18T11:10:53.720Z</time>
      </trkpt>
      <trkpt lat="45.77453" lon="4.64919">
        <ele>454.6</ele>
        <time>2013-04-18T11:10:54.720Z</time>
      </trkpt>
      <trkpt lat="45.77451" lon="4.64927">
        <ele>453.9</ele>
        <time>2013-04-18T11:10:56.620Z</time>
      </trkpt>
      <trkpt lat="45.7745" lon="4.64932">
        <ele>453.7</ele>
        <time>2013-04-18T11:10:57.620Z</time>
      </trkpt>
      <trkpt lat="45.7745" lon="4.64936">
        <ele>485</ele>
        <time>2013-04-18T11:10:58.620Z</time>
      </trkpt>
      <trkpt lat="45.77448" lon="4.64944">
        <ele>453.3</ele>
        <time>2013-04-18T11:11:00.620Z</time>
      </trkpt>
      <trkpt lat="45.77448" lon="4.64948">
        <ele>453.2</ele>
        <time>2013-04-18T11:11:01.620Z</time>
      </trkpt>
      <trkpt lat="45.77447" lon="4.64953">
        <ele>453.1</ele>
        <time>2013-04-18T11:11:02.620Z</time>
      </trkpt>
      <trkpt lat="45.77446" lon="4.64957">
        <ele>452.9</ele>
        <time>2013-04-18T11:11:03.620Z</time>
      </trkpt>
      <trkpt lat="45.77445" lon="4.64961">
        <ele>452.7</ele>
        <time>2013-04-18T11:11:04.620Z</time>
      </trkpt>
      <trkpt lat="45.77444" lon="4.64965">
        <ele>452.6</ele>
        <time>2013-04-18T11:11:05.720Z</time>
      </trkpt>
      <trkpt lat="45.77443" lon="4.64969">
        <ele>452.7</ele>
        <time>2013-04-18T11:11:06.720Z</time>
      </trkpt>
      <trkpt lat="45.77443" lon="4.64974">
        <ele>452.8</ele>
        <time>2013-04-18T11:11:07.720Z</time>
      </trkpt>
      <trkpt lat="45.77441" lon="4.64979">
        <ele>452.8</ele>
        <time>2013-04-18T11:11:08.720Z</time>
      </trkpt>
      <trkpt lat="45.77439" lon="4.64987">
        <ele>452.6</ele>
        <time>2013-04-18T11:11:10.620Z</time>
      </trkpt>
      <trkpt lat="45.77437" lon="4.64991">
        <ele>452.4</ele>
        <time>2013-04-18T11:11:11.620Z</time>
      </trkpt>
      <trkpt lat="45.77436" lon="4.64995">
        <ele>452.3</ele>
        <time>2013-04-18T11:11:12.620Z</time>
      </trkpt>
      <trkpt lat="45.77436" lon="4.64998">
        <ele>452.3</ele>
        <time>2013-04-18T11:11:13.620Z</time>
      </trkpt>
      <trkpt lat="45.77435" lon="4.65003">
        <ele>452.2</ele>
        <time>2013-04-18T11:11:14.620Z</time>
      </trkpt>
      <trkpt lat="45.77434" lon="4.65007">
        <ele>452</ele>
        <time>2013-04-18T11:11:15.720Z</time>
      </trkpt>
      <trkpt lat="45.77432" lon="4.65015">
        <ele>451.5</ele>
        <time>2013-04-18T11:11:17.620Z</time>
      </trkpt>
      <trkpt lat="45.77432" lon="4.65018">
        <ele>451.4</ele>
        <time>2013-04-18T11:11:18.620Z</time>
      </trkpt>
      <trkpt lat="45.7743" lon="4.65022">
        <ele>451</ele>
        <time>2013-04-18T11:11:19.620Z</time>
      </trkpt>
      <trkpt lat="45.7743" lon="4.65025">
        <ele>450.8</ele>
        <time>2013-04-18T11:11:20.720Z</time>
      </trkpt>
      <trkpt lat="45.77429" lon="4.65029">
        <ele>450.4</ele>
        <time>2013-04-18T11:11:21.700Z</time>
      </trkpt>
      <trkpt lat="45.77428" lon="4.65033">
        <ele>450.1</ele>
        <time>2013-04-18T11:11:22.720Z</time>
      </trkpt>
      <trkpt lat="45.77427" lon="4.65036">
        <ele>449.8</ele>
        <time>2013-04-18T11:11:23.720Z</time>
      </trkpt>
      <trkpt lat="45.7742" lon="4.65045">
        <ele>448.3</ele>
        <time>2013-04-18T11:11:25.610Z</time>
      </trkpt>
      <trkpt lat="45.77418" lon="4.65048">
        <ele>447.9</ele>
        <time>2013-04-18T11:11:26.610Z</time>
      </trkpt>
      <trkpt lat="45.77415" lon="4.65051">
        <ele>447.5</ele>
        <time>2013-04-18T11:11:27.610Z</time>
      </trkpt>
      <trkpt lat="45.77412" lon="4.65053">
        <ele>447.3</ele>
        <time>2013-04-18T11:11:28.610Z</time>
      </trkpt>
      <trkpt lat="45.7741" lon="4.65054">
        <ele>446.9</ele>
        <time>2013-04-18T11:11:29.610Z</time>
      </trkpt>
      <trkpt lat="45.77407" lon="4.65055">
        <ele>446.6</ele>
        <time>2013-04-18T11:11:30.610Z</time>
      </trkpt>
      <trkpt lat="45.77405" lon="4.65056">
        <ele>446.3</ele>
        <time>2013-04-18T11:11:31.610Z</time>
      </trkpt>
      <trkpt lat="45.77402" lon="4.65058">
        <ele>446.3</ele>
        <time>2013-04-18T11:11:32.610Z</time>
      </trkpt>
      <trkpt lat="45.774" lon="4.65059">
        <ele>446.1</ele>
        <time>2013-04-18T11:11:33.670Z</time>
      </trkpt>
      <trkpt lat="45.77397" lon="4.6506">
        <ele>446</ele>
        <time>2013-04-18T11:11:34.710Z</time>
      </trkpt>
      <trkpt lat="45.77393" lon="4.65065">
        <ele>446.1</ele>
        <time>2013-04-18T11:11:36.610Z</time>
      </trkpt>
      <trkpt lat="45.77391" lon="4.65068">
        <ele>446.3</ele>
        <time>2013-04-18T11:11:37.610Z</time>
      </trkpt>
      <trkpt lat="45.77389" lon="4.6507">
        <ele>446.2</ele>
        <time>2013-04-18T11:11:38.610Z</time>
      </trkpt>
      <trkpt lat="45.77386" lon="4.65073">
        <ele>445.9</ele>
        <time>2013-04-18T11:11:39.610Z</time>
      </trkpt>
      <trkpt lat="45.77384" lon="4.65076">
        <ele>445.6</ele>
        <time>2013-04-18T11:11:40.710Z</time>
      </trkpt>
      <trkpt lat="45.77382" lon="4.65079">
        <ele>445.4</ele>
        <time>2013-04-18T11:11:41.710Z</time>
      </trkpt>
      <trkpt lat="45.7738" lon="4.65082">
        <ele>445.3</ele>
        <time>2013-04-18T11:11:42.710Z</time>
      </trkpt>
      <trkpt lat="45.77378" lon="4.65084">
        <ele>445.1</ele>
        <time>2013-04-18T11:11:43.710Z</time>
      </trkpt>
      <trkpt lat="45.77374" lon="4.65089">
        <ele>444.3</ele>
        <time>2013-04-18T11:11:45.610Z</time>
      </trkpt>
      <trkpt lat="45.77371" lon="4.65092">
        <ele>443.8</ele>
        <time>2013-04-18T11:11:46.610Z</time>
      </trkpt>
      <trkpt lat="45.77369" lon="4.65095">
        <ele>443.3</ele>
        <time>2013-04-18T11:11:47.610Z</time>
      </trkpt>
      <trkpt lat="45.77366" lon="4.65098">
        <ele>442.7</ele>
        <time>2013-04-18T11:11:48.610Z</time>
      </trkpt>
      <trkpt lat="45.77364" lon="4.65101">
        <ele>442.1</ele>
        <time>2013-04-18T11:11:49.610Z</time>
      </trkpt>
      <trkpt lat="45.77362" lon="4.65104">
        <ele>441.8</ele>
        <time>2013-04-18T11:11:50.560Z</time>
      </trkpt>
      <trkpt lat="45.7736" lon="4.65107">
        <ele>441.6</ele>
        <time>2013-04-18T11:11:51.610Z</time>
      </trkpt>
      <trkpt lat="45.77358" lon="4.6511">
        <ele>441.4</ele>
        <time>2013-04-18T11:11:52.610Z</time>
      </trkpt>
      <trkpt lat="45.77356" lon="4.65114">
        <ele>441.4</ele>
        <time>2013-04-18T11:11:53.620Z</time>
      </trkpt>
      <trkpt lat="45.77353" lon="4.65118">
        <ele>441.6</ele>
        <time>2013-04-18T11:11:54.610Z</time>
      </trkpt>
      <trkpt lat="45.77351" lon="4.65123">
        <ele>441.6</ele>
        <time>2013-04-18T11:11:55.710Z</time>
      </trkpt>
      <trkpt lat="45.77348" lon="4.65126">
        <ele>441.2</ele>
        <time>2013-04-18T11:11:56.690Z</time>
      </trkpt>
      <trkpt lat="45.77345" lon="4.65131">
        <ele>441.1</ele>
        <time>2013-04-18T11:11:57.710Z</time>
      </trkpt>
      <trkpt lat="45.77343" lon="4.65135">
        <ele>467.4</ele>
        <time>2013-04-18T11:11:58.700Z</time>
      </trkpt>
      <trkpt lat="45.77341" lon="4.65139">
        <ele>440.3</ele>
        <time>2013-04-18T11:11:59.660Z</time>
      </trkpt>
      <trkpt lat="45.77338" lon="4.65142">
        <ele>440.2</ele>
        <time>2013-04-18T11:12:00.710Z</time>
      </trkpt>
      <trkpt lat="45.77337" lon="4.65146">
        <ele>440.2</ele>
        <time>2013-04-18T11:12:01.710Z</time>
      </trkpt>
      <trkpt lat="45.77335" lon="4.65149">
        <ele>440.3</ele>
        <time>2013-04-18T11:12:02.710Z</time>
      </trkpt>
      <trkpt lat="45.77333" lon="4.65153">
        <ele>440.5</ele>
        <time>2013-04-18T11:12:03.710Z</time>
      </trkpt>
      <trkpt lat="45.77329" lon="4.65161">
        <ele>440.7</ele>
        <time>2013-04-18T11:12:05.600Z</time>
      </trkpt>
      <trkpt lat="45.77326" lon="4.65165">
        <ele>440.5</ele>
        <time>2013-04-18T11:12:06.590Z</time>
      </trkpt>
      <trkpt lat="45.77324" lon="4.65168">
        <ele>440.2</ele>
        <time>2013-04-18T11:12:07.600Z</time>
      </trkpt>
      <trkpt lat="45.77322" lon="4.65172">
        <ele>440.1</ele>
        <time>2013-04-18T11:12:08.610Z</time>
      </trkpt>
      <trkpt lat="45.7732" lon="4.65176">
        <ele>440</ele>
        <time>2013-04-18T11:12:09.700Z</time>
      </trkpt>
      <trkpt lat="45.77318" lon="4.6518">
        <ele>439.9</ele>
        <time>2013-04-18T11:12:10.700Z</time>
      </trkpt>
      <trkpt lat="45.77316" lon="4.65184">
        <ele>439.8</ele>
        <time>2013-04-18T11:12:11.700Z</time>
      </trkpt>
      <trkpt lat="45.77313" lon="4.65188">
        <ele>439.5</ele>
        <time>2013-04-18T11:12:12.700Z</time>
      </trkpt>
      <trkpt lat="45.77311" lon="4.65191">
        <ele>439.2</ele>
        <time>2013-04-18T11:12:13.700Z</time>
      </trkpt>
      <trkpt lat="45.77309" lon="4.65195">
        <ele>439</ele>
        <time>2013-04-18T11:12:14.700Z</time>
      </trkpt>
      <trkpt lat="45.77304" lon="4.65202">
        <ele>438.7</ele>
        <time>2013-04-18T11:12:16.660Z</time>
      </trkpt>
      <trkpt lat="45.77302" lon="4.65208">
        <ele>438.6</ele>
        <time>2013-04-18T11:12:17.700Z</time>
      </trkpt>
      <trkpt lat="45.77299" lon="4.65213">
        <ele>438.5</ele>
        <time>2013-04-18T11:12:18.680Z</time>
      </trkpt>
      <trkpt lat="45.77296" lon="4.65219">
        <ele>438.2</ele>
        <time>2013-04-18T11:12:19.700Z</time>
      </trkpt>
      <trkpt lat="45.77291" lon="4.65229">
        <ele>437.4</ele>
        <time>2013-04-18T11:12:21.600Z</time>
      </trkpt>
      <trkpt lat="45.77288" lon="4.65234">
        <ele>436.8</ele>
        <time>2013-04-18T11:12:22.600Z</time>
      </trkpt>
      <trkpt lat="45.77286" lon="4.65239">
        <ele>436.2</ele>
        <time>2013-04-18T11:12:23.600Z</time>
      </trkpt>
      <trkpt lat="45.77282" lon="4.65245">
        <ele>435.3</ele>
        <time>2013-04-18T11:12:24.810Z</time>
      </trkpt>
      <trkpt lat="45.77276" lon="4.65254">
        <ele>434</ele>
        <time>2013-04-18T11:12:26.600Z</time>
      </trkpt>
      <trkpt lat="45.77274" lon="4.65259">
        <ele>434</ele>
        <time>2013-04-18T11:12:27.600Z</time>
      </trkpt>
      <trkpt lat="45.77272" lon="4.65264">
        <ele>433.9</ele>
        <time>2013-04-18T11:12:28.600Z</time>
      </trkpt>
      <trkpt lat="45.7727" lon="4.65269">
        <ele>433.9</ele>
        <time>2013-04-18T11:12:29.600Z</time>
      </trkpt>
      <trkpt lat="45.77268" lon="4.65274">
        <ele>433.7</ele>
        <time>2013-04-18T11:12:30.680Z</time>
      </trkpt>
      <trkpt lat="45.77267" lon="4.65277">
        <ele>433.3</ele>
        <time>2013-04-18T11:12:31.700Z</time>
      </trkpt>
      <trkpt lat="45.77265" lon="4.6528">
        <ele>432.9</ele>
        <time>2013-04-18T11:12:32.700Z</time>
      </trkpt>
      <trkpt lat="45.77261" lon="4.65289">
        <ele>432.4</ele>
        <time>2013-04-18T11:12:34.700Z</time>
      </trkpt>
      <trkpt lat="45.77258" lon="4.65293">
        <ele>431.9</ele>
        <time>2013-04-18T11:12:35.700Z</time>
      </trkpt>
      <trkpt lat="45.77257" lon="4.65297">
        <ele>431.7</ele>
        <time>2013-04-18T11:12:36.700Z</time>
      </trkpt>
      <trkpt lat="45.77254" lon="4.65302">
        <ele>431.2</ele>
        <time>2013-04-18T11:12:37.700Z</time>
      </trkpt>
      <trkpt lat="45.77251" lon="4.65306">
        <ele>430.3</ele>
        <time>2013-04-18T11:12:38.700Z</time>
      </trkpt>
      <trkpt lat="45.77245" lon="4.65313">
        <ele>429.8</ele>
        <time>2013-04-18T11:12:40.600Z</time>
      </trkpt>
      <trkpt lat="45.77242" lon="4.65317">
        <ele>429.5</ele>
        <time>2013-04-18T11:12:41.800Z</time>
      </trkpt>
      <trkpt lat="45.77239" lon="4.65324">
        <ele>429</ele>
        <time>2013-04-18T11:12:43.600Z</time>
      </trkpt>
      <trkpt lat="45.77237" lon="4.65328">
        <ele>428.6</ele>
        <time>2013-04-18T11:12:44.700Z</time>
      </trkpt>
      <trkpt lat="45.77235" lon="4.65333">
        <ele>428.2</ele>
        <time>2013-04-18T11:12:45.690Z</time>
      </trkpt>
      <trkpt lat="45.77233" lon="4.65336">
        <ele>427.6</ele>
        <time>2013-04-18T11:12:46.690Z</time>
      </trkpt>
      <trkpt lat="45.77231" lon="4.6534">
        <ele>427.1</ele>
        <time>2013-04-18T11:12:47.690Z</time>
      </trkpt>
      <trkpt lat="45.77229" lon="4.65344">
        <ele>426.8</ele>
        <time>2013-04-18T11:12:48.710Z</time>
      </trkpt>
      <trkpt lat="45.77227" lon="4.65348">
        <ele>426.1</ele>
        <time>2013-04-18T11:12:49.690Z</time>
      </trkpt>
      <trkpt lat="45.77223" lon="4.65355">
        <ele>425.1</ele>
        <time>2013-04-18T11:12:51.590Z</time>
      </trkpt>
      <trkpt lat="45.77221" lon="4.6536">
        <ele>424.9</ele>
        <time>2013-04-18T11:12:52.590Z</time>
      </trkpt>
      <trkpt lat="45.77219" lon="4.65364">
        <ele>425.1</ele>
        <time>2013-04-18T11:12:53.590Z</time>
      </trkpt>
      <trkpt lat="45.77216" lon="4.65368">
        <ele>425.2</ele>
        <time>2013-04-18T11:12:54.670Z</time>
      </trkpt>
      <trkpt lat="45.77211" lon="4.65376">
        <ele>424.6</ele>
        <time>2013-04-18T11:12:56.590Z</time>
      </trkpt>
      <trkpt lat="45.77207" lon="4.65382">
        <ele>423.8</ele>
        <time>2013-04-18T11:12:57.590Z</time>
      </trkpt>
      <trkpt lat="45.77203" lon="4.65387">
        <ele>451.6</ele>
        <time>2013-04-18T11:12:58.590Z</time>
      </trkpt>
      <trkpt lat="45.77199" lon="4.65393">
        <ele>421.6</ele>
        <time>2013-04-18T11:12:59.460Z</time>
      </trkpt>
      <trkpt lat="45.77197" lon="4.65398">
        <ele>421</ele>
        <time>2013-04-18T11:13:00.690Z</time>
      </trkpt>
      <trkpt lat="45.77193" lon="4.65402">
        <ele>420.8</ele>
        <time>2013-04-18T11:13:01.690Z</time>
      </trkpt>
      <trkpt lat="45.7719" lon="4.65405">
        <ele>421.7</ele>
        <time>2013-04-18T11:13:02.690Z</time>
      </trkpt>
      <trkpt lat="45.77186" lon="4.65406">
        <ele>422.4</ele>
        <time>2013-04-18T11:13:03.690Z</time>
      </trkpt>
      <trkpt lat="45.77184" lon="4.65403">
        <ele>423.1</ele>
        <time>2013-04-18T11:13:05.790Z</time>
      </trkpt>
      <trkpt lat="45.77185" lon="4.65397">
        <ele>423.3</ele>
        <time>2013-04-18T11:13:07.790Z</time>
      </trkpt>
      <trkpt lat="45.77185" lon="4.65394">
        <ele>423.5</ele>
        <time>2013-04-18T11:13:08.790Z</time>
      </trkpt>
      <trkpt lat="45.77186" lon="4.65388">
        <ele>423.6</ele>
        <time>2013-04-18T11:13:10.590Z</time>
      </trkpt>
      <trkpt lat="45.77185" lon="4.65385">
        <ele>424.2</ele>
        <time>2013-04-18T11:13:11.590Z</time>
      </trkpt>
      <trkpt lat="45.77185" lon="4.65382">
        <ele>424.8</ele>
        <time>2013-04-18T11:13:12.590Z</time>
      </trkpt>
      <trkpt lat="45.77185" lon="4.65379">
        <ele>425.3</ele>
        <time>2013-04-18T11:13:13.590Z</time>
      </trkpt>
      <trkpt lat="45.77185" lon="4.65376">
        <ele>425.6</ele>
        <time>2013-04-18T11:13:14.790Z</time>
      </trkpt>
      <trkpt lat="45.77187" lon="4.65373">
        <ele>425.2</ele>
        <time>2013-04-18T11:13:16.640Z</time>
      </trkpt>
      <trkpt lat="45.77188" lon="4.65372">
        <ele>425.2</ele>
        <time>2013-04-18T11:13:17.670Z</time>
      </trkpt>
      <trkpt lat="45.77189" lon="4.6537">
        <ele>425.2</ele>
        <time>2013-04-18T11:13:18.690Z</time>
      </trkpt>
      <trkpt lat="45.77189" lon="4.65367">
        <ele>425.5</ele>
        <time>2013-04-18T11:13:19.690Z</time>
      </trkpt>
      <trkpt lat="45.77189" lon="4.65364">
        <ele>425.8</ele>
        <time>2013-04-18T11:13:20.690Z</time>
      </trkpt>
      <trkpt lat="45.77189" lon="4.65362">
        <ele>426.1</ele>
        <time>2013-04-18T11:13:21.690Z</time>
      </trkpt>
      <trkpt lat="45.7719" lon="4.65358">
        <ele>426.8</ele>
        <time>2013-04-18T11:13:22.690Z</time>
      </trkpt>
      <trkpt lat="45.7719" lon="4.65355">
        <ele>427.2</ele>
        <time>2013-04-18T11:13:23.690Z</time>
      </trkpt>
      <trkpt lat="45.77191" lon="4.65353">
        <ele>427.2</ele>
        <time>2013-04-18T11:13:24.690Z</time>
      </trkpt>
      <trkpt lat="45.77192" lon="4.65352">
        <ele>426.9</ele>
        <time>2013-04-18T11:13:25.690Z</time>
      </trkpt>
      <trkpt lat="45.77193" lon="4.6535">
        <ele>427.2</ele>
        <time>2013-04-18T11:13:26.680Z</time>
      </trkpt>
      <trkpt lat="45.77193" lon="4.65347">
        <ele>427.8</ele>
        <time>2013-04-18T11:13:27.680Z</time>
      </trkpt>
      <trkpt lat="45.77193" lon="4.65345">
        <ele>428.3</ele>
        <time>2013-04-18T11:13:28.680Z</time>
      </trkpt>
      <trkpt lat="45.77193" lon="4.65343">
        <ele>428.8</ele>
        <time>2013-04-18T11:13:29.680Z</time>
      </trkpt>
      <trkpt lat="45.77192" lon="4.65341">
        <ele>429.3</ele>
        <time>2013-04-18T11:13:30.680Z</time>
      </trkpt>
      <trkpt lat="45.77192" lon="4.65339">
        <ele>430</ele>
        <time>2013-04-18T11:13:31.680Z</time>
      </trkpt>
      <trkpt lat="45.77191" lon="4.65337">
        <ele>430.5</ele>
        <time>2013-04-18T11:13:34.580Z</time>
      </trkpt>
      <trkpt lat="45.7719" lon="4.65334">
        <ele>431.7</ele>
        <time>2013-04-18T11:13:36.580Z</time>
      </trkpt>
      <trkpt lat="45.77188" lon="4.65333">
        <ele>432.7</ele>
        <time>2013-04-18T11:13:39.780Z</time>
      </trkpt>
      <trkpt lat="45.77187" lon="4.65331">
        <ele>433.6</ele>
        <time>2013-04-18T11:13:41.580Z</time>
      </trkpt>
      <trkpt lat="45.77187" lon="4.65329">
        <ele>433.9</ele>
        <time>2013-04-18T11:13:43.580Z</time>
      </trkpt>
      <trkpt lat="45.77187" lon="4.65327">
        <ele>434</ele>
        <time>2013-04-18T11:13:44.580Z</time>
      </trkpt>
      <trkpt lat="45.77188" lon="4.65326">
        <ele>434</ele>
        <time>2013-04-18T11:13:45.580Z</time>
      </trkpt>
      <trkpt lat="45.77188" lon="4.65324">
        <ele>434.3</ele>
        <time>2013-04-18T11:13:46.780Z</time>
      </trkpt>
      <trkpt lat="45.77189" lon="4.65321">
        <ele>434.2</ele>
        <time>2013-04-18T11:13:48.580Z</time>
      </trkpt>
      <trkpt lat="45.7719" lon="4.65319">
        <ele>434.4</ele>
        <time>2013-04-18T11:13:49.580Z</time>
      </trkpt>
      <trkpt lat="45.7719" lon="4.65316">
        <ele>434.8</ele>
        <time>2013-04-18T11:13:50.530Z</time>
      </trkpt>
      <trkpt lat="45.7719" lon="4.65314">
        <ele>435.2</ele>
        <time>2013-04-18T11:13:51.580Z</time>
      </trkpt>
      <trkpt lat="45.77189" lon="4.65312">
        <ele>435.9</ele>
        <time>2013-04-18T11:13:52.580Z</time>
      </trkpt>
      <trkpt lat="45.77189" lon="4.6531">
        <ele>436.4</ele>
        <time>2013-04-18T11:13:53.580Z</time>
      </trkpt>
      <trkpt lat="45.77188" lon="4.65308">
        <ele>436.9</ele>
        <time>2013-04-18T11:13:55.780Z</time>
      </trkpt>
      <trkpt lat="45.77189" lon="4.65306">
        <ele>437</ele>
        <time>2013-04-18T11:13:57.580Z</time>
      </trkpt>
      <trkpt lat="45.7719" lon="4.65304">
        <ele>445.9</ele>
        <time>2013-04-18T11:13:58.780Z</time>
      </trkpt>
      <trkpt lat="45.7719" lon="4.65302">
        <ele>437.1</ele>
        <time>2013-04-18T11:13:59.730Z</time>
      </trkpt>
      <trkpt lat="45.77192" lon="4.65299">
        <ele>437.3</ele>
        <time>2013-04-18T11:14:01.580Z</time>
      </trkpt>
      <trkpt lat="45.77193" lon="4.65297">
        <ele>437.1</ele>
        <time>2013-04-18T11:14:02.580Z</time>
      </trkpt>
      <trkpt lat="45.77193" lon="4.65294">
        <ele>437.5</ele>
        <time>2013-04-18T11:14:03.580Z</time>
      </trkpt>
      <trkpt lat="45.77193" lon="4.65291">
        <ele>437.9</ele>
        <time>2013-04-18T11:14:04.580Z</time>
      </trkpt>
      <trkpt lat="45.77194" lon="4.65289">
        <ele>438.2</ele>
        <time>2013-04-18T11:14:05.660Z</time>
      </trkpt>
      <trkpt lat="45.77196" lon="4.65285">
        <ele>438.2</ele>
        <time>2013-04-18T11:14:06.680Z</time>
      </trkpt>
      <trkpt lat="45.77197" lon="4.65283">
        <ele>438.1</ele>
        <time>2013-04-18T11:14:07.670Z</time>
      </trkpt>
      <trkpt lat="45.77198" lon="4.6528">
        <ele>438.2</ele>
        <time>2013-04-18T11:14:08.670Z</time>
      </trkpt>
      <trkpt lat="45.77198" lon="4.65275">
        <ele>439</ele>
        <time>2013-04-18T11:14:10.770Z</time>
      </trkpt>
      <trkpt lat="45.77199" lon="4.65271">
        <ele>439.3</ele>
        <time>2013-04-18T11:14:12.570Z</time>
      </trkpt>
      <trkpt lat="45.77199" lon="4.65268">
        <ele>439.7</ele>
        <time>2013-04-18T11:14:13.770Z</time>
      </trkpt>
      <trkpt lat="45.772" lon="4.65263">
        <ele>440</ele>
        <time>2013-04-18T11:14:15.570Z</time>
      </trkpt>
      <trkpt lat="45.77201" lon="4.65261">
        <ele>439.9</ele>
        <time>2013-04-18T11:14:16.730Z</time>
      </trkpt>
      <trkpt lat="45.77202" lon="4.65256">
        <ele>440</ele>
        <time>2013-04-18T11:14:18.750Z</time>
      </trkpt>
      <trkpt lat="45.77206" lon="4.6525">
        <ele>439.6</ele>
        <time>2013-04-18T11:14:20.670Z</time>
      </trkpt>
      <trkpt lat="45.77208" lon="4.65247">
        <ele>439.3</ele>
        <time>2013-04-18T11:14:21.670Z</time>
      </trkpt>
      <trkpt lat="45.77209" lon="4.65243">
        <ele>439.3</ele>
        <time>2013-04-18T11:14:22.680Z</time>
      </trkpt>
      <trkpt lat="45.7721" lon="4.6524">
        <ele>439.6</ele>
        <time>2013-04-18T11:14:23.670Z</time>
      </trkpt>
      <trkpt lat="45.7721" lon="4.65237">
        <ele>440.1</ele>
        <time>2013-04-18T11:14:24.670Z</time>
      </trkpt>
      <trkpt lat="45.7721" lon="4.65234">
        <ele>440.4</ele>
        <time>2013-04-18T11:14:25.670Z</time>
      </trkpt>
      <trkpt lat="45.77211" lon="4.65231">
        <ele>440.7</ele>
        <time>2013-04-18T11:14:26.670Z</time>
      </trkpt>
      <trkpt lat="45.77212" lon="4.65229">
        <ele>440.7</ele>
        <time>2013-04-18T11:14:27.770Z</time>
      </trkpt>
      <trkpt lat="45.77213" lon="4.65226">
        <ele>440.9</ele>
        <time>2013-04-18T11:14:28.770Z</time>
      </trkpt>
      <trkpt lat="45.77213" lon="4.65223">
        <ele>441.2</ele>
        <time>2013-04-18T11:14:29.770Z</time>
      </trkpt>
      <trkpt lat="45.77213" lon="4.65221">
        <ele>441.4</ele>
        <time>2013-04-18T11:14:30.780Z</time>
      </trkpt>
      <trkpt lat="45.77214" lon="4.65219">
        <ele>441.6</ele>
        <time>2013-04-18T11:14:31.770Z</time>
      </trkpt>
      <trkpt lat="45.77213" lon="4.65217">
        <ele>442</ele>
        <time>2013-04-18T11:14:32.770Z</time>
      </trkpt>
      <trkpt lat="45.77214" lon="4.6521">
        <ele>442.7</ele>
        <time>2013-04-18T11:14:34.670Z</time>
      </trkpt>
      <trkpt lat="45.77213" lon="4.65209">
        <ele>443</ele>
        <time>2013-04-18T11:14:36.670Z</time>
      </trkpt>
      <trkpt lat="45.77212" lon="4.65208">
        <ele>443.5</ele>
        <time>2013-04-18T11:14:37.670Z</time>
      </trkpt>
      <trkpt lat="45.77211" lon="4.65206">
        <ele>444.1</ele>
        <time>2013-04-18T11:14:38.670Z</time>
      </trkpt>
      <trkpt lat="45.7721" lon="4.65205">
        <ele>444.7</ele>
        <time>2013-04-18T11:14:39.670Z</time>
      </trkpt>
      <trkpt lat="45.77209" lon="4.65203">
        <ele>445.1</ele>
        <time>2013-04-18T11:14:40.670Z</time>
      </trkpt>
      <trkpt lat="45.77208" lon="4.65202">
        <ele>445.6</ele>
        <time>2013-04-18T11:14:41.670Z</time>
      </trkpt>
      <trkpt lat="45.77207" lon="4.65203">
        <ele>445.9</ele>
        <time>2013-04-18T11:14:43.670Z</time>
      </trkpt>
      <trkpt lat="45.77206" lon="4.65201">
        <ele>446.3</ele>
        <time>2013-04-18T11:14:44.670Z</time>
      </trkpt>
      <trkpt lat="45.77206" lon="4.65198">
        <ele>446.9</ele>
        <time>2013-04-18T11:14:45.670Z</time>
      </trkpt>
      <trkpt lat="45.77206" lon="4.65196">
        <ele>447.1</ele>
        <time>2013-04-18T11:14:46.670Z</time>
      </trkpt>
      <trkpt lat="45.77206" lon="4.65193">
        <ele>447.3</ele>
        <time>2013-04-18T11:14:47.670Z</time>
      </trkpt>
      <trkpt lat="45.77207" lon="4.6519">
        <ele>447.2</ele>
        <time>2013-04-18T11:14:48.670Z</time>
      </trkpt>
      <trkpt lat="45.77207" lon="4.65187">
        <ele>447.1</ele>
        <time>2013-04-18T11:14:49.660Z</time>
      </trkpt>
      <trkpt lat="45.77207" lon="4.65184">
        <ele>447.2</ele>
        <time>2013-04-18T11:14:50.620Z</time>
      </trkpt>
      <trkpt lat="45.77207" lon="4.65181">
        <ele>447.5</ele>
        <time>2013-04-18T11:14:51.660Z</time>
      </trkpt>
      <trkpt lat="45.77206" lon="4.65179">
        <ele>447.9</ele>
        <time>2013-04-18T11:14:52.660Z</time>
      </trkpt>
      <trkpt lat="45.77205" lon="4.65175">
        <ele>448.3</ele>
        <time>2013-04-18T11:14:53.640Z</time>
      </trkpt>
      <trkpt lat="45.77204" lon="4.65173">
        <ele>448.9</ele>
        <time>2013-04-18T11:14:54.670Z</time>
      </trkpt>
      <trkpt lat="45.77203" lon="4.6517">
        <ele>449.3</ele>
        <time>2013-04-18T11:14:55.660Z</time>
      </trkpt>
      <trkpt lat="45.77203" lon="4.65167">
        <ele>449.7</ele>
        <time>2013-04-18T11:14:56.660Z</time>
      </trkpt>
      <trkpt lat="45.77202" lon="4.65164">
        <ele>450</ele>
        <time>2013-04-18T11:14:57.660Z</time>
      </trkpt>
      <trkpt lat="45.77202" lon="4.65161">
        <ele>451.2</ele>
        <time>2013-04-18T11:14:58.660Z</time>
      </trkpt>
      <trkpt lat="45.77202" lon="4.65159">
        <ele>450.3</ele>
        <time>2013-04-18T11:14:59.720Z</time>
      </trkpt>
      <trkpt lat="45.77202" lon="4.65158">
        <ele>450.3</ele>
        <time>2013-04-18T11:15:00.760Z</time>
      </trkpt>
      <trkpt lat="45.77201" lon="4.65156">
        <ele>450.4</ele>
        <time>2013-04-18T11:15:01.760Z</time>
      </trkpt>
      <trkpt lat="45.77201" lon="4.65153">
        <ele>450.7</ele>
        <time>2013-04-18T11:15:02.760Z</time>
      </trkpt>
      <trkpt lat="45.77199" lon="4.65152">
        <ele>451.7</ele>
        <time>2013-04-18T11:15:04.660Z</time>
      </trkpt>
      <trkpt lat="45.77197" lon="4.65152">
        <ele>452.2</ele>
        <time>2013-04-18T11:15:05.660Z</time>
      </trkpt>
      <trkpt lat="45.77196" lon="4.65152">
        <ele>452.8</ele>
        <time>2013-04-18T11:15:06.660Z</time>
      </trkpt>
      <trkpt lat="45.77195" lon="4.65151">
        <ele>453.3</ele>
        <time>2013-04-18T11:15:07.660Z</time>
      </trkpt>
      <trkpt lat="45.77195" lon="4.65149">
        <ele>453.6</ele>
        <time>2013-04-18T11:15:08.660Z</time>
      </trkpt>
      <trkpt lat="45.77194" lon="4.65147">
        <ele>453.8</ele>
        <time>2013-04-18T11:15:09.660Z</time>
      </trkpt>
      <trkpt lat="45.77194" lon="4.65145">
        <ele>453.9</ele>
        <time>2013-04-18T11:15:10.660Z</time>
      </trkpt>
      <trkpt lat="45.77194" lon="4.65142">
        <ele>454</ele>
        <time>2013-04-18T11:15:11.660Z</time>
      </trkpt>
      <trkpt lat="45.77194" lon="4.65138">
        <ele>454.1</ele>
        <time>2013-04-18T11:15:12.660Z</time>
      </trkpt>
      <trkpt lat="45.77194" lon="4.65134">
        <ele>454</ele>
        <time>2013-04-18T11:15:13.660Z</time>
      </trkpt>
      <trkpt lat="45.77194" lon="4.65131">
        <ele>454.2</ele>
        <time>2013-04-18T11:15:14.660Z</time>
      </trkpt>
      <trkpt lat="45.77192" lon="4.65125">
        <ele>454.9</ele>
        <time>2013-04-18T11:15:16.610Z</time>
      </trkpt>
      <trkpt lat="45.77192" lon="4.65122">
        <ele>455</ele>
        <time>2013-04-18T11:15:17.660Z</time>
      </trkpt>
      <trkpt lat="45.77192" lon="4.6512">
        <ele>455.1</ele>
        <time>2013-04-18T11:15:18.660Z</time>
      </trkpt>
      <trkpt lat="45.77191" lon="4.65119">
        <ele>455.6</ele>
        <time>2013-04-18T11:15:19.660Z</time>
      </trkpt>
      <trkpt lat="45.7719" lon="4.65119">
        <ele>456.1</ele>
        <time>2013-04-18T11:15:20.660Z</time>
      </trkpt>
      <trkpt lat="45.77189" lon="4.65119">
        <ele>456.5</ele>
        <time>2013-04-18T11:15:21.660Z</time>
      </trkpt>
      <trkpt lat="45.77187" lon="4.65119">
        <ele>457</ele>
        <time>2013-04-18T11:15:22.660Z</time>
      </trkpt>
      <trkpt lat="45.77186" lon="4.65117">
        <ele>457.6</ele>
        <time>2013-04-18T11:15:23.660Z</time>
      </trkpt>
      <trkpt lat="45.77184" lon="4.65115">
        <ele>458.3</ele>
        <time>2013-04-18T11:15:24.660Z</time>
      </trkpt>
      <trkpt lat="45.77184" lon="4.65114">
        <ele>458.6</ele>
        <time>2013-04-18T11:15:25.660Z</time>
      </trkpt>
      <trkpt lat="45.77182" lon="4.65112">
        <ele>459.2</ele>
        <time>2013-04-18T11:15:27.640Z</time>
      </trkpt>
      <trkpt lat="45.77181" lon="4.65111">
        <ele>459.6</ele>
        <time>2013-04-18T11:15:29.650Z</time>
      </trkpt>
      <trkpt lat="45.7718" lon="4.6511">
        <ele>460.3</ele>
        <time>2013-04-18T11:15:31.650Z</time>
      </trkpt>
      <trkpt lat="45.77179" lon="4.65109">
        <ele>460.5</ele>
        <time>2013-04-18T11:15:32.650Z</time>
      </trkpt>
      <trkpt lat="45.77178" lon="4.65108">
        <ele>460.9</ele>
        <time>2013-04-18T11:15:33.610Z</time>
      </trkpt>
      <trkpt lat="45.77177" lon="4.65106">
        <ele>461.3</ele>
        <time>2013-04-18T11:15:35.750Z</time>
      </trkpt>
      <trkpt lat="45.77177" lon="4.65104">
        <ele>461.2</ele>
        <time>2013-04-18T11:15:36.750Z</time>
      </trkpt>
      <trkpt lat="45.77177" lon="4.65101">
        <ele>461.5</ele>
        <time>2013-04-18T11:15:37.750Z</time>
      </trkpt>
      <trkpt lat="45.77176" lon="4.65098">
        <ele>461.8</ele>
        <time>2013-04-18T11:15:38.750Z</time>
      </trkpt>
      <trkpt lat="45.77174" lon="4.65094">
        <ele>462.6</ele>
        <time>2013-04-18T11:15:40.650Z</time>
      </trkpt>
      <trkpt lat="45.77173" lon="4.65092">
        <ele>463</ele>
        <time>2013-04-18T11:15:41.660Z</time>
      </trkpt>
      <trkpt lat="45.77172" lon="4.6509">
        <ele>463.3</ele>
        <time>2013-04-18T11:15:42.650Z</time>
      </trkpt>
      <trkpt lat="45.77172" lon="4.65089">
        <ele>463.5</ele>
        <time>2013-04-18T11:15:43.650Z</time>
      </trkpt>
      <trkpt lat="45.77171" lon="4.65086">
        <ele>463.8</ele>
        <time>2013-04-18T11:15:44.650Z</time>
      </trkpt>
      <trkpt lat="45.77171" lon="4.65083">
        <ele>463.8</ele>
        <time>2013-04-18T11:15:45.650Z</time>
      </trkpt>
      <trkpt lat="45.77171" lon="4.65079">
        <ele>463.8</ele>
        <time>2013-04-18T11:15:46.650Z</time>
      </trkpt>
      <trkpt lat="45.7717" lon="4.65076">
        <ele>464</ele>
        <time>2013-04-18T11:15:47.650Z</time>
      </trkpt>
      <trkpt lat="45.77169" lon="4.65073">
        <ele>464.6</ele>
        <time>2013-04-18T11:15:48.650Z</time>
      </trkpt>
      <trkpt lat="45.77168" lon="4.6507">
        <ele>464.8</ele>
        <time>2013-04-18T11:15:49.650Z</time>
      </trkpt>
      <trkpt lat="45.77167" lon="4.65067">
        <ele>465.2</ele>
        <time>2013-04-18T11:15:50.600Z</time>
      </trkpt>
      <trkpt lat="45.77166" lon="4.65064">
        <ele>465.5</ele>
        <time>2013-04-18T11:15:51.630Z</time>
      </trkpt>
      <trkpt lat="45.77165" lon="4.6506">
        <ele>465.9</ele>
        <time>2013-04-18T11:15:52.650Z</time>
      </trkpt>
      <trkpt lat="45.77165" lon="4.65057">
        <ele>466</ele>
        <time>2013-04-18T11:15:53.650Z</time>
      </trkpt>
      <trkpt lat="45.77164" lon="4.65055">
        <ele>466.3</ele>
        <time>2013-04-18T11:15:54.650Z</time>
      </trkpt>
      <trkpt lat="45.77162" lon="4.65055">
        <ele>466.8</ele>
        <time>2013-04-18T11:15:55.750Z</time>
      </trkpt>
      <trkpt lat="45.7716" lon="4.65055">
        <ele>467.8</ele>
        <time>2013-04-18T11:15:57.750Z</time>
      </trkpt>
      <trkpt lat="45.77159" lon="4.65056">
        <ele>465</ele>
        <time>2013-04-18T11:15:58.740Z</time>
      </trkpt>
      <trkpt lat="45.77158" lon="4.65056">
        <ele>468.9</ele>
        <time>2013-04-18T11:16:00.650Z</time>
      </trkpt>
      <trkpt lat="45.77157" lon="4.65057">
        <ele>469.4</ele>
        <time>2013-04-18T11:16:01.640Z</time>
      </trkpt>
      <trkpt lat="45.77155" lon="4.6506">
        <ele>470.5</ele>
        <time>2013-04-18T11:16:03.640Z</time>
      </trkpt>
      <trkpt lat="45.77153" lon="4.65058">
        <ele>471</ele>
        <time>2013-04-18T11:16:05.640Z</time>
      </trkpt>
      <trkpt lat="45.77152" lon="4.65054">
        <ele>471</ele>
        <time>2013-04-18T11:16:06.640Z</time>
      </trkpt>
      <trkpt lat="45.77151" lon="4.65051">
        <ele>471.3</ele>
        <time>2013-04-18T11:16:07.740Z</time>
      </trkpt>
      <trkpt lat="45.7715" lon="4.65049">
        <ele>471.6</ele>
        <time>2013-04-18T11:16:08.740Z</time>
      </trkpt>
      <trkpt lat="45.77149" lon="4.65046">
        <ele>471.8</ele>
        <time>2013-04-18T11:16:09.740Z</time>
      </trkpt>
      <trkpt lat="45.77149" lon="4.65043">
        <ele>471.8</ele>
        <time>2013-04-18T11:16:10.740Z</time>
      </trkpt>
      <trkpt lat="45.77148" lon="4.6504">
        <ele>471.8</ele>
        <time>2013-04-18T11:16:11.740Z</time>
      </trkpt>
      <trkpt lat="45.77148" lon="4.65036">
        <ele>471.8</ele>
        <time>2013-04-18T11:16:12.740Z</time>
      </trkpt>
      <trkpt lat="45.77147" lon="4.65034">
        <ele>471.9</ele>
        <time>2013-04-18T11:16:13.740Z</time>
      </trkpt>
      <trkpt lat="45.77146" lon="4.65032">
        <ele>472.2</ele>
        <time>2013-04-18T11:16:14.740Z</time>
      </trkpt>
      <trkpt lat="45.77145" lon="4.6503">
        <ele>472.4</ele>
        <time>2013-04-18T11:16:15.740Z</time>
      </trkpt>
      <trkpt lat="45.77144" lon="4.65024">
        <ele>472.6</ele>
        <time>2013-04-18T11:16:17.640Z</time>
      </trkpt>
      <trkpt lat="45.77144" lon="4.65021">
        <ele>472.5</ele>
        <time>2013-04-18T11:16:18.640Z</time>
      </trkpt>
      <trkpt lat="45.77143" lon="4.65018">
        <ele>472.8</ele>
        <time>2013-04-18T11:16:19.640Z</time>
      </trkpt>
      <trkpt lat="45.77142" lon="4.65017">
        <ele>473.1</ele>
        <time>2013-04-18T11:16:20.640Z</time>
      </trkpt>
      <trkpt lat="45.77142" lon="4.65016">
        <ele>473.5</ele>
        <time>2013-04-18T11:16:21.640Z</time>
      </trkpt>
      <trkpt lat="45.7714" lon="4.65016">
        <ele>474.1</ele>
        <time>2013-04-18T11:16:25.640Z</time>
      </trkpt>
      <trkpt lat="45.77139" lon="4.65013">
        <ele>474.6</ele>
        <time>2013-04-18T11:16:26.620Z</time>
      </trkpt>
      <trkpt lat="45.77138" lon="4.65011">
        <ele>474.7</ele>
        <time>2013-04-18T11:16:27.640Z</time>
      </trkpt>
      <trkpt lat="45.77138" lon="4.65008">
        <ele>474.7</ele>
        <time>2013-04-18T11:16:28.640Z</time>
      </trkpt>
      <trkpt lat="45.77138" lon="4.65003">
        <ele>474.5</ele>
        <time>2013-04-18T11:16:29.640Z</time>
      </trkpt>
      <trkpt lat="45.77138" lon="4.64999">
        <ele>474.4</ele>
        <time>2013-04-18T11:16:30.640Z</time>
      </trkpt>
      <trkpt lat="45.77138" lon="4.64995">
        <ele>474.1</ele>
        <time>2013-04-18T11:16:31.640Z</time>
      </trkpt>
      <trkpt lat="45.77138" lon="4.64993">
        <ele>474</ele>
        <time>2013-04-18T11:16:32.640Z</time>
      </trkpt>
      <trkpt lat="45.77139" lon="4.6499">
        <ele>473.6</ele>
        <time>2013-04-18T11:16:33.590Z</time>
      </trkpt>
      <trkpt lat="45.77139" lon="4.64989">
        <ele>473.7</ele>
        <time>2013-04-18T11:16:34.640Z</time>
      </trkpt>
      <trkpt lat="45.77138" lon="4.64987">
        <ele>474</ele>
        <time>2013-04-18T11:16:35.640Z</time>
      </trkpt>
      <trkpt lat="45.77137" lon="4.64986">
        <ele>474.5</ele>
        <time>2013-04-18T11:16:36.640Z</time>
      </trkpt>
      <trkpt lat="45.77136" lon="4.64985">
        <ele>474.7</ele>
        <time>2013-04-18T11:16:37.640Z</time>
      </trkpt>
      <trkpt lat="45.77136" lon="4.64983">
        <ele>474.8</ele>
        <time>2013-04-18T11:16:38.630Z</time>
      </trkpt>
      <trkpt lat="45.77136" lon="4.64981">
        <ele>475</ele>
        <time>2013-04-18T11:16:39.740Z</time>
      </trkpt>
      <trkpt lat="45.77136" lon="4.64978">
        <ele>475</ele>
        <time>2013-04-18T11:16:40.740Z</time>
      </trkpt>
      <trkpt lat="45.77136" lon="4.64975">
        <ele>474.8</ele>
        <time>2013-04-18T11:16:41.740Z</time>
      </trkpt>
      <trkpt lat="45.77136" lon="4.64972">
        <ele>474.8</ele>
        <time>2013-04-18T11:16:42.730Z</time>
      </trkpt>
      <trkpt lat="45.77136" lon="4.64969">
        <ele>474.9</ele>
        <time>2013-04-18T11:16:43.730Z</time>
      </trkpt>
      <trkpt lat="45.77136" lon="4.64966">
        <ele>474.8</ele>
        <time>2013-04-18T11:16:44.730Z</time>
      </trkpt>
      <trkpt lat="45.77136" lon="4.64962">
        <ele>475</ele>
        <time>2013-04-18T11:16:45.730Z</time>
      </trkpt>
      <trkpt lat="45.77136" lon="4.6496">
        <ele>475.4</ele>
        <time>2013-04-18T11:16:46.730Z</time>
      </trkpt>
      <trkpt lat="45.77135" lon="4.64957">
        <ele>476</ele>
        <time>2013-04-18T11:16:47.730Z</time>
      </trkpt>
      <trkpt lat="45.77135" lon="4.64955">
        <ele>476.4</ele>
        <time>2013-04-18T11:16:48.730Z</time>
      </trkpt>
      <trkpt lat="45.77134" lon="4.64952">
        <ele>476.8</ele>
        <time>2013-04-18T11:16:49.720Z</time>
      </trkpt>
      <trkpt lat="45.77133" lon="4.6495">
        <ele>477.3</ele>
        <time>2013-04-18T11:16:50.690Z</time>
      </trkpt>
      <trkpt lat="45.77133" lon="4.64947">
        <ele>477.7</ele>
        <time>2013-04-18T11:16:51.730Z</time>
      </trkpt>
      <trkpt lat="45.77132" lon="4.64945">
        <ele>478.2</ele>
        <time>2013-04-18T11:16:52.730Z</time>
      </trkpt>
      <trkpt lat="45.77132" lon="4.6494">
        <ele>478.7</ele>
        <time>2013-04-18T11:16:54.630Z</time>
      </trkpt>
      <trkpt lat="45.77132" lon="4.64938">
        <ele>478.8</ele>
        <time>2013-04-18T11:16:55.630Z</time>
      </trkpt>
      <trkpt lat="45.77132" lon="4.64934">
        <ele>479.2</ele>
        <time>2013-04-18T11:16:56.630Z</time>
      </trkpt>
      <trkpt lat="45.77131" lon="4.64932">
        <ele>479.6</ele>
        <time>2013-04-18T11:16:57.630Z</time>
      </trkpt>
      <trkpt lat="45.77132" lon="4.64929">
        <ele>478.4</ele>
        <time>2013-04-18T11:16:58.630Z</time>
      </trkpt>
      <trkpt lat="45.77132" lon="4.64927">
        <ele>479.8</ele>
        <time>2013-04-18T11:16:59.640Z</time>
      </trkpt>
      <trkpt lat="45.77131" lon="4.64924">
        <ele>480.4</ele>
        <time>2013-04-18T11:17:00.730Z</time>
      </trkpt>
      <trkpt lat="45.77131" lon="4.64921">
        <ele>480.8</ele>
        <time>2013-04-18T11:17:01.730Z</time>
      </trkpt>
      <trkpt lat="45.77131" lon="4.64918">
        <ele>481</ele>
        <time>2013-04-18T11:17:02.730Z</time>
      </trkpt>
      <trkpt lat="45.77133" lon="4.6491">
        <ele>480.6</ele>
        <time>2013-04-18T11:17:04.630Z</time>
      </trkpt>
      <trkpt lat="45.77133" lon="4.64907">
        <ele>480.6</ele>
        <time>2013-04-18T11:17:05.630Z</time>
      </trkpt>
      <trkpt lat="45.77133" lon="4.64905">
        <ele>480.7</ele>
        <time>2013-04-18T11:17:06.630Z</time>
      </trkpt>
      <trkpt lat="45.77133" lon="4.64902">
        <ele>480.7</ele>
        <time>2013-04-18T11:17:07.630Z</time>
      </trkpt>
      <trkpt lat="45.77133" lon="4.64899">
        <ele>480.9</ele>
        <time>2013-04-18T11:17:08.630Z</time>
      </trkpt>
      <trkpt lat="45.77132" lon="4.64897">
        <ele>481.4</ele>
        <time>2013-04-18T11:17:09.630Z</time>
      </trkpt>
      <trkpt lat="45.7713" lon="4.64897">
        <ele>482</ele>
        <time>2013-04-18T11:17:10.630Z</time>
      </trkpt>
      <trkpt lat="45.77129" lon="4.64895">
        <ele>482.4</ele>
        <time>2013-04-18T11:17:11.610Z</time>
      </trkpt>
      <trkpt lat="45.77128" lon="4.64895">
        <ele>482.9</ele>
        <time>2013-04-18T11:17:12.630Z</time>
      </trkpt>
      <trkpt lat="45.77126" lon="4.64895">
        <ele>483.6</ele>
        <time>2013-04-18T11:17:14.630Z</time>
      </trkpt>
      <trkpt lat="45.77125" lon="4.64895">
        <ele>484</ele>
        <time>2013-04-18T11:17:16.580Z</time>
      </trkpt>
      <trkpt lat="45.77124" lon="4.64896">
        <ele>484.3</ele>
        <time>2013-04-18T11:17:19.730Z</time>
      </trkpt>
      <trkpt lat="45.77123" lon="4.64897">
        <ele>484.6</ele>
        <time>2013-04-18T11:17:20.730Z</time>
      </trkpt>
      <trkpt lat="45.77122" lon="4.64898">
        <ele>485</ele>
        <time>2013-04-18T11:17:21.730Z</time>
      </trkpt>
      <trkpt lat="45.77121" lon="4.64899">
        <ele>485.5</ele>
        <time>2013-04-18T11:17:22.730Z</time>
      </trkpt>
      <trkpt lat="45.77119" lon="4.64899">
        <ele>485.9</ele>
        <time>2013-04-18T11:17:23.730Z</time>
      </trkpt>
      <trkpt lat="45.77117" lon="4.64901">
        <ele>486.7</ele>
        <time>2013-04-18T11:17:25.620Z</time>
      </trkpt>
      <trkpt lat="45.77116" lon="4.64902">
        <ele>487</ele>
        <time>2013-04-18T11:17:26.620Z</time>
      </trkpt>
      <trkpt lat="45.77115" lon="4.64903">
        <ele>487.5</ele>
        <time>2013-04-18T11:17:27.620Z</time>
      </trkpt>
      <trkpt lat="45.77114" lon="4.64904">
        <ele>488</ele>
        <time>2013-04-18T11:17:28.620Z</time>
      </trkpt>
      <trkpt lat="45.77113" lon="4.64903">
        <ele>488.4</ele>
        <time>2013-04-18T11:17:29.620Z</time>
      </trkpt>
      <trkpt lat="45.77111" lon="4.64901">
        <ele>488.9</ele>
        <time>2013-04-18T11:17:31.720Z</time>
      </trkpt>
      <trkpt lat="45.77111" lon="4.649">
        <ele>489.2</ele>
        <time>2013-04-18T11:17:32.720Z</time>
      </trkpt>
      <trkpt lat="45.77108" lon="4.64896">
        <ele>490.2</ele>
        <time>2013-04-18T11:17:34.620Z</time>
      </trkpt>
      <trkpt lat="45.77107" lon="4.64894">
        <ele>490.7</ele>
        <time>2013-04-18T11:17:35.620Z</time>
      </trkpt>
      <trkpt lat="45.77106" lon="4.64893">
        <ele>491.2</ele>
        <time>2013-04-18T11:17:36.600Z</time>
      </trkpt>
      <trkpt lat="45.77104" lon="4.64892">
        <ele>491.9</ele>
        <time>2013-04-18T11:17:38.620Z</time>
      </trkpt>
      <trkpt lat="45.77104" lon="4.6489">
        <ele>492.2</ele>
        <time>2013-04-18T11:17:40.620Z</time>
      </trkpt>
      <trkpt lat="45.77103" lon="4.64889">
        <ele>492.5</ele>
        <time>2013-04-18T11:17:41.620Z</time>
      </trkpt>
      <trkpt lat="45.77103" lon="4.64887">
        <ele>492.6</ele>
        <time>2013-04-18T11:17:42.620Z</time>
      </trkpt>
      <trkpt lat="45.77102" lon="4.64886">
        <ele>493.2</ele>
        <time>2013-04-18T11:17:43.620Z</time>
      </trkpt>
      <trkpt lat="45.77101" lon="4.64885">
        <ele>493.6</ele>
        <time>2013-04-18T11:17:44.620Z</time>
      </trkpt>
      <trkpt lat="45.771" lon="4.64883">
        <ele>494.1</ele>
        <time>2013-04-18T11:17:45.620Z</time>
      </trkpt>
      <trkpt lat="45.77098" lon="4.64882">
        <ele>494.8</ele>
        <time>2013-04-18T11:17:46.620Z</time>
      </trkpt>
      <trkpt lat="45.77097" lon="4.64879">
        <ele>495.4</ele>
        <time>2013-04-18T11:17:47.620Z</time>
      </trkpt>
      <trkpt lat="45.77096" lon="4.64878">
        <ele>495.6</ele>
        <time>2013-04-18T11:17:48.600Z</time>
      </trkpt>
      <trkpt lat="45.77096" lon="4.64876">
        <ele>495.9</ele>
        <time>2013-04-18T11:17:49.620Z</time>
      </trkpt>
      <trkpt lat="45.77095" lon="4.64875">
        <ele>496.2</ele>
        <time>2013-04-18T11:17:50.670Z</time>
      </trkpt>
      <trkpt lat="45.77094" lon="4.64874">
        <ele>496.6</ele>
        <time>2013-04-18T11:17:51.720Z</time>
      </trkpt>
      <trkpt lat="45.77093" lon="4.64873">
        <ele>497.1</ele>
        <time>2013-04-18T11:17:52.720Z</time>
      </trkpt>
      <trkpt lat="45.77092" lon="4.64871">
        <ele>497.5</ele>
        <time>2013-04-18T11:17:53.720Z</time>
      </trkpt>
      <trkpt lat="45.77091" lon="4.6487">
        <ele>498</ele>
        <time>2013-04-18T11:17:54.720Z</time>
      </trkpt>
      <trkpt lat="45.7709" lon="4.6487">
        <ele>498.4</ele>
        <time>2013-04-18T11:17:55.720Z</time>
      </trkpt>
      <trkpt lat="45.77089" lon="4.6487">
        <ele>498.9</ele>
        <time>2013-04-18T11:17:56.720Z</time>
      </trkpt>
      <trkpt lat="45.77087" lon="4.64869">
        <ele>499.5</ele>
        <time>2013-04-18T11:17:57.720Z</time>
      </trkpt>
      <trkpt lat="45.77086" lon="4.6487">
        <ele>495.2</ele>
        <time>2013-04-18T11:17:58.710Z</time>
      </trkpt>
      <trkpt lat="45.77084" lon="4.6487">
        <ele>500.7</ele>
        <time>2013-04-18T11:18:00.720Z</time>
      </trkpt>
      <trkpt lat="45.77083" lon="4.64871">
        <ele>501.2</ele>
        <time>2013-04-18T11:18:01.710Z</time>
      </trkpt>
      <trkpt lat="45.77082" lon="4.64873">
        <ele>501.4</ele>
        <time>2013-04-18T11:18:02.720Z</time>
      </trkpt>
      <trkpt lat="45.77082" lon="4.64875">
        <ele>501.5</ele>
        <time>2013-04-18T11:18:03.720Z</time>
      </trkpt>
      <trkpt lat="45.7708" lon="4.64878">
        <ele>501.8</ele>
        <time>2013-04-18T11:18:04.720Z</time>
      </trkpt>
      <trkpt lat="45.77079" lon="4.6488">
        <ele>502.2</ele>
        <time>2013-04-18T11:18:05.710Z</time>
      </trkpt>
      <trkpt lat="45.77077" lon="4.64881">
        <ele>502.8</ele>
        <time>2013-04-18T11:18:06.710Z</time>
      </trkpt>
      <trkpt lat="45.77074" lon="4.64883">
        <ele>503.5</ele>
        <time>2013-04-18T11:18:08.610Z</time>
      </trkpt>
      <trkpt lat="45.77072" lon="4.64884">
        <ele>503.8</ele>
        <time>2013-04-18T11:18:09.610Z</time>
      </trkpt>
      <trkpt lat="45.77072" lon="4.64885">
        <ele>504</ele>
        <time>2013-04-18T11:18:10.600Z</time>
      </trkpt>
      <trkpt lat="45.77072" lon="4.64887">
        <ele>504</ele>
        <time>2013-04-18T11:18:12.610Z</time>
      </trkpt>
      <trkpt lat="45.77072" lon="4.64889">
        <ele>503.8</ele>
        <time>2013-04-18T11:18:14.610Z</time>
      </trkpt>
      <trkpt lat="45.77072" lon="4.64892">
        <ele>503.9</ele>
        <time>2013-04-18T11:18:15.610Z</time>
      </trkpt>
      <trkpt lat="45.77072" lon="4.64895">
        <ele>503.8</ele>
        <time>2013-04-18T11:18:16.660Z</time>
      </trkpt>
      <trkpt lat="45.77071" lon="4.64898">
        <ele>504</ele>
        <time>2013-04-18T11:18:17.710Z</time>
      </trkpt>
      <trkpt lat="45.7707" lon="4.649">
        <ele>504.1</ele>
        <time>2013-04-18T11:18:18.710Z</time>
      </trkpt>
      <trkpt lat="45.77069" lon="4.64902">
        <ele>504.3</ele>
        <time>2013-04-18T11:18:19.710Z</time>
      </trkpt>
      <trkpt lat="45.77069" lon="4.64905">
        <ele>504.4</ele>
        <time>2013-04-18T11:18:20.710Z</time>
      </trkpt>
      <trkpt lat="45.77068" lon="4.64909">
        <ele>504.4</ele>
        <time>2013-04-18T11:18:21.710Z</time>
      </trkpt>
      <trkpt lat="45.77067" lon="4.64916">
        <ele>504.5</ele>
        <time>2013-04-18T11:18:23.610Z</time>
      </trkpt>
      <trkpt lat="45.77067" lon="4.6492">
        <ele>504.4</ele>
        <time>2013-04-18T11:18:24.610Z</time>
      </trkpt>
      <trkpt lat="45.77066" lon="4.64923">
        <ele>504.3</ele>
        <time>2013-04-18T11:18:25.610Z</time>
      </trkpt>
      <trkpt lat="45.77064" lon="4.64926">
        <ele>504.4</ele>
        <time>2013-04-18T11:18:26.610Z</time>
      </trkpt>
      <trkpt lat="45.77063" lon="4.6493">
        <ele>504.4</ele>
        <time>2013-04-18T11:18:27.610Z</time>
      </trkpt>
      <trkpt lat="45.77062" lon="4.64934">
        <ele>504.4</ele>
        <time>2013-04-18T11:18:28.610Z</time>
      </trkpt>
      <trkpt lat="45.7706" lon="4.64938">
        <ele>504.6</ele>
        <time>2013-04-18T11:18:29.610Z</time>
      </trkpt>
      <trkpt lat="45.77058" lon="4.64942">
        <ele>504.7</ele>
        <time>2013-04-18T11:18:30.610Z</time>
      </trkpt>
      <trkpt lat="45.77056" lon="4.64946">
        <ele>504.9</ele>
        <time>2013-04-18T11:18:31.610Z</time>
      </trkpt>
      <trkpt lat="45.77053" lon="4.6495">
        <ele>504.7</ele>
        <time>2013-04-18T11:18:32.610Z</time>
      </trkpt>
      <trkpt lat="45.77051" lon="4.64954">
        <ele>504.5</ele>
        <time>2013-04-18T11:18:33.660Z</time>
      </trkpt>
      <trkpt lat="45.77048" lon="4.64957">
        <ele>504.6</ele>
        <time>2013-04-18T11:18:34.690Z</time>
      </trkpt>
      <trkpt lat="45.77046" lon="4.64961">
        <ele>504.5</ele>
        <time>2013-04-18T11:18:35.710Z</time>
      </trkpt>
      <trkpt lat="45.77044" lon="4.64964">
        <ele>504.4</ele>
        <time>2013-04-18T11:18:36.710Z</time>
      </trkpt>
      <trkpt lat="45.77043" lon="4.64966">
        <ele>504.5</ele>
        <time>2013-04-18T11:18:37.710Z</time>
      </trkpt>
      <trkpt lat="45.77041" lon="4.64968">
        <ele>504.5</ele>
        <time>2013-04-18T11:18:38.710Z</time>
      </trkpt>
      <trkpt lat="45.77038" lon="4.64971">
        <ele>504.6</ele>
        <time>2013-04-18T11:18:39.710Z</time>
      </trkpt>
      <trkpt lat="45.77036" lon="4.64975">
        <ele>504.5</ele>
        <time>2013-04-18T11:18:40.710Z</time>
      </trkpt>
      <trkpt lat="45.77034" lon="4.64979">
        <ele>504.3</ele>
        <time>2013-04-18T11:18:41.710Z</time>
      </trkpt>
      <trkpt lat="45.77032" lon="4.64983">
        <ele>504.2</ele>
        <time>2013-04-18T11:18:42.710Z</time>
      </trkpt>
      <trkpt lat="45.77029" lon="4.64986">
        <ele>504.3</ele>
        <time>2013-04-18T11:18:43.710Z</time>
      </trkpt>
      <trkpt lat="45.77026" lon="4.6499">
        <ele>504.1</ele>
        <time>2013-04-18T11:18:44.710Z</time>
      </trkpt>
      <trkpt lat="45.77022" lon="4.64993">
        <ele>504</ele>
        <time>2013-04-18T11:18:45.690Z</time>
      </trkpt>
      <trkpt lat="45.77017" lon="4.64995">
        <ele>503.9</ele>
        <time>2013-04-18T11:18:47.600Z</time>
      </trkpt>
      <trkpt lat="45.77014" lon="4.64996">
        <ele>503.9</ele>
        <time>2013-04-18T11:18:48.600Z</time>
      </trkpt>
      <trkpt lat="45.77011" lon="4.64998">
        <ele>503.8</ele>
        <time>2013-04-18T11:18:49.600Z</time>
      </trkpt>
      <trkpt lat="45.77008" lon="4.64999">
        <ele>503.8</ele>
        <time>2013-04-18T11:18:50.660Z</time>
      </trkpt>
      <trkpt lat="45.77005" lon="4.65">
        <ele>503.8</ele>
        <time>2013-04-18T11:18:51.700Z</time>
      </trkpt>
      <trkpt lat="45.76999" lon="4.65002">
        <ele>503.8</ele>
        <time>2013-04-18T11:18:53.600Z</time>
      </trkpt>
      <trkpt lat="45.76996" lon="4.65004">
        <ele>503.4</ele>
        <time>2013-04-18T11:18:54.600Z</time>
      </trkpt>
      <trkpt lat="45.76993" lon="4.65005">
        <ele>503.1</ele>
        <time>2013-04-18T11:18:55.600Z</time>
      </trkpt>
      <trkpt lat="45.7699" lon="4.65006">
        <ele>502.9</ele>
        <time>2013-04-18T11:18:56.600Z</time>
      </trkpt>
      <trkpt lat="45.76987" lon="4.65007">
        <ele>502.7</ele>
        <time>2013-04-18T11:18:57.580Z</time>
      </trkpt>
      <trkpt lat="45.76984" lon="4.65008">
        <ele>507.1</ele>
        <time>2013-04-18T11:18:58.700Z</time>
      </trkpt>
      <trkpt lat="45.7698" lon="4.65009">
        <ele>502.1</ele>
        <time>2013-04-18T11:18:59.750Z</time>
      </trkpt>
      <trkpt lat="45.76973" lon="4.65009">
        <ele>501.7</ele>
        <time>2013-04-18T11:19:01.600Z</time>
      </trkpt>
      <trkpt lat="45.76969" lon="4.65008">
        <ele>501.3</ele>
        <time>2013-04-18T11:19:02.700Z</time>
      </trkpt>
      <trkpt lat="45.76965" lon="4.65007">
        <ele>500.7</ele>
        <time>2013-04-18T11:19:03.700Z</time>
      </trkpt>
      <trkpt lat="45.76961" lon="4.65004">
        <ele>500.4</ele>
        <time>2013-04-18T11:19:04.800Z</time>
      </trkpt>
      <trkpt lat="45.76954" lon="4.65">
        <ele>499.7</ele>
        <time>2013-04-18T11:19:06.700Z</time>
      </trkpt>
      <trkpt lat="45.76951" lon="4.64996">
        <ele>499.6</ele>
        <time>2013-04-18T11:19:07.700Z</time>
      </trkpt>
      <trkpt lat="45.76948" lon="4.64993">
        <ele>499.5</ele>
        <time>2013-04-18T11:19:08.680Z</time>
      </trkpt>
      <trkpt lat="45.76943" lon="4.64989">
        <ele>499</ele>
        <time>2013-04-18T11:19:10.800Z</time>
      </trkpt>
      <trkpt lat="45.76937" lon="4.64987">
        <ele>497.3</ele>
        <time>2013-04-18T11:19:12.600Z</time>
      </trkpt>
      <trkpt lat="45.76934" lon="4.64986">
        <ele>496.3</ele>
        <time>2013-04-18T11:19:13.700Z</time>
      </trkpt>
      <trkpt lat="45.76931" lon="4.64985">
        <ele>495.3</ele>
        <time>2013-04-18T11:19:14.700Z</time>
      </trkpt>
      <trkpt lat="45.76928" lon="4.64983">
        <ele>494.7</ele>
        <time>2013-04-18T11:19:15.700Z</time>
      </trkpt>
      <trkpt lat="45.76922" lon="4.64979">
        <ele>493.5</ele>
        <time>2013-04-18T11:19:17.700Z</time>
      </trkpt>
      <trkpt lat="45.76919" lon="4.64977">
        <ele>492.9</ele>
        <time>2013-04-18T11:19:18.700Z</time>
      </trkpt>
      <trkpt lat="45.76916" lon="4.64975">
        <ele>492.4</ele>
        <time>2013-04-18T11:19:19.700Z</time>
      </trkpt>
      <trkpt lat="45.76913" lon="4.64974">
        <ele>492.1</ele>
        <time>2013-04-18T11:19:20.700Z</time>
      </trkpt>
      <trkpt lat="45.76906" lon="4.64974">
        <ele>491.1</ele>
        <time>2013-04-18T11:19:22.600Z</time>
      </trkpt>
      <trkpt lat="45.76902" lon="4.64975">
        <ele>490.4</ele>
        <time>2013-04-18T11:19:23.600Z</time>
      </trkpt>
      <trkpt lat="45.76898" lon="4.64975">
        <ele>489.7</ele>
        <time>2013-04-18T11:19:24.700Z</time>
      </trkpt>
      <trkpt lat="45.76895" lon="4.64977">
        <ele>488.9</ele>
        <time>2013-04-18T11:19:25.700Z</time>
      </trkpt>
      <trkpt lat="45.76891" lon="4.64978">
        <ele>488</ele>
        <time>2013-04-18T11:19:26.690Z</time>
      </trkpt>
      <trkpt lat="45.76887" lon="4.64981">
        <ele>487.3</ele>
        <time>2013-04-18T11:19:27.700Z</time>
      </trkpt>
      <trkpt lat="45.7688" lon="4.64984">
        <ele>486.7</ele>
        <time>2013-04-18T11:19:29.590Z</time>
      </trkpt>
      <trkpt lat="45.76877" lon="4.64988">
        <ele>486</ele>
        <time>2013-04-18T11:19:30.790Z</time>
      </trkpt>
      <trkpt lat="45.76871" lon="4.64995">
        <ele>484.7</ele>
        <time>2013-04-18T11:19:32.690Z</time>
      </trkpt>
      <trkpt lat="45.76868" lon="4.64999">
        <ele>484.1</ele>
        <time>2013-04-18T11:19:33.750Z</time>
      </trkpt>
      <trkpt lat="45.76864" lon="4.65005">
        <ele>483.1</ele>
        <time>2013-04-18T11:19:35.790Z</time>
      </trkpt>
      <trkpt lat="45.76857" lon="4.65013">
        <ele>482.5</ele>
        <time>2013-04-18T11:19:37.590Z</time>
      </trkpt>
      <trkpt lat="45.76854" lon="4.65017">
        <ele>482.2</ele>
        <time>2013-04-18T11:19:38.600Z</time>
      </trkpt>
      <trkpt lat="45.76851" lon="4.65019">
        <ele>482</ele>
        <time>2013-04-18T11:19:39.690Z</time>
      </trkpt>
      <trkpt lat="45.76846" lon="4.65026">
        <ele>481.4</ele>
        <time>2013-04-18T11:19:41.590Z</time>
      </trkpt>
      <trkpt lat="45.76843" lon="4.65029">
        <ele>481.1</ele>
        <time>2013-04-18T11:19:42.590Z</time>
      </trkpt>
      <trkpt lat="45.7684" lon="4.65032">
        <ele>480.8</ele>
        <time>2013-04-18T11:19:43.590Z</time>
      </trkpt>
      <trkpt lat="45.76837" lon="4.65035">
        <ele>480.4</ele>
        <time>2013-04-18T11:19:44.690Z</time>
      </trkpt>
      <trkpt lat="45.76834" lon="4.65038">
        <ele>480.1</ele>
        <time>2013-04-18T11:19:45.690Z</time>
      </trkpt>
      <trkpt lat="45.76831" lon="4.65041">
        <ele>479.7</ele>
        <time>2013-04-18T11:19:46.680Z</time>
      </trkpt>
      <trkpt lat="45.76826" lon="4.65046">
        <ele>479.2</ele>
        <time>2013-04-18T11:19:48.590Z</time>
      </trkpt>
      <trkpt lat="45.76822" lon="4.65048">
        <ele>478.9</ele>
        <time>2013-04-18T11:19:49.590Z</time>
      </trkpt>
      <trkpt lat="45.7682" lon="4.6505">
        <ele>478.6</ele>
        <time>2013-04-18T11:19:50.660Z</time>
      </trkpt>
      <trkpt lat="45.76814" lon="4.65054">
        <ele>477.9</ele>
        <time>2013-04-18T11:19:52.590Z</time>
      </trkpt>
      <trkpt lat="45.76812" lon="4.65057">
        <ele>477.6</ele>
        <time>2013-04-18T11:19:53.790Z</time>
      </trkpt>
      <trkpt lat="45.76806" lon="4.65061">
        <ele>477.3</ele>
        <time>2013-04-18T11:19:55.790Z</time>
      </trkpt>
      <trkpt lat="45.768" lon="4.65063">
        <ele>476.8</ele>
        <time>2013-04-18T11:19:57.590Z</time>
      </trkpt>
      <trkpt lat="45.76796" lon="4.65063">
        <ele>498.9</ele>
        <time>2013-04-18T11:19:58.590Z</time>
      </trkpt>
      <trkpt lat="45.76788" lon="4.65062">
        <ele>476.1</ele>
        <time>2013-04-18T11:20:00.590Z</time>
      </trkpt>
      <trkpt lat="45.76784" lon="4.6506">
        <ele>476.2</ele>
        <time>2013-04-18T11:20:01.790Z</time>
      </trkpt>
      <trkpt lat="45.76777" lon="4.65057">
        <ele>476.5</ele>
        <time>2013-04-18T11:20:03.690Z</time>
      </trkpt>
      <trkpt lat="45.7677" lon="4.65056">
        <ele>476.3</ele>
        <time>2013-04-18T11:20:05.590Z</time>
      </trkpt>
      <trkpt lat="45.76766" lon="4.65056">
        <ele>476.1</ele>
        <time>2013-04-18T11:20:06.790Z</time>
      </trkpt>
      <trkpt lat="45.7676" lon="4.65055">
        <ele>475.9</ele>
        <time>2013-04-18T11:20:08.680Z</time>
      </trkpt>
      <trkpt lat="45.76758" lon="4.65055">
        <ele>475.7</ele>
        <time>2013-04-18T11:20:09.680Z</time>
      </trkpt>
      <trkpt lat="45.76753" lon="4.65055">
        <ele>475.4</ele>
        <time>2013-04-18T11:20:11.680Z</time>
      </trkpt>
      <trkpt lat="45.7675" lon="4.65054">
        <ele>475.2</ele>
        <time>2013-04-18T11:20:12.680Z</time>
      </trkpt>
      <trkpt lat="45.76747" lon="4.65054">
        <ele>475.2</ele>
        <time>2013-04-18T11:20:13.680Z</time>
      </trkpt>
      <trkpt lat="45.76743" lon="4.65054">
        <ele>475</ele>
        <time>2013-04-18T11:20:14.680Z</time>
      </trkpt>
      <trkpt lat="45.76737" lon="4.65052">
        <ele>475</ele>
        <time>2013-04-18T11:20:16.640Z</time>
      </trkpt>
      <trkpt lat="45.76733" lon="4.65051">
        <ele>475</ele>
        <time>2013-04-18T11:20:17.680Z</time>
      </trkpt>
      <trkpt lat="45.7673" lon="4.65049">
        <ele>475</ele>
        <time>2013-04-18T11:20:18.680Z</time>
      </trkpt>
      <trkpt lat="45.76724" lon="4.65049">
        <ele>474.6</ele>
        <time>2013-04-18T11:20:20.580Z</time>
      </trkpt>
      <trkpt lat="45.76722" lon="4.65051">
        <ele>474.6</ele>
        <time>2013-04-18T11:20:21.780Z</time>
      </trkpt>
      <trkpt lat="45.76719" lon="4.65057">
        <ele>475.2</ele>
        <time>2013-04-18T11:20:23.680Z</time>
      </trkpt>
      <trkpt lat="45.76718" lon="4.65061">
        <ele>475.7</ele>
        <time>2013-04-18T11:20:24.680Z</time>
      </trkpt>
      <trkpt lat="45.76719" lon="4.65064">
        <ele>476</ele>
        <time>2013-04-18T11:20:25.680Z</time>
      </trkpt>
      <trkpt lat="45.76719" lon="4.65071">
        <ele>476.7</ele>
        <time>2013-04-18T11:20:27.780Z</time>
      </trkpt>
      <trkpt lat="45.76719" lon="4.65077">
        <ele>477.2</ele>
        <time>2013-04-18T11:20:29.580Z</time>
      </trkpt>
      <trkpt lat="45.76719" lon="4.65079">
        <ele>477.5</ele>
        <time>2013-04-18T11:20:30.580Z</time>
      </trkpt>
      <trkpt lat="45.76718" lon="4.65082">
        <ele>477.9</ele>
        <time>2013-04-18T11:20:31.680Z</time>
      </trkpt>
      <trkpt lat="45.76717" lon="4.65085">
        <ele>478.4</ele>
        <time>2013-04-18T11:20:32.680Z</time>
      </trkpt>
      <trkpt lat="45.76716" lon="4.65088">
        <ele>478.9</ele>
        <time>2013-04-18T11:20:33.630Z</time>
      </trkpt>
      <trkpt lat="45.76714" lon="4.65091">
        <ele>479.4</ele>
        <time>2013-04-18T11:20:34.680Z</time>
      </trkpt>
      <trkpt lat="45.76712" lon="4.65094">
        <ele>480</ele>
        <time>2013-04-18T11:20:35.660Z</time>
      </trkpt>
      <trkpt lat="45.76711" lon="4.65096">
        <ele>480.3</ele>
        <time>2013-04-18T11:20:36.680Z</time>
      </trkpt>
      <trkpt lat="45.76709" lon="4.65099">
        <ele>480.7</ele>
        <time>2013-04-18T11:20:37.780Z</time>
      </trkpt>
      <trkpt lat="45.76706" lon="4.65105">
        <ele>481.1</ele>
        <time>2013-04-18T11:20:39.580Z</time>
      </trkpt>
      <trkpt lat="45.76705" lon="4.65108">
        <ele>481.2</ele>
        <time>2013-04-18T11:20:40.780Z</time>
      </trkpt>
      <trkpt lat="45.76703" lon="4.65115">
        <ele>481.4</ele>
        <time>2013-04-18T11:20:42.680Z</time>
      </trkpt>
      <trkpt lat="45.76701" lon="4.65118">
        <ele>481.5</ele>
        <time>2013-04-18T11:20:43.680Z</time>
      </trkpt>
      <trkpt lat="45.76699" lon="4.65121">
        <ele>481.5</ele>
        <time>2013-04-18T11:20:44.680Z</time>
      </trkpt>
      <trkpt lat="45.76697" lon="4.65122">
        <ele>481.5</ele>
        <time>2013-04-18T11:20:45.780Z</time>
      </trkpt>
      <trkpt lat="45.76695" lon="4.65124">
        <ele>481.5</ele>
        <time>2013-04-18T11:20:46.780Z</time>
      </trkpt>
      <trkpt lat="45.76693" lon="4.65125">
        <ele>481.5</ele>
        <time>2013-04-18T11:20:47.760Z</time>
      </trkpt>
      <trkpt lat="45.76691" lon="4.65128">
        <ele>481.3</ele>
        <time>2013-04-18T11:20:49.770Z</time>
      </trkpt>
      <trkpt lat="45.7669" lon="4.65129">
        <ele>481.2</ele>
        <time>2013-04-18T11:20:50.730Z</time>
      </trkpt>
      <trkpt lat="45.76689" lon="4.65131">
        <ele>481.2</ele>
        <time>2013-04-18T11:20:51.770Z</time>
      </trkpt>
      <trkpt lat="45.76688" lon="4.65131">
        <ele>481.1</ele>
        <time>2013-04-18T11:20:52.770Z</time>
      </trkpt>
      <trkpt lat="45.76687" lon="4.65132">
        <ele>481.1</ele>
        <time>2013-04-18T11:20:53.840Z</time>
      </trkpt>
      <trkpt lat="45.76686" lon="4.65132">
        <ele>481</ele>
        <time>2013-04-18T11:20:55.670Z</time>
      </trkpt>
      <trkpt lat="45.76685" lon="4.65132">
        <ele>481</ele>
        <time>2013-04-18T11:20:56.670Z</time>
      </trkpt>
    </trkseg>
  </trk>
</gpx>